<?xml version="1.0" encoding="UTF-8" standalone="no" ?>
<gpx xmlns="http://www.topografix.com/GPX/1/1" xmlns:xsi="http://www.w3.org/2001/XMLSchema-instance" xsi:schemaLocation="http://www.topografix.com/GPX/1/1 http://www.topografix.com/GPX/1/1/gpx.xsd" version="1.1" creator="VisuGPX - https://www.visugpx.com">
  <metadata>
    <name>38 - Voironnais : 2021-06-19</name>
    <desc><![CDATA[Court passage non revêtu. 
Pourcentages importants en début de parcours. ]]></desc>
  </metadata>
  <trk>
    <name><![CDATA[38 - Voironnais : 2021-06-19_1]]></name>
    <trkseg>
      <trkpt lat="45.37742" lon="5.64564">
        <ele>524.2</ele>
        <time>2021-03-13T07:31:51Z</time>
      </trkpt>
      <trkpt lat="45.37742" lon="5.64564">
        <ele>524</ele>
        <time>2021-03-13T07:31:55Z</time>
      </trkpt>
      <trkpt lat="45.37742" lon="5.64564">
        <ele>524.4</ele>
        <time>2021-03-13T07:31:59Z</time>
      </trkpt>
      <trkpt lat="45.37741" lon="5.6456">
        <ele>524.2</ele>
        <time>2021-03-13T07:32:03Z</time>
      </trkpt>
      <trkpt lat="45.37737" lon="5.64551">
        <ele>524.6</ele>
        <time>2021-03-13T07:32:07Z</time>
      </trkpt>
      <trkpt lat="45.3773" lon="5.64543">
        <ele>525</ele>
        <time>2021-03-13T07:32:11Z</time>
      </trkpt>
      <trkpt lat="45.37721" lon="5.64533">
        <ele>524.4</ele>
        <time>2021-03-13T07:32:15Z</time>
      </trkpt>
      <trkpt lat="45.37711" lon="5.64518">
        <ele>524.8</ele>
        <time>2021-03-13T07:32:19Z</time>
      </trkpt>
      <trkpt lat="45.37703" lon="5.64507">
        <ele>524.6</ele>
        <time>2021-03-13T07:32:23Z</time>
      </trkpt>
      <trkpt lat="45.37695" lon="5.64498">
        <ele>524.4</ele>
        <time>2021-03-13T07:32:27Z</time>
      </trkpt>
      <trkpt lat="45.3769" lon="5.64486">
        <ele>524.2</ele>
        <time>2021-03-13T07:32:31Z</time>
      </trkpt>
      <trkpt lat="45.37697" lon="5.64477">
        <ele>523.8</ele>
        <time>2021-03-13T07:32:35Z</time>
      </trkpt>
      <trkpt lat="45.37708" lon="5.64473">
        <ele>524</ele>
        <time>2021-03-13T07:32:39Z</time>
      </trkpt>
      <trkpt lat="45.37719" lon="5.6447">
        <ele>523.8</ele>
        <time>2021-03-13T07:32:43Z</time>
      </trkpt>
      <trkpt lat="45.3773" lon="5.64465">
        <ele>523.6</ele>
        <time>2021-03-13T07:32:47Z</time>
      </trkpt>
      <trkpt lat="45.3774" lon="5.64457">
        <ele>523.6</ele>
        <time>2021-03-13T07:32:51Z</time>
      </trkpt>
      <trkpt lat="45.3775" lon="5.64444">
        <ele>523.8</ele>
        <time>2021-03-13T07:32:55Z</time>
      </trkpt>
      <trkpt lat="45.37757" lon="5.64429">
        <ele>523.4</ele>
        <time>2021-03-13T07:32:59Z</time>
      </trkpt>
      <trkpt lat="45.37764" lon="5.64422">
        <ele>523.4</ele>
        <time>2021-03-13T07:33:03Z</time>
      </trkpt>
      <trkpt lat="45.37764" lon="5.64421">
        <ele>523.6</ele>
        <time>2021-03-13T07:33:32Z</time>
      </trkpt>
      <trkpt lat="45.37775" lon="5.64432">
        <ele>523.8</ele>
        <time>2021-03-13T07:33:36Z</time>
      </trkpt>
      <trkpt lat="45.37786" lon="5.64444">
        <ele>523.4</ele>
        <time>2021-03-13T07:33:40Z</time>
      </trkpt>
      <trkpt lat="45.37798" lon="5.64454">
        <ele>523.6</ele>
        <time>2021-03-13T07:33:44Z</time>
      </trkpt>
      <trkpt lat="45.37812" lon="5.64462">
        <ele>526.4</ele>
        <time>2021-03-13T07:33:48Z</time>
      </trkpt>
      <trkpt lat="45.37826" lon="5.64465">
        <ele>523.6</ele>
        <time>2021-03-13T07:33:52Z</time>
      </trkpt>
      <trkpt lat="45.3784" lon="5.64465">
        <ele>524</ele>
        <time>2021-03-13T07:33:56Z</time>
      </trkpt>
      <trkpt lat="45.37852" lon="5.64459">
        <ele>523</ele>
        <time>2021-03-13T07:34:00Z</time>
      </trkpt>
      <trkpt lat="45.37863" lon="5.64451">
        <ele>523.6</ele>
        <time>2021-03-13T07:34:23Z</time>
      </trkpt>
      <trkpt lat="45.3787" lon="5.64453">
        <ele>524.4</ele>
        <time>2021-03-13T07:34:27Z</time>
      </trkpt>
      <trkpt lat="45.37881" lon="5.64445">
        <ele>524</ele>
        <time>2021-03-13T07:34:31Z</time>
      </trkpt>
      <trkpt lat="45.37894" lon="5.64429">
        <ele>524.6</ele>
        <time>2021-03-13T07:34:35Z</time>
      </trkpt>
      <trkpt lat="45.37895" lon="5.64404">
        <ele>525</ele>
        <time>2021-03-13T07:34:39Z</time>
      </trkpt>
      <trkpt lat="45.37892" lon="5.64376">
        <ele>524</ele>
        <time>2021-03-13T07:34:43Z</time>
      </trkpt>
      <trkpt lat="45.37897" lon="5.64348">
        <ele>523</ele>
        <time>2021-03-13T07:34:47Z</time>
      </trkpt>
      <trkpt lat="45.37903" lon="5.6432">
        <ele>522.8</ele>
        <time>2021-03-13T07:34:51Z</time>
      </trkpt>
      <trkpt lat="45.37915" lon="5.64292">
        <ele>522.4</ele>
        <time>2021-03-13T07:34:55Z</time>
      </trkpt>
      <trkpt lat="45.37932" lon="5.64269">
        <ele>522.4</ele>
        <time>2021-03-13T07:34:59Z</time>
      </trkpt>
      <trkpt lat="45.37952" lon="5.64249">
        <ele>522.2</ele>
        <time>2021-03-13T07:35:03Z</time>
      </trkpt>
      <trkpt lat="45.37971" lon="5.64229">
        <ele>521.8</ele>
        <time>2021-03-13T07:35:07Z</time>
      </trkpt>
      <trkpt lat="45.37992" lon="5.64213">
        <ele>521.6</ele>
        <time>2021-03-13T07:35:11Z</time>
      </trkpt>
      <trkpt lat="45.38012" lon="5.64195">
        <ele>521.4</ele>
        <time>2021-03-13T07:35:15Z</time>
      </trkpt>
      <trkpt lat="45.38012" lon="5.64172">
        <ele>521.2</ele>
        <time>2021-03-13T07:35:19Z</time>
      </trkpt>
      <trkpt lat="45.37993" lon="5.64164">
        <ele>521.2</ele>
        <time>2021-03-13T07:35:23Z</time>
      </trkpt>
      <trkpt lat="45.37975" lon="5.64158">
        <ele>521.4</ele>
        <time>2021-03-13T07:35:27Z</time>
      </trkpt>
      <trkpt lat="45.3796" lon="5.64148">
        <ele>521.6</ele>
        <time>2021-03-13T07:35:31Z</time>
      </trkpt>
      <trkpt lat="45.37948" lon="5.64139">
        <ele>521</ele>
        <time>2021-03-13T07:35:35Z</time>
      </trkpt>
      <trkpt lat="45.37937" lon="5.6413">
        <ele>521</ele>
        <time>2021-03-13T07:35:39Z</time>
      </trkpt>
      <trkpt lat="45.37928" lon="5.64124">
        <ele>521.4</ele>
        <time>2021-03-13T07:35:43Z</time>
      </trkpt>
      <trkpt lat="45.3792" lon="5.64117">
        <ele>521.2</ele>
        <time>2021-03-13T07:35:47Z</time>
      </trkpt>
      <trkpt lat="45.3791" lon="5.64109">
        <ele>521</ele>
        <time>2021-03-13T07:35:51Z</time>
      </trkpt>
      <trkpt lat="45.37904" lon="5.64091">
        <ele>521</ele>
        <time>2021-03-13T07:35:55Z</time>
      </trkpt>
      <trkpt lat="45.37905" lon="5.64066">
        <ele>520</ele>
        <time>2021-03-13T07:35:59Z</time>
      </trkpt>
      <trkpt lat="45.37909" lon="5.6404">
        <ele>520.2</ele>
        <time>2021-03-13T07:36:03Z</time>
      </trkpt>
      <trkpt lat="45.37912" lon="5.64014">
        <ele>520</ele>
        <time>2021-03-13T07:36:07Z</time>
      </trkpt>
      <trkpt lat="45.37917" lon="5.63988">
        <ele>519.8</ele>
        <time>2021-03-13T07:36:11Z</time>
      </trkpt>
      <trkpt lat="45.37921" lon="5.63961">
        <ele>519.2</ele>
        <time>2021-03-13T07:36:15Z</time>
      </trkpt>
      <trkpt lat="45.37926" lon="5.63939">
        <ele>518.6</ele>
        <time>2021-03-13T07:36:19Z</time>
      </trkpt>
      <trkpt lat="45.37931" lon="5.63915">
        <ele>518</ele>
        <time>2021-03-13T07:36:23Z</time>
      </trkpt>
      <trkpt lat="45.37936" lon="5.63887">
        <ele>518</ele>
        <time>2021-03-13T07:36:27Z</time>
      </trkpt>
      <trkpt lat="45.37943" lon="5.6386">
        <ele>518.2</ele>
        <time>2021-03-13T07:36:31Z</time>
      </trkpt>
      <trkpt lat="45.37947" lon="5.63832">
        <ele>518</ele>
        <time>2021-03-13T07:36:35Z</time>
      </trkpt>
      <trkpt lat="45.37954" lon="5.63805">
        <ele>517.8</ele>
        <time>2021-03-13T07:36:39Z</time>
      </trkpt>
      <trkpt lat="45.3796" lon="5.63778">
        <ele>517.4</ele>
        <time>2021-03-13T07:36:43Z</time>
      </trkpt>
      <trkpt lat="45.37966" lon="5.63749">
        <ele>517.4</ele>
        <time>2021-03-13T07:36:47Z</time>
      </trkpt>
      <trkpt lat="45.37972" lon="5.63722">
        <ele>517</ele>
        <time>2021-03-13T07:36:51Z</time>
      </trkpt>
      <trkpt lat="45.37979" lon="5.63695">
        <ele>516.2</ele>
        <time>2021-03-13T07:36:55Z</time>
      </trkpt>
      <trkpt lat="45.37987" lon="5.63668">
        <ele>516.2</ele>
        <time>2021-03-13T07:36:59Z</time>
      </trkpt>
      <trkpt lat="45.37995" lon="5.6364">
        <ele>515.6</ele>
        <time>2021-03-13T07:37:03Z</time>
      </trkpt>
      <trkpt lat="45.38006" lon="5.63613">
        <ele>515.4</ele>
        <time>2021-03-13T07:37:07Z</time>
      </trkpt>
      <trkpt lat="45.38015" lon="5.63591">
        <ele>514.8</ele>
        <time>2021-03-13T07:37:11Z</time>
      </trkpt>
      <trkpt lat="45.38026" lon="5.63565">
        <ele>515.2</ele>
        <time>2021-03-13T07:37:55Z</time>
      </trkpt>
      <trkpt lat="45.38033" lon="5.63544">
        <ele>515.4</ele>
        <time>2021-03-13T07:37:59Z</time>
      </trkpt>
      <trkpt lat="45.38041" lon="5.63522">
        <ele>515</ele>
        <time>2021-03-13T07:38:03Z</time>
      </trkpt>
      <trkpt lat="45.38049" lon="5.63501">
        <ele>514.8</ele>
        <time>2021-03-13T07:38:07Z</time>
      </trkpt>
      <trkpt lat="45.38056" lon="5.63479">
        <ele>514.6</ele>
        <time>2021-03-13T07:38:11Z</time>
      </trkpt>
      <trkpt lat="45.38062" lon="5.63455">
        <ele>514.4</ele>
        <time>2021-03-13T07:38:15Z</time>
      </trkpt>
      <trkpt lat="45.38067" lon="5.63427">
        <ele>513.6</ele>
        <time>2021-03-13T07:38:19Z</time>
      </trkpt>
      <trkpt lat="45.38068" lon="5.63394">
        <ele>512.4</ele>
        <time>2021-03-13T07:38:23Z</time>
      </trkpt>
      <trkpt lat="45.38059" lon="5.63352">
        <ele>509.6</ele>
        <time>2021-03-13T07:38:27Z</time>
      </trkpt>
      <trkpt lat="45.38043" lon="5.63311">
        <ele>506</ele>
        <time>2021-03-13T07:38:31Z</time>
      </trkpt>
      <trkpt lat="45.38026" lon="5.63272">
        <ele>501.6</ele>
        <time>2021-03-13T07:38:35Z</time>
      </trkpt>
      <trkpt lat="45.38008" lon="5.63232">
        <ele>500</ele>
        <time>2021-03-13T07:38:39Z</time>
      </trkpt>
      <trkpt lat="45.38002" lon="5.63191">
        <ele>495.6</ele>
        <time>2021-03-13T07:38:43Z</time>
      </trkpt>
      <trkpt lat="45.38009" lon="5.63138">
        <ele>492.2</ele>
        <time>2021-03-13T07:38:47Z</time>
      </trkpt>
      <trkpt lat="45.38015" lon="5.63088">
        <ele>492</ele>
        <time>2021-03-13T07:38:51Z</time>
      </trkpt>
      <trkpt lat="45.38017" lon="5.63044">
        <ele>490.6</ele>
        <time>2021-03-13T07:38:55Z</time>
      </trkpt>
      <trkpt lat="45.38027" lon="5.63009">
        <ele>491.6</ele>
        <time>2021-03-13T07:38:59Z</time>
      </trkpt>
      <trkpt lat="45.38036" lon="5.62984">
        <ele>492.2</ele>
        <time>2021-03-13T07:39:03Z</time>
      </trkpt>
      <trkpt lat="45.38042" lon="5.62968">
        <ele>493.2</ele>
        <time>2021-03-13T07:39:07Z</time>
      </trkpt>
      <trkpt lat="45.38047" lon="5.62954">
        <ele>494.2</ele>
        <time>2021-03-13T07:39:11Z</time>
      </trkpt>
      <trkpt lat="45.38051" lon="5.6294">
        <ele>495.8</ele>
        <time>2021-03-13T07:39:15Z</time>
      </trkpt>
      <trkpt lat="45.38054" lon="5.62925">
        <ele>496.4</ele>
        <time>2021-03-13T07:39:19Z</time>
      </trkpt>
      <trkpt lat="45.38056" lon="5.6291">
        <ele>497.2</ele>
        <time>2021-03-13T07:39:23Z</time>
      </trkpt>
      <trkpt lat="45.38057" lon="5.62895">
        <ele>497.4</ele>
        <time>2021-03-13T07:39:27Z</time>
      </trkpt>
      <trkpt lat="45.38059" lon="5.6288">
        <ele>498</ele>
        <time>2021-03-13T07:39:31Z</time>
      </trkpt>
      <trkpt lat="45.38059" lon="5.62864">
        <ele>499</ele>
        <time>2021-03-13T07:39:35Z</time>
      </trkpt>
      <trkpt lat="45.38058" lon="5.62848">
        <ele>499.4</ele>
        <time>2021-03-13T07:39:39Z</time>
      </trkpt>
      <trkpt lat="45.38057" lon="5.62832">
        <ele>499.6</ele>
        <time>2021-03-13T07:39:43Z</time>
      </trkpt>
      <trkpt lat="45.38056" lon="5.62817">
        <ele>500.8</ele>
        <time>2021-03-13T07:39:47Z</time>
      </trkpt>
      <trkpt lat="45.38055" lon="5.62802">
        <ele>501.4</ele>
        <time>2021-03-13T07:39:51Z</time>
      </trkpt>
      <trkpt lat="45.38054" lon="5.62788">
        <ele>501.4</ele>
        <time>2021-03-13T07:39:55Z</time>
      </trkpt>
      <trkpt lat="45.3805" lon="5.62775">
        <ele>502.4</ele>
        <time>2021-03-13T07:39:59Z</time>
      </trkpt>
      <trkpt lat="45.38042" lon="5.62776">
        <ele>502.8</ele>
        <time>2021-03-13T07:40:03Z</time>
      </trkpt>
      <trkpt lat="45.38034" lon="5.6278">
        <ele>503.2</ele>
        <time>2021-03-13T07:40:07Z</time>
      </trkpt>
      <trkpt lat="45.38028" lon="5.62783">
        <ele>504</ele>
        <time>2021-03-13T07:40:11Z</time>
      </trkpt>
      <trkpt lat="45.38021" lon="5.62787">
        <ele>505.2</ele>
        <time>2021-03-13T07:40:15Z</time>
      </trkpt>
      <trkpt lat="45.38015" lon="5.6279">
        <ele>506.4</ele>
        <time>2021-03-13T07:40:19Z</time>
      </trkpt>
      <trkpt lat="45.3801" lon="5.62792">
        <ele>507.4</ele>
        <time>2021-03-13T07:40:23Z</time>
      </trkpt>
      <trkpt lat="45.38005" lon="5.62797">
        <ele>507.8</ele>
        <time>2021-03-13T07:40:27Z</time>
      </trkpt>
      <trkpt lat="45.37998" lon="5.62802">
        <ele>508.4</ele>
        <time>2021-03-13T07:40:31Z</time>
      </trkpt>
      <trkpt lat="45.37992" lon="5.62805">
        <ele>509.2</ele>
        <time>2021-03-13T07:40:35Z</time>
      </trkpt>
      <trkpt lat="45.37987" lon="5.62808">
        <ele>510</ele>
        <time>2021-03-13T07:40:39Z</time>
      </trkpt>
      <trkpt lat="45.37981" lon="5.6281">
        <ele>511</ele>
        <time>2021-03-13T07:40:43Z</time>
      </trkpt>
      <trkpt lat="45.37976" lon="5.62812">
        <ele>511.4</ele>
        <time>2021-03-13T07:40:47Z</time>
      </trkpt>
      <trkpt lat="45.37971" lon="5.62815">
        <ele>512.2</ele>
        <time>2021-03-13T07:40:51Z</time>
      </trkpt>
      <trkpt lat="45.37962" lon="5.62819">
        <ele>512.4</ele>
        <time>2021-03-13T07:40:55Z</time>
      </trkpt>
      <trkpt lat="45.37953" lon="5.62823">
        <ele>513</ele>
        <time>2021-03-13T07:40:59Z</time>
      </trkpt>
      <trkpt lat="45.37943" lon="5.6283">
        <ele>513</ele>
        <time>2021-03-13T07:41:03Z</time>
      </trkpt>
      <trkpt lat="45.37929" lon="5.62837">
        <ele>512.4</ele>
        <time>2021-03-13T07:41:07Z</time>
      </trkpt>
      <trkpt lat="45.37917" lon="5.62844">
        <ele>512.8</ele>
        <time>2021-03-13T07:41:11Z</time>
      </trkpt>
      <trkpt lat="45.37907" lon="5.6285">
        <ele>512.8</ele>
        <time>2021-03-13T07:41:15Z</time>
      </trkpt>
      <trkpt lat="45.37898" lon="5.62861">
        <ele>513</ele>
        <time>2021-03-13T07:41:19Z</time>
      </trkpt>
      <trkpt lat="45.37891" lon="5.62868">
        <ele>513.2</ele>
        <time>2021-03-13T07:41:23Z</time>
      </trkpt>
      <trkpt lat="45.37882" lon="5.62877">
        <ele>513.8</ele>
        <time>2021-03-13T07:41:27Z</time>
      </trkpt>
      <trkpt lat="45.37874" lon="5.62884">
        <ele>514.2</ele>
        <time>2021-03-13T07:41:31Z</time>
      </trkpt>
      <trkpt lat="45.37864" lon="5.62888">
        <ele>515.4</ele>
        <time>2021-03-13T07:41:35Z</time>
      </trkpt>
      <trkpt lat="45.37852" lon="5.6289">
        <ele>516.2</ele>
        <time>2021-03-13T07:41:39Z</time>
      </trkpt>
      <trkpt lat="45.37838" lon="5.62891">
        <ele>517.4</ele>
        <time>2021-03-13T07:41:43Z</time>
      </trkpt>
      <trkpt lat="45.37825" lon="5.62889">
        <ele>517.4</ele>
        <time>2021-03-13T07:41:47Z</time>
      </trkpt>
      <trkpt lat="45.3781" lon="5.6289">
        <ele>518</ele>
        <time>2021-03-13T07:41:51Z</time>
      </trkpt>
      <trkpt lat="45.37799" lon="5.62888">
        <ele>518.4</ele>
        <time>2021-03-13T07:41:55Z</time>
      </trkpt>
      <trkpt lat="45.3779" lon="5.62884">
        <ele>518.6</ele>
        <time>2021-03-13T07:41:59Z</time>
      </trkpt>
      <trkpt lat="45.37782" lon="5.62878">
        <ele>519.4</ele>
        <time>2021-03-13T07:42:03Z</time>
      </trkpt>
      <trkpt lat="45.37775" lon="5.62874">
        <ele>520.2</ele>
        <time>2021-03-13T07:42:07Z</time>
      </trkpt>
      <trkpt lat="45.3777" lon="5.6287">
        <ele>521.2</ele>
        <time>2021-03-13T07:42:11Z</time>
      </trkpt>
      <trkpt lat="45.37763" lon="5.62867">
        <ele>522.2</ele>
        <time>2021-03-13T07:42:15Z</time>
      </trkpt>
      <trkpt lat="45.37755" lon="5.62866">
        <ele>523</ele>
        <time>2021-03-13T07:42:19Z</time>
      </trkpt>
      <trkpt lat="45.37747" lon="5.62862">
        <ele>524.2</ele>
        <time>2021-03-13T07:42:23Z</time>
      </trkpt>
      <trkpt lat="45.37738" lon="5.6286">
        <ele>524.8</ele>
        <time>2021-03-13T07:42:27Z</time>
      </trkpt>
      <trkpt lat="45.37732" lon="5.62855">
        <ele>526</ele>
        <time>2021-03-13T07:42:31Z</time>
      </trkpt>
      <trkpt lat="45.37725" lon="5.62853">
        <ele>526.8</ele>
        <time>2021-03-13T07:42:35Z</time>
      </trkpt>
      <trkpt lat="45.37719" lon="5.62848">
        <ele>527</ele>
        <time>2021-03-13T07:42:39Z</time>
      </trkpt>
      <trkpt lat="45.37712" lon="5.62842">
        <ele>527.8</ele>
        <time>2021-03-13T07:42:43Z</time>
      </trkpt>
      <trkpt lat="45.37706" lon="5.62837">
        <ele>528.6</ele>
        <time>2021-03-13T07:42:47Z</time>
      </trkpt>
      <trkpt lat="45.37699" lon="5.62832">
        <ele>529.8</ele>
        <time>2021-03-13T07:42:51Z</time>
      </trkpt>
      <trkpt lat="45.37692" lon="5.62825">
        <ele>530.4</ele>
        <time>2021-03-13T07:42:55Z</time>
      </trkpt>
      <trkpt lat="45.37686" lon="5.6282">
        <ele>530.6</ele>
        <time>2021-03-13T07:42:59Z</time>
      </trkpt>
      <trkpt lat="45.37681" lon="5.62815">
        <ele>531.6</ele>
        <time>2021-03-13T07:43:03Z</time>
      </trkpt>
      <trkpt lat="45.37674" lon="5.6281">
        <ele>532.4</ele>
        <time>2021-03-13T07:43:07Z</time>
      </trkpt>
      <trkpt lat="45.37667" lon="5.62805">
        <ele>533.6</ele>
        <time>2021-03-13T07:43:11Z</time>
      </trkpt>
      <trkpt lat="45.37662" lon="5.62799">
        <ele>534.8</ele>
        <time>2021-03-13T07:43:15Z</time>
      </trkpt>
      <trkpt lat="45.37656" lon="5.62794">
        <ele>535.4</ele>
        <time>2021-03-13T07:43:19Z</time>
      </trkpt>
      <trkpt lat="45.3765" lon="5.62789">
        <ele>536.8</ele>
        <time>2021-03-13T07:43:23Z</time>
      </trkpt>
      <trkpt lat="45.37645" lon="5.62782">
        <ele>537</ele>
        <time>2021-03-13T07:43:27Z</time>
      </trkpt>
      <trkpt lat="45.3764" lon="5.62774">
        <ele>538.4</ele>
        <time>2021-03-13T07:43:31Z</time>
      </trkpt>
      <trkpt lat="45.37634" lon="5.62765">
        <ele>538.4</ele>
        <time>2021-03-13T07:43:35Z</time>
      </trkpt>
      <trkpt lat="45.37629" lon="5.62756">
        <ele>538.8</ele>
        <time>2021-03-13T07:43:39Z</time>
      </trkpt>
      <trkpt lat="45.37622" lon="5.62748">
        <ele>540.2</ele>
        <time>2021-03-13T07:43:43Z</time>
      </trkpt>
      <trkpt lat="45.37614" lon="5.62739">
        <ele>540.6</ele>
        <time>2021-03-13T07:43:47Z</time>
      </trkpt>
      <trkpt lat="45.37606" lon="5.6273">
        <ele>540.6</ele>
        <time>2021-03-13T07:43:51Z</time>
      </trkpt>
      <trkpt lat="45.37598" lon="5.62721">
        <ele>541</ele>
        <time>2021-03-13T07:43:55Z</time>
      </trkpt>
      <trkpt lat="45.37589" lon="5.62711">
        <ele>541.8</ele>
        <time>2021-03-13T07:43:59Z</time>
      </trkpt>
      <trkpt lat="45.3758" lon="5.62702">
        <ele>542.2</ele>
        <time>2021-03-13T07:44:03Z</time>
      </trkpt>
      <trkpt lat="45.37572" lon="5.62692">
        <ele>542.4</ele>
        <time>2021-03-13T07:44:07Z</time>
      </trkpt>
      <trkpt lat="45.37564" lon="5.62679">
        <ele>542.4</ele>
        <time>2021-03-13T07:44:11Z</time>
      </trkpt>
      <trkpt lat="45.37557" lon="5.62666">
        <ele>543.6</ele>
        <time>2021-03-13T07:44:15Z</time>
      </trkpt>
      <trkpt lat="45.3755" lon="5.62652">
        <ele>543.6</ele>
        <time>2021-03-13T07:44:19Z</time>
      </trkpt>
      <trkpt lat="45.37544" lon="5.62637">
        <ele>543.8</ele>
        <time>2021-03-13T07:44:23Z</time>
      </trkpt>
      <trkpt lat="45.37537" lon="5.62624">
        <ele>544.6</ele>
        <time>2021-03-13T07:44:27Z</time>
      </trkpt>
      <trkpt lat="45.37529" lon="5.62612">
        <ele>544.4</ele>
        <time>2021-03-13T07:44:31Z</time>
      </trkpt>
      <trkpt lat="45.37522" lon="5.62599">
        <ele>545</ele>
        <time>2021-03-13T07:44:35Z</time>
      </trkpt>
      <trkpt lat="45.37516" lon="5.62587">
        <ele>545.4</ele>
        <time>2021-03-13T07:44:39Z</time>
      </trkpt>
      <trkpt lat="45.37509" lon="5.62577">
        <ele>546.2</ele>
        <time>2021-03-13T07:44:43Z</time>
      </trkpt>
      <trkpt lat="45.37503" lon="5.62566">
        <ele>546.8</ele>
        <time>2021-03-13T07:44:47Z</time>
      </trkpt>
      <trkpt lat="45.37499" lon="5.62556">
        <ele>547</ele>
        <time>2021-03-13T07:44:51Z</time>
      </trkpt>
      <trkpt lat="45.37492" lon="5.62543">
        <ele>547.4</ele>
        <time>2021-03-13T07:44:55Z</time>
      </trkpt>
      <trkpt lat="45.37485" lon="5.62533">
        <ele>548.2</ele>
        <time>2021-03-13T07:44:59Z</time>
      </trkpt>
      <trkpt lat="45.37479" lon="5.62524">
        <ele>549.2</ele>
        <time>2021-03-13T07:45:03Z</time>
      </trkpt>
      <trkpt lat="45.37474" lon="5.62515">
        <ele>549.8</ele>
        <time>2021-03-13T07:45:07Z</time>
      </trkpt>
      <trkpt lat="45.37469" lon="5.62506">
        <ele>550.6</ele>
        <time>2021-03-13T07:45:11Z</time>
      </trkpt>
      <trkpt lat="45.37465" lon="5.62498">
        <ele>551.2</ele>
        <time>2021-03-13T07:45:15Z</time>
      </trkpt>
      <trkpt lat="45.37463" lon="5.62499">
        <ele>551.6</ele>
        <time>2021-03-13T07:45:19Z</time>
      </trkpt>
      <trkpt lat="45.37464" lon="5.62504">
        <ele>551</ele>
        <time>2021-03-13T07:45:42Z</time>
      </trkpt>
      <trkpt lat="45.37469" lon="5.6251">
        <ele>550.8</ele>
        <time>2021-03-13T07:45:46Z</time>
      </trkpt>
      <trkpt lat="45.37478" lon="5.62526">
        <ele>549.4</ele>
        <time>2021-03-13T07:45:50Z</time>
      </trkpt>
      <trkpt lat="45.37486" lon="5.6254">
        <ele>548</ele>
        <time>2021-03-13T07:45:54Z</time>
      </trkpt>
      <trkpt lat="45.37485" lon="5.6255">
        <ele>546.4</ele>
        <time>2021-03-13T07:45:58Z</time>
      </trkpt>
      <trkpt lat="45.37477" lon="5.62562">
        <ele>545</ele>
        <time>2021-03-13T07:46:02Z</time>
      </trkpt>
      <trkpt lat="45.37466" lon="5.62574">
        <ele>543.6</ele>
        <time>2021-03-13T07:46:06Z</time>
      </trkpt>
      <trkpt lat="45.37455" lon="5.6258">
        <ele>542.4</ele>
        <time>2021-03-13T07:46:10Z</time>
      </trkpt>
      <trkpt lat="45.3744" lon="5.62574">
        <ele>543</ele>
        <time>2021-03-13T07:46:14Z</time>
      </trkpt>
      <trkpt lat="45.3743" lon="5.62565">
        <ele>543.2</ele>
        <time>2021-03-13T07:46:18Z</time>
      </trkpt>
      <trkpt lat="45.3742" lon="5.62555">
        <ele>543.4</ele>
        <time>2021-03-13T07:46:22Z</time>
      </trkpt>
      <trkpt lat="45.3741" lon="5.62544">
        <ele>543.6</ele>
        <time>2021-03-13T07:46:26Z</time>
      </trkpt>
      <trkpt lat="45.374" lon="5.62534">
        <ele>543.6</ele>
        <time>2021-03-13T07:46:30Z</time>
      </trkpt>
      <trkpt lat="45.37389" lon="5.62523">
        <ele>543.6</ele>
        <time>2021-03-13T07:46:34Z</time>
      </trkpt>
      <trkpt lat="45.37378" lon="5.62511">
        <ele>543.8</ele>
        <time>2021-03-13T07:46:38Z</time>
      </trkpt>
      <trkpt lat="45.37367" lon="5.625">
        <ele>543.6</ele>
        <time>2021-03-13T07:46:42Z</time>
      </trkpt>
      <trkpt lat="45.37355" lon="5.6249">
        <ele>544</ele>
        <time>2021-03-13T07:46:46Z</time>
      </trkpt>
      <trkpt lat="45.37348" lon="5.62476">
        <ele>544.4</ele>
        <time>2021-03-13T07:46:50Z</time>
      </trkpt>
      <trkpt lat="45.37343" lon="5.62461">
        <ele>545.8</ele>
        <time>2021-03-13T07:46:54Z</time>
      </trkpt>
      <trkpt lat="45.37341" lon="5.62447">
        <ele>546</ele>
        <time>2021-03-13T07:46:58Z</time>
      </trkpt>
      <trkpt lat="45.37339" lon="5.62434">
        <ele>547.2</ele>
        <time>2021-03-13T07:47:02Z</time>
      </trkpt>
      <trkpt lat="45.37335" lon="5.62422">
        <ele>547.8</ele>
        <time>2021-03-13T07:47:06Z</time>
      </trkpt>
      <trkpt lat="45.37331" lon="5.62407">
        <ele>547.6</ele>
        <time>2021-03-13T07:47:10Z</time>
      </trkpt>
      <trkpt lat="45.37324" lon="5.62389">
        <ele>547.4</ele>
        <time>2021-03-13T07:47:14Z</time>
      </trkpt>
      <trkpt lat="45.37317" lon="5.6237">
        <ele>547.4</ele>
        <time>2021-03-13T07:47:18Z</time>
      </trkpt>
      <trkpt lat="45.37309" lon="5.6235">
        <ele>546.2</ele>
        <time>2021-03-13T07:47:22Z</time>
      </trkpt>
      <trkpt lat="45.37297" lon="5.6233">
        <ele>546.8</ele>
        <time>2021-03-13T07:47:26Z</time>
      </trkpt>
      <trkpt lat="45.37284" lon="5.62313">
        <ele>545.8</ele>
        <time>2021-03-13T07:47:30Z</time>
      </trkpt>
      <trkpt lat="45.37271" lon="5.62298">
        <ele>546.6</ele>
        <time>2021-03-13T07:47:34Z</time>
      </trkpt>
      <trkpt lat="45.37258" lon="5.62284">
        <ele>546.4</ele>
        <time>2021-03-13T07:47:38Z</time>
      </trkpt>
      <trkpt lat="45.37245" lon="5.62272">
        <ele>546.2</ele>
        <time>2021-03-13T07:47:42Z</time>
      </trkpt>
      <trkpt lat="45.37233" lon="5.62263">
        <ele>546.6</ele>
        <time>2021-03-13T07:47:46Z</time>
      </trkpt>
      <trkpt lat="45.37221" lon="5.62255">
        <ele>545.8</ele>
        <time>2021-03-13T07:47:50Z</time>
      </trkpt>
      <trkpt lat="45.37207" lon="5.62241">
        <ele>544.4</ele>
        <time>2021-03-13T07:47:54Z</time>
      </trkpt>
      <trkpt lat="45.37202" lon="5.62226">
        <ele>543.2</ele>
        <time>2021-03-13T07:47:58Z</time>
      </trkpt>
      <trkpt lat="45.37207" lon="5.62203">
        <ele>541.6</ele>
        <time>2021-03-13T07:48:02Z</time>
      </trkpt>
      <trkpt lat="45.37217" lon="5.6218">
        <ele>539</ele>
        <time>2021-03-13T07:48:06Z</time>
      </trkpt>
      <trkpt lat="45.37222" lon="5.6215">
        <ele>537.4</ele>
        <time>2021-03-13T07:48:10Z</time>
      </trkpt>
      <trkpt lat="45.37223" lon="5.62111">
        <ele>534.4</ele>
        <time>2021-03-13T07:48:14Z</time>
      </trkpt>
      <trkpt lat="45.3722" lon="5.62068">
        <ele>530.8</ele>
        <time>2021-03-13T07:48:18Z</time>
      </trkpt>
      <trkpt lat="45.37221" lon="5.62026">
        <ele>528</ele>
        <time>2021-03-13T07:48:22Z</time>
      </trkpt>
      <trkpt lat="45.37228" lon="5.61985">
        <ele>525.4</ele>
        <time>2021-03-13T07:48:26Z</time>
      </trkpt>
      <trkpt lat="45.3723" lon="5.61952">
        <ele>522</ele>
        <time>2021-03-13T07:48:30Z</time>
      </trkpt>
      <trkpt lat="45.37228" lon="5.61927">
        <ele>520.4</ele>
        <time>2021-03-13T07:48:34Z</time>
      </trkpt>
      <trkpt lat="45.37229" lon="5.6191">
        <ele>519.4</ele>
        <time>2021-03-13T07:48:38Z</time>
      </trkpt>
      <trkpt lat="45.37232" lon="5.61897">
        <ele>519</ele>
        <time>2021-03-13T07:48:42Z</time>
      </trkpt>
      <trkpt lat="45.3724" lon="5.61879">
        <ele>517.6</ele>
        <time>2021-03-13T07:48:46Z</time>
      </trkpt>
      <trkpt lat="45.37251" lon="5.61857">
        <ele>515.6</ele>
        <time>2021-03-13T07:48:50Z</time>
      </trkpt>
      <trkpt lat="45.37255" lon="5.61834">
        <ele>513.6</ele>
        <time>2021-03-13T07:48:54Z</time>
      </trkpt>
      <trkpt lat="45.37248" lon="5.61805">
        <ele>511.4</ele>
        <time>2021-03-13T07:48:58Z</time>
      </trkpt>
      <trkpt lat="45.37244" lon="5.61767">
        <ele>508.2</ele>
        <time>2021-03-13T07:49:02Z</time>
      </trkpt>
      <trkpt lat="45.37246" lon="5.61727">
        <ele>505.8</ele>
        <time>2021-03-13T07:49:06Z</time>
      </trkpt>
      <trkpt lat="45.37242" lon="5.61681">
        <ele>503.2</ele>
        <time>2021-03-13T07:49:10Z</time>
      </trkpt>
      <trkpt lat="45.37238" lon="5.61635">
        <ele>500.4</ele>
        <time>2021-03-13T07:49:14Z</time>
      </trkpt>
      <trkpt lat="45.37242" lon="5.61603">
        <ele>497.8</ele>
        <time>2021-03-13T07:49:18Z</time>
      </trkpt>
      <trkpt lat="45.37253" lon="5.61582">
        <ele>495.8</ele>
        <time>2021-03-13T07:49:22Z</time>
      </trkpt>
      <trkpt lat="45.37265" lon="5.61563">
        <ele>493.6</ele>
        <time>2021-03-13T07:49:26Z</time>
      </trkpt>
      <trkpt lat="45.37267" lon="5.61546">
        <ele>492</ele>
        <time>2021-03-13T07:49:30Z</time>
      </trkpt>
      <trkpt lat="45.37257" lon="5.61506">
        <ele>491.4</ele>
        <time>2021-03-13T07:49:34Z</time>
      </trkpt>
      <trkpt lat="45.37254" lon="5.61468">
        <ele>488.6</ele>
        <time>2021-03-13T07:49:38Z</time>
      </trkpt>
      <trkpt lat="45.37253" lon="5.61433">
        <ele>486.2</ele>
        <time>2021-03-13T07:49:42Z</time>
      </trkpt>
      <trkpt lat="45.37244" lon="5.61397">
        <ele>486.4</ele>
        <time>2021-03-13T07:49:46Z</time>
      </trkpt>
      <trkpt lat="45.37227" lon="5.61367">
        <ele>481.8</ele>
        <time>2021-03-13T07:49:50Z</time>
      </trkpt>
      <trkpt lat="45.37212" lon="5.61344">
        <ele>477.6</ele>
        <time>2021-03-13T07:49:54Z</time>
      </trkpt>
      <trkpt lat="45.37205" lon="5.6131">
        <ele>477.6</ele>
        <time>2021-03-13T07:49:58Z</time>
      </trkpt>
      <trkpt lat="45.37192" lon="5.61275">
        <ele>475.2</ele>
        <time>2021-03-13T07:50:02Z</time>
      </trkpt>
      <trkpt lat="45.37169" lon="5.61249">
        <ele>472.8</ele>
        <time>2021-03-13T07:50:06Z</time>
      </trkpt>
      <trkpt lat="45.37142" lon="5.61233">
        <ele>471.4</ele>
        <time>2021-03-13T07:50:10Z</time>
      </trkpt>
      <trkpt lat="45.37114" lon="5.61223">
        <ele>468.4</ele>
        <time>2021-03-13T07:50:14Z</time>
      </trkpt>
      <trkpt lat="45.37091" lon="5.61208">
        <ele>465</ele>
        <time>2021-03-13T07:50:18Z</time>
      </trkpt>
      <trkpt lat="45.37076" lon="5.61178">
        <ele>463.4</ele>
        <time>2021-03-13T07:50:22Z</time>
      </trkpt>
      <trkpt lat="45.37065" lon="5.61144">
        <ele>460.4</ele>
        <time>2021-03-13T07:50:26Z</time>
      </trkpt>
      <trkpt lat="45.37068" lon="5.61112">
        <ele>457.6</ele>
        <time>2021-03-13T07:50:30Z</time>
      </trkpt>
      <trkpt lat="45.37073" lon="5.61082">
        <ele>456.2</ele>
        <time>2021-03-13T07:50:34Z</time>
      </trkpt>
      <trkpt lat="45.37068" lon="5.61051">
        <ele>453.2</ele>
        <time>2021-03-13T07:50:38Z</time>
      </trkpt>
      <trkpt lat="45.37059" lon="5.61011">
        <ele>452.2</ele>
        <time>2021-03-13T07:50:42Z</time>
      </trkpt>
      <trkpt lat="45.37038" lon="5.60984">
        <ele>448.8</ele>
        <time>2021-03-13T07:50:46Z</time>
      </trkpt>
      <trkpt lat="45.37013" lon="5.60964">
        <ele>446</ele>
        <time>2021-03-13T07:50:50Z</time>
      </trkpt>
      <trkpt lat="45.36983" lon="5.60942">
        <ele>443.8</ele>
        <time>2021-03-13T07:50:54Z</time>
      </trkpt>
      <trkpt lat="45.36958" lon="5.60918">
        <ele>440.8</ele>
        <time>2021-03-13T07:50:58Z</time>
      </trkpt>
      <trkpt lat="45.36942" lon="5.60883">
        <ele>438.4</ele>
        <time>2021-03-13T07:51:02Z</time>
      </trkpt>
      <trkpt lat="45.36934" lon="5.60853">
        <ele>435.2</ele>
        <time>2021-03-13T07:51:06Z</time>
      </trkpt>
      <trkpt lat="45.36934" lon="5.60839">
        <ele>434.4</ele>
        <time>2021-03-13T07:51:10Z</time>
      </trkpt>
      <trkpt lat="45.3693" lon="5.60825">
        <ele>433.6</ele>
        <time>2021-03-13T07:51:14Z</time>
      </trkpt>
      <trkpt lat="45.36932" lon="5.60804">
        <ele>432</ele>
        <time>2021-03-13T07:51:18Z</time>
      </trkpt>
      <trkpt lat="45.36935" lon="5.60792">
        <ele>431</ele>
        <time>2021-03-13T07:51:22Z</time>
      </trkpt>
      <trkpt lat="45.3694" lon="5.60785">
        <ele>430.2</ele>
        <time>2021-03-13T07:51:26Z</time>
      </trkpt>
      <trkpt lat="45.36934" lon="5.60768">
        <ele>430</ele>
        <time>2021-03-13T07:51:30Z</time>
      </trkpt>
      <trkpt lat="45.36934" lon="5.60756">
        <ele>429.4</ele>
        <time>2021-03-13T07:51:34Z</time>
      </trkpt>
      <trkpt lat="45.36934" lon="5.60756">
        <ele>429.2</ele>
        <time>2021-03-13T07:51:38Z</time>
      </trkpt>
      <trkpt lat="45.36931" lon="5.60746">
        <ele>428.6</ele>
        <time>2021-03-13T07:51:42Z</time>
      </trkpt>
      <trkpt lat="45.36929" lon="5.60734">
        <ele>427.6</ele>
        <time>2021-03-13T07:51:46Z</time>
      </trkpt>
      <trkpt lat="45.36924" lon="5.60707">
        <ele>427.4</ele>
        <time>2021-03-13T07:51:50Z</time>
      </trkpt>
      <trkpt lat="45.36913" lon="5.60674">
        <ele>426.4</ele>
        <time>2021-03-13T07:51:54Z</time>
      </trkpt>
      <trkpt lat="45.36899" lon="5.6064">
        <ele>425</ele>
        <time>2021-03-13T07:51:58Z</time>
      </trkpt>
      <trkpt lat="45.36883" lon="5.60603">
        <ele>423.4</ele>
        <time>2021-03-13T07:52:02Z</time>
      </trkpt>
      <trkpt lat="45.36864" lon="5.60567">
        <ele>420</ele>
        <time>2021-03-13T07:52:06Z</time>
      </trkpt>
      <trkpt lat="45.36846" lon="5.60528">
        <ele>418</ele>
        <time>2021-03-13T07:52:10Z</time>
      </trkpt>
      <trkpt lat="45.36831" lon="5.60486">
        <ele>414</ele>
        <time>2021-03-13T07:52:14Z</time>
      </trkpt>
      <trkpt lat="45.36818" lon="5.60447">
        <ele>412.4</ele>
        <time>2021-03-13T07:52:18Z</time>
      </trkpt>
      <trkpt lat="45.36816" lon="5.6041">
        <ele>412.4</ele>
        <time>2021-03-13T07:52:22Z</time>
      </trkpt>
      <trkpt lat="45.36823" lon="5.60382">
        <ele>411.2</ele>
        <time>2021-03-13T07:52:26Z</time>
      </trkpt>
      <trkpt lat="45.36837" lon="5.60362">
        <ele>412.4</ele>
        <time>2021-03-13T07:52:30Z</time>
      </trkpt>
      <trkpt lat="45.36847" lon="5.60345">
        <ele>412</ele>
        <time>2021-03-13T07:52:34Z</time>
      </trkpt>
      <trkpt lat="45.36857" lon="5.60332">
        <ele>412</ele>
        <time>2021-03-13T07:52:38Z</time>
      </trkpt>
      <trkpt lat="45.36865" lon="5.60315">
        <ele>411.4</ele>
        <time>2021-03-13T07:52:42Z</time>
      </trkpt>
      <trkpt lat="45.36874" lon="5.60297">
        <ele>412.2</ele>
        <time>2021-03-13T07:52:46Z</time>
      </trkpt>
      <trkpt lat="45.36887" lon="5.60279">
        <ele>411.4</ele>
        <time>2021-03-13T07:52:50Z</time>
      </trkpt>
      <trkpt lat="45.36902" lon="5.60265">
        <ele>411.8</ele>
        <time>2021-03-13T07:52:54Z</time>
      </trkpt>
      <trkpt lat="45.3692" lon="5.60252">
        <ele>410.8</ele>
        <time>2021-03-13T07:52:58Z</time>
      </trkpt>
      <trkpt lat="45.36939" lon="5.6024">
        <ele>410.6</ele>
        <time>2021-03-13T07:53:02Z</time>
      </trkpt>
      <trkpt lat="45.36954" lon="5.60221">
        <ele>410.8</ele>
        <time>2021-03-13T07:53:06Z</time>
      </trkpt>
      <trkpt lat="45.36967" lon="5.60203">
        <ele>410.4</ele>
        <time>2021-03-13T07:53:10Z</time>
      </trkpt>
      <trkpt lat="45.36979" lon="5.60184">
        <ele>409.8</ele>
        <time>2021-03-13T07:53:14Z</time>
      </trkpt>
      <trkpt lat="45.36987" lon="5.60163">
        <ele>409.8</ele>
        <time>2021-03-13T07:53:18Z</time>
      </trkpt>
      <trkpt lat="45.36993" lon="5.60138">
        <ele>409.4</ele>
        <time>2021-03-13T07:53:22Z</time>
      </trkpt>
      <trkpt lat="45.36997" lon="5.60116">
        <ele>409.4</ele>
        <time>2021-03-13T07:53:26Z</time>
      </trkpt>
      <trkpt lat="45.36998" lon="5.60094">
        <ele>410</ele>
        <time>2021-03-13T07:53:30Z</time>
      </trkpt>
      <trkpt lat="45.36998" lon="5.60067">
        <ele>409.8</ele>
        <time>2021-03-13T07:53:34Z</time>
      </trkpt>
      <trkpt lat="45.37005" lon="5.6005">
        <ele>410.4</ele>
        <time>2021-03-13T07:53:38Z</time>
      </trkpt>
      <trkpt lat="45.37013" lon="5.60029">
        <ele>410.4</ele>
        <time>2021-03-13T07:53:42Z</time>
      </trkpt>
      <trkpt lat="45.37019" lon="5.60002">
        <ele>410.6</ele>
        <time>2021-03-13T07:53:46Z</time>
      </trkpt>
      <trkpt lat="45.37027" lon="5.59981">
        <ele>410</ele>
        <time>2021-03-13T07:53:50Z</time>
      </trkpt>
      <trkpt lat="45.37034" lon="5.5996">
        <ele>409.6</ele>
        <time>2021-03-13T07:53:54Z</time>
      </trkpt>
      <trkpt lat="45.37041" lon="5.59939">
        <ele>409.2</ele>
        <time>2021-03-13T07:53:58Z</time>
      </trkpt>
      <trkpt lat="45.3705" lon="5.59916">
        <ele>409</ele>
        <time>2021-03-13T07:54:02Z</time>
      </trkpt>
      <trkpt lat="45.37058" lon="5.59894">
        <ele>409</ele>
        <time>2021-03-13T07:54:06Z</time>
      </trkpt>
      <trkpt lat="45.37066" lon="5.59871">
        <ele>407.4</ele>
        <time>2021-03-13T07:54:10Z</time>
      </trkpt>
      <trkpt lat="45.37076" lon="5.59845">
        <ele>407</ele>
        <time>2021-03-13T07:54:14Z</time>
      </trkpt>
      <trkpt lat="45.37088" lon="5.59815">
        <ele>405</ele>
        <time>2021-03-13T07:54:18Z</time>
      </trkpt>
      <trkpt lat="45.37103" lon="5.5978">
        <ele>403</ele>
        <time>2021-03-13T07:54:22Z</time>
      </trkpt>
      <trkpt lat="45.37108" lon="5.59736">
        <ele>400.2</ele>
        <time>2021-03-13T07:54:26Z</time>
      </trkpt>
      <trkpt lat="45.37107" lon="5.59682">
        <ele>398.6</ele>
        <time>2021-03-13T07:54:30Z</time>
      </trkpt>
      <trkpt lat="45.371" lon="5.59628">
        <ele>395.8</ele>
        <time>2021-03-13T07:54:34Z</time>
      </trkpt>
      <trkpt lat="45.37088" lon="5.59577">
        <ele>393.2</ele>
        <time>2021-03-13T07:54:38Z</time>
      </trkpt>
      <trkpt lat="45.37077" lon="5.59533">
        <ele>391</ele>
        <time>2021-03-13T07:54:42Z</time>
      </trkpt>
      <trkpt lat="45.37065" lon="5.59482">
        <ele>388.2</ele>
        <time>2021-03-13T07:54:46Z</time>
      </trkpt>
      <trkpt lat="45.37053" lon="5.59434">
        <ele>385.6</ele>
        <time>2021-03-13T07:54:50Z</time>
      </trkpt>
      <trkpt lat="45.3705" lon="5.59384">
        <ele>382</ele>
        <time>2021-03-13T07:54:54Z</time>
      </trkpt>
      <trkpt lat="45.37055" lon="5.59337">
        <ele>381.4</ele>
        <time>2021-03-13T07:54:58Z</time>
      </trkpt>
      <trkpt lat="45.37052" lon="5.59291">
        <ele>380.4</ele>
        <time>2021-03-13T07:55:02Z</time>
      </trkpt>
      <trkpt lat="45.37043" lon="5.59252">
        <ele>379.4</ele>
        <time>2021-03-13T07:55:06Z</time>
      </trkpt>
      <trkpt lat="45.37029" lon="5.59217">
        <ele>379</ele>
        <time>2021-03-13T07:55:10Z</time>
      </trkpt>
      <trkpt lat="45.37014" lon="5.59187">
        <ele>379</ele>
        <time>2021-03-13T07:55:14Z</time>
      </trkpt>
      <trkpt lat="45.37002" lon="5.59157">
        <ele>378.2</ele>
        <time>2021-03-13T07:55:18Z</time>
      </trkpt>
      <trkpt lat="45.3699" lon="5.59129">
        <ele>378.8</ele>
        <time>2021-03-13T07:55:22Z</time>
      </trkpt>
      <trkpt lat="45.36987" lon="5.59111">
        <ele>379.2</ele>
        <time>2021-03-13T07:55:26Z</time>
      </trkpt>
      <trkpt lat="45.36982" lon="5.59104">
        <ele>379.2</ele>
        <time>2021-03-13T07:55:32Z</time>
      </trkpt>
      <trkpt lat="45.36981" lon="5.59099">
        <ele>379.8</ele>
        <time>2021-03-13T07:55:36Z</time>
      </trkpt>
      <trkpt lat="45.36979" lon="5.59093">
        <ele>379.4</ele>
        <time>2021-03-13T07:55:40Z</time>
      </trkpt>
      <trkpt lat="45.36977" lon="5.59096">
        <ele>379.8</ele>
        <time>2021-03-13T07:55:44Z</time>
      </trkpt>
      <trkpt lat="45.36983" lon="5.59107">
        <ele>379.2</ele>
        <time>2021-03-13T07:55:48Z</time>
      </trkpt>
      <trkpt lat="45.36988" lon="5.59103">
        <ele>380</ele>
        <time>2021-03-13T07:55:52Z</time>
      </trkpt>
      <trkpt lat="45.36994" lon="5.59096">
        <ele>381.6</ele>
        <time>2021-03-13T07:55:56Z</time>
      </trkpt>
      <trkpt lat="45.36999" lon="5.59091">
        <ele>382.4</ele>
        <time>2021-03-13T07:56:00Z</time>
      </trkpt>
      <trkpt lat="45.37003" lon="5.59085">
        <ele>382.6</ele>
        <time>2021-03-13T07:56:04Z</time>
      </trkpt>
      <trkpt lat="45.37007" lon="5.5908">
        <ele>384.2</ele>
        <time>2021-03-13T07:56:08Z</time>
      </trkpt>
      <trkpt lat="45.37012" lon="5.59077">
        <ele>385</ele>
        <time>2021-03-13T07:56:12Z</time>
      </trkpt>
      <trkpt lat="45.37016" lon="5.59071">
        <ele>386.4</ele>
        <time>2021-03-13T07:56:16Z</time>
      </trkpt>
      <trkpt lat="45.37019" lon="5.59064">
        <ele>387.6</ele>
        <time>2021-03-13T07:56:20Z</time>
      </trkpt>
      <trkpt lat="45.37024" lon="5.59061">
        <ele>388.2</ele>
        <time>2021-03-13T07:56:24Z</time>
      </trkpt>
      <trkpt lat="45.37028" lon="5.59053">
        <ele>388.6</ele>
        <time>2021-03-13T07:56:28Z</time>
      </trkpt>
      <trkpt lat="45.37031" lon="5.59046">
        <ele>389.8</ele>
        <time>2021-03-13T07:56:32Z</time>
      </trkpt>
      <trkpt lat="45.37035" lon="5.5904">
        <ele>390.6</ele>
        <time>2021-03-13T07:56:36Z</time>
      </trkpt>
      <trkpt lat="45.37038" lon="5.59034">
        <ele>391.2</ele>
        <time>2021-03-13T07:56:40Z</time>
      </trkpt>
      <trkpt lat="45.37042" lon="5.5903">
        <ele>392</ele>
        <time>2021-03-13T07:56:44Z</time>
      </trkpt>
      <trkpt lat="45.37046" lon="5.59025">
        <ele>392.6</ele>
        <time>2021-03-13T07:56:48Z</time>
      </trkpt>
      <trkpt lat="45.3705" lon="5.5902">
        <ele>393.8</ele>
        <time>2021-03-13T07:56:52Z</time>
      </trkpt>
      <trkpt lat="45.37053" lon="5.59015">
        <ele>394.6</ele>
        <time>2021-03-13T07:56:56Z</time>
      </trkpt>
      <trkpt lat="45.37056" lon="5.59011">
        <ele>395</ele>
        <time>2021-03-13T07:57:00Z</time>
      </trkpt>
      <trkpt lat="45.3706" lon="5.59006">
        <ele>396.4</ele>
        <time>2021-03-13T07:57:04Z</time>
      </trkpt>
      <trkpt lat="45.37066" lon="5.59002">
        <ele>397.2</ele>
        <time>2021-03-13T07:57:08Z</time>
      </trkpt>
      <trkpt lat="45.37071" lon="5.59">
        <ele>397.4</ele>
        <time>2021-03-13T07:57:12Z</time>
      </trkpt>
      <trkpt lat="45.37076" lon="5.58998">
        <ele>398.8</ele>
        <time>2021-03-13T07:57:16Z</time>
      </trkpt>
      <trkpt lat="45.37082" lon="5.58998">
        <ele>399</ele>
        <time>2021-03-13T07:57:20Z</time>
      </trkpt>
      <trkpt lat="45.37088" lon="5.58998">
        <ele>400.2</ele>
        <time>2021-03-13T07:57:24Z</time>
      </trkpt>
      <trkpt lat="45.37094" lon="5.59">
        <ele>401.4</ele>
        <time>2021-03-13T07:57:28Z</time>
      </trkpt>
      <trkpt lat="45.371" lon="5.59001">
        <ele>402.2</ele>
        <time>2021-03-13T07:57:32Z</time>
      </trkpt>
      <trkpt lat="45.37104" lon="5.59003">
        <ele>403</ele>
        <time>2021-03-13T07:57:36Z</time>
      </trkpt>
      <trkpt lat="45.37108" lon="5.59005">
        <ele>403.8</ele>
        <time>2021-03-13T07:57:40Z</time>
      </trkpt>
      <trkpt lat="45.37112" lon="5.59008">
        <ele>404.4</ele>
        <time>2021-03-13T07:57:44Z</time>
      </trkpt>
      <trkpt lat="45.37117" lon="5.5901">
        <ele>405.4</ele>
        <time>2021-03-13T07:57:48Z</time>
      </trkpt>
      <trkpt lat="45.37122" lon="5.59013">
        <ele>406.2</ele>
        <time>2021-03-13T07:57:52Z</time>
      </trkpt>
      <trkpt lat="45.37127" lon="5.59017">
        <ele>406.8</ele>
        <time>2021-03-13T07:57:56Z</time>
      </trkpt>
      <trkpt lat="45.3713" lon="5.59022">
        <ele>408.2</ele>
        <time>2021-03-13T07:58:00Z</time>
      </trkpt>
      <trkpt lat="45.37135" lon="5.59027">
        <ele>408.6</ele>
        <time>2021-03-13T07:58:04Z</time>
      </trkpt>
      <trkpt lat="45.37139" lon="5.59034">
        <ele>409.8</ele>
        <time>2021-03-13T07:58:08Z</time>
      </trkpt>
      <trkpt lat="45.37144" lon="5.5904">
        <ele>410.4</ele>
        <time>2021-03-13T07:58:12Z</time>
      </trkpt>
      <trkpt lat="45.37148" lon="5.59045">
        <ele>411.2</ele>
        <time>2021-03-13T07:58:16Z</time>
      </trkpt>
      <trkpt lat="45.37155" lon="5.59048">
        <ele>412.2</ele>
        <time>2021-03-13T07:58:20Z</time>
      </trkpt>
      <trkpt lat="45.3716" lon="5.59051">
        <ele>413.4</ele>
        <time>2021-03-13T07:58:24Z</time>
      </trkpt>
      <trkpt lat="45.37166" lon="5.59053">
        <ele>413.8</ele>
        <time>2021-03-13T07:58:28Z</time>
      </trkpt>
      <trkpt lat="45.37171" lon="5.59055">
        <ele>414.6</ele>
        <time>2021-03-13T07:58:32Z</time>
      </trkpt>
      <trkpt lat="45.37177" lon="5.59055">
        <ele>415.2</ele>
        <time>2021-03-13T07:58:36Z</time>
      </trkpt>
      <trkpt lat="45.37181" lon="5.59057">
        <ele>416.4</ele>
        <time>2021-03-13T07:58:40Z</time>
      </trkpt>
      <trkpt lat="45.37187" lon="5.59058">
        <ele>417</ele>
        <time>2021-03-13T07:58:44Z</time>
      </trkpt>
      <trkpt lat="45.37192" lon="5.5906">
        <ele>418</ele>
        <time>2021-03-13T07:58:48Z</time>
      </trkpt>
      <trkpt lat="45.37196" lon="5.59061">
        <ele>418.6</ele>
        <time>2021-03-13T07:58:52Z</time>
      </trkpt>
      <trkpt lat="45.372" lon="5.59067">
        <ele>419.4</ele>
        <time>2021-03-13T07:58:56Z</time>
      </trkpt>
      <trkpt lat="45.37204" lon="5.5907">
        <ele>421</ele>
        <time>2021-03-13T07:59:00Z</time>
      </trkpt>
      <trkpt lat="45.3721" lon="5.59069">
        <ele>421.6</ele>
        <time>2021-03-13T07:59:04Z</time>
      </trkpt>
      <trkpt lat="45.37216" lon="5.59064">
        <ele>422.2</ele>
        <time>2021-03-13T07:59:08Z</time>
      </trkpt>
      <trkpt lat="45.3722" lon="5.59059">
        <ele>423.8</ele>
        <time>2021-03-13T07:59:12Z</time>
      </trkpt>
      <trkpt lat="45.37226" lon="5.59055">
        <ele>424.6</ele>
        <time>2021-03-13T07:59:16Z</time>
      </trkpt>
      <trkpt lat="45.37232" lon="5.59056">
        <ele>425.2</ele>
        <time>2021-03-13T07:59:20Z</time>
      </trkpt>
      <trkpt lat="45.37239" lon="5.59054">
        <ele>425.2</ele>
        <time>2021-03-13T07:59:24Z</time>
      </trkpt>
      <trkpt lat="45.37247" lon="5.59051">
        <ele>426.2</ele>
        <time>2021-03-13T07:59:28Z</time>
      </trkpt>
      <trkpt lat="45.37254" lon="5.59049">
        <ele>426.8</ele>
        <time>2021-03-13T07:59:32Z</time>
      </trkpt>
      <trkpt lat="45.37261" lon="5.59046">
        <ele>427.4</ele>
        <time>2021-03-13T07:59:36Z</time>
      </trkpt>
      <trkpt lat="45.37267" lon="5.59042">
        <ele>427.8</ele>
        <time>2021-03-13T07:59:40Z</time>
      </trkpt>
      <trkpt lat="45.37274" lon="5.59037">
        <ele>428.6</ele>
        <time>2021-03-13T07:59:44Z</time>
      </trkpt>
      <trkpt lat="45.37282" lon="5.59033">
        <ele>429.2</ele>
        <time>2021-03-13T07:59:48Z</time>
      </trkpt>
      <trkpt lat="45.37289" lon="5.5903">
        <ele>429.8</ele>
        <time>2021-03-13T07:59:52Z</time>
      </trkpt>
      <trkpt lat="45.37297" lon="5.59025">
        <ele>429.8</ele>
        <time>2021-03-13T07:59:56Z</time>
      </trkpt>
      <trkpt lat="45.37304" lon="5.59019">
        <ele>431</ele>
        <time>2021-03-13T08:00:00Z</time>
      </trkpt>
      <trkpt lat="45.37311" lon="5.59011">
        <ele>431.6</ele>
        <time>2021-03-13T08:00:04Z</time>
      </trkpt>
      <trkpt lat="45.37317" lon="5.59001">
        <ele>432.2</ele>
        <time>2021-03-13T08:00:08Z</time>
      </trkpt>
      <trkpt lat="45.37322" lon="5.58989">
        <ele>433</ele>
        <time>2021-03-13T08:00:12Z</time>
      </trkpt>
      <trkpt lat="45.37326" lon="5.58977">
        <ele>433.2</ele>
        <time>2021-03-13T08:00:16Z</time>
      </trkpt>
      <trkpt lat="45.37328" lon="5.58963">
        <ele>433.6</ele>
        <time>2021-03-13T08:00:20Z</time>
      </trkpt>
      <trkpt lat="45.37331" lon="5.58949">
        <ele>434.2</ele>
        <time>2021-03-13T08:00:24Z</time>
      </trkpt>
      <trkpt lat="45.37336" lon="5.58935">
        <ele>435</ele>
        <time>2021-03-13T08:00:28Z</time>
      </trkpt>
      <trkpt lat="45.37341" lon="5.5892">
        <ele>435.6</ele>
        <time>2021-03-13T08:00:32Z</time>
      </trkpt>
      <trkpt lat="45.37347" lon="5.58905">
        <ele>435.4</ele>
        <time>2021-03-13T08:00:36Z</time>
      </trkpt>
      <trkpt lat="45.37354" lon="5.58893">
        <ele>436.4</ele>
        <time>2021-03-13T08:00:40Z</time>
      </trkpt>
      <trkpt lat="45.37362" lon="5.58882">
        <ele>436.4</ele>
        <time>2021-03-13T08:00:44Z</time>
      </trkpt>
      <trkpt lat="45.3737" lon="5.5888">
        <ele>436.4</ele>
        <time>2021-03-13T08:00:48Z</time>
      </trkpt>
      <trkpt lat="45.37376" lon="5.58888">
        <ele>437</ele>
        <time>2021-03-13T08:00:52Z</time>
      </trkpt>
      <trkpt lat="45.37378" lon="5.58897">
        <ele>437.2</ele>
        <time>2021-03-13T08:00:56Z</time>
      </trkpt>
      <trkpt lat="45.3738" lon="5.58905">
        <ele>438.2</ele>
        <time>2021-03-13T08:01:00Z</time>
      </trkpt>
      <trkpt lat="45.37382" lon="5.58913">
        <ele>439.8</ele>
        <time>2021-03-13T08:01:04Z</time>
      </trkpt>
      <trkpt lat="45.37385" lon="5.58921">
        <ele>440.2</ele>
        <time>2021-03-13T08:01:08Z</time>
      </trkpt>
      <trkpt lat="45.37388" lon="5.58928">
        <ele>441.2</ele>
        <time>2021-03-13T08:01:12Z</time>
      </trkpt>
      <trkpt lat="45.37393" lon="5.58936">
        <ele>442.2</ele>
        <time>2021-03-13T08:01:58Z</time>
      </trkpt>
      <trkpt lat="45.37399" lon="5.58942">
        <ele>443</ele>
        <time>2021-03-13T08:02:02Z</time>
      </trkpt>
      <trkpt lat="45.37405" lon="5.58949">
        <ele>443.2</ele>
        <time>2021-03-13T08:02:06Z</time>
      </trkpt>
      <trkpt lat="45.37412" lon="5.58955">
        <ele>443.8</ele>
        <time>2021-03-13T08:02:10Z</time>
      </trkpt>
      <trkpt lat="45.37418" lon="5.58961">
        <ele>445</ele>
        <time>2021-03-13T08:02:14Z</time>
      </trkpt>
      <trkpt lat="45.37423" lon="5.58967">
        <ele>444.8</ele>
        <time>2021-03-13T08:02:18Z</time>
      </trkpt>
      <trkpt lat="45.37429" lon="5.58972">
        <ele>445.8</ele>
        <time>2021-03-13T08:02:22Z</time>
      </trkpt>
      <trkpt lat="45.37434" lon="5.58978">
        <ele>446.4</ele>
        <time>2021-03-13T08:02:26Z</time>
      </trkpt>
      <trkpt lat="45.3744" lon="5.58984">
        <ele>447.2</ele>
        <time>2021-03-13T08:02:30Z</time>
      </trkpt>
      <trkpt lat="45.37446" lon="5.5899">
        <ele>448</ele>
        <time>2021-03-13T08:02:34Z</time>
      </trkpt>
      <trkpt lat="45.37452" lon="5.58995">
        <ele>448.6</ele>
        <time>2021-03-13T08:02:38Z</time>
      </trkpt>
      <trkpt lat="45.37457" lon="5.59001">
        <ele>449.4</ele>
        <time>2021-03-13T08:02:42Z</time>
      </trkpt>
      <trkpt lat="45.37463" lon="5.59005">
        <ele>450.2</ele>
        <time>2021-03-13T08:02:46Z</time>
      </trkpt>
      <trkpt lat="45.37469" lon="5.5901">
        <ele>450.4</ele>
        <time>2021-03-13T08:02:50Z</time>
      </trkpt>
      <trkpt lat="45.37474" lon="5.59015">
        <ele>451.8</ele>
        <time>2021-03-13T08:02:54Z</time>
      </trkpt>
      <trkpt lat="45.37479" lon="5.5902">
        <ele>452.4</ele>
        <time>2021-03-13T08:02:58Z</time>
      </trkpt>
      <trkpt lat="45.37485" lon="5.59024">
        <ele>453.4</ele>
        <time>2021-03-13T08:03:02Z</time>
      </trkpt>
      <trkpt lat="45.3749" lon="5.59028">
        <ele>453.8</ele>
        <time>2021-03-13T08:03:06Z</time>
      </trkpt>
      <trkpt lat="45.37497" lon="5.59031">
        <ele>454.8</ele>
        <time>2021-03-13T08:03:10Z</time>
      </trkpt>
      <trkpt lat="45.37502" lon="5.59036">
        <ele>455.8</ele>
        <time>2021-03-13T08:03:14Z</time>
      </trkpt>
      <trkpt lat="45.37507" lon="5.5904">
        <ele>456.4</ele>
        <time>2021-03-13T08:03:18Z</time>
      </trkpt>
      <trkpt lat="45.37513" lon="5.59043">
        <ele>457.6</ele>
        <time>2021-03-13T08:03:22Z</time>
      </trkpt>
      <trkpt lat="45.37518" lon="5.59048">
        <ele>458.2</ele>
        <time>2021-03-13T08:03:26Z</time>
      </trkpt>
      <trkpt lat="45.37523" lon="5.59052">
        <ele>458.6</ele>
        <time>2021-03-13T08:03:30Z</time>
      </trkpt>
      <trkpt lat="45.37528" lon="5.59057">
        <ele>460.2</ele>
        <time>2021-03-13T08:03:34Z</time>
      </trkpt>
      <trkpt lat="45.37532" lon="5.59061">
        <ele>460.8</ele>
        <time>2021-03-13T08:03:38Z</time>
      </trkpt>
      <trkpt lat="45.37538" lon="5.59064">
        <ele>461.6</ele>
        <time>2021-03-13T08:03:42Z</time>
      </trkpt>
      <trkpt lat="45.37543" lon="5.59068">
        <ele>462.6</ele>
        <time>2021-03-13T08:03:46Z</time>
      </trkpt>
      <trkpt lat="45.37549" lon="5.5907">
        <ele>463.6</ele>
        <time>2021-03-13T08:03:50Z</time>
      </trkpt>
      <trkpt lat="45.37553" lon="5.59074">
        <ele>464.2</ele>
        <time>2021-03-13T08:03:54Z</time>
      </trkpt>
      <trkpt lat="45.37559" lon="5.59078">
        <ele>464.6</ele>
        <time>2021-03-13T08:03:58Z</time>
      </trkpt>
      <trkpt lat="45.37563" lon="5.59083">
        <ele>465.6</ele>
        <time>2021-03-13T08:04:02Z</time>
      </trkpt>
      <trkpt lat="45.37567" lon="5.59085">
        <ele>466.6</ele>
        <time>2021-03-13T08:04:06Z</time>
      </trkpt>
      <trkpt lat="45.37576" lon="5.59088">
        <ele>466.8</ele>
        <time>2021-03-13T08:04:10Z</time>
      </trkpt>
      <trkpt lat="45.37584" lon="5.59093">
        <ele>467.6</ele>
        <time>2021-03-13T08:04:14Z</time>
      </trkpt>
      <trkpt lat="45.37592" lon="5.59097">
        <ele>468.4</ele>
        <time>2021-03-13T08:04:18Z</time>
      </trkpt>
      <trkpt lat="45.37598" lon="5.59101">
        <ele>469</ele>
        <time>2021-03-13T08:04:22Z</time>
      </trkpt>
      <trkpt lat="45.37604" lon="5.59106">
        <ele>469.8</ele>
        <time>2021-03-13T08:04:26Z</time>
      </trkpt>
      <trkpt lat="45.3761" lon="5.59109">
        <ele>470.6</ele>
        <time>2021-03-13T08:04:30Z</time>
      </trkpt>
      <trkpt lat="45.37617" lon="5.59112">
        <ele>471.2</ele>
        <time>2021-03-13T08:04:34Z</time>
      </trkpt>
      <trkpt lat="45.37623" lon="5.59115">
        <ele>472.2</ele>
        <time>2021-03-13T08:04:38Z</time>
      </trkpt>
      <trkpt lat="45.37629" lon="5.59119">
        <ele>472.8</ele>
        <time>2021-03-13T08:04:42Z</time>
      </trkpt>
      <trkpt lat="45.37635" lon="5.59121">
        <ele>472.8</ele>
        <time>2021-03-13T08:04:46Z</time>
      </trkpt>
      <trkpt lat="45.37643" lon="5.59125">
        <ele>472.4</ele>
        <time>2021-03-13T08:04:50Z</time>
      </trkpt>
      <trkpt lat="45.37652" lon="5.59129">
        <ele>472.2</ele>
        <time>2021-03-13T08:04:54Z</time>
      </trkpt>
      <trkpt lat="45.37662" lon="5.59134">
        <ele>471.6</ele>
        <time>2021-03-13T08:04:58Z</time>
      </trkpt>
      <trkpt lat="45.37675" lon="5.59139">
        <ele>471.6</ele>
        <time>2021-03-13T08:05:02Z</time>
      </trkpt>
      <trkpt lat="45.37688" lon="5.59145">
        <ele>471.8</ele>
        <time>2021-03-13T08:05:06Z</time>
      </trkpt>
      <trkpt lat="45.37699" lon="5.59153">
        <ele>471.4</ele>
        <time>2021-03-13T08:05:10Z</time>
      </trkpt>
      <trkpt lat="45.37712" lon="5.5916">
        <ele>472.2</ele>
        <time>2021-03-13T08:05:14Z</time>
      </trkpt>
      <trkpt lat="45.37726" lon="5.59166">
        <ele>471.4</ele>
        <time>2021-03-13T08:05:18Z</time>
      </trkpt>
      <trkpt lat="45.37739" lon="5.59173">
        <ele>472</ele>
        <time>2021-03-13T08:05:22Z</time>
      </trkpt>
      <trkpt lat="45.37752" lon="5.59179">
        <ele>472.6</ele>
        <time>2021-03-13T08:05:26Z</time>
      </trkpt>
      <trkpt lat="45.37764" lon="5.59185">
        <ele>472.2</ele>
        <time>2021-03-13T08:05:30Z</time>
      </trkpt>
      <trkpt lat="45.37779" lon="5.59189">
        <ele>472.2</ele>
        <time>2021-03-13T08:05:34Z</time>
      </trkpt>
      <trkpt lat="45.37794" lon="5.59189">
        <ele>473.4</ele>
        <time>2021-03-13T08:05:38Z</time>
      </trkpt>
      <trkpt lat="45.37807" lon="5.59189">
        <ele>473.4</ele>
        <time>2021-03-13T08:05:42Z</time>
      </trkpt>
      <trkpt lat="45.3782" lon="5.59188">
        <ele>473.8</ele>
        <time>2021-03-13T08:05:46Z</time>
      </trkpt>
      <trkpt lat="45.37832" lon="5.59188">
        <ele>474.2</ele>
        <time>2021-03-13T08:05:50Z</time>
      </trkpt>
      <trkpt lat="45.37842" lon="5.59189">
        <ele>475.4</ele>
        <time>2021-03-13T08:05:54Z</time>
      </trkpt>
      <trkpt lat="45.37851" lon="5.59192">
        <ele>475.8</ele>
        <time>2021-03-13T08:05:58Z</time>
      </trkpt>
      <trkpt lat="45.37858" lon="5.59196">
        <ele>476.4</ele>
        <time>2021-03-13T08:06:02Z</time>
      </trkpt>
      <trkpt lat="45.37865" lon="5.592">
        <ele>476.8</ele>
        <time>2021-03-13T08:06:06Z</time>
      </trkpt>
      <trkpt lat="45.37872" lon="5.59204">
        <ele>477.4</ele>
        <time>2021-03-13T08:06:10Z</time>
      </trkpt>
      <trkpt lat="45.37879" lon="5.59208">
        <ele>478.2</ele>
        <time>2021-03-13T08:06:14Z</time>
      </trkpt>
      <trkpt lat="45.37885" lon="5.59211">
        <ele>479</ele>
        <time>2021-03-13T08:06:18Z</time>
      </trkpt>
      <trkpt lat="45.37891" lon="5.59215">
        <ele>479.6</ele>
        <time>2021-03-13T08:06:22Z</time>
      </trkpt>
      <trkpt lat="45.37898" lon="5.59218">
        <ele>480</ele>
        <time>2021-03-13T08:06:26Z</time>
      </trkpt>
      <trkpt lat="45.37904" lon="5.59222">
        <ele>480.6</ele>
        <time>2021-03-13T08:06:30Z</time>
      </trkpt>
      <trkpt lat="45.37908" lon="5.59226">
        <ele>481.6</ele>
        <time>2021-03-13T08:06:34Z</time>
      </trkpt>
      <trkpt lat="45.37913" lon="5.59229">
        <ele>481.8</ele>
        <time>2021-03-13T08:06:38Z</time>
      </trkpt>
      <trkpt lat="45.37921" lon="5.59232">
        <ele>483.8</ele>
        <time>2021-03-13T08:06:42Z</time>
      </trkpt>
      <trkpt lat="45.37926" lon="5.59235">
        <ele>484.4</ele>
        <time>2021-03-13T08:06:46Z</time>
      </trkpt>
      <trkpt lat="45.37931" lon="5.59238">
        <ele>485</ele>
        <time>2021-03-13T08:06:50Z</time>
      </trkpt>
      <trkpt lat="45.37936" lon="5.59243">
        <ele>486</ele>
        <time>2021-03-13T08:06:54Z</time>
      </trkpt>
      <trkpt lat="45.37941" lon="5.59246">
        <ele>486.8</ele>
        <time>2021-03-13T08:06:58Z</time>
      </trkpt>
      <trkpt lat="45.37947" lon="5.59249">
        <ele>487.2</ele>
        <time>2021-03-13T08:07:02Z</time>
      </trkpt>
      <trkpt lat="45.37951" lon="5.59253">
        <ele>488</ele>
        <time>2021-03-13T08:07:06Z</time>
      </trkpt>
      <trkpt lat="45.37955" lon="5.59258">
        <ele>489.4</ele>
        <time>2021-03-13T08:07:10Z</time>
      </trkpt>
      <trkpt lat="45.3796" lon="5.59262">
        <ele>490</ele>
        <time>2021-03-13T08:07:14Z</time>
      </trkpt>
      <trkpt lat="45.37964" lon="5.59266">
        <ele>490.2</ele>
        <time>2021-03-13T08:07:18Z</time>
      </trkpt>
      <trkpt lat="45.37969" lon="5.59269">
        <ele>491</ele>
        <time>2021-03-13T08:07:22Z</time>
      </trkpt>
      <trkpt lat="45.37975" lon="5.59272">
        <ele>492.2</ele>
        <time>2021-03-13T08:07:26Z</time>
      </trkpt>
      <trkpt lat="45.37981" lon="5.59274">
        <ele>492.8</ele>
        <time>2021-03-13T08:07:30Z</time>
      </trkpt>
      <trkpt lat="45.37987" lon="5.59276">
        <ele>493.4</ele>
        <time>2021-03-13T08:07:34Z</time>
      </trkpt>
      <trkpt lat="45.37994" lon="5.59277">
        <ele>494.2</ele>
        <time>2021-03-13T08:07:38Z</time>
      </trkpt>
      <trkpt lat="45.37999" lon="5.59278">
        <ele>495.2</ele>
        <time>2021-03-13T08:07:42Z</time>
      </trkpt>
      <trkpt lat="45.38005" lon="5.59279">
        <ele>495.6</ele>
        <time>2021-03-13T08:07:46Z</time>
      </trkpt>
      <trkpt lat="45.3801" lon="5.59281">
        <ele>496.6</ele>
        <time>2021-03-13T08:07:50Z</time>
      </trkpt>
      <trkpt lat="45.38016" lon="5.59282">
        <ele>497.8</ele>
        <time>2021-03-13T08:07:54Z</time>
      </trkpt>
      <trkpt lat="45.38021" lon="5.59284">
        <ele>498.6</ele>
        <time>2021-03-13T08:07:58Z</time>
      </trkpt>
      <trkpt lat="45.38025" lon="5.59287">
        <ele>498.6</ele>
        <time>2021-03-13T08:08:02Z</time>
      </trkpt>
      <trkpt lat="45.38027" lon="5.59292">
        <ele>499</ele>
        <time>2021-03-13T08:08:06Z</time>
      </trkpt>
      <trkpt lat="45.3803" lon="5.59295">
        <ele>500</ele>
        <time>2021-03-13T08:08:10Z</time>
      </trkpt>
      <trkpt lat="45.38034" lon="5.59297">
        <ele>501.6</ele>
        <time>2021-03-13T08:08:14Z</time>
      </trkpt>
      <trkpt lat="45.38037" lon="5.59301">
        <ele>502</ele>
        <time>2021-03-13T08:08:18Z</time>
      </trkpt>
      <trkpt lat="45.38042" lon="5.59303">
        <ele>502.4</ele>
        <time>2021-03-13T08:08:22Z</time>
      </trkpt>
      <trkpt lat="45.3805" lon="5.59303">
        <ele>503.8</ele>
        <time>2021-03-13T08:08:26Z</time>
      </trkpt>
      <trkpt lat="45.38054" lon="5.59303">
        <ele>504.6</ele>
        <time>2021-03-13T08:08:30Z</time>
      </trkpt>
      <trkpt lat="45.38058" lon="5.59307">
        <ele>505.2</ele>
        <time>2021-03-13T08:08:34Z</time>
      </trkpt>
      <trkpt lat="45.38061" lon="5.59313">
        <ele>506.4</ele>
        <time>2021-03-13T08:08:38Z</time>
      </trkpt>
      <trkpt lat="45.38064" lon="5.59318">
        <ele>507.2</ele>
        <time>2021-03-13T08:08:42Z</time>
      </trkpt>
      <trkpt lat="45.38066" lon="5.59322">
        <ele>508</ele>
        <time>2021-03-13T08:08:46Z</time>
      </trkpt>
      <trkpt lat="45.38068" lon="5.59326">
        <ele>508.8</ele>
        <time>2021-03-13T08:08:50Z</time>
      </trkpt>
      <trkpt lat="45.3807" lon="5.59329">
        <ele>509.4</ele>
        <time>2021-03-13T08:08:54Z</time>
      </trkpt>
      <trkpt lat="45.38072" lon="5.59334">
        <ele>510</ele>
        <time>2021-03-13T08:08:58Z</time>
      </trkpt>
      <trkpt lat="45.38075" lon="5.59338">
        <ele>511</ele>
        <time>2021-03-13T08:09:02Z</time>
      </trkpt>
      <trkpt lat="45.38079" lon="5.59343">
        <ele>511.6</ele>
        <time>2021-03-13T08:09:06Z</time>
      </trkpt>
      <trkpt lat="45.38079" lon="5.59349">
        <ele>511.8</ele>
        <time>2021-03-13T08:09:10Z</time>
      </trkpt>
      <trkpt lat="45.38082" lon="5.59354">
        <ele>512.6</ele>
        <time>2021-03-13T08:09:14Z</time>
      </trkpt>
      <trkpt lat="45.38083" lon="5.59359">
        <ele>513.4</ele>
        <time>2021-03-13T08:09:18Z</time>
      </trkpt>
      <trkpt lat="45.38084" lon="5.59365">
        <ele>514.2</ele>
        <time>2021-03-13T08:09:22Z</time>
      </trkpt>
      <trkpt lat="45.38085" lon="5.5937">
        <ele>515.4</ele>
        <time>2021-03-13T08:09:26Z</time>
      </trkpt>
      <trkpt lat="45.38086" lon="5.59376">
        <ele>515.4</ele>
        <time>2021-03-13T08:09:30Z</time>
      </trkpt>
      <trkpt lat="45.38083" lon="5.59381">
        <ele>516.8</ele>
        <time>2021-03-13T08:09:34Z</time>
      </trkpt>
      <trkpt lat="45.38085" lon="5.59387">
        <ele>517.4</ele>
        <time>2021-03-13T08:09:38Z</time>
      </trkpt>
      <trkpt lat="45.38087" lon="5.59393">
        <ele>518.4</ele>
        <time>2021-03-13T08:09:42Z</time>
      </trkpt>
      <trkpt lat="45.38087" lon="5.59397">
        <ele>518.6</ele>
        <time>2021-03-13T08:09:46Z</time>
      </trkpt>
      <trkpt lat="45.38086" lon="5.59402">
        <ele>519.6</ele>
        <time>2021-03-13T08:09:50Z</time>
      </trkpt>
      <trkpt lat="45.38087" lon="5.59408">
        <ele>520.6</ele>
        <time>2021-03-13T08:09:54Z</time>
      </trkpt>
      <trkpt lat="45.38085" lon="5.59414">
        <ele>521.6</ele>
        <time>2021-03-13T08:09:58Z</time>
      </trkpt>
      <trkpt lat="45.38085" lon="5.59418">
        <ele>522.4</ele>
        <time>2021-03-13T08:10:02Z</time>
      </trkpt>
      <trkpt lat="45.38086" lon="5.59424">
        <ele>523.6</ele>
        <time>2021-03-13T08:10:06Z</time>
      </trkpt>
      <trkpt lat="45.38087" lon="5.59429">
        <ele>524.2</ele>
        <time>2021-03-13T08:10:10Z</time>
      </trkpt>
      <trkpt lat="45.38089" lon="5.59432">
        <ele>525</ele>
        <time>2021-03-13T08:10:14Z</time>
      </trkpt>
      <trkpt lat="45.38091" lon="5.59437">
        <ele>526</ele>
        <time>2021-03-13T08:10:18Z</time>
      </trkpt>
      <trkpt lat="45.38093" lon="5.59441">
        <ele>527</ele>
        <time>2021-03-13T08:10:22Z</time>
      </trkpt>
      <trkpt lat="45.38096" lon="5.59444">
        <ele>527.8</ele>
        <time>2021-03-13T08:10:26Z</time>
      </trkpt>
      <trkpt lat="45.38096" lon="5.5945">
        <ele>529</ele>
        <time>2021-03-13T08:10:30Z</time>
      </trkpt>
      <trkpt lat="45.38099" lon="5.59453">
        <ele>529.4</ele>
        <time>2021-03-13T08:10:34Z</time>
      </trkpt>
      <trkpt lat="45.38102" lon="5.59455">
        <ele>530</ele>
        <time>2021-03-13T08:10:38Z</time>
      </trkpt>
      <trkpt lat="45.38103" lon="5.5946">
        <ele>531</ele>
        <time>2021-03-13T08:10:42Z</time>
      </trkpt>
      <trkpt lat="45.38106" lon="5.59462">
        <ele>531.6</ele>
        <time>2021-03-13T08:10:46Z</time>
      </trkpt>
      <trkpt lat="45.38106" lon="5.59467">
        <ele>532.4</ele>
        <time>2021-03-13T08:10:50Z</time>
      </trkpt>
      <trkpt lat="45.38108" lon="5.5947">
        <ele>533.2</ele>
        <time>2021-03-13T08:10:54Z</time>
      </trkpt>
      <trkpt lat="45.3811" lon="5.59475">
        <ele>533.6</ele>
        <time>2021-03-13T08:10:58Z</time>
      </trkpt>
      <trkpt lat="45.38113" lon="5.59477">
        <ele>535</ele>
        <time>2021-03-13T08:11:02Z</time>
      </trkpt>
      <trkpt lat="45.38114" lon="5.59481">
        <ele>535.4</ele>
        <time>2021-03-13T08:11:06Z</time>
      </trkpt>
      <trkpt lat="45.38116" lon="5.59485">
        <ele>536.2</ele>
        <time>2021-03-13T08:11:10Z</time>
      </trkpt>
      <trkpt lat="45.38117" lon="5.59489">
        <ele>536.2</ele>
        <time>2021-03-13T08:11:14Z</time>
      </trkpt>
      <trkpt lat="45.38118" lon="5.59492">
        <ele>537.4</ele>
        <time>2021-03-13T08:11:18Z</time>
      </trkpt>
      <trkpt lat="45.3812" lon="5.59495">
        <ele>538</ele>
        <time>2021-03-13T08:11:22Z</time>
      </trkpt>
      <trkpt lat="45.38164" lon="5.59543">
        <ele>548</ele>
        <time>2021-03-13T08:13:03Z</time>
      </trkpt>
      <trkpt lat="45.38168" lon="5.59548">
        <ele>548.6</ele>
        <time>2021-03-13T08:13:07Z</time>
      </trkpt>
      <trkpt lat="45.38172" lon="5.59551">
        <ele>549.2</ele>
        <time>2021-03-13T08:13:11Z</time>
      </trkpt>
      <trkpt lat="45.38175" lon="5.59556">
        <ele>550</ele>
        <time>2021-03-13T08:13:15Z</time>
      </trkpt>
      <trkpt lat="45.38178" lon="5.59559">
        <ele>551.8</ele>
        <time>2021-03-13T08:13:19Z</time>
      </trkpt>
      <trkpt lat="45.38183" lon="5.59562">
        <ele>552.2</ele>
        <time>2021-03-13T08:13:23Z</time>
      </trkpt>
      <trkpt lat="45.38189" lon="5.59568">
        <ele>553.2</ele>
        <time>2021-03-13T08:13:27Z</time>
      </trkpt>
      <trkpt lat="45.38193" lon="5.59574">
        <ele>554</ele>
        <time>2021-03-13T08:13:31Z</time>
      </trkpt>
      <trkpt lat="45.38198" lon="5.59577">
        <ele>555</ele>
        <time>2021-03-13T08:13:35Z</time>
      </trkpt>
      <trkpt lat="45.38202" lon="5.59581">
        <ele>555</ele>
        <time>2021-03-13T08:13:39Z</time>
      </trkpt>
      <trkpt lat="45.38222" lon="5.59611">
        <ele>558</ele>
        <time>2021-03-13T08:13:58Z</time>
      </trkpt>
      <trkpt lat="45.38226" lon="5.59616">
        <ele>559</ele>
        <time>2021-03-13T08:14:02Z</time>
      </trkpt>
      <trkpt lat="45.38231" lon="5.59622">
        <ele>560</ele>
        <time>2021-03-13T08:14:06Z</time>
      </trkpt>
      <trkpt lat="45.38236" lon="5.59631">
        <ele>560.6</ele>
        <time>2021-03-13T08:14:10Z</time>
      </trkpt>
      <trkpt lat="45.38242" lon="5.59637">
        <ele>561.4</ele>
        <time>2021-03-13T08:14:14Z</time>
      </trkpt>
      <trkpt lat="45.38248" lon="5.59642">
        <ele>561.8</ele>
        <time>2021-03-13T08:14:18Z</time>
      </trkpt>
      <trkpt lat="45.38254" lon="5.59649">
        <ele>562.2</ele>
        <time>2021-03-13T08:14:22Z</time>
      </trkpt>
      <trkpt lat="45.38259" lon="5.59656">
        <ele>563.2</ele>
        <time>2021-03-13T08:14:26Z</time>
      </trkpt>
      <trkpt lat="45.38263" lon="5.5966">
        <ele>563.8</ele>
        <time>2021-03-13T08:14:30Z</time>
      </trkpt>
      <trkpt lat="45.38267" lon="5.59665">
        <ele>564.8</ele>
        <time>2021-03-13T08:14:34Z</time>
      </trkpt>
      <trkpt lat="45.38272" lon="5.59669">
        <ele>564.8</ele>
        <time>2021-03-13T08:14:38Z</time>
      </trkpt>
      <trkpt lat="45.38278" lon="5.59674">
        <ele>565.6</ele>
        <time>2021-03-13T08:14:42Z</time>
      </trkpt>
      <trkpt lat="45.38283" lon="5.59678">
        <ele>566</ele>
        <time>2021-03-13T08:14:46Z</time>
      </trkpt>
      <trkpt lat="45.38288" lon="5.59683">
        <ele>566.4</ele>
        <time>2021-03-13T08:14:50Z</time>
      </trkpt>
      <trkpt lat="45.38292" lon="5.59685">
        <ele>566.8</ele>
        <time>2021-03-13T08:14:54Z</time>
      </trkpt>
      <trkpt lat="45.38299" lon="5.59689">
        <ele>567.2</ele>
        <time>2021-03-13T08:14:58Z</time>
      </trkpt>
      <trkpt lat="45.38307" lon="5.59691">
        <ele>567.4</ele>
        <time>2021-03-13T08:15:02Z</time>
      </trkpt>
      <trkpt lat="45.38312" lon="5.59694">
        <ele>568</ele>
        <time>2021-03-13T08:15:06Z</time>
      </trkpt>
      <trkpt lat="45.38318" lon="5.59699">
        <ele>568.4</ele>
        <time>2021-03-13T08:15:10Z</time>
      </trkpt>
      <trkpt lat="45.38324" lon="5.59702">
        <ele>569.2</ele>
        <time>2021-03-13T08:15:14Z</time>
      </trkpt>
      <trkpt lat="45.38331" lon="5.59706">
        <ele>569.6</ele>
        <time>2021-03-13T08:15:18Z</time>
      </trkpt>
      <trkpt lat="45.38338" lon="5.59711">
        <ele>570.6</ele>
        <time>2021-03-13T08:15:22Z</time>
      </trkpt>
      <trkpt lat="45.38346" lon="5.59713">
        <ele>571</ele>
        <time>2021-03-13T08:15:26Z</time>
      </trkpt>
      <trkpt lat="45.38354" lon="5.59714">
        <ele>571.2</ele>
        <time>2021-03-13T08:15:30Z</time>
      </trkpt>
      <trkpt lat="45.38363" lon="5.59716">
        <ele>571.6</ele>
        <time>2021-03-13T08:15:34Z</time>
      </trkpt>
      <trkpt lat="45.38376" lon="5.59716">
        <ele>571.6</ele>
        <time>2021-03-13T08:15:38Z</time>
      </trkpt>
      <trkpt lat="45.38386" lon="5.59717">
        <ele>572.2</ele>
        <time>2021-03-13T08:15:42Z</time>
      </trkpt>
      <trkpt lat="45.38397" lon="5.59716">
        <ele>573.2</ele>
        <time>2021-03-13T08:15:46Z</time>
      </trkpt>
      <trkpt lat="45.38406" lon="5.59717">
        <ele>572.4</ele>
        <time>2021-03-13T08:15:50Z</time>
      </trkpt>
      <trkpt lat="45.38414" lon="5.59719">
        <ele>573.2</ele>
        <time>2021-03-13T08:15:54Z</time>
      </trkpt>
      <trkpt lat="45.3842" lon="5.59722">
        <ele>574.2</ele>
        <time>2021-03-13T08:15:58Z</time>
      </trkpt>
      <trkpt lat="45.38425" lon="5.59727">
        <ele>574.6</ele>
        <time>2021-03-13T08:16:02Z</time>
      </trkpt>
      <trkpt lat="45.3843" lon="5.59732">
        <ele>575.6</ele>
        <time>2021-03-13T08:16:06Z</time>
      </trkpt>
      <trkpt lat="45.38436" lon="5.59736">
        <ele>576</ele>
        <time>2021-03-13T08:16:10Z</time>
      </trkpt>
      <trkpt lat="45.38444" lon="5.59737">
        <ele>576.6</ele>
        <time>2021-03-13T08:16:14Z</time>
      </trkpt>
      <trkpt lat="45.38452" lon="5.59736">
        <ele>576</ele>
        <time>2021-03-13T08:16:18Z</time>
      </trkpt>
      <trkpt lat="45.3846" lon="5.59735">
        <ele>577.4</ele>
        <time>2021-03-13T08:16:22Z</time>
      </trkpt>
      <trkpt lat="45.38467" lon="5.59734">
        <ele>577.8</ele>
        <time>2021-03-13T08:16:26Z</time>
      </trkpt>
      <trkpt lat="45.38474" lon="5.59733">
        <ele>578.2</ele>
        <time>2021-03-13T08:16:30Z</time>
      </trkpt>
      <trkpt lat="45.3848" lon="5.59732">
        <ele>579</ele>
        <time>2021-03-13T08:16:34Z</time>
      </trkpt>
      <trkpt lat="45.38487" lon="5.59732">
        <ele>579.6</ele>
        <time>2021-03-13T08:16:38Z</time>
      </trkpt>
      <trkpt lat="45.38491" lon="5.59735">
        <ele>580.6</ele>
        <time>2021-03-13T08:16:42Z</time>
      </trkpt>
      <trkpt lat="45.38492" lon="5.59744">
        <ele>581.4</ele>
        <time>2021-03-13T08:16:46Z</time>
      </trkpt>
      <trkpt lat="45.38488" lon="5.59748">
        <ele>582</ele>
        <time>2021-03-13T08:16:50Z</time>
      </trkpt>
      <trkpt lat="45.38485" lon="5.59753">
        <ele>583.2</ele>
        <time>2021-03-13T08:16:54Z</time>
      </trkpt>
      <trkpt lat="45.38482" lon="5.59757">
        <ele>583.8</ele>
        <time>2021-03-13T08:16:58Z</time>
      </trkpt>
      <trkpt lat="45.38479" lon="5.59761">
        <ele>584.6</ele>
        <time>2021-03-13T08:17:02Z</time>
      </trkpt>
      <trkpt lat="45.38476" lon="5.59763">
        <ele>585.4</ele>
        <time>2021-03-13T08:17:06Z</time>
      </trkpt>
      <trkpt lat="45.38472" lon="5.59768">
        <ele>586.4</ele>
        <time>2021-03-13T08:17:10Z</time>
      </trkpt>
      <trkpt lat="45.38468" lon="5.5977">
        <ele>587</ele>
        <time>2021-03-13T08:17:14Z</time>
      </trkpt>
      <trkpt lat="45.38468" lon="5.5977">
        <ele>587.6</ele>
        <time>2021-03-13T08:17:18Z</time>
      </trkpt>
      <trkpt lat="45.38465" lon="5.59774">
        <ele>588.4</ele>
        <time>2021-03-13T08:17:22Z</time>
      </trkpt>
      <trkpt lat="45.38461" lon="5.59781">
        <ele>589.4</ele>
        <time>2021-03-13T08:17:26Z</time>
      </trkpt>
      <trkpt lat="45.38458" lon="5.59784">
        <ele>590.4</ele>
        <time>2021-03-13T08:17:30Z</time>
      </trkpt>
      <trkpt lat="45.38454" lon="5.59788">
        <ele>591.2</ele>
        <time>2021-03-13T08:17:34Z</time>
      </trkpt>
      <trkpt lat="45.38451" lon="5.59792">
        <ele>592.2</ele>
        <time>2021-03-13T08:17:38Z</time>
      </trkpt>
      <trkpt lat="45.38447" lon="5.59794">
        <ele>593</ele>
        <time>2021-03-13T08:17:42Z</time>
      </trkpt>
      <trkpt lat="45.38444" lon="5.59797">
        <ele>593.6</ele>
        <time>2021-03-13T08:17:46Z</time>
      </trkpt>
      <trkpt lat="45.3844" lon="5.59801">
        <ele>594.4</ele>
        <time>2021-03-13T08:17:50Z</time>
      </trkpt>
      <trkpt lat="45.38436" lon="5.59803">
        <ele>595</ele>
        <time>2021-03-13T08:17:54Z</time>
      </trkpt>
      <trkpt lat="45.38433" lon="5.59806">
        <ele>595.6</ele>
        <time>2021-03-13T08:17:58Z</time>
      </trkpt>
      <trkpt lat="45.38429" lon="5.59809">
        <ele>596.8</ele>
        <time>2021-03-13T08:18:02Z</time>
      </trkpt>
      <trkpt lat="45.38366" lon="5.59929">
        <ele>602.4</ele>
        <time>2021-03-13T08:19:51Z</time>
      </trkpt>
      <trkpt lat="45.38367" lon="5.59957">
        <ele>600.4</ele>
        <time>2021-03-13T08:19:55Z</time>
      </trkpt>
      <trkpt lat="45.38363" lon="5.60006">
        <ele>598.6</ele>
        <time>2021-03-13T08:19:59Z</time>
      </trkpt>
      <trkpt lat="45.38353" lon="5.60056">
        <ele>598.6</ele>
        <time>2021-03-13T08:20:03Z</time>
      </trkpt>
      <trkpt lat="45.3835" lon="5.601">
        <ele>598.2</ele>
        <time>2021-03-13T08:20:07Z</time>
      </trkpt>
      <trkpt lat="45.38357" lon="5.6014">
        <ele>596.4</ele>
        <time>2021-03-13T08:20:11Z</time>
      </trkpt>
      <trkpt lat="45.38363" lon="5.60175">
        <ele>595.8</ele>
        <time>2021-03-13T08:20:15Z</time>
      </trkpt>
      <trkpt lat="45.38366" lon="5.60207">
        <ele>595.4</ele>
        <time>2021-03-13T08:20:19Z</time>
      </trkpt>
      <trkpt lat="45.38365" lon="5.60234">
        <ele>595.6</ele>
        <time>2021-03-13T08:20:23Z</time>
      </trkpt>
      <trkpt lat="45.3836" lon="5.60261">
        <ele>594.4</ele>
        <time>2021-03-13T08:20:27Z</time>
      </trkpt>
      <trkpt lat="45.38357" lon="5.60287">
        <ele>594.4</ele>
        <time>2021-03-13T08:20:31Z</time>
      </trkpt>
      <trkpt lat="45.38352" lon="5.60312">
        <ele>594.8</ele>
        <time>2021-03-13T08:20:35Z</time>
      </trkpt>
      <trkpt lat="45.38349" lon="5.60335">
        <ele>595.6</ele>
        <time>2021-03-13T08:20:39Z</time>
      </trkpt>
      <trkpt lat="45.38348" lon="5.60357">
        <ele>596.4</ele>
        <time>2021-03-13T08:20:43Z</time>
      </trkpt>
      <trkpt lat="45.38349" lon="5.60379">
        <ele>596.2</ele>
        <time>2021-03-13T08:20:47Z</time>
      </trkpt>
      <trkpt lat="45.38346" lon="5.60399">
        <ele>596.2</ele>
        <time>2021-03-13T08:20:51Z</time>
      </trkpt>
      <trkpt lat="45.38343" lon="5.60417">
        <ele>596.8</ele>
        <time>2021-03-13T08:20:55Z</time>
      </trkpt>
      <trkpt lat="45.38337" lon="5.60435">
        <ele>596.4</ele>
        <time>2021-03-13T08:20:59Z</time>
      </trkpt>
      <trkpt lat="45.38334" lon="5.60451">
        <ele>596.6</ele>
        <time>2021-03-13T08:21:03Z</time>
      </trkpt>
      <trkpt lat="45.3833" lon="5.60467">
        <ele>596.4</ele>
        <time>2021-03-13T08:21:07Z</time>
      </trkpt>
      <trkpt lat="45.38333" lon="5.60499">
        <ele>597</ele>
        <time>2021-03-13T08:25:35Z</time>
      </trkpt>
      <trkpt lat="45.38331" lon="5.60513">
        <ele>597</ele>
        <time>2021-03-13T08:25:39Z</time>
      </trkpt>
      <trkpt lat="45.38328" lon="5.60529">
        <ele>596.2</ele>
        <time>2021-03-13T08:25:43Z</time>
      </trkpt>
      <trkpt lat="45.38326" lon="5.60549">
        <ele>595</ele>
        <time>2021-03-13T08:25:47Z</time>
      </trkpt>
      <trkpt lat="45.3832" lon="5.60573">
        <ele>593.6</ele>
        <time>2021-03-13T08:25:51Z</time>
      </trkpt>
      <trkpt lat="45.3831" lon="5.60603">
        <ele>593.8</ele>
        <time>2021-03-13T08:25:55Z</time>
      </trkpt>
      <trkpt lat="45.38301" lon="5.60634">
        <ele>592.6</ele>
        <time>2021-03-13T08:25:59Z</time>
      </trkpt>
      <trkpt lat="45.38298" lon="5.60667">
        <ele>590.6</ele>
        <time>2021-03-13T08:26:03Z</time>
      </trkpt>
      <trkpt lat="45.38295" lon="5.60698">
        <ele>591</ele>
        <time>2021-03-13T08:26:07Z</time>
      </trkpt>
      <trkpt lat="45.38291" lon="5.60727">
        <ele>590</ele>
        <time>2021-03-13T08:26:11Z</time>
      </trkpt>
      <trkpt lat="45.38288" lon="5.60762">
        <ele>588</ele>
        <time>2021-03-13T08:26:15Z</time>
      </trkpt>
      <trkpt lat="45.38287" lon="5.60805">
        <ele>586</ele>
        <time>2021-03-13T08:26:19Z</time>
      </trkpt>
      <trkpt lat="45.38288" lon="5.60849">
        <ele>585.2</ele>
        <time>2021-03-13T08:26:23Z</time>
      </trkpt>
      <trkpt lat="45.3829" lon="5.6089">
        <ele>585.2</ele>
        <time>2021-03-13T08:26:27Z</time>
      </trkpt>
      <trkpt lat="45.38293" lon="5.60927">
        <ele>584.4</ele>
        <time>2021-03-13T08:26:31Z</time>
      </trkpt>
      <trkpt lat="45.38294" lon="5.60963">
        <ele>583.6</ele>
        <time>2021-03-13T08:26:35Z</time>
      </trkpt>
      <trkpt lat="45.38295" lon="5.60998">
        <ele>583.2</ele>
        <time>2021-03-13T08:26:39Z</time>
      </trkpt>
      <trkpt lat="45.38297" lon="5.61032">
        <ele>582.8</ele>
        <time>2021-03-13T08:26:43Z</time>
      </trkpt>
      <trkpt lat="45.383" lon="5.61062">
        <ele>583</ele>
        <time>2021-03-13T08:26:47Z</time>
      </trkpt>
      <trkpt lat="45.38303" lon="5.6109">
        <ele>582.4</ele>
        <time>2021-03-13T08:26:51Z</time>
      </trkpt>
      <trkpt lat="45.38306" lon="5.61116">
        <ele>582.6</ele>
        <time>2021-03-13T08:26:55Z</time>
      </trkpt>
      <trkpt lat="45.38309" lon="5.61142">
        <ele>582.6</ele>
        <time>2021-03-13T08:26:59Z</time>
      </trkpt>
      <trkpt lat="45.38314" lon="5.61169">
        <ele>583</ele>
        <time>2021-03-13T08:27:03Z</time>
      </trkpt>
      <trkpt lat="45.38317" lon="5.61194">
        <ele>583.2</ele>
        <time>2021-03-13T08:27:07Z</time>
      </trkpt>
      <trkpt lat="45.38319" lon="5.61219">
        <ele>583</ele>
        <time>2021-03-13T08:27:11Z</time>
      </trkpt>
      <trkpt lat="45.3832" lon="5.61246">
        <ele>582.6</ele>
        <time>2021-03-13T08:27:15Z</time>
      </trkpt>
      <trkpt lat="45.38318" lon="5.61273">
        <ele>582.2</ele>
        <time>2021-03-13T08:27:19Z</time>
      </trkpt>
      <trkpt lat="45.38316" lon="5.61297">
        <ele>582</ele>
        <time>2021-03-13T08:27:23Z</time>
      </trkpt>
      <trkpt lat="45.38315" lon="5.61317">
        <ele>581.8</ele>
        <time>2021-03-13T08:27:27Z</time>
      </trkpt>
      <trkpt lat="45.38316" lon="5.6131">
        <ele>581.4</ele>
        <time>2021-03-13T08:27:50Z</time>
      </trkpt>
      <trkpt lat="45.38318" lon="5.61293">
        <ele>582</ele>
        <time>2021-03-13T08:27:54Z</time>
      </trkpt>
      <trkpt lat="45.3832" lon="5.61271">
        <ele>581.6</ele>
        <time>2021-03-13T08:27:58Z</time>
      </trkpt>
      <trkpt lat="45.3832" lon="5.61249">
        <ele>581.2</ele>
        <time>2021-03-13T08:28:02Z</time>
      </trkpt>
      <trkpt lat="45.38315" lon="5.61234">
        <ele>583.2</ele>
        <time>2021-03-13T08:28:06Z</time>
      </trkpt>
      <trkpt lat="45.38302" lon="5.61221">
        <ele>582.6</ele>
        <time>2021-03-13T08:28:10Z</time>
      </trkpt>
      <trkpt lat="45.38287" lon="5.61209">
        <ele>582.8</ele>
        <time>2021-03-13T08:28:14Z</time>
      </trkpt>
      <trkpt lat="45.38273" lon="5.61199">
        <ele>583</ele>
        <time>2021-03-13T08:28:18Z</time>
      </trkpt>
      <trkpt lat="45.38259" lon="5.6119">
        <ele>582.6</ele>
        <time>2021-03-13T08:28:22Z</time>
      </trkpt>
      <trkpt lat="45.38246" lon="5.61181">
        <ele>583.2</ele>
        <time>2021-03-13T08:28:26Z</time>
      </trkpt>
      <trkpt lat="45.38238" lon="5.61174">
        <ele>583.4</ele>
        <time>2021-03-13T08:28:30Z</time>
      </trkpt>
      <trkpt lat="45.38246" lon="5.6118">
        <ele>583.2</ele>
        <time>2021-03-13T08:28:49Z</time>
      </trkpt>
      <trkpt lat="45.38258" lon="5.61188">
        <ele>583</ele>
        <time>2021-03-13T08:28:53Z</time>
      </trkpt>
      <trkpt lat="45.38269" lon="5.61198">
        <ele>583.4</ele>
        <time>2021-03-13T08:28:57Z</time>
      </trkpt>
      <trkpt lat="45.38279" lon="5.61206">
        <ele>583.6</ele>
        <time>2021-03-13T08:29:01Z</time>
      </trkpt>
      <trkpt lat="45.38291" lon="5.61215">
        <ele>583.6</ele>
        <time>2021-03-13T08:29:05Z</time>
      </trkpt>
      <trkpt lat="45.38301" lon="5.61222">
        <ele>583.2</ele>
        <time>2021-03-13T08:29:09Z</time>
      </trkpt>
      <trkpt lat="45.38309" lon="5.61229">
        <ele>583</ele>
        <time>2021-03-13T08:29:13Z</time>
      </trkpt>
      <trkpt lat="45.38318" lon="5.61241">
        <ele>582.8</ele>
        <time>2021-03-13T08:29:17Z</time>
      </trkpt>
      <trkpt lat="45.38328" lon="5.6125">
        <ele>582</ele>
        <time>2021-03-13T08:29:21Z</time>
      </trkpt>
      <trkpt lat="45.38344" lon="5.61261">
        <ele>582</ele>
        <time>2021-03-13T08:29:25Z</time>
      </trkpt>
      <trkpt lat="45.3836" lon="5.61271">
        <ele>580.6</ele>
        <time>2021-03-13T08:29:29Z</time>
      </trkpt>
      <trkpt lat="45.38378" lon="5.61284">
        <ele>580.6</ele>
        <time>2021-03-13T08:29:33Z</time>
      </trkpt>
      <trkpt lat="45.38398" lon="5.61297">
        <ele>579.6</ele>
        <time>2021-03-13T08:29:37Z</time>
      </trkpt>
      <trkpt lat="45.38419" lon="5.61309">
        <ele>579.6</ele>
        <time>2021-03-13T08:29:41Z</time>
      </trkpt>
      <trkpt lat="45.38441" lon="5.61316">
        <ele>579</ele>
        <time>2021-03-13T08:29:45Z</time>
      </trkpt>
      <trkpt lat="45.38462" lon="5.61323">
        <ele>578</ele>
        <time>2021-03-13T08:29:49Z</time>
      </trkpt>
      <trkpt lat="45.38483" lon="5.61329">
        <ele>578</ele>
        <time>2021-03-13T08:29:53Z</time>
      </trkpt>
      <trkpt lat="45.38505" lon="5.61334">
        <ele>576.8</ele>
        <time>2021-03-13T08:29:57Z</time>
      </trkpt>
      <trkpt lat="45.38526" lon="5.61339">
        <ele>576.2</ele>
        <time>2021-03-13T08:30:01Z</time>
      </trkpt>
      <trkpt lat="45.38548" lon="5.61339">
        <ele>575.8</ele>
        <time>2021-03-13T08:30:05Z</time>
      </trkpt>
      <trkpt lat="45.38572" lon="5.61338">
        <ele>575.2</ele>
        <time>2021-03-13T08:30:09Z</time>
      </trkpt>
      <trkpt lat="45.38597" lon="5.61337">
        <ele>574.8</ele>
        <time>2021-03-13T08:30:13Z</time>
      </trkpt>
      <trkpt lat="45.38622" lon="5.6134">
        <ele>573.6</ele>
        <time>2021-03-13T08:30:17Z</time>
      </trkpt>
      <trkpt lat="45.38648" lon="5.61353">
        <ele>572.8</ele>
        <time>2021-03-13T08:30:21Z</time>
      </trkpt>
      <trkpt lat="45.38669" lon="5.61373">
        <ele>572.4</ele>
        <time>2021-03-13T08:30:25Z</time>
      </trkpt>
      <trkpt lat="45.38688" lon="5.61391">
        <ele>571.4</ele>
        <time>2021-03-13T08:30:29Z</time>
      </trkpt>
      <trkpt lat="45.38714" lon="5.61399">
        <ele>569.8</ele>
        <time>2021-03-13T08:30:33Z</time>
      </trkpt>
      <trkpt lat="45.38741" lon="5.61397">
        <ele>568.2</ele>
        <time>2021-03-13T08:30:37Z</time>
      </trkpt>
      <trkpt lat="45.38775" lon="5.6139">
        <ele>564</ele>
        <time>2021-03-13T08:30:41Z</time>
      </trkpt>
      <trkpt lat="45.38814" lon="5.61386">
        <ele>559.8</ele>
        <time>2021-03-13T08:30:45Z</time>
      </trkpt>
      <trkpt lat="45.3885" lon="5.6138">
        <ele>554</ele>
        <time>2021-03-13T08:30:49Z</time>
      </trkpt>
      <trkpt lat="45.38886" lon="5.61365">
        <ele>550.6</ele>
        <time>2021-03-13T08:30:53Z</time>
      </trkpt>
      <trkpt lat="45.38914" lon="5.61345">
        <ele>546.8</ele>
        <time>2021-03-13T08:30:57Z</time>
      </trkpt>
      <trkpt lat="45.38955" lon="5.61331">
        <ele>543</ele>
        <time>2021-03-13T08:31:01Z</time>
      </trkpt>
      <trkpt lat="45.38996" lon="5.61315">
        <ele>538.4</ele>
        <time>2021-03-13T08:31:05Z</time>
      </trkpt>
      <trkpt lat="45.39037" lon="5.613">
        <ele>532.6</ele>
        <time>2021-03-13T08:31:09Z</time>
      </trkpt>
      <trkpt lat="45.3907" lon="5.61286">
        <ele>530.2</ele>
        <time>2021-03-13T08:31:13Z</time>
      </trkpt>
      <trkpt lat="45.39103" lon="5.61283">
        <ele>529.8</ele>
        <time>2021-03-13T08:31:17Z</time>
      </trkpt>
      <trkpt lat="45.39131" lon="5.61289">
        <ele>529.4</ele>
        <time>2021-03-13T08:31:21Z</time>
      </trkpt>
      <trkpt lat="45.39156" lon="5.61295">
        <ele>530.2</ele>
        <time>2021-03-13T08:31:25Z</time>
      </trkpt>
      <trkpt lat="45.39177" lon="5.61299">
        <ele>530.2</ele>
        <time>2021-03-13T08:31:29Z</time>
      </trkpt>
      <trkpt lat="45.39195" lon="5.61301">
        <ele>531.4</ele>
        <time>2021-03-13T08:31:33Z</time>
      </trkpt>
      <trkpt lat="45.3921" lon="5.61303">
        <ele>531.4</ele>
        <time>2021-03-13T08:31:37Z</time>
      </trkpt>
      <trkpt lat="45.39226" lon="5.61304">
        <ele>531.8</ele>
        <time>2021-03-13T08:31:41Z</time>
      </trkpt>
      <trkpt lat="45.39241" lon="5.61304">
        <ele>532.2</ele>
        <time>2021-03-13T08:31:45Z</time>
      </trkpt>
      <trkpt lat="45.39255" lon="5.61305">
        <ele>533.2</ele>
        <time>2021-03-13T08:31:49Z</time>
      </trkpt>
      <trkpt lat="45.39268" lon="5.61305">
        <ele>533.6</ele>
        <time>2021-03-13T08:31:53Z</time>
      </trkpt>
      <trkpt lat="45.39281" lon="5.61306">
        <ele>533.6</ele>
        <time>2021-03-13T08:31:57Z</time>
      </trkpt>
      <trkpt lat="45.39295" lon="5.61306">
        <ele>534.4</ele>
        <time>2021-03-13T08:32:01Z</time>
      </trkpt>
      <trkpt lat="45.39309" lon="5.61307">
        <ele>535.2</ele>
        <time>2021-03-13T08:32:05Z</time>
      </trkpt>
      <trkpt lat="45.39323" lon="5.61307">
        <ele>535.4</ele>
        <time>2021-03-13T08:32:09Z</time>
      </trkpt>
      <trkpt lat="45.39337" lon="5.61308">
        <ele>536</ele>
        <time>2021-03-13T08:32:13Z</time>
      </trkpt>
      <trkpt lat="45.39351" lon="5.61308">
        <ele>536.8</ele>
        <time>2021-03-13T08:32:17Z</time>
      </trkpt>
      <trkpt lat="45.39365" lon="5.61308">
        <ele>537</ele>
        <time>2021-03-13T08:32:21Z</time>
      </trkpt>
      <trkpt lat="45.39379" lon="5.61306">
        <ele>537.4</ele>
        <time>2021-03-13T08:32:25Z</time>
      </trkpt>
      <trkpt lat="45.39394" lon="5.61303">
        <ele>538</ele>
        <time>2021-03-13T08:32:29Z</time>
      </trkpt>
      <trkpt lat="45.39409" lon="5.61301">
        <ele>537.8</ele>
        <time>2021-03-13T08:32:33Z</time>
      </trkpt>
      <trkpt lat="45.39423" lon="5.61299">
        <ele>538.4</ele>
        <time>2021-03-13T08:32:37Z</time>
      </trkpt>
      <trkpt lat="45.39437" lon="5.61297">
        <ele>538.6</ele>
        <time>2021-03-13T08:32:41Z</time>
      </trkpt>
      <trkpt lat="45.39451" lon="5.61294">
        <ele>539.4</ele>
        <time>2021-03-13T08:32:45Z</time>
      </trkpt>
      <trkpt lat="45.39464" lon="5.61292">
        <ele>539.2</ele>
        <time>2021-03-13T08:32:49Z</time>
      </trkpt>
      <trkpt lat="45.39477" lon="5.61288">
        <ele>541</ele>
        <time>2021-03-13T08:32:53Z</time>
      </trkpt>
      <trkpt lat="45.3949" lon="5.61283">
        <ele>540.8</ele>
        <time>2021-03-13T08:32:57Z</time>
      </trkpt>
      <trkpt lat="45.39503" lon="5.61279">
        <ele>541</ele>
        <time>2021-03-13T08:33:01Z</time>
      </trkpt>
      <trkpt lat="45.39515" lon="5.61276">
        <ele>541.6</ele>
        <time>2021-03-13T08:33:05Z</time>
      </trkpt>
      <trkpt lat="45.39529" lon="5.61277">
        <ele>541.8</ele>
        <time>2021-03-13T08:33:09Z</time>
      </trkpt>
      <trkpt lat="45.39542" lon="5.6128">
        <ele>542.4</ele>
        <time>2021-03-13T08:33:13Z</time>
      </trkpt>
      <trkpt lat="45.39554" lon="5.61288">
        <ele>543</ele>
        <time>2021-03-13T08:33:17Z</time>
      </trkpt>
      <trkpt lat="45.39565" lon="5.61296">
        <ele>543.2</ele>
        <time>2021-03-13T08:33:21Z</time>
      </trkpt>
      <trkpt lat="45.39577" lon="5.61299">
        <ele>543.4</ele>
        <time>2021-03-13T08:33:25Z</time>
      </trkpt>
      <trkpt lat="45.39591" lon="5.61294">
        <ele>543.8</ele>
        <time>2021-03-13T08:33:29Z</time>
      </trkpt>
      <trkpt lat="45.39601" lon="5.61281">
        <ele>544.2</ele>
        <time>2021-03-13T08:33:33Z</time>
      </trkpt>
      <trkpt lat="45.39608" lon="5.61266">
        <ele>544.8</ele>
        <time>2021-03-13T08:33:37Z</time>
      </trkpt>
      <trkpt lat="45.39611" lon="5.61253">
        <ele>545.8</ele>
        <time>2021-03-13T08:33:41Z</time>
      </trkpt>
      <trkpt lat="45.39616" lon="5.61245">
        <ele>546.6</ele>
        <time>2021-03-13T08:33:45Z</time>
      </trkpt>
      <trkpt lat="45.39619" lon="5.61241">
        <ele>546.8</ele>
        <time>2021-03-13T08:33:49Z</time>
      </trkpt>
      <trkpt lat="45.39624" lon="5.61251">
        <ele>547.2</ele>
        <time>2021-03-13T08:33:53Z</time>
      </trkpt>
      <trkpt lat="45.39629" lon="5.6127">
        <ele>547</ele>
        <time>2021-03-13T08:33:57Z</time>
      </trkpt>
      <trkpt lat="45.39636" lon="5.61292">
        <ele>546.8</ele>
        <time>2021-03-13T08:34:01Z</time>
      </trkpt>
      <trkpt lat="45.39644" lon="5.61309">
        <ele>546.8</ele>
        <time>2021-03-13T08:34:05Z</time>
      </trkpt>
      <trkpt lat="45.39655" lon="5.61317">
        <ele>547.6</ele>
        <time>2021-03-13T08:34:09Z</time>
      </trkpt>
      <trkpt lat="45.39665" lon="5.61321">
        <ele>548.4</ele>
        <time>2021-03-13T08:34:13Z</time>
      </trkpt>
      <trkpt lat="45.39674" lon="5.61324">
        <ele>549</ele>
        <time>2021-03-13T08:34:17Z</time>
      </trkpt>
      <trkpt lat="45.39684" lon="5.61328">
        <ele>550.2</ele>
        <time>2021-03-13T08:34:21Z</time>
      </trkpt>
      <trkpt lat="45.39693" lon="5.61331">
        <ele>550.2</ele>
        <time>2021-03-13T08:34:25Z</time>
      </trkpt>
      <trkpt lat="45.39702" lon="5.61335">
        <ele>550.8</ele>
        <time>2021-03-13T08:34:29Z</time>
      </trkpt>
      <trkpt lat="45.3971" lon="5.6134">
        <ele>551.8</ele>
        <time>2021-03-13T08:34:33Z</time>
      </trkpt>
      <trkpt lat="45.39718" lon="5.61345">
        <ele>552</ele>
        <time>2021-03-13T08:34:37Z</time>
      </trkpt>
      <trkpt lat="45.39726" lon="5.6135">
        <ele>552.4</ele>
        <time>2021-03-13T08:34:41Z</time>
      </trkpt>
      <trkpt lat="45.39734" lon="5.61356">
        <ele>553.4</ele>
        <time>2021-03-13T08:34:45Z</time>
      </trkpt>
      <trkpt lat="45.39741" lon="5.61364">
        <ele>553.4</ele>
        <time>2021-03-13T08:34:49Z</time>
      </trkpt>
      <trkpt lat="45.39748" lon="5.61371">
        <ele>553.8</ele>
        <time>2021-03-13T08:34:53Z</time>
      </trkpt>
      <trkpt lat="45.39754" lon="5.61383">
        <ele>554.2</ele>
        <time>2021-03-13T08:34:57Z</time>
      </trkpt>
      <trkpt lat="45.39759" lon="5.61395">
        <ele>555.4</ele>
        <time>2021-03-13T08:35:01Z</time>
      </trkpt>
      <trkpt lat="45.39763" lon="5.61406">
        <ele>555.2</ele>
        <time>2021-03-13T08:35:05Z</time>
      </trkpt>
      <trkpt lat="45.39768" lon="5.61417">
        <ele>556</ele>
        <time>2021-03-13T08:35:09Z</time>
      </trkpt>
      <trkpt lat="45.39773" lon="5.61428">
        <ele>557</ele>
        <time>2021-03-13T08:35:13Z</time>
      </trkpt>
      <trkpt lat="45.39779" lon="5.61438">
        <ele>557</ele>
        <time>2021-03-13T08:35:17Z</time>
      </trkpt>
      <trkpt lat="45.39783" lon="5.61449">
        <ele>558</ele>
        <time>2021-03-13T08:35:21Z</time>
      </trkpt>
      <trkpt lat="45.39788" lon="5.61458">
        <ele>559</ele>
        <time>2021-03-13T08:35:25Z</time>
      </trkpt>
      <trkpt lat="45.39793" lon="5.61468">
        <ele>559.4</ele>
        <time>2021-03-13T08:35:29Z</time>
      </trkpt>
      <trkpt lat="45.39798" lon="5.61479">
        <ele>559.6</ele>
        <time>2021-03-13T08:35:33Z</time>
      </trkpt>
      <trkpt lat="45.39805" lon="5.6149">
        <ele>560</ele>
        <time>2021-03-13T08:35:37Z</time>
      </trkpt>
      <trkpt lat="45.3981" lon="5.615">
        <ele>560.6</ele>
        <time>2021-03-13T08:35:41Z</time>
      </trkpt>
      <trkpt lat="45.39815" lon="5.61509">
        <ele>561.4</ele>
        <time>2021-03-13T08:35:45Z</time>
      </trkpt>
      <trkpt lat="45.39821" lon="5.61518">
        <ele>562.2</ele>
        <time>2021-03-13T08:35:49Z</time>
      </trkpt>
      <trkpt lat="45.39828" lon="5.61526">
        <ele>562.4</ele>
        <time>2021-03-13T08:35:53Z</time>
      </trkpt>
      <trkpt lat="45.39835" lon="5.61532">
        <ele>563</ele>
        <time>2021-03-13T08:35:57Z</time>
      </trkpt>
      <trkpt lat="45.39843" lon="5.61537">
        <ele>563.2</ele>
        <time>2021-03-13T08:36:01Z</time>
      </trkpt>
      <trkpt lat="45.39851" lon="5.6154">
        <ele>565</ele>
        <time>2021-03-13T08:36:05Z</time>
      </trkpt>
      <trkpt lat="45.3986" lon="5.61541">
        <ele>564.6</ele>
        <time>2021-03-13T08:36:09Z</time>
      </trkpt>
      <trkpt lat="45.39868" lon="5.61541">
        <ele>565.4</ele>
        <time>2021-03-13T08:36:13Z</time>
      </trkpt>
      <trkpt lat="45.39876" lon="5.61542">
        <ele>566.4</ele>
        <time>2021-03-13T08:36:17Z</time>
      </trkpt>
      <trkpt lat="45.39884" lon="5.61542">
        <ele>567.2</ele>
        <time>2021-03-13T08:36:21Z</time>
      </trkpt>
      <trkpt lat="45.39893" lon="5.61542">
        <ele>567.2</ele>
        <time>2021-03-13T08:36:25Z</time>
      </trkpt>
      <trkpt lat="45.39902" lon="5.61541">
        <ele>568</ele>
        <time>2021-03-13T08:36:29Z</time>
      </trkpt>
      <trkpt lat="45.39911" lon="5.6154">
        <ele>568.6</ele>
        <time>2021-03-13T08:36:33Z</time>
      </trkpt>
      <trkpt lat="45.39919" lon="5.61539">
        <ele>569.6</ele>
        <time>2021-03-13T08:36:37Z</time>
      </trkpt>
      <trkpt lat="45.39928" lon="5.61539">
        <ele>570.4</ele>
        <time>2021-03-13T08:36:41Z</time>
      </trkpt>
      <trkpt lat="45.39936" lon="5.61538">
        <ele>570.6</ele>
        <time>2021-03-13T08:36:45Z</time>
      </trkpt>
      <trkpt lat="45.39944" lon="5.61535">
        <ele>571.2</ele>
        <time>2021-03-13T08:36:49Z</time>
      </trkpt>
      <trkpt lat="45.39952" lon="5.61532">
        <ele>571.8</ele>
        <time>2021-03-13T08:36:53Z</time>
      </trkpt>
      <trkpt lat="45.39961" lon="5.6153">
        <ele>572.4</ele>
        <time>2021-03-13T08:36:57Z</time>
      </trkpt>
      <trkpt lat="45.39969" lon="5.61527">
        <ele>572.6</ele>
        <time>2021-03-13T08:37:01Z</time>
      </trkpt>
      <trkpt lat="45.39977" lon="5.61526">
        <ele>573.6</ele>
        <time>2021-03-13T08:37:05Z</time>
      </trkpt>
      <trkpt lat="45.39987" lon="5.61526">
        <ele>574.4</ele>
        <time>2021-03-13T08:37:09Z</time>
      </trkpt>
      <trkpt lat="45.39996" lon="5.61527">
        <ele>575</ele>
        <time>2021-03-13T08:37:13Z</time>
      </trkpt>
      <trkpt lat="45.39996" lon="5.61527">
        <ele>575.2</ele>
        <time>2021-03-13T08:37:17Z</time>
      </trkpt>
      <trkpt lat="45.40013" lon="5.61538">
        <ele>577</ele>
        <time>2021-03-13T08:39:32Z</time>
      </trkpt>
      <trkpt lat="45.4002" lon="5.61542">
        <ele>578.2</ele>
        <time>2021-03-13T08:39:36Z</time>
      </trkpt>
      <trkpt lat="45.40027" lon="5.61548">
        <ele>578.8</ele>
        <time>2021-03-13T08:39:40Z</time>
      </trkpt>
      <trkpt lat="45.40034" lon="5.61553">
        <ele>579.2</ele>
        <time>2021-03-13T08:39:44Z</time>
      </trkpt>
      <trkpt lat="45.40041" lon="5.61558">
        <ele>580</ele>
        <time>2021-03-13T08:39:48Z</time>
      </trkpt>
      <trkpt lat="45.40048" lon="5.61563">
        <ele>581</ele>
        <time>2021-03-13T08:39:52Z</time>
      </trkpt>
      <trkpt lat="45.40061" lon="5.61574">
        <ele>583</ele>
        <time>2021-03-13T08:40:18Z</time>
      </trkpt>
      <trkpt lat="45.40068" lon="5.61579">
        <ele>583.4</ele>
        <time>2021-03-13T08:40:22Z</time>
      </trkpt>
      <trkpt lat="45.40075" lon="5.61585">
        <ele>584.6</ele>
        <time>2021-03-13T08:40:26Z</time>
      </trkpt>
      <trkpt lat="45.40081" lon="5.6159">
        <ele>585.2</ele>
        <time>2021-03-13T08:40:30Z</time>
      </trkpt>
      <trkpt lat="45.40088" lon="5.61595">
        <ele>585.8</ele>
        <time>2021-03-13T08:40:34Z</time>
      </trkpt>
      <trkpt lat="45.40095" lon="5.616">
        <ele>587.2</ele>
        <time>2021-03-13T08:40:38Z</time>
      </trkpt>
      <trkpt lat="45.40101" lon="5.61604">
        <ele>587.8</ele>
        <time>2021-03-13T08:40:42Z</time>
      </trkpt>
      <trkpt lat="45.40109" lon="5.61608">
        <ele>588.6</ele>
        <time>2021-03-13T08:40:46Z</time>
      </trkpt>
      <trkpt lat="45.40115" lon="5.61614">
        <ele>589.4</ele>
        <time>2021-03-13T08:40:50Z</time>
      </trkpt>
      <trkpt lat="45.40121" lon="5.61621">
        <ele>589.4</ele>
        <time>2021-03-13T08:40:54Z</time>
      </trkpt>
      <trkpt lat="45.40126" lon="5.61628">
        <ele>590.4</ele>
        <time>2021-03-13T08:40:58Z</time>
      </trkpt>
      <trkpt lat="45.40131" lon="5.61636">
        <ele>590.8</ele>
        <time>2021-03-13T08:41:02Z</time>
      </trkpt>
      <trkpt lat="45.40136" lon="5.61644">
        <ele>591</ele>
        <time>2021-03-13T08:41:06Z</time>
      </trkpt>
      <trkpt lat="45.40141" lon="5.61651">
        <ele>592.4</ele>
        <time>2021-03-13T08:41:10Z</time>
      </trkpt>
      <trkpt lat="45.40146" lon="5.6166">
        <ele>593.2</ele>
        <time>2021-03-13T08:41:14Z</time>
      </trkpt>
      <trkpt lat="45.4015" lon="5.61668">
        <ele>593.6</ele>
        <time>2021-03-13T08:41:18Z</time>
      </trkpt>
      <trkpt lat="45.40155" lon="5.61675">
        <ele>594.4</ele>
        <time>2021-03-13T08:41:22Z</time>
      </trkpt>
      <trkpt lat="45.40161" lon="5.61683">
        <ele>595.2</ele>
        <time>2021-03-13T08:41:26Z</time>
      </trkpt>
      <trkpt lat="45.40166" lon="5.61689">
        <ele>595.8</ele>
        <time>2021-03-13T08:41:30Z</time>
      </trkpt>
      <trkpt lat="45.40171" lon="5.61695">
        <ele>596.6</ele>
        <time>2021-03-13T08:41:34Z</time>
      </trkpt>
      <trkpt lat="45.40177" lon="5.617">
        <ele>597.4</ele>
        <time>2021-03-13T08:41:38Z</time>
      </trkpt>
      <trkpt lat="45.40183" lon="5.61706">
        <ele>597.6</ele>
        <time>2021-03-13T08:41:42Z</time>
      </trkpt>
      <trkpt lat="45.40189" lon="5.61711">
        <ele>598.8</ele>
        <time>2021-03-13T08:41:46Z</time>
      </trkpt>
      <trkpt lat="45.40195" lon="5.61717">
        <ele>600.2</ele>
        <time>2021-03-13T08:41:50Z</time>
      </trkpt>
      <trkpt lat="45.402" lon="5.61722">
        <ele>600.4</ele>
        <time>2021-03-13T08:41:54Z</time>
      </trkpt>
      <trkpt lat="45.40205" lon="5.61728">
        <ele>601</ele>
        <time>2021-03-13T08:41:58Z</time>
      </trkpt>
      <trkpt lat="45.4021" lon="5.61734">
        <ele>602.2</ele>
        <time>2021-03-13T08:42:02Z</time>
      </trkpt>
      <trkpt lat="45.40215" lon="5.61742">
        <ele>602.2</ele>
        <time>2021-03-13T08:42:06Z</time>
      </trkpt>
      <trkpt lat="45.40217" lon="5.6175">
        <ele>602.8</ele>
        <time>2021-03-13T08:42:10Z</time>
      </trkpt>
      <trkpt lat="45.40218" lon="5.61759">
        <ele>604</ele>
        <time>2021-03-13T08:42:14Z</time>
      </trkpt>
      <trkpt lat="45.4022" lon="5.61767">
        <ele>604.8</ele>
        <time>2021-03-13T08:42:18Z</time>
      </trkpt>
      <trkpt lat="45.40221" lon="5.61773">
        <ele>605.2</ele>
        <time>2021-03-13T08:42:22Z</time>
      </trkpt>
      <trkpt lat="45.40223" lon="5.61781">
        <ele>606.2</ele>
        <time>2021-03-13T08:42:26Z</time>
      </trkpt>
      <trkpt lat="45.40224" lon="5.61789">
        <ele>606.8</ele>
        <time>2021-03-13T08:42:30Z</time>
      </trkpt>
      <trkpt lat="45.40225" lon="5.61796">
        <ele>607.8</ele>
        <time>2021-03-13T08:42:34Z</time>
      </trkpt>
      <trkpt lat="45.40226" lon="5.61804">
        <ele>608.4</ele>
        <time>2021-03-13T08:42:38Z</time>
      </trkpt>
      <trkpt lat="45.40226" lon="5.61811">
        <ele>609</ele>
        <time>2021-03-13T08:42:42Z</time>
      </trkpt>
      <trkpt lat="45.40228" lon="5.61817">
        <ele>610.6</ele>
        <time>2021-03-13T08:42:46Z</time>
      </trkpt>
      <trkpt lat="45.40228" lon="5.61822">
        <ele>610.6</ele>
        <time>2021-03-13T08:42:50Z</time>
      </trkpt>
      <trkpt lat="45.40229" lon="5.61831">
        <ele>611.4</ele>
        <time>2021-03-13T08:42:54Z</time>
      </trkpt>
      <trkpt lat="45.4023" lon="5.61841">
        <ele>612.2</ele>
        <time>2021-03-13T08:42:58Z</time>
      </trkpt>
      <trkpt lat="45.4023" lon="5.61851">
        <ele>613</ele>
        <time>2021-03-13T08:43:02Z</time>
      </trkpt>
      <trkpt lat="45.40231" lon="5.61861">
        <ele>613.6</ele>
        <time>2021-03-13T08:43:06Z</time>
      </trkpt>
      <trkpt lat="45.4023" lon="5.6187">
        <ele>614.2</ele>
        <time>2021-03-13T08:43:10Z</time>
      </trkpt>
      <trkpt lat="45.4023" lon="5.61879">
        <ele>615.4</ele>
        <time>2021-03-13T08:43:14Z</time>
      </trkpt>
      <trkpt lat="45.40227" lon="5.61886">
        <ele>616</ele>
        <time>2021-03-13T08:43:18Z</time>
      </trkpt>
      <trkpt lat="45.40227" lon="5.61894">
        <ele>616.6</ele>
        <time>2021-03-13T08:43:22Z</time>
      </trkpt>
      <trkpt lat="45.40227" lon="5.61902">
        <ele>617.6</ele>
        <time>2021-03-13T08:43:26Z</time>
      </trkpt>
      <trkpt lat="45.40228" lon="5.61911">
        <ele>618</ele>
        <time>2021-03-13T08:43:30Z</time>
      </trkpt>
      <trkpt lat="45.40227" lon="5.61918">
        <ele>619.4</ele>
        <time>2021-03-13T08:43:34Z</time>
      </trkpt>
      <trkpt lat="45.40225" lon="5.61925">
        <ele>619.8</ele>
        <time>2021-03-13T08:43:38Z</time>
      </trkpt>
      <trkpt lat="45.40225" lon="5.61933">
        <ele>621</ele>
        <time>2021-03-13T08:43:42Z</time>
      </trkpt>
      <trkpt lat="45.40225" lon="5.6194">
        <ele>621.2</ele>
        <time>2021-03-13T08:43:46Z</time>
      </trkpt>
      <trkpt lat="45.40224" lon="5.61947">
        <ele>622.2</ele>
        <time>2021-03-13T08:43:50Z</time>
      </trkpt>
      <trkpt lat="45.40226" lon="5.61955">
        <ele>623</ele>
        <time>2021-03-13T08:43:54Z</time>
      </trkpt>
      <trkpt lat="45.40226" lon="5.61961">
        <ele>623.4</ele>
        <time>2021-03-13T08:43:58Z</time>
      </trkpt>
      <trkpt lat="45.40225" lon="5.61968">
        <ele>624.6</ele>
        <time>2021-03-13T08:44:02Z</time>
      </trkpt>
      <trkpt lat="45.40222" lon="5.61974">
        <ele>625.4</ele>
        <time>2021-03-13T08:44:06Z</time>
      </trkpt>
      <trkpt lat="45.40219" lon="5.6198">
        <ele>626</ele>
        <time>2021-03-13T08:44:10Z</time>
      </trkpt>
      <trkpt lat="45.40216" lon="5.61987">
        <ele>626.6</ele>
        <time>2021-03-13T08:44:14Z</time>
      </trkpt>
      <trkpt lat="45.40215" lon="5.61994">
        <ele>627.4</ele>
        <time>2021-03-13T08:44:18Z</time>
      </trkpt>
      <trkpt lat="45.4021" lon="5.61999">
        <ele>628.4</ele>
        <time>2021-03-13T08:44:22Z</time>
      </trkpt>
      <trkpt lat="45.40206" lon="5.62005">
        <ele>628.8</ele>
        <time>2021-03-13T08:44:26Z</time>
      </trkpt>
      <trkpt lat="45.40203" lon="5.6201">
        <ele>629.6</ele>
        <time>2021-03-13T08:44:30Z</time>
      </trkpt>
      <trkpt lat="45.40201" lon="5.62015">
        <ele>630.2</ele>
        <time>2021-03-13T08:44:34Z</time>
      </trkpt>
      <trkpt lat="45.40199" lon="5.6202">
        <ele>631.4</ele>
        <time>2021-03-13T08:44:38Z</time>
      </trkpt>
      <trkpt lat="45.40197" lon="5.62025">
        <ele>632.6</ele>
        <time>2021-03-13T08:44:42Z</time>
      </trkpt>
      <trkpt lat="45.40194" lon="5.62028">
        <ele>633</ele>
        <time>2021-03-13T08:44:46Z</time>
      </trkpt>
      <trkpt lat="45.40193" lon="5.62033">
        <ele>633.8</ele>
        <time>2021-03-13T08:44:50Z</time>
      </trkpt>
      <trkpt lat="45.4019" lon="5.62039">
        <ele>634.4</ele>
        <time>2021-03-13T08:44:54Z</time>
      </trkpt>
      <trkpt lat="45.40189" lon="5.62044">
        <ele>635.2</ele>
        <time>2021-03-13T08:44:58Z</time>
      </trkpt>
      <trkpt lat="45.40184" lon="5.62049">
        <ele>636.2</ele>
        <time>2021-03-13T08:45:02Z</time>
      </trkpt>
      <trkpt lat="45.4018" lon="5.62055">
        <ele>636.2</ele>
        <time>2021-03-13T08:45:06Z</time>
      </trkpt>
      <trkpt lat="45.40177" lon="5.62061">
        <ele>637.6</ele>
        <time>2021-03-13T08:45:10Z</time>
      </trkpt>
      <trkpt lat="45.40107" lon="5.62097">
        <ele>648</ele>
        <time>2021-03-13T08:46:07Z</time>
      </trkpt>
      <trkpt lat="45.40101" lon="5.62101">
        <ele>648.6</ele>
        <time>2021-03-13T08:46:11Z</time>
      </trkpt>
      <trkpt lat="45.40098" lon="5.62106">
        <ele>649.2</ele>
        <time>2021-03-13T08:46:15Z</time>
      </trkpt>
      <trkpt lat="45.40095" lon="5.62115">
        <ele>650.2</ele>
        <time>2021-03-13T08:46:19Z</time>
      </trkpt>
      <trkpt lat="45.40094" lon="5.62124">
        <ele>650.2</ele>
        <time>2021-03-13T08:46:23Z</time>
      </trkpt>
      <trkpt lat="45.40093" lon="5.62133">
        <ele>651.2</ele>
        <time>2021-03-13T08:46:27Z</time>
      </trkpt>
      <trkpt lat="45.40093" lon="5.62141">
        <ele>651.8</ele>
        <time>2021-03-13T08:46:31Z</time>
      </trkpt>
      <trkpt lat="45.40094" lon="5.62149">
        <ele>652.4</ele>
        <time>2021-03-13T08:46:35Z</time>
      </trkpt>
      <trkpt lat="45.40098" lon="5.62154">
        <ele>653</ele>
        <time>2021-03-13T08:46:39Z</time>
      </trkpt>
      <trkpt lat="45.401" lon="5.6216">
        <ele>653.8</ele>
        <time>2021-03-13T08:46:43Z</time>
      </trkpt>
      <trkpt lat="45.40102" lon="5.62165">
        <ele>654.4</ele>
        <time>2021-03-13T08:46:47Z</time>
      </trkpt>
      <trkpt lat="45.40104" lon="5.62168">
        <ele>655.4</ele>
        <time>2021-03-13T08:46:51Z</time>
      </trkpt>
      <trkpt lat="45.40107" lon="5.6217">
        <ele>655.6</ele>
        <time>2021-03-13T08:46:55Z</time>
      </trkpt>
      <trkpt lat="45.40112" lon="5.62173">
        <ele>656.4</ele>
        <time>2021-03-13T08:46:59Z</time>
      </trkpt>
      <trkpt lat="45.40117" lon="5.62175">
        <ele>657.2</ele>
        <time>2021-03-13T08:47:03Z</time>
      </trkpt>
      <trkpt lat="45.40122" lon="5.62177">
        <ele>658</ele>
        <time>2021-03-13T08:47:07Z</time>
      </trkpt>
      <trkpt lat="45.40127" lon="5.6218">
        <ele>659.2</ele>
        <time>2021-03-13T08:47:11Z</time>
      </trkpt>
      <trkpt lat="45.40132" lon="5.62184">
        <ele>659.4</ele>
        <time>2021-03-13T08:47:15Z</time>
      </trkpt>
      <trkpt lat="45.40137" lon="5.62187">
        <ele>660.2</ele>
        <time>2021-03-13T08:47:19Z</time>
      </trkpt>
      <trkpt lat="45.40142" lon="5.62192">
        <ele>660.8</ele>
        <time>2021-03-13T08:47:23Z</time>
      </trkpt>
      <trkpt lat="45.40147" lon="5.62196">
        <ele>661.6</ele>
        <time>2021-03-13T08:47:27Z</time>
      </trkpt>
      <trkpt lat="45.40151" lon="5.622">
        <ele>662.6</ele>
        <time>2021-03-13T08:47:31Z</time>
      </trkpt>
      <trkpt lat="45.40156" lon="5.62204">
        <ele>662.8</ele>
        <time>2021-03-13T08:47:35Z</time>
      </trkpt>
      <trkpt lat="45.4016" lon="5.62208">
        <ele>663.6</ele>
        <time>2021-03-13T08:47:39Z</time>
      </trkpt>
      <trkpt lat="45.40165" lon="5.62212">
        <ele>664.2</ele>
        <time>2021-03-13T08:47:43Z</time>
      </trkpt>
      <trkpt lat="45.40169" lon="5.62217">
        <ele>665.2</ele>
        <time>2021-03-13T08:47:47Z</time>
      </trkpt>
      <trkpt lat="45.40174" lon="5.62222">
        <ele>665.8</ele>
        <time>2021-03-13T08:47:51Z</time>
      </trkpt>
      <trkpt lat="45.40178" lon="5.62227">
        <ele>666.2</ele>
        <time>2021-03-13T08:47:55Z</time>
      </trkpt>
      <trkpt lat="45.40182" lon="5.62231">
        <ele>666.8</ele>
        <time>2021-03-13T08:47:59Z</time>
      </trkpt>
      <trkpt lat="45.40187" lon="5.62237">
        <ele>667.6</ele>
        <time>2021-03-13T08:48:03Z</time>
      </trkpt>
      <trkpt lat="45.40191" lon="5.6224">
        <ele>668.6</ele>
        <time>2021-03-13T08:48:07Z</time>
      </trkpt>
      <trkpt lat="45.40196" lon="5.62244">
        <ele>669</ele>
        <time>2021-03-13T08:48:11Z</time>
      </trkpt>
      <trkpt lat="45.40201" lon="5.62248">
        <ele>669.8</ele>
        <time>2021-03-13T08:48:15Z</time>
      </trkpt>
      <trkpt lat="45.40206" lon="5.62252">
        <ele>670.4</ele>
        <time>2021-03-13T08:48:19Z</time>
      </trkpt>
      <trkpt lat="45.40213" lon="5.62256">
        <ele>670.8</ele>
        <time>2021-03-13T08:48:23Z</time>
      </trkpt>
      <trkpt lat="45.40219" lon="5.6226">
        <ele>671.8</ele>
        <time>2021-03-13T08:48:27Z</time>
      </trkpt>
      <trkpt lat="45.40224" lon="5.62265">
        <ele>672.4</ele>
        <time>2021-03-13T08:48:31Z</time>
      </trkpt>
      <trkpt lat="45.40231" lon="5.6227">
        <ele>672.6</ele>
        <time>2021-03-13T08:48:35Z</time>
      </trkpt>
      <trkpt lat="45.40236" lon="5.62275">
        <ele>673.2</ele>
        <time>2021-03-13T08:48:39Z</time>
      </trkpt>
      <trkpt lat="45.40241" lon="5.6228">
        <ele>673.4</ele>
        <time>2021-03-13T08:48:43Z</time>
      </trkpt>
      <trkpt lat="45.40247" lon="5.62286">
        <ele>674.2</ele>
        <time>2021-03-13T08:48:47Z</time>
      </trkpt>
      <trkpt lat="45.40252" lon="5.62292">
        <ele>674.6</ele>
        <time>2021-03-13T08:48:51Z</time>
      </trkpt>
      <trkpt lat="45.40256" lon="5.62298">
        <ele>675.4</ele>
        <time>2021-03-13T08:48:55Z</time>
      </trkpt>
      <trkpt lat="45.40259" lon="5.62304">
        <ele>676.6</ele>
        <time>2021-03-13T08:48:59Z</time>
      </trkpt>
      <trkpt lat="45.40263" lon="5.6231">
        <ele>676.4</ele>
        <time>2021-03-13T08:49:03Z</time>
      </trkpt>
      <trkpt lat="45.40267" lon="5.62317">
        <ele>677.4</ele>
        <time>2021-03-13T08:49:07Z</time>
      </trkpt>
      <trkpt lat="45.40268" lon="5.62323">
        <ele>678.2</ele>
        <time>2021-03-13T08:49:11Z</time>
      </trkpt>
      <trkpt lat="45.40272" lon="5.62329">
        <ele>678.8</ele>
        <time>2021-03-13T08:49:15Z</time>
      </trkpt>
      <trkpt lat="45.40276" lon="5.62335">
        <ele>679.8</ele>
        <time>2021-03-13T08:49:19Z</time>
      </trkpt>
      <trkpt lat="45.40281" lon="5.62343">
        <ele>680.2</ele>
        <time>2021-03-13T08:49:23Z</time>
      </trkpt>
      <trkpt lat="45.40287" lon="5.62351">
        <ele>680.8</ele>
        <time>2021-03-13T08:49:27Z</time>
      </trkpt>
      <trkpt lat="45.40292" lon="5.6236">
        <ele>681</ele>
        <time>2021-03-13T08:49:31Z</time>
      </trkpt>
      <trkpt lat="45.40295" lon="5.6237">
        <ele>681.4</ele>
        <time>2021-03-13T08:49:35Z</time>
      </trkpt>
      <trkpt lat="45.40301" lon="5.6238">
        <ele>682</ele>
        <time>2021-03-13T08:49:39Z</time>
      </trkpt>
      <trkpt lat="45.40308" lon="5.62391">
        <ele>682.8</ele>
        <time>2021-03-13T08:49:43Z</time>
      </trkpt>
      <trkpt lat="45.40314" lon="5.624">
        <ele>683.4</ele>
        <time>2021-03-13T08:49:47Z</time>
      </trkpt>
      <trkpt lat="45.4032" lon="5.62409">
        <ele>683.8</ele>
        <time>2021-03-13T08:49:51Z</time>
      </trkpt>
      <trkpt lat="45.40326" lon="5.62417">
        <ele>685</ele>
        <time>2021-03-13T08:49:55Z</time>
      </trkpt>
      <trkpt lat="45.40331" lon="5.62425">
        <ele>685</ele>
        <time>2021-03-13T08:49:59Z</time>
      </trkpt>
      <trkpt lat="45.40336" lon="5.62434">
        <ele>685.6</ele>
        <time>2021-03-13T08:50:03Z</time>
      </trkpt>
      <trkpt lat="45.4034" lon="5.62443">
        <ele>686.8</ele>
        <time>2021-03-13T08:50:07Z</time>
      </trkpt>
      <trkpt lat="45.40345" lon="5.62453">
        <ele>686.8</ele>
        <time>2021-03-13T08:50:11Z</time>
      </trkpt>
      <trkpt lat="45.40348" lon="5.62462">
        <ele>687.6</ele>
        <time>2021-03-13T08:50:15Z</time>
      </trkpt>
      <trkpt lat="45.40351" lon="5.62473">
        <ele>687.8</ele>
        <time>2021-03-13T08:50:19Z</time>
      </trkpt>
      <trkpt lat="45.40353" lon="5.62483">
        <ele>688.2</ele>
        <time>2021-03-13T08:50:23Z</time>
      </trkpt>
      <trkpt lat="45.40356" lon="5.62495">
        <ele>688.4</ele>
        <time>2021-03-13T08:50:27Z</time>
      </trkpt>
      <trkpt lat="45.40358" lon="5.62507">
        <ele>689</ele>
        <time>2021-03-13T08:50:31Z</time>
      </trkpt>
      <trkpt lat="45.40361" lon="5.62518">
        <ele>689.2</ele>
        <time>2021-03-13T08:50:35Z</time>
      </trkpt>
      <trkpt lat="45.40363" lon="5.62529">
        <ele>690.4</ele>
        <time>2021-03-13T08:50:39Z</time>
      </trkpt>
      <trkpt lat="45.40364" lon="5.62541">
        <ele>691</ele>
        <time>2021-03-13T08:50:43Z</time>
      </trkpt>
      <trkpt lat="45.40365" lon="5.62553">
        <ele>691.4</ele>
        <time>2021-03-13T08:50:47Z</time>
      </trkpt>
      <trkpt lat="45.40364" lon="5.62564">
        <ele>692.2</ele>
        <time>2021-03-13T08:50:51Z</time>
      </trkpt>
      <trkpt lat="45.40364" lon="5.62575">
        <ele>692.4</ele>
        <time>2021-03-13T08:50:55Z</time>
      </trkpt>
      <trkpt lat="45.40363" lon="5.62586">
        <ele>693.2</ele>
        <time>2021-03-13T08:50:59Z</time>
      </trkpt>
      <trkpt lat="45.40362" lon="5.62598">
        <ele>693.6</ele>
        <time>2021-03-13T08:51:03Z</time>
      </trkpt>
      <trkpt lat="45.40361" lon="5.62609">
        <ele>694</ele>
        <time>2021-03-13T08:51:07Z</time>
      </trkpt>
      <trkpt lat="45.40361" lon="5.62621">
        <ele>694.6</ele>
        <time>2021-03-13T08:51:11Z</time>
      </trkpt>
      <trkpt lat="45.40362" lon="5.62632">
        <ele>695.4</ele>
        <time>2021-03-13T08:51:15Z</time>
      </trkpt>
      <trkpt lat="45.40363" lon="5.62643">
        <ele>695.8</ele>
        <time>2021-03-13T08:51:19Z</time>
      </trkpt>
      <trkpt lat="45.40364" lon="5.62654">
        <ele>696.6</ele>
        <time>2021-03-13T08:51:23Z</time>
      </trkpt>
      <trkpt lat="45.40366" lon="5.62665">
        <ele>697.2</ele>
        <time>2021-03-13T08:51:27Z</time>
      </trkpt>
      <trkpt lat="45.40368" lon="5.62675">
        <ele>697.4</ele>
        <time>2021-03-13T08:51:31Z</time>
      </trkpt>
      <trkpt lat="45.4037" lon="5.62686">
        <ele>698.2</ele>
        <time>2021-03-13T08:51:35Z</time>
      </trkpt>
      <trkpt lat="45.40371" lon="5.62697">
        <ele>698.8</ele>
        <time>2021-03-13T08:51:39Z</time>
      </trkpt>
      <trkpt lat="45.40372" lon="5.62708">
        <ele>699.8</ele>
        <time>2021-03-13T08:51:43Z</time>
      </trkpt>
      <trkpt lat="45.40374" lon="5.62719">
        <ele>699.8</ele>
        <time>2021-03-13T08:51:47Z</time>
      </trkpt>
      <trkpt lat="45.40376" lon="5.62731">
        <ele>700.8</ele>
        <time>2021-03-13T08:51:51Z</time>
      </trkpt>
      <trkpt lat="45.40379" lon="5.62742">
        <ele>701.4</ele>
        <time>2021-03-13T08:51:55Z</time>
      </trkpt>
      <trkpt lat="45.40383" lon="5.62752">
        <ele>701.4</ele>
        <time>2021-03-13T08:51:59Z</time>
      </trkpt>
      <trkpt lat="45.40387" lon="5.62764">
        <ele>702</ele>
        <time>2021-03-13T08:52:03Z</time>
      </trkpt>
      <trkpt lat="45.40392" lon="5.62775">
        <ele>703</ele>
        <time>2021-03-13T08:52:07Z</time>
      </trkpt>
      <trkpt lat="45.40397" lon="5.62786">
        <ele>703.4</ele>
        <time>2021-03-13T08:52:11Z</time>
      </trkpt>
      <trkpt lat="45.40403" lon="5.62798">
        <ele>704</ele>
        <time>2021-03-13T08:52:15Z</time>
      </trkpt>
      <trkpt lat="45.40408" lon="5.6281">
        <ele>705.2</ele>
        <time>2021-03-13T08:52:19Z</time>
      </trkpt>
      <trkpt lat="45.40412" lon="5.62821">
        <ele>705</ele>
        <time>2021-03-13T08:52:23Z</time>
      </trkpt>
      <trkpt lat="45.40417" lon="5.62832">
        <ele>705.6</ele>
        <time>2021-03-13T08:52:27Z</time>
      </trkpt>
      <trkpt lat="45.40422" lon="5.62843">
        <ele>706.2</ele>
        <time>2021-03-13T08:52:31Z</time>
      </trkpt>
      <trkpt lat="45.40427" lon="5.62854">
        <ele>707</ele>
        <time>2021-03-13T08:52:35Z</time>
      </trkpt>
      <trkpt lat="45.40432" lon="5.62864">
        <ele>707.6</ele>
        <time>2021-03-13T08:52:39Z</time>
      </trkpt>
      <trkpt lat="45.40437" lon="5.62875">
        <ele>707.8</ele>
        <time>2021-03-13T08:52:43Z</time>
      </trkpt>
      <trkpt lat="45.40442" lon="5.62886">
        <ele>708.8</ele>
        <time>2021-03-13T08:52:47Z</time>
      </trkpt>
      <trkpt lat="45.40447" lon="5.62896">
        <ele>709.4</ele>
        <time>2021-03-13T08:52:51Z</time>
      </trkpt>
      <trkpt lat="45.40452" lon="5.62906">
        <ele>709.8</ele>
        <time>2021-03-13T08:52:55Z</time>
      </trkpt>
      <trkpt lat="45.40456" lon="5.62916">
        <ele>710.8</ele>
        <time>2021-03-13T08:52:59Z</time>
      </trkpt>
      <trkpt lat="45.40461" lon="5.62926">
        <ele>712</ele>
        <time>2021-03-13T08:53:03Z</time>
      </trkpt>
      <trkpt lat="45.40465" lon="5.62936">
        <ele>712.2</ele>
        <time>2021-03-13T08:53:07Z</time>
      </trkpt>
      <trkpt lat="45.4047" lon="5.62946">
        <ele>712.6</ele>
        <time>2021-03-13T08:53:11Z</time>
      </trkpt>
      <trkpt lat="45.40473" lon="5.62955">
        <ele>713.4</ele>
        <time>2021-03-13T08:53:15Z</time>
      </trkpt>
      <trkpt lat="45.40478" lon="5.62965">
        <ele>713.6</ele>
        <time>2021-03-13T08:53:19Z</time>
      </trkpt>
      <trkpt lat="45.40483" lon="5.62974">
        <ele>714.6</ele>
        <time>2021-03-13T08:53:23Z</time>
      </trkpt>
      <trkpt lat="45.40488" lon="5.62984">
        <ele>715.2</ele>
        <time>2021-03-13T08:53:27Z</time>
      </trkpt>
      <trkpt lat="45.40492" lon="5.62993">
        <ele>715.2</ele>
        <time>2021-03-13T08:53:31Z</time>
      </trkpt>
      <trkpt lat="45.40496" lon="5.63003">
        <ele>716.4</ele>
        <time>2021-03-13T08:53:35Z</time>
      </trkpt>
      <trkpt lat="45.40501" lon="5.63012">
        <ele>716.8</ele>
        <time>2021-03-13T08:53:39Z</time>
      </trkpt>
      <trkpt lat="45.40505" lon="5.63021">
        <ele>717.6</ele>
        <time>2021-03-13T08:53:43Z</time>
      </trkpt>
      <trkpt lat="45.4051" lon="5.63031">
        <ele>717.8</ele>
        <time>2021-03-13T08:53:47Z</time>
      </trkpt>
      <trkpt lat="45.40515" lon="5.63041">
        <ele>718.4</ele>
        <time>2021-03-13T08:53:51Z</time>
      </trkpt>
      <trkpt lat="45.4052" lon="5.63051">
        <ele>719</ele>
        <time>2021-03-13T08:53:55Z</time>
      </trkpt>
      <trkpt lat="45.40524" lon="5.63059">
        <ele>719.8</ele>
        <time>2021-03-13T08:53:59Z</time>
      </trkpt>
      <trkpt lat="45.4053" lon="5.63068">
        <ele>720.6</ele>
        <time>2021-03-13T08:54:03Z</time>
      </trkpt>
      <trkpt lat="45.40535" lon="5.63077">
        <ele>721</ele>
        <time>2021-03-13T08:54:07Z</time>
      </trkpt>
      <trkpt lat="45.40541" lon="5.63086">
        <ele>721.6</ele>
        <time>2021-03-13T08:54:11Z</time>
      </trkpt>
      <trkpt lat="45.40547" lon="5.63094">
        <ele>722.4</ele>
        <time>2021-03-13T08:54:15Z</time>
      </trkpt>
      <trkpt lat="45.40553" lon="5.63103">
        <ele>722.8</ele>
        <time>2021-03-13T08:54:19Z</time>
      </trkpt>
      <trkpt lat="45.4056" lon="5.63111">
        <ele>723</ele>
        <time>2021-03-13T08:54:23Z</time>
      </trkpt>
      <trkpt lat="45.40566" lon="5.63119">
        <ele>724.8</ele>
        <time>2021-03-13T08:54:27Z</time>
      </trkpt>
      <trkpt lat="45.40572" lon="5.63126">
        <ele>724.8</ele>
        <time>2021-03-13T08:54:31Z</time>
      </trkpt>
      <trkpt lat="45.40579" lon="5.63134">
        <ele>725.6</ele>
        <time>2021-03-13T08:54:35Z</time>
      </trkpt>
      <trkpt lat="45.40585" lon="5.63143">
        <ele>726.2</ele>
        <time>2021-03-13T08:54:39Z</time>
      </trkpt>
      <trkpt lat="45.40591" lon="5.63151">
        <ele>727</ele>
        <time>2021-03-13T08:54:43Z</time>
      </trkpt>
      <trkpt lat="45.40595" lon="5.63161">
        <ele>727.4</ele>
        <time>2021-03-13T08:54:47Z</time>
      </trkpt>
      <trkpt lat="45.40601" lon="5.6317">
        <ele>728.2</ele>
        <time>2021-03-13T08:54:51Z</time>
      </trkpt>
      <trkpt lat="45.40605" lon="5.6318">
        <ele>728.6</ele>
        <time>2021-03-13T08:54:55Z</time>
      </trkpt>
      <trkpt lat="45.40609" lon="5.6319">
        <ele>729.4</ele>
        <time>2021-03-13T08:54:59Z</time>
      </trkpt>
      <trkpt lat="45.40611" lon="5.63201">
        <ele>730.4</ele>
        <time>2021-03-13T08:55:03Z</time>
      </trkpt>
      <trkpt lat="45.40614" lon="5.63212">
        <ele>731.4</ele>
        <time>2021-03-13T08:55:07Z</time>
      </trkpt>
      <trkpt lat="45.40617" lon="5.63223">
        <ele>731.6</ele>
        <time>2021-03-13T08:55:11Z</time>
      </trkpt>
      <trkpt lat="45.40621" lon="5.63233">
        <ele>731.4</ele>
        <time>2021-03-13T08:55:15Z</time>
      </trkpt>
      <trkpt lat="45.40626" lon="5.63243">
        <ele>732</ele>
        <time>2021-03-13T08:55:19Z</time>
      </trkpt>
      <trkpt lat="45.40631" lon="5.63253">
        <ele>733.4</ele>
        <time>2021-03-13T08:55:23Z</time>
      </trkpt>
      <trkpt lat="45.40637" lon="5.63262">
        <ele>733.4</ele>
        <time>2021-03-13T08:55:27Z</time>
      </trkpt>
      <trkpt lat="45.40642" lon="5.63272">
        <ele>733.6</ele>
        <time>2021-03-13T08:55:31Z</time>
      </trkpt>
      <trkpt lat="45.40648" lon="5.6328">
        <ele>734.8</ele>
        <time>2021-03-13T08:55:35Z</time>
      </trkpt>
      <trkpt lat="45.40654" lon="5.63288">
        <ele>735.2</ele>
        <time>2021-03-13T08:55:39Z</time>
      </trkpt>
      <trkpt lat="45.40659" lon="5.63296">
        <ele>735.8</ele>
        <time>2021-03-13T08:55:43Z</time>
      </trkpt>
      <trkpt lat="45.40665" lon="5.63304">
        <ele>736.2</ele>
        <time>2021-03-13T08:55:47Z</time>
      </trkpt>
      <trkpt lat="45.4067" lon="5.63312">
        <ele>737</ele>
        <time>2021-03-13T08:55:51Z</time>
      </trkpt>
      <trkpt lat="45.40675" lon="5.63319">
        <ele>737.4</ele>
        <time>2021-03-13T08:55:55Z</time>
      </trkpt>
      <trkpt lat="45.40681" lon="5.63324">
        <ele>737.6</ele>
        <time>2021-03-13T08:55:59Z</time>
      </trkpt>
      <trkpt lat="45.40683" lon="5.63327">
        <ele>738</ele>
        <time>2021-03-13T08:56:03Z</time>
      </trkpt>
      <trkpt lat="45.40678" lon="5.6333">
        <ele>738.2</ele>
        <time>2021-03-13T08:56:07Z</time>
      </trkpt>
      <trkpt lat="45.40672" lon="5.63335">
        <ele>738</ele>
        <time>2021-03-13T08:56:11Z</time>
      </trkpt>
      <trkpt lat="45.40667" lon="5.63342">
        <ele>738</ele>
        <time>2021-03-13T08:56:15Z</time>
      </trkpt>
      <trkpt lat="45.40663" lon="5.63357">
        <ele>737.2</ele>
        <time>2021-03-13T08:56:19Z</time>
      </trkpt>
      <trkpt lat="45.40656" lon="5.63371">
        <ele>736.4</ele>
        <time>2021-03-13T08:56:23Z</time>
      </trkpt>
      <trkpt lat="45.40658" lon="5.63394">
        <ele>737</ele>
        <time>2021-03-13T08:56:27Z</time>
      </trkpt>
      <trkpt lat="45.40657" lon="5.63411">
        <ele>737.6</ele>
        <time>2021-03-13T08:56:31Z</time>
      </trkpt>
      <trkpt lat="45.40651" lon="5.63422">
        <ele>736.8</ele>
        <time>2021-03-13T08:56:35Z</time>
      </trkpt>
      <trkpt lat="45.40642" lon="5.63432">
        <ele>737.6</ele>
        <time>2021-03-13T08:56:39Z</time>
      </trkpt>
      <trkpt lat="45.40633" lon="5.63443">
        <ele>738</ele>
        <time>2021-03-13T08:56:43Z</time>
      </trkpt>
      <trkpt lat="45.40625" lon="5.63451">
        <ele>738.4</ele>
        <time>2021-03-13T08:56:47Z</time>
      </trkpt>
      <trkpt lat="45.40617" lon="5.63455">
        <ele>738.2</ele>
        <time>2021-03-13T08:56:51Z</time>
      </trkpt>
      <trkpt lat="45.40613" lon="5.63466">
        <ele>739</ele>
        <time>2021-03-13T08:56:55Z</time>
      </trkpt>
      <trkpt lat="45.40602" lon="5.63471">
        <ele>740.6</ele>
        <time>2021-03-13T08:56:59Z</time>
      </trkpt>
      <trkpt lat="45.40593" lon="5.63474">
        <ele>741.6</ele>
        <time>2021-03-13T08:57:03Z</time>
      </trkpt>
      <trkpt lat="45.40583" lon="5.63475">
        <ele>742.4</ele>
        <time>2021-03-13T08:57:07Z</time>
      </trkpt>
      <trkpt lat="45.40575" lon="5.63473">
        <ele>742.4</ele>
        <time>2021-03-13T08:57:11Z</time>
      </trkpt>
      <trkpt lat="45.40569" lon="5.63472">
        <ele>742.4</ele>
        <time>2021-03-13T08:57:15Z</time>
      </trkpt>
      <trkpt lat="45.40566" lon="5.63466">
        <ele>743</ele>
        <time>2021-03-13T08:57:19Z</time>
      </trkpt>
      <trkpt lat="45.4057" lon="5.63477">
        <ele>743</ele>
        <time>2021-03-13T08:58:03Z</time>
      </trkpt>
      <trkpt lat="45.40569" lon="5.63493">
        <ele>744.6</ele>
        <time>2021-03-13T08:58:17Z</time>
      </trkpt>
      <trkpt lat="45.40566" lon="5.635">
        <ele>745.8</ele>
        <time>2021-03-13T08:58:21Z</time>
      </trkpt>
      <trkpt lat="45.40566" lon="5.63507">
        <ele>746.4</ele>
        <time>2021-03-13T08:58:25Z</time>
      </trkpt>
      <trkpt lat="45.40565" lon="5.63515">
        <ele>747</ele>
        <time>2021-03-13T08:58:29Z</time>
      </trkpt>
      <trkpt lat="45.40565" lon="5.63524">
        <ele>748.2</ele>
        <time>2021-03-13T08:58:33Z</time>
      </trkpt>
      <trkpt lat="45.40564" lon="5.63532">
        <ele>749.4</ele>
        <time>2021-03-13T08:58:37Z</time>
      </trkpt>
      <trkpt lat="45.40563" lon="5.63541">
        <ele>749.4</ele>
        <time>2021-03-13T08:58:41Z</time>
      </trkpt>
      <trkpt lat="45.40562" lon="5.63549">
        <ele>750.6</ele>
        <time>2021-03-13T08:58:45Z</time>
      </trkpt>
      <trkpt lat="45.4056" lon="5.63557">
        <ele>751.4</ele>
        <time>2021-03-13T08:58:49Z</time>
      </trkpt>
      <trkpt lat="45.40558" lon="5.63565">
        <ele>752.4</ele>
        <time>2021-03-13T08:58:53Z</time>
      </trkpt>
      <trkpt lat="45.40556" lon="5.63572">
        <ele>753.2</ele>
        <time>2021-03-13T08:58:57Z</time>
      </trkpt>
      <trkpt lat="45.40554" lon="5.63577">
        <ele>754.4</ele>
        <time>2021-03-13T08:59:01Z</time>
      </trkpt>
      <trkpt lat="45.4055" lon="5.63581">
        <ele>754.6</ele>
        <time>2021-03-13T08:59:05Z</time>
      </trkpt>
      <trkpt lat="45.40547" lon="5.63586">
        <ele>756</ele>
        <time>2021-03-13T08:59:09Z</time>
      </trkpt>
      <trkpt lat="45.40545" lon="5.63592">
        <ele>756.8</ele>
        <time>2021-03-13T08:59:13Z</time>
      </trkpt>
      <trkpt lat="45.40541" lon="5.63597">
        <ele>757.4</ele>
        <time>2021-03-13T08:59:17Z</time>
      </trkpt>
      <trkpt lat="45.40539" lon="5.63602">
        <ele>757.8</ele>
        <time>2021-03-13T08:59:21Z</time>
      </trkpt>
      <trkpt lat="45.40537" lon="5.63607">
        <ele>758.8</ele>
        <time>2021-03-13T08:59:25Z</time>
      </trkpt>
      <trkpt lat="45.40535" lon="5.63611">
        <ele>759.4</ele>
        <time>2021-03-13T08:59:29Z</time>
      </trkpt>
      <trkpt lat="45.40535" lon="5.63617">
        <ele>760</ele>
        <time>2021-03-13T08:59:33Z</time>
      </trkpt>
      <trkpt lat="45.40534" lon="5.63625">
        <ele>760.8</ele>
        <time>2021-03-13T08:59:37Z</time>
      </trkpt>
      <trkpt lat="45.40536" lon="5.63632">
        <ele>761.6</ele>
        <time>2021-03-13T08:59:41Z</time>
      </trkpt>
      <trkpt lat="45.40535" lon="5.63639">
        <ele>762.4</ele>
        <time>2021-03-13T08:59:45Z</time>
      </trkpt>
      <trkpt lat="45.40535" lon="5.63645">
        <ele>763</ele>
        <time>2021-03-13T08:59:49Z</time>
      </trkpt>
      <trkpt lat="45.40535" lon="5.63652">
        <ele>763.2</ele>
        <time>2021-03-13T08:59:53Z</time>
      </trkpt>
      <trkpt lat="45.40532" lon="5.63658">
        <ele>764.2</ele>
        <time>2021-03-13T08:59:57Z</time>
      </trkpt>
      <trkpt lat="45.40532" lon="5.63665">
        <ele>765</ele>
        <time>2021-03-13T09:00:01Z</time>
      </trkpt>
      <trkpt lat="45.40532" lon="5.63671">
        <ele>766</ele>
        <time>2021-03-13T09:00:05Z</time>
      </trkpt>
      <trkpt lat="45.40531" lon="5.63677">
        <ele>766.6</ele>
        <time>2021-03-13T09:00:09Z</time>
      </trkpt>
      <trkpt lat="45.4053" lon="5.63683">
        <ele>767.2</ele>
        <time>2021-03-13T09:00:13Z</time>
      </trkpt>
      <trkpt lat="45.40528" lon="5.63689">
        <ele>768.4</ele>
        <time>2021-03-13T09:00:17Z</time>
      </trkpt>
      <trkpt lat="45.40526" lon="5.63694">
        <ele>769</ele>
        <time>2021-03-13T09:00:21Z</time>
      </trkpt>
      <trkpt lat="45.40525" lon="5.637">
        <ele>770.2</ele>
        <time>2021-03-13T09:00:25Z</time>
      </trkpt>
      <trkpt lat="45.40525" lon="5.63706">
        <ele>771</ele>
        <time>2021-03-13T09:00:29Z</time>
      </trkpt>
      <trkpt lat="45.40524" lon="5.63711">
        <ele>771.6</ele>
        <time>2021-03-13T09:00:33Z</time>
      </trkpt>
      <trkpt lat="45.40524" lon="5.63717">
        <ele>772.8</ele>
        <time>2021-03-13T09:00:37Z</time>
      </trkpt>
      <trkpt lat="45.40524" lon="5.63723">
        <ele>773.2</ele>
        <time>2021-03-13T09:00:41Z</time>
      </trkpt>
      <trkpt lat="45.40523" lon="5.63729">
        <ele>775</ele>
        <time>2021-03-13T09:00:45Z</time>
      </trkpt>
      <trkpt lat="45.40522" lon="5.63735">
        <ele>775.6</ele>
        <time>2021-03-13T09:00:49Z</time>
      </trkpt>
      <trkpt lat="45.40522" lon="5.63741">
        <ele>776.6</ele>
        <time>2021-03-13T09:00:53Z</time>
      </trkpt>
      <trkpt lat="45.40521" lon="5.63747">
        <ele>776.6</ele>
        <time>2021-03-13T09:00:57Z</time>
      </trkpt>
      <trkpt lat="45.4052" lon="5.63753">
        <ele>778.6</ele>
        <time>2021-03-13T09:01:01Z</time>
      </trkpt>
      <trkpt lat="45.4052" lon="5.63759">
        <ele>779.6</ele>
        <time>2021-03-13T09:01:05Z</time>
      </trkpt>
      <trkpt lat="45.40519" lon="5.63764">
        <ele>780.4</ele>
        <time>2021-03-13T09:01:09Z</time>
      </trkpt>
      <trkpt lat="45.40519" lon="5.6377">
        <ele>781</ele>
        <time>2021-03-13T09:01:13Z</time>
      </trkpt>
      <trkpt lat="45.40518" lon="5.63776">
        <ele>782.6</ele>
        <time>2021-03-13T09:01:17Z</time>
      </trkpt>
      <trkpt lat="45.40517" lon="5.63782">
        <ele>782.8</ele>
        <time>2021-03-13T09:01:21Z</time>
      </trkpt>
      <trkpt lat="45.40517" lon="5.63787">
        <ele>784.2</ele>
        <time>2021-03-13T09:01:25Z</time>
      </trkpt>
      <trkpt lat="45.40516" lon="5.63792">
        <ele>784.6</ele>
        <time>2021-03-13T09:01:29Z</time>
      </trkpt>
      <trkpt lat="45.40515" lon="5.63798">
        <ele>785.2</ele>
        <time>2021-03-13T09:01:33Z</time>
      </trkpt>
      <trkpt lat="45.40515" lon="5.63803">
        <ele>785.6</ele>
        <time>2021-03-13T09:01:37Z</time>
      </trkpt>
      <trkpt lat="45.40514" lon="5.63808">
        <ele>787</ele>
        <time>2021-03-13T09:01:41Z</time>
      </trkpt>
      <trkpt lat="45.40513" lon="5.63813">
        <ele>787.6</ele>
        <time>2021-03-13T09:01:45Z</time>
      </trkpt>
      <trkpt lat="45.40512" lon="5.63818">
        <ele>788.6</ele>
        <time>2021-03-13T09:01:49Z</time>
      </trkpt>
      <trkpt lat="45.40512" lon="5.63824">
        <ele>788.8</ele>
        <time>2021-03-13T09:01:53Z</time>
      </trkpt>
      <trkpt lat="45.40509" lon="5.6383">
        <ele>790</ele>
        <time>2021-03-13T09:01:57Z</time>
      </trkpt>
      <trkpt lat="45.40508" lon="5.63837">
        <ele>791.2</ele>
        <time>2021-03-13T09:02:01Z</time>
      </trkpt>
      <trkpt lat="45.40508" lon="5.63843">
        <ele>791</ele>
        <time>2021-03-13T09:02:05Z</time>
      </trkpt>
      <trkpt lat="45.40506" lon="5.63848">
        <ele>792.2</ele>
        <time>2021-03-13T09:02:09Z</time>
      </trkpt>
      <trkpt lat="45.40507" lon="5.63853">
        <ele>793.2</ele>
        <time>2021-03-13T09:02:13Z</time>
      </trkpt>
      <trkpt lat="45.40507" lon="5.63857">
        <ele>794</ele>
        <time>2021-03-13T09:02:17Z</time>
      </trkpt>
      <trkpt lat="45.40508" lon="5.63863">
        <ele>794.2</ele>
        <time>2021-03-13T09:02:21Z</time>
      </trkpt>
      <trkpt lat="45.40509" lon="5.63869">
        <ele>795</ele>
        <time>2021-03-13T09:02:25Z</time>
      </trkpt>
      <trkpt lat="45.40507" lon="5.63872">
        <ele>795.6</ele>
        <time>2021-03-13T09:02:29Z</time>
      </trkpt>
      <trkpt lat="45.40507" lon="5.63878">
        <ele>797</ele>
        <time>2021-03-13T09:02:33Z</time>
      </trkpt>
      <trkpt lat="45.40507" lon="5.63884">
        <ele>797.6</ele>
        <time>2021-03-13T09:02:37Z</time>
      </trkpt>
      <trkpt lat="45.40508" lon="5.63889">
        <ele>798.2</ele>
        <time>2021-03-13T09:02:41Z</time>
      </trkpt>
      <trkpt lat="45.40508" lon="5.63895">
        <ele>799.2</ele>
        <time>2021-03-13T09:02:45Z</time>
      </trkpt>
      <trkpt lat="45.40507" lon="5.639">
        <ele>800.2</ele>
        <time>2021-03-13T09:02:49Z</time>
      </trkpt>
      <trkpt lat="45.40508" lon="5.63906">
        <ele>800.4</ele>
        <time>2021-03-13T09:02:53Z</time>
      </trkpt>
      <trkpt lat="45.4051" lon="5.6391">
        <ele>801.6</ele>
        <time>2021-03-13T09:02:57Z</time>
      </trkpt>
      <trkpt lat="45.40511" lon="5.63915">
        <ele>803</ele>
        <time>2021-03-13T09:03:01Z</time>
      </trkpt>
      <trkpt lat="45.40511" lon="5.6392">
        <ele>803.6</ele>
        <time>2021-03-13T09:03:05Z</time>
      </trkpt>
      <trkpt lat="45.40511" lon="5.63927">
        <ele>804.8</ele>
        <time>2021-03-13T09:03:09Z</time>
      </trkpt>
      <trkpt lat="45.40513" lon="5.63932">
        <ele>805.4</ele>
        <time>2021-03-13T09:03:13Z</time>
      </trkpt>
      <trkpt lat="45.40514" lon="5.63937">
        <ele>806</ele>
        <time>2021-03-13T09:03:17Z</time>
      </trkpt>
      <trkpt lat="45.40514" lon="5.63941">
        <ele>806.8</ele>
        <time>2021-03-13T09:03:21Z</time>
      </trkpt>
      <trkpt lat="45.40515" lon="5.63945">
        <ele>807.6</ele>
        <time>2021-03-13T09:03:25Z</time>
      </trkpt>
      <trkpt lat="45.40516" lon="5.6395">
        <ele>808.4</ele>
        <time>2021-03-13T09:03:29Z</time>
      </trkpt>
      <trkpt lat="45.40516" lon="5.63954">
        <ele>808.6</ele>
        <time>2021-03-13T09:03:33Z</time>
      </trkpt>
      <trkpt lat="45.40517" lon="5.63958">
        <ele>808.6</ele>
        <time>2021-03-13T09:03:37Z</time>
      </trkpt>
      <trkpt lat="45.40519" lon="5.63965">
        <ele>809.8</ele>
        <time>2021-03-13T09:03:41Z</time>
      </trkpt>
      <trkpt lat="45.40521" lon="5.63972">
        <ele>810.2</ele>
        <time>2021-03-13T09:03:45Z</time>
      </trkpt>
      <trkpt lat="45.40523" lon="5.63979">
        <ele>810.6</ele>
        <time>2021-03-13T09:03:49Z</time>
      </trkpt>
      <trkpt lat="45.40526" lon="5.63987">
        <ele>810.6</ele>
        <time>2021-03-13T09:03:53Z</time>
      </trkpt>
      <trkpt lat="45.40528" lon="5.63995">
        <ele>811.2</ele>
        <time>2021-03-13T09:03:57Z</time>
      </trkpt>
      <trkpt lat="45.40531" lon="5.64004">
        <ele>811.6</ele>
        <time>2021-03-13T09:04:01Z</time>
      </trkpt>
      <trkpt lat="45.40535" lon="5.64013">
        <ele>812</ele>
        <time>2021-03-13T09:04:05Z</time>
      </trkpt>
      <trkpt lat="45.40537" lon="5.64022">
        <ele>812.2</ele>
        <time>2021-03-13T09:04:09Z</time>
      </trkpt>
      <trkpt lat="45.4054" lon="5.64031">
        <ele>813</ele>
        <time>2021-03-13T09:04:13Z</time>
      </trkpt>
      <trkpt lat="45.40543" lon="5.6404">
        <ele>813.4</ele>
        <time>2021-03-13T09:04:17Z</time>
      </trkpt>
      <trkpt lat="45.40546" lon="5.64049">
        <ele>813.4</ele>
        <time>2021-03-13T09:04:21Z</time>
      </trkpt>
      <trkpt lat="45.40549" lon="5.64058">
        <ele>813.4</ele>
        <time>2021-03-13T09:04:25Z</time>
      </trkpt>
      <trkpt lat="45.40551" lon="5.64067">
        <ele>814.2</ele>
        <time>2021-03-13T09:04:29Z</time>
      </trkpt>
      <trkpt lat="45.40554" lon="5.64075">
        <ele>815</ele>
        <time>2021-03-13T09:04:33Z</time>
      </trkpt>
      <trkpt lat="45.40556" lon="5.64083">
        <ele>815.8</ele>
        <time>2021-03-13T09:04:37Z</time>
      </trkpt>
      <trkpt lat="45.40558" lon="5.64091">
        <ele>816.8</ele>
        <time>2021-03-13T09:04:41Z</time>
      </trkpt>
      <trkpt lat="45.40559" lon="5.64098">
        <ele>818</ele>
        <time>2021-03-13T09:04:45Z</time>
      </trkpt>
      <trkpt lat="45.4056" lon="5.64104">
        <ele>818.4</ele>
        <time>2021-03-13T09:04:49Z</time>
      </trkpt>
      <trkpt lat="45.40561" lon="5.6411">
        <ele>818.2</ele>
        <time>2021-03-13T09:04:53Z</time>
      </trkpt>
      <trkpt lat="45.40561" lon="5.64115">
        <ele>820.2</ele>
        <time>2021-03-13T09:04:57Z</time>
      </trkpt>
      <trkpt lat="45.40562" lon="5.6412">
        <ele>820.6</ele>
        <time>2021-03-13T09:05:01Z</time>
      </trkpt>
      <trkpt lat="45.40562" lon="5.64125">
        <ele>821.4</ele>
        <time>2021-03-13T09:05:05Z</time>
      </trkpt>
      <trkpt lat="45.40561" lon="5.64131">
        <ele>822.2</ele>
        <time>2021-03-13T09:05:09Z</time>
      </trkpt>
      <trkpt lat="45.40563" lon="5.64136">
        <ele>823.4</ele>
        <time>2021-03-13T09:05:13Z</time>
      </trkpt>
      <trkpt lat="45.40563" lon="5.64141">
        <ele>825</ele>
        <time>2021-03-13T09:05:17Z</time>
      </trkpt>
      <trkpt lat="45.40563" lon="5.64146">
        <ele>825.4</ele>
        <time>2021-03-13T09:05:21Z</time>
      </trkpt>
      <trkpt lat="45.40562" lon="5.6415">
        <ele>826.8</ele>
        <time>2021-03-13T09:05:25Z</time>
      </trkpt>
      <trkpt lat="45.40561" lon="5.64154">
        <ele>826.8</ele>
        <time>2021-03-13T09:05:29Z</time>
      </trkpt>
      <trkpt lat="45.4056" lon="5.64159">
        <ele>828</ele>
        <time>2021-03-13T09:05:33Z</time>
      </trkpt>
      <trkpt lat="45.40645" lon="5.64186">
        <ele>833.6</ele>
        <time>2021-03-13T09:09:44Z</time>
      </trkpt>
      <trkpt lat="45.40651" lon="5.64191">
        <ele>835</ele>
        <time>2021-03-13T09:09:48Z</time>
      </trkpt>
      <trkpt lat="45.40658" lon="5.64196">
        <ele>835.2</ele>
        <time>2021-03-13T09:09:52Z</time>
      </trkpt>
      <trkpt lat="45.40663" lon="5.64201">
        <ele>835.2</ele>
        <time>2021-03-13T09:09:56Z</time>
      </trkpt>
      <trkpt lat="45.40669" lon="5.64206">
        <ele>835.8</ele>
        <time>2021-03-13T09:10:00Z</time>
      </trkpt>
      <trkpt lat="45.40674" lon="5.6421">
        <ele>836.6</ele>
        <time>2021-03-13T09:10:04Z</time>
      </trkpt>
      <trkpt lat="45.4068" lon="5.64214">
        <ele>837</ele>
        <time>2021-03-13T09:10:08Z</time>
      </trkpt>
      <trkpt lat="45.40686" lon="5.64218">
        <ele>837.8</ele>
        <time>2021-03-13T09:10:12Z</time>
      </trkpt>
      <trkpt lat="45.40694" lon="5.64222">
        <ele>837.4</ele>
        <time>2021-03-13T09:10:16Z</time>
      </trkpt>
      <trkpt lat="45.40701" lon="5.64224">
        <ele>838.6</ele>
        <time>2021-03-13T09:10:20Z</time>
      </trkpt>
      <trkpt lat="45.40705" lon="5.64227">
        <ele>839.2</ele>
        <time>2021-03-13T09:10:24Z</time>
      </trkpt>
      <trkpt lat="45.40711" lon="5.64229">
        <ele>840.4</ele>
        <time>2021-03-13T09:10:28Z</time>
      </trkpt>
      <trkpt lat="45.40716" lon="5.64231">
        <ele>840.6</ele>
        <time>2021-03-13T09:10:32Z</time>
      </trkpt>
      <trkpt lat="45.40722" lon="5.64235">
        <ele>841.6</ele>
        <time>2021-03-13T09:10:36Z</time>
      </trkpt>
      <trkpt lat="45.40726" lon="5.64238">
        <ele>842</ele>
        <time>2021-03-13T09:10:40Z</time>
      </trkpt>
      <trkpt lat="45.4073" lon="5.64241">
        <ele>843</ele>
        <time>2021-03-13T09:10:44Z</time>
      </trkpt>
      <trkpt lat="45.40735" lon="5.64244">
        <ele>843.2</ele>
        <time>2021-03-13T09:10:48Z</time>
      </trkpt>
      <trkpt lat="45.40741" lon="5.64251">
        <ele>844</ele>
        <time>2021-03-13T09:10:52Z</time>
      </trkpt>
      <trkpt lat="45.40747" lon="5.64257">
        <ele>844.6</ele>
        <time>2021-03-13T09:10:56Z</time>
      </trkpt>
      <trkpt lat="45.40753" lon="5.6426">
        <ele>844.8</ele>
        <time>2021-03-13T09:11:00Z</time>
      </trkpt>
      <trkpt lat="45.40759" lon="5.64264">
        <ele>845.6</ele>
        <time>2021-03-13T09:11:04Z</time>
      </trkpt>
      <trkpt lat="45.40765" lon="5.64267">
        <ele>845.8</ele>
        <time>2021-03-13T09:11:08Z</time>
      </trkpt>
      <trkpt lat="45.40771" lon="5.64271">
        <ele>846.2</ele>
        <time>2021-03-13T09:11:12Z</time>
      </trkpt>
      <trkpt lat="45.40776" lon="5.64277">
        <ele>846.8</ele>
        <time>2021-03-13T09:11:16Z</time>
      </trkpt>
      <trkpt lat="45.40781" lon="5.64284">
        <ele>847.2</ele>
        <time>2021-03-13T09:11:20Z</time>
      </trkpt>
      <trkpt lat="45.40786" lon="5.64291">
        <ele>848</ele>
        <time>2021-03-13T09:11:24Z</time>
      </trkpt>
      <trkpt lat="45.4079" lon="5.64298">
        <ele>849</ele>
        <time>2021-03-13T09:11:28Z</time>
      </trkpt>
      <trkpt lat="45.40796" lon="5.64303">
        <ele>848.8</ele>
        <time>2021-03-13T09:11:32Z</time>
      </trkpt>
      <trkpt lat="45.40801" lon="5.64308">
        <ele>849.8</ele>
        <time>2021-03-13T09:11:36Z</time>
      </trkpt>
      <trkpt lat="45.40806" lon="5.64312">
        <ele>850</ele>
        <time>2021-03-13T09:11:40Z</time>
      </trkpt>
      <trkpt lat="45.40811" lon="5.64317">
        <ele>850</ele>
        <time>2021-03-13T09:11:44Z</time>
      </trkpt>
      <trkpt lat="45.40816" lon="5.64322">
        <ele>851.4</ele>
        <time>2021-03-13T09:11:48Z</time>
      </trkpt>
      <trkpt lat="45.4082" lon="5.64328">
        <ele>852</ele>
        <time>2021-03-13T09:11:52Z</time>
      </trkpt>
      <trkpt lat="45.40826" lon="5.64334">
        <ele>852.8</ele>
        <time>2021-03-13T09:11:56Z</time>
      </trkpt>
      <trkpt lat="45.40831" lon="5.6434">
        <ele>852.8</ele>
        <time>2021-03-13T09:12:00Z</time>
      </trkpt>
      <trkpt lat="45.40836" lon="5.64345">
        <ele>853.6</ele>
        <time>2021-03-13T09:12:04Z</time>
      </trkpt>
      <trkpt lat="45.40839" lon="5.64352">
        <ele>856.2</ele>
        <time>2021-03-13T09:12:08Z</time>
      </trkpt>
      <trkpt lat="45.40842" lon="5.64359">
        <ele>854.6</ele>
        <time>2021-03-13T09:12:12Z</time>
      </trkpt>
      <trkpt lat="45.40844" lon="5.64367">
        <ele>856.4</ele>
        <time>2021-03-13T09:12:16Z</time>
      </trkpt>
      <trkpt lat="45.40847" lon="5.64375">
        <ele>857</ele>
        <time>2021-03-13T09:12:20Z</time>
      </trkpt>
      <trkpt lat="45.40849" lon="5.64384">
        <ele>857.6</ele>
        <time>2021-03-13T09:12:24Z</time>
      </trkpt>
      <trkpt lat="45.4085" lon="5.64393">
        <ele>857.8</ele>
        <time>2021-03-13T09:12:28Z</time>
      </trkpt>
      <trkpt lat="45.4085" lon="5.64401">
        <ele>858.8</ele>
        <time>2021-03-13T09:12:32Z</time>
      </trkpt>
      <trkpt lat="45.40849" lon="5.64409">
        <ele>859.2</ele>
        <time>2021-03-13T09:12:36Z</time>
      </trkpt>
      <trkpt lat="45.4085" lon="5.64418">
        <ele>860.2</ele>
        <time>2021-03-13T09:12:40Z</time>
      </trkpt>
      <trkpt lat="45.40851" lon="5.64427">
        <ele>860.2</ele>
        <time>2021-03-13T09:12:44Z</time>
      </trkpt>
      <trkpt lat="45.40852" lon="5.64436">
        <ele>861</ele>
        <time>2021-03-13T09:12:48Z</time>
      </trkpt>
      <trkpt lat="45.40854" lon="5.64446">
        <ele>861.8</ele>
        <time>2021-03-13T09:12:52Z</time>
      </trkpt>
      <trkpt lat="45.40856" lon="5.64455">
        <ele>861.8</ele>
        <time>2021-03-13T09:12:56Z</time>
      </trkpt>
      <trkpt lat="45.40859" lon="5.64463">
        <ele>862.8</ele>
        <time>2021-03-13T09:13:00Z</time>
      </trkpt>
      <trkpt lat="45.40861" lon="5.64472">
        <ele>862.6</ele>
        <time>2021-03-13T09:13:04Z</time>
      </trkpt>
      <trkpt lat="45.40864" lon="5.64482">
        <ele>863</ele>
        <time>2021-03-13T09:13:08Z</time>
      </trkpt>
      <trkpt lat="45.40867" lon="5.64494">
        <ele>862.4</ele>
        <time>2021-03-13T09:13:12Z</time>
      </trkpt>
      <trkpt lat="45.40872" lon="5.6451">
        <ele>862.2</ele>
        <time>2021-03-13T09:13:16Z</time>
      </trkpt>
      <trkpt lat="45.40877" lon="5.64529">
        <ele>864.2</ele>
        <time>2021-03-13T09:13:20Z</time>
      </trkpt>
      <trkpt lat="45.40882" lon="5.64547">
        <ele>861.8</ele>
        <time>2021-03-13T09:13:24Z</time>
      </trkpt>
      <trkpt lat="45.40886" lon="5.6456">
        <ele>861.6</ele>
        <time>2021-03-13T09:13:28Z</time>
      </trkpt>
      <trkpt lat="45.40889" lon="5.64572">
        <ele>861.8</ele>
        <time>2021-03-13T09:13:32Z</time>
      </trkpt>
      <trkpt lat="45.40892" lon="5.64585">
        <ele>862.8</ele>
        <time>2021-03-13T09:13:36Z</time>
      </trkpt>
      <trkpt lat="45.40895" lon="5.64598">
        <ele>862.2</ele>
        <time>2021-03-13T09:13:40Z</time>
      </trkpt>
      <trkpt lat="45.40898" lon="5.64612">
        <ele>858.2</ele>
        <time>2021-03-13T09:13:44Z</time>
      </trkpt>
      <trkpt lat="45.40901" lon="5.64624">
        <ele>863</ele>
        <time>2021-03-13T09:13:48Z</time>
      </trkpt>
      <trkpt lat="45.40904" lon="5.64634">
        <ele>863.2</ele>
        <time>2021-03-13T09:13:52Z</time>
      </trkpt>
      <trkpt lat="45.40908" lon="5.64643">
        <ele>864.8</ele>
        <time>2021-03-13T09:13:56Z</time>
      </trkpt>
      <trkpt lat="45.40912" lon="5.64651">
        <ele>864.2</ele>
        <time>2021-03-13T09:14:00Z</time>
      </trkpt>
      <trkpt lat="45.40915" lon="5.64659">
        <ele>864</ele>
        <time>2021-03-13T09:14:04Z</time>
      </trkpt>
      <trkpt lat="45.40919" lon="5.64667">
        <ele>865.2</ele>
        <time>2021-03-13T09:14:08Z</time>
      </trkpt>
      <trkpt lat="45.40924" lon="5.64673">
        <ele>865</ele>
        <time>2021-03-13T09:14:12Z</time>
      </trkpt>
      <trkpt lat="45.4093" lon="5.6468">
        <ele>865.8</ele>
        <time>2021-03-13T09:14:16Z</time>
      </trkpt>
      <trkpt lat="45.40936" lon="5.64685">
        <ele>866.2</ele>
        <time>2021-03-13T09:14:20Z</time>
      </trkpt>
      <trkpt lat="45.40943" lon="5.6469">
        <ele>867.6</ele>
        <time>2021-03-13T09:14:24Z</time>
      </trkpt>
      <trkpt lat="45.40948" lon="5.64696">
        <ele>867.6</ele>
        <time>2021-03-13T09:14:28Z</time>
      </trkpt>
      <trkpt lat="45.40954" lon="5.64702">
        <ele>868</ele>
        <time>2021-03-13T09:14:32Z</time>
      </trkpt>
      <trkpt lat="45.40961" lon="5.64707">
        <ele>867.8</ele>
        <time>2021-03-13T09:14:36Z</time>
      </trkpt>
      <trkpt lat="45.40968" lon="5.64714">
        <ele>868.2</ele>
        <time>2021-03-13T09:14:40Z</time>
      </trkpt>
      <trkpt lat="45.40975" lon="5.64722">
        <ele>869.2</ele>
        <time>2021-03-13T09:14:44Z</time>
      </trkpt>
      <trkpt lat="45.40981" lon="5.6473">
        <ele>869.6</ele>
        <time>2021-03-13T09:14:48Z</time>
      </trkpt>
      <trkpt lat="45.40987" lon="5.64739">
        <ele>869.6</ele>
        <time>2021-03-13T09:14:52Z</time>
      </trkpt>
      <trkpt lat="45.40992" lon="5.64747">
        <ele>869.8</ele>
        <time>2021-03-13T09:14:56Z</time>
      </trkpt>
      <trkpt lat="45.40999" lon="5.64755">
        <ele>870</ele>
        <time>2021-03-13T09:15:00Z</time>
      </trkpt>
      <trkpt lat="45.41003" lon="5.64763">
        <ele>869.8</ele>
        <time>2021-03-13T09:15:04Z</time>
      </trkpt>
      <trkpt lat="45.41009" lon="5.64772">
        <ele>869.2</ele>
        <time>2021-03-13T09:15:08Z</time>
      </trkpt>
      <trkpt lat="45.41015" lon="5.64782">
        <ele>870</ele>
        <time>2021-03-13T09:15:12Z</time>
      </trkpt>
      <trkpt lat="45.41025" lon="5.64791">
        <ele>870</ele>
        <time>2021-03-13T09:15:16Z</time>
      </trkpt>
      <trkpt lat="45.41031" lon="5.64797">
        <ele>871.4</ele>
        <time>2021-03-13T09:15:20Z</time>
      </trkpt>
      <trkpt lat="45.41041" lon="5.64801">
        <ele>871.4</ele>
        <time>2021-03-13T09:15:24Z</time>
      </trkpt>
      <trkpt lat="45.4105" lon="5.64804">
        <ele>872</ele>
        <time>2021-03-13T09:15:28Z</time>
      </trkpt>
      <trkpt lat="45.41059" lon="5.64805">
        <ele>872</ele>
        <time>2021-03-13T09:15:32Z</time>
      </trkpt>
      <trkpt lat="45.41072" lon="5.64805">
        <ele>871</ele>
        <time>2021-03-13T09:15:36Z</time>
      </trkpt>
      <trkpt lat="45.41085" lon="5.64802">
        <ele>869.2</ele>
        <time>2021-03-13T09:15:40Z</time>
      </trkpt>
      <trkpt lat="45.41098" lon="5.64799">
        <ele>870</ele>
        <time>2021-03-13T09:15:44Z</time>
      </trkpt>
      <trkpt lat="45.41108" lon="5.64796">
        <ele>870.4</ele>
        <time>2021-03-13T09:15:48Z</time>
      </trkpt>
      <trkpt lat="45.41118" lon="5.64794">
        <ele>869.8</ele>
        <time>2021-03-13T09:15:52Z</time>
      </trkpt>
      <trkpt lat="45.41128" lon="5.64791">
        <ele>870</ele>
        <time>2021-03-13T09:15:56Z</time>
      </trkpt>
      <trkpt lat="45.41136" lon="5.64776">
        <ele>871.4</ele>
        <time>2021-03-13T09:16:22Z</time>
      </trkpt>
      <trkpt lat="45.41138" lon="5.64766">
        <ele>871.8</ele>
        <time>2021-03-13T09:16:26Z</time>
      </trkpt>
      <trkpt lat="45.41141" lon="5.64756">
        <ele>872.6</ele>
        <time>2021-03-13T09:16:30Z</time>
      </trkpt>
      <trkpt lat="45.41146" lon="5.64747">
        <ele>873.2</ele>
        <time>2021-03-13T09:16:34Z</time>
      </trkpt>
      <trkpt lat="45.41152" lon="5.64739">
        <ele>873.6</ele>
        <time>2021-03-13T09:16:38Z</time>
      </trkpt>
      <trkpt lat="45.41156" lon="5.64729">
        <ele>874.4</ele>
        <time>2021-03-13T09:16:42Z</time>
      </trkpt>
      <trkpt lat="45.41162" lon="5.64722">
        <ele>875</ele>
        <time>2021-03-13T09:16:46Z</time>
      </trkpt>
      <trkpt lat="45.41169" lon="5.64717">
        <ele>875.6</ele>
        <time>2021-03-13T09:16:50Z</time>
      </trkpt>
      <trkpt lat="45.41177" lon="5.64713">
        <ele>876.6</ele>
        <time>2021-03-13T09:16:54Z</time>
      </trkpt>
      <trkpt lat="45.41186" lon="5.64708">
        <ele>876.8</ele>
        <time>2021-03-13T09:16:58Z</time>
      </trkpt>
      <trkpt lat="45.41196" lon="5.64703">
        <ele>876.6</ele>
        <time>2021-03-13T09:17:02Z</time>
      </trkpt>
      <trkpt lat="45.41206" lon="5.64699">
        <ele>876.8</ele>
        <time>2021-03-13T09:17:06Z</time>
      </trkpt>
      <trkpt lat="45.41218" lon="5.64693">
        <ele>876.4</ele>
        <time>2021-03-13T09:17:10Z</time>
      </trkpt>
      <trkpt lat="45.41235" lon="5.64689">
        <ele>875.6</ele>
        <time>2021-03-13T09:17:14Z</time>
      </trkpt>
      <trkpt lat="45.41249" lon="5.64686">
        <ele>875.4</ele>
        <time>2021-03-13T09:17:18Z</time>
      </trkpt>
      <trkpt lat="45.41262" lon="5.64684">
        <ele>875.4</ele>
        <time>2021-03-13T09:17:22Z</time>
      </trkpt>
      <trkpt lat="45.41275" lon="5.64682">
        <ele>875.4</ele>
        <time>2021-03-13T09:17:26Z</time>
      </trkpt>
      <trkpt lat="45.41287" lon="5.64682">
        <ele>875.8</ele>
        <time>2021-03-13T09:17:30Z</time>
      </trkpt>
      <trkpt lat="45.41299" lon="5.64683">
        <ele>876.8</ele>
        <time>2021-03-13T09:17:34Z</time>
      </trkpt>
      <trkpt lat="45.4131" lon="5.64686">
        <ele>877.2</ele>
        <time>2021-03-13T09:17:38Z</time>
      </trkpt>
      <trkpt lat="45.41321" lon="5.64691">
        <ele>878</ele>
        <time>2021-03-13T09:17:42Z</time>
      </trkpt>
      <trkpt lat="45.41331" lon="5.64697">
        <ele>878.4</ele>
        <time>2021-03-13T09:17:46Z</time>
      </trkpt>
      <trkpt lat="45.41341" lon="5.64702">
        <ele>878.8</ele>
        <time>2021-03-13T09:17:50Z</time>
      </trkpt>
      <trkpt lat="45.41352" lon="5.64708">
        <ele>879</ele>
        <time>2021-03-13T09:17:54Z</time>
      </trkpt>
      <trkpt lat="45.41363" lon="5.64714">
        <ele>879.4</ele>
        <time>2021-03-13T09:17:58Z</time>
      </trkpt>
      <trkpt lat="45.41373" lon="5.64719">
        <ele>881</ele>
        <time>2021-03-13T09:18:02Z</time>
      </trkpt>
      <trkpt lat="45.41381" lon="5.64722">
        <ele>881.4</ele>
        <time>2021-03-13T09:18:06Z</time>
      </trkpt>
      <trkpt lat="45.41389" lon="5.64724">
        <ele>883</ele>
        <time>2021-03-13T09:18:10Z</time>
      </trkpt>
      <trkpt lat="45.41397" lon="5.64726">
        <ele>883</ele>
        <time>2021-03-13T09:18:14Z</time>
      </trkpt>
      <trkpt lat="45.41404" lon="5.64728">
        <ele>884.2</ele>
        <time>2021-03-13T09:18:18Z</time>
      </trkpt>
      <trkpt lat="45.41412" lon="5.6473">
        <ele>885.2</ele>
        <time>2021-03-13T09:18:22Z</time>
      </trkpt>
      <trkpt lat="45.41419" lon="5.64731">
        <ele>885.6</ele>
        <time>2021-03-13T09:18:26Z</time>
      </trkpt>
      <trkpt lat="45.41427" lon="5.64733">
        <ele>886.4</ele>
        <time>2021-03-13T09:18:30Z</time>
      </trkpt>
      <trkpt lat="45.41436" lon="5.64736">
        <ele>887.2</ele>
        <time>2021-03-13T09:18:34Z</time>
      </trkpt>
      <trkpt lat="45.41445" lon="5.6474">
        <ele>887</ele>
        <time>2021-03-13T09:18:38Z</time>
      </trkpt>
      <trkpt lat="45.41455" lon="5.64745">
        <ele>887.2</ele>
        <time>2021-03-13T09:18:42Z</time>
      </trkpt>
      <trkpt lat="45.41464" lon="5.64751">
        <ele>888.2</ele>
        <time>2021-03-13T09:18:46Z</time>
      </trkpt>
      <trkpt lat="45.41471" lon="5.64757">
        <ele>888.8</ele>
        <time>2021-03-13T09:18:50Z</time>
      </trkpt>
      <trkpt lat="45.41477" lon="5.64763">
        <ele>889</ele>
        <time>2021-03-13T09:18:54Z</time>
      </trkpt>
      <trkpt lat="45.41485" lon="5.64772">
        <ele>889.4</ele>
        <time>2021-03-13T09:18:58Z</time>
      </trkpt>
      <trkpt lat="45.41493" lon="5.64779">
        <ele>890.2</ele>
        <time>2021-03-13T09:19:02Z</time>
      </trkpt>
      <trkpt lat="45.41501" lon="5.64785">
        <ele>890.6</ele>
        <time>2021-03-13T09:19:06Z</time>
      </trkpt>
      <trkpt lat="45.41508" lon="5.64792">
        <ele>892</ele>
        <time>2021-03-13T09:19:10Z</time>
      </trkpt>
      <trkpt lat="45.41516" lon="5.64797">
        <ele>892.6</ele>
        <time>2021-03-13T09:19:14Z</time>
      </trkpt>
      <trkpt lat="45.41523" lon="5.64802">
        <ele>893.8</ele>
        <time>2021-03-13T09:19:18Z</time>
      </trkpt>
      <trkpt lat="45.4153" lon="5.64808">
        <ele>894.6</ele>
        <time>2021-03-13T09:19:22Z</time>
      </trkpt>
      <trkpt lat="45.41538" lon="5.64814">
        <ele>894.8</ele>
        <time>2021-03-13T09:19:26Z</time>
      </trkpt>
      <trkpt lat="45.41546" lon="5.64818">
        <ele>895.6</ele>
        <time>2021-03-13T09:19:30Z</time>
      </trkpt>
      <trkpt lat="45.41554" lon="5.64824">
        <ele>896</ele>
        <time>2021-03-13T09:19:34Z</time>
      </trkpt>
      <trkpt lat="45.41564" lon="5.64832">
        <ele>896.6</ele>
        <time>2021-03-13T09:19:38Z</time>
      </trkpt>
      <trkpt lat="45.41574" lon="5.64842">
        <ele>896.6</ele>
        <time>2021-03-13T09:19:42Z</time>
      </trkpt>
      <trkpt lat="45.41584" lon="5.64854">
        <ele>896.2</ele>
        <time>2021-03-13T09:19:46Z</time>
      </trkpt>
      <trkpt lat="45.41594" lon="5.64867">
        <ele>896.4</ele>
        <time>2021-03-13T09:19:50Z</time>
      </trkpt>
      <trkpt lat="45.41604" lon="5.64878">
        <ele>896.6</ele>
        <time>2021-03-13T09:19:54Z</time>
      </trkpt>
      <trkpt lat="45.41613" lon="5.64888">
        <ele>897.2</ele>
        <time>2021-03-13T09:19:58Z</time>
      </trkpt>
      <trkpt lat="45.41622" lon="5.64896">
        <ele>897.8</ele>
        <time>2021-03-13T09:20:02Z</time>
      </trkpt>
      <trkpt lat="45.41632" lon="5.64902">
        <ele>899</ele>
        <time>2021-03-13T09:20:06Z</time>
      </trkpt>
      <trkpt lat="45.41639" lon="5.64906">
        <ele>900</ele>
        <time>2021-03-13T09:20:10Z</time>
      </trkpt>
      <trkpt lat="45.41647" lon="5.6491">
        <ele>900.8</ele>
        <time>2021-03-13T09:20:14Z</time>
      </trkpt>
      <trkpt lat="45.41658" lon="5.64917">
        <ele>900.4</ele>
        <time>2021-03-13T09:20:18Z</time>
      </trkpt>
      <trkpt lat="45.41671" lon="5.64925">
        <ele>900.8</ele>
        <time>2021-03-13T09:20:22Z</time>
      </trkpt>
      <trkpt lat="45.41683" lon="5.64933">
        <ele>900.6</ele>
        <time>2021-03-13T09:20:26Z</time>
      </trkpt>
      <trkpt lat="45.41696" lon="5.6494">
        <ele>901</ele>
        <time>2021-03-13T09:20:30Z</time>
      </trkpt>
      <trkpt lat="45.41708" lon="5.64946">
        <ele>901.2</ele>
        <time>2021-03-13T09:20:34Z</time>
      </trkpt>
      <trkpt lat="45.4172" lon="5.64951">
        <ele>901.4</ele>
        <time>2021-03-13T09:20:38Z</time>
      </trkpt>
      <trkpt lat="45.41731" lon="5.64953">
        <ele>901.6</ele>
        <time>2021-03-13T09:20:42Z</time>
      </trkpt>
      <trkpt lat="45.41742" lon="5.64954">
        <ele>902</ele>
        <time>2021-03-13T09:20:46Z</time>
      </trkpt>
      <trkpt lat="45.41755" lon="5.64954">
        <ele>901</ele>
        <time>2021-03-13T09:20:50Z</time>
      </trkpt>
      <trkpt lat="45.4177" lon="5.64955">
        <ele>900.4</ele>
        <time>2021-03-13T09:20:54Z</time>
      </trkpt>
      <trkpt lat="45.4179" lon="5.64956">
        <ele>897.8</ele>
        <time>2021-03-13T09:20:58Z</time>
      </trkpt>
      <trkpt lat="45.4182" lon="5.64959">
        <ele>895.6</ele>
        <time>2021-03-13T09:21:02Z</time>
      </trkpt>
      <trkpt lat="45.41853" lon="5.64953">
        <ele>893.6</ele>
        <time>2021-03-13T09:21:06Z</time>
      </trkpt>
      <trkpt lat="45.41875" lon="5.64935">
        <ele>896.6</ele>
        <time>2021-03-13T09:21:10Z</time>
      </trkpt>
      <trkpt lat="45.41886" lon="5.64927">
        <ele>898.2</ele>
        <time>2021-03-13T09:21:14Z</time>
      </trkpt>
      <trkpt lat="45.41893" lon="5.64923">
        <ele>899</ele>
        <time>2021-03-13T09:21:18Z</time>
      </trkpt>
      <trkpt lat="45.419" lon="5.64921">
        <ele>899.8</ele>
        <time>2021-03-13T09:21:22Z</time>
      </trkpt>
      <trkpt lat="45.41906" lon="5.6492">
        <ele>900.8</ele>
        <time>2021-03-13T09:21:26Z</time>
      </trkpt>
      <trkpt lat="45.41912" lon="5.6492">
        <ele>902.2</ele>
        <time>2021-03-13T09:21:30Z</time>
      </trkpt>
      <trkpt lat="45.41918" lon="5.64922">
        <ele>903</ele>
        <time>2021-03-13T09:21:34Z</time>
      </trkpt>
      <trkpt lat="45.41924" lon="5.64923">
        <ele>904</ele>
        <time>2021-03-13T09:21:38Z</time>
      </trkpt>
      <trkpt lat="45.4193" lon="5.64924">
        <ele>905.2</ele>
        <time>2021-03-13T09:21:42Z</time>
      </trkpt>
      <trkpt lat="45.41934" lon="5.64926">
        <ele>906</ele>
        <time>2021-03-13T09:21:46Z</time>
      </trkpt>
      <trkpt lat="45.41939" lon="5.64927">
        <ele>907</ele>
        <time>2021-03-13T09:21:50Z</time>
      </trkpt>
      <trkpt lat="45.41944" lon="5.64926">
        <ele>907.8</ele>
        <time>2021-03-13T09:21:54Z</time>
      </trkpt>
      <trkpt lat="45.41949" lon="5.64925">
        <ele>908.6</ele>
        <time>2021-03-13T09:21:58Z</time>
      </trkpt>
      <trkpt lat="45.41952" lon="5.64924">
        <ele>909.2</ele>
        <time>2021-03-13T09:22:02Z</time>
      </trkpt>
      <trkpt lat="45.41956" lon="5.64922">
        <ele>910.2</ele>
        <time>2021-03-13T09:22:06Z</time>
      </trkpt>
      <trkpt lat="45.41962" lon="5.64922">
        <ele>911.4</ele>
        <time>2021-03-13T09:22:10Z</time>
      </trkpt>
      <trkpt lat="45.41969" lon="5.6492">
        <ele>912.6</ele>
        <time>2021-03-13T09:22:14Z</time>
      </trkpt>
      <trkpt lat="45.41974" lon="5.6492">
        <ele>912.6</ele>
        <time>2021-03-13T09:22:18Z</time>
      </trkpt>
      <trkpt lat="45.4198" lon="5.6492">
        <ele>913.4</ele>
        <time>2021-03-13T09:22:22Z</time>
      </trkpt>
      <trkpt lat="45.41987" lon="5.64918">
        <ele>914.4</ele>
        <time>2021-03-13T09:22:26Z</time>
      </trkpt>
      <trkpt lat="45.41994" lon="5.64917">
        <ele>915</ele>
        <time>2021-03-13T09:22:30Z</time>
      </trkpt>
      <trkpt lat="45.42001" lon="5.64915">
        <ele>915.6</ele>
        <time>2021-03-13T09:22:34Z</time>
      </trkpt>
      <trkpt lat="45.42008" lon="5.64911">
        <ele>916</ele>
        <time>2021-03-13T09:22:38Z</time>
      </trkpt>
      <trkpt lat="45.42017" lon="5.64906">
        <ele>915.6</ele>
        <time>2021-03-13T09:22:42Z</time>
      </trkpt>
      <trkpt lat="45.42026" lon="5.64901">
        <ele>916</ele>
        <time>2021-03-13T09:22:46Z</time>
      </trkpt>
      <trkpt lat="45.42035" lon="5.64894">
        <ele>916.6</ele>
        <time>2021-03-13T09:22:50Z</time>
      </trkpt>
      <trkpt lat="45.42044" lon="5.64885">
        <ele>916.8</ele>
        <time>2021-03-13T09:22:54Z</time>
      </trkpt>
      <trkpt lat="45.42054" lon="5.64878">
        <ele>917</ele>
        <time>2021-03-13T09:22:58Z</time>
      </trkpt>
      <trkpt lat="45.42064" lon="5.64869">
        <ele>916.8</ele>
        <time>2021-03-13T09:23:02Z</time>
      </trkpt>
      <trkpt lat="45.42073" lon="5.64859">
        <ele>916.8</ele>
        <time>2021-03-13T09:23:06Z</time>
      </trkpt>
      <trkpt lat="45.42083" lon="5.64843">
        <ele>916.6</ele>
        <time>2021-03-13T09:23:10Z</time>
      </trkpt>
      <trkpt lat="45.4209" lon="5.64823">
        <ele>916.6</ele>
        <time>2021-03-13T09:23:14Z</time>
      </trkpt>
      <trkpt lat="45.42096" lon="5.64802">
        <ele>916.8</ele>
        <time>2021-03-13T09:23:18Z</time>
      </trkpt>
      <trkpt lat="45.42102" lon="5.64783">
        <ele>916.6</ele>
        <time>2021-03-13T09:23:22Z</time>
      </trkpt>
      <trkpt lat="45.42111" lon="5.64765">
        <ele>917.6</ele>
        <time>2021-03-13T09:23:26Z</time>
      </trkpt>
      <trkpt lat="45.4212" lon="5.64748">
        <ele>917</ele>
        <time>2021-03-13T09:23:30Z</time>
      </trkpt>
      <trkpt lat="45.42132" lon="5.64733">
        <ele>917</ele>
        <time>2021-03-13T09:23:34Z</time>
      </trkpt>
      <trkpt lat="45.42145" lon="5.6472">
        <ele>916.8</ele>
        <time>2021-03-13T09:23:38Z</time>
      </trkpt>
      <trkpt lat="45.42157" lon="5.64709">
        <ele>917.2</ele>
        <time>2021-03-13T09:23:42Z</time>
      </trkpt>
      <trkpt lat="45.42167" lon="5.64699">
        <ele>917.2</ele>
        <time>2021-03-13T09:23:46Z</time>
      </trkpt>
      <trkpt lat="45.42175" lon="5.6469">
        <ele>916.8</ele>
        <time>2021-03-13T09:23:50Z</time>
      </trkpt>
      <trkpt lat="45.42181" lon="5.64675">
        <ele>915.8</ele>
        <time>2021-03-13T09:23:54Z</time>
      </trkpt>
      <trkpt lat="45.42192" lon="5.64655">
        <ele>914.6</ele>
        <time>2021-03-13T09:23:58Z</time>
      </trkpt>
      <trkpt lat="45.42206" lon="5.64628">
        <ele>913.8</ele>
        <time>2021-03-13T09:24:02Z</time>
      </trkpt>
      <trkpt lat="45.42221" lon="5.64603">
        <ele>913.4</ele>
        <time>2021-03-13T09:24:06Z</time>
      </trkpt>
      <trkpt lat="45.42234" lon="5.64577">
        <ele>913.4</ele>
        <time>2021-03-13T09:24:10Z</time>
      </trkpt>
      <trkpt lat="45.4225" lon="5.6455">
        <ele>911.6</ele>
        <time>2021-03-13T09:24:14Z</time>
      </trkpt>
      <trkpt lat="45.42261" lon="5.64514">
        <ele>909.6</ele>
        <time>2021-03-13T09:24:18Z</time>
      </trkpt>
      <trkpt lat="45.42276" lon="5.64479">
        <ele>908.2</ele>
        <time>2021-03-13T09:24:22Z</time>
      </trkpt>
      <trkpt lat="45.42291" lon="5.64444">
        <ele>906.4</ele>
        <time>2021-03-13T09:24:26Z</time>
      </trkpt>
      <trkpt lat="45.42311" lon="5.64414">
        <ele>906.4</ele>
        <time>2021-03-13T09:24:30Z</time>
      </trkpt>
      <trkpt lat="45.42331" lon="5.6439">
        <ele>905.4</ele>
        <time>2021-03-13T09:24:34Z</time>
      </trkpt>
      <trkpt lat="45.42349" lon="5.64365">
        <ele>904.4</ele>
        <time>2021-03-13T09:24:38Z</time>
      </trkpt>
      <trkpt lat="45.42369" lon="5.64344">
        <ele>903.2</ele>
        <time>2021-03-13T09:24:42Z</time>
      </trkpt>
      <trkpt lat="45.42377" lon="5.64325">
        <ele>901.6</ele>
        <time>2021-03-13T09:24:46Z</time>
      </trkpt>
      <trkpt lat="45.42374" lon="5.64296">
        <ele>901.2</ele>
        <time>2021-03-13T09:26:27Z</time>
      </trkpt>
      <trkpt lat="45.42383" lon="5.64278">
        <ele>900.2</ele>
        <time>2021-03-13T09:26:31Z</time>
      </trkpt>
      <trkpt lat="45.42386" lon="5.64247">
        <ele>898.6</ele>
        <time>2021-03-13T09:26:35Z</time>
      </trkpt>
      <trkpt lat="45.42385" lon="5.64217">
        <ele>897.6</ele>
        <time>2021-03-13T09:26:39Z</time>
      </trkpt>
      <trkpt lat="45.42373" lon="5.64181">
        <ele>896.6</ele>
        <time>2021-03-13T09:26:43Z</time>
      </trkpt>
      <trkpt lat="45.42373" lon="5.6415">
        <ele>894.4</ele>
        <time>2021-03-13T09:26:47Z</time>
      </trkpt>
      <trkpt lat="45.4237" lon="5.64114">
        <ele>893.8</ele>
        <time>2021-03-13T09:26:51Z</time>
      </trkpt>
      <trkpt lat="45.42371" lon="5.64083">
        <ele>893.8</ele>
        <time>2021-03-13T09:26:55Z</time>
      </trkpt>
      <trkpt lat="45.42364" lon="5.64046">
        <ele>895.6</ele>
        <time>2021-03-13T09:26:59Z</time>
      </trkpt>
      <trkpt lat="45.42361" lon="5.6402">
        <ele>892.2</ele>
        <time>2021-03-13T09:27:03Z</time>
      </trkpt>
      <trkpt lat="45.42351" lon="5.63984">
        <ele>891.8</ele>
        <time>2021-03-13T09:27:07Z</time>
      </trkpt>
      <trkpt lat="45.42347" lon="5.63952">
        <ele>891.6</ele>
        <time>2021-03-13T09:27:11Z</time>
      </trkpt>
      <trkpt lat="45.42341" lon="5.63923">
        <ele>891</ele>
        <time>2021-03-13T09:27:15Z</time>
      </trkpt>
      <trkpt lat="45.4233" lon="5.63891">
        <ele>889.4</ele>
        <time>2021-03-13T09:27:19Z</time>
      </trkpt>
      <trkpt lat="45.42315" lon="5.63858">
        <ele>887.2</ele>
        <time>2021-03-13T09:27:23Z</time>
      </trkpt>
      <trkpt lat="45.42316" lon="5.63822">
        <ele>886.2</ele>
        <time>2021-03-13T09:27:27Z</time>
      </trkpt>
      <trkpt lat="45.42315" lon="5.63789">
        <ele>886.2</ele>
        <time>2021-03-13T09:27:31Z</time>
      </trkpt>
      <trkpt lat="45.4231" lon="5.6375">
        <ele>885.4</ele>
        <time>2021-03-13T09:27:35Z</time>
      </trkpt>
      <trkpt lat="45.42306" lon="5.63711">
        <ele>884.8</ele>
        <time>2021-03-13T09:27:39Z</time>
      </trkpt>
      <trkpt lat="45.42308" lon="5.63668">
        <ele>883.2</ele>
        <time>2021-03-13T09:27:43Z</time>
      </trkpt>
      <trkpt lat="45.42311" lon="5.63626">
        <ele>882.4</ele>
        <time>2021-03-13T09:27:47Z</time>
      </trkpt>
      <trkpt lat="45.42313" lon="5.63589">
        <ele>882</ele>
        <time>2021-03-13T09:27:51Z</time>
      </trkpt>
      <trkpt lat="45.4232" lon="5.63566">
        <ele>882.2</ele>
        <time>2021-03-13T09:27:55Z</time>
      </trkpt>
      <trkpt lat="45.42323" lon="5.63542">
        <ele>883.6</ele>
        <time>2021-03-13T09:27:59Z</time>
      </trkpt>
      <trkpt lat="45.42327" lon="5.63508">
        <ele>882.4</ele>
        <time>2021-03-13T09:28:03Z</time>
      </trkpt>
      <trkpt lat="45.42345" lon="5.63475">
        <ele>879.6</ele>
        <time>2021-03-13T09:28:07Z</time>
      </trkpt>
      <trkpt lat="45.42363" lon="5.63448">
        <ele>878.2</ele>
        <time>2021-03-13T09:28:11Z</time>
      </trkpt>
      <trkpt lat="45.42384" lon="5.63418">
        <ele>874.4</ele>
        <time>2021-03-13T09:28:15Z</time>
      </trkpt>
      <trkpt lat="45.42406" lon="5.63393">
        <ele>871</ele>
        <time>2021-03-13T09:28:19Z</time>
      </trkpt>
      <trkpt lat="45.42429" lon="5.63372">
        <ele>868</ele>
        <time>2021-03-13T09:28:23Z</time>
      </trkpt>
      <trkpt lat="45.42449" lon="5.63351">
        <ele>864.4</ele>
        <time>2021-03-13T09:28:27Z</time>
      </trkpt>
      <trkpt lat="45.42465" lon="5.63314">
        <ele>861.2</ele>
        <time>2021-03-13T09:28:31Z</time>
      </trkpt>
      <trkpt lat="45.42473" lon="5.63276">
        <ele>856.4</ele>
        <time>2021-03-13T09:28:35Z</time>
      </trkpt>
      <trkpt lat="45.42481" lon="5.63245">
        <ele>853</ele>
        <time>2021-03-13T09:28:39Z</time>
      </trkpt>
      <trkpt lat="45.42485" lon="5.63215">
        <ele>846.8</ele>
        <time>2021-03-13T09:28:43Z</time>
      </trkpt>
      <trkpt lat="45.42492" lon="5.63186">
        <ele>844</ele>
        <time>2021-03-13T09:28:47Z</time>
      </trkpt>
      <trkpt lat="45.42508" lon="5.63176">
        <ele>840.8</ele>
        <time>2021-03-13T09:28:51Z</time>
      </trkpt>
      <trkpt lat="45.42528" lon="5.63182">
        <ele>837</ele>
        <time>2021-03-13T09:28:55Z</time>
      </trkpt>
      <trkpt lat="45.42538" lon="5.63211">
        <ele>835.2</ele>
        <time>2021-03-13T09:28:59Z</time>
      </trkpt>
      <trkpt lat="45.42545" lon="5.63237">
        <ele>833</ele>
        <time>2021-03-13T09:29:03Z</time>
      </trkpt>
      <trkpt lat="45.4255" lon="5.63267">
        <ele>829.4</ele>
        <time>2021-03-13T09:29:07Z</time>
      </trkpt>
      <trkpt lat="45.42559" lon="5.63305">
        <ele>824.6</ele>
        <time>2021-03-13T09:29:11Z</time>
      </trkpt>
      <trkpt lat="45.42567" lon="5.63328">
        <ele>821.8</ele>
        <time>2021-03-13T09:29:15Z</time>
      </trkpt>
      <trkpt lat="45.42579" lon="5.63335">
        <ele>820</ele>
        <time>2021-03-13T09:29:19Z</time>
      </trkpt>
      <trkpt lat="45.42588" lon="5.63323">
        <ele>819.4</ele>
        <time>2021-03-13T09:29:23Z</time>
      </trkpt>
      <trkpt lat="45.42595" lon="5.63301">
        <ele>818.2</ele>
        <time>2021-03-13T09:29:27Z</time>
      </trkpt>
      <trkpt lat="45.426" lon="5.63268">
        <ele>815.6</ele>
        <time>2021-03-13T09:29:31Z</time>
      </trkpt>
      <trkpt lat="45.42608" lon="5.63231">
        <ele>813.4</ele>
        <time>2021-03-13T09:29:35Z</time>
      </trkpt>
      <trkpt lat="45.42615" lon="5.632">
        <ele>811.2</ele>
        <time>2021-03-13T09:29:39Z</time>
      </trkpt>
      <trkpt lat="45.42628" lon="5.63167">
        <ele>808</ele>
        <time>2021-03-13T09:29:43Z</time>
      </trkpt>
      <trkpt lat="45.42644" lon="5.63134">
        <ele>807.2</ele>
        <time>2021-03-13T09:29:47Z</time>
      </trkpt>
      <trkpt lat="45.42661" lon="5.63093">
        <ele>804.2</ele>
        <time>2021-03-13T09:29:51Z</time>
      </trkpt>
      <trkpt lat="45.42679" lon="5.63053">
        <ele>803</ele>
        <time>2021-03-13T09:29:55Z</time>
      </trkpt>
      <trkpt lat="45.42697" lon="5.63021">
        <ele>802.6</ele>
        <time>2021-03-13T09:29:59Z</time>
      </trkpt>
      <trkpt lat="45.4271" lon="5.63003">
        <ele>804</ele>
        <time>2021-03-13T09:30:03Z</time>
      </trkpt>
      <trkpt lat="45.42715" lon="5.62992">
        <ele>803.8</ele>
        <time>2021-03-13T09:30:07Z</time>
      </trkpt>
      <trkpt lat="45.42716" lon="5.62978">
        <ele>804</ele>
        <time>2021-03-13T09:30:26Z</time>
      </trkpt>
      <trkpt lat="45.42715" lon="5.62967">
        <ele>804.6</ele>
        <time>2021-03-13T09:30:30Z</time>
      </trkpt>
      <trkpt lat="45.42713" lon="5.62959">
        <ele>804.8</ele>
        <time>2021-03-13T09:30:34Z</time>
      </trkpt>
      <trkpt lat="45.4271" lon="5.62951">
        <ele>805</ele>
        <time>2021-03-13T09:30:38Z</time>
      </trkpt>
      <trkpt lat="45.42707" lon="5.62944">
        <ele>805</ele>
        <time>2021-03-13T09:30:42Z</time>
      </trkpt>
      <trkpt lat="45.42702" lon="5.6294">
        <ele>804</ele>
        <time>2021-03-13T09:30:46Z</time>
      </trkpt>
      <trkpt lat="45.42716" lon="5.62971">
        <ele>804.4</ele>
        <time>2021-03-13T09:31:22Z</time>
      </trkpt>
      <trkpt lat="45.42724" lon="5.62979">
        <ele>802.6</ele>
        <time>2021-03-13T09:31:26Z</time>
      </trkpt>
      <trkpt lat="45.42732" lon="5.62983">
        <ele>801.2</ele>
        <time>2021-03-13T09:31:30Z</time>
      </trkpt>
      <trkpt lat="45.42743" lon="5.62984">
        <ele>799.2</ele>
        <time>2021-03-13T09:31:34Z</time>
      </trkpt>
      <trkpt lat="45.42764" lon="5.6298">
        <ele>795.6</ele>
        <time>2021-03-13T09:31:38Z</time>
      </trkpt>
      <trkpt lat="45.42785" lon="5.62971">
        <ele>792.4</ele>
        <time>2021-03-13T09:31:42Z</time>
      </trkpt>
      <trkpt lat="45.42798" lon="5.62964">
        <ele>790.8</ele>
        <time>2021-03-13T09:31:46Z</time>
      </trkpt>
      <trkpt lat="45.42809" lon="5.62959">
        <ele>789.8</ele>
        <time>2021-03-13T09:31:50Z</time>
      </trkpt>
      <trkpt lat="45.42823" lon="5.6296">
        <ele>788</ele>
        <time>2021-03-13T09:31:54Z</time>
      </trkpt>
      <trkpt lat="45.42839" lon="5.62956">
        <ele>786.4</ele>
        <time>2021-03-13T09:31:58Z</time>
      </trkpt>
      <trkpt lat="45.42852" lon="5.62946">
        <ele>784.8</ele>
        <time>2021-03-13T09:32:02Z</time>
      </trkpt>
      <trkpt lat="45.42861" lon="5.62935">
        <ele>784</ele>
        <time>2021-03-13T09:32:06Z</time>
      </trkpt>
      <trkpt lat="45.42869" lon="5.62922">
        <ele>784</ele>
        <time>2021-03-13T09:32:10Z</time>
      </trkpt>
      <trkpt lat="45.4288" lon="5.62902">
        <ele>781.6</ele>
        <time>2021-03-13T09:32:14Z</time>
      </trkpt>
      <trkpt lat="45.42887" lon="5.62872">
        <ele>780.2</ele>
        <time>2021-03-13T09:32:18Z</time>
      </trkpt>
      <trkpt lat="45.42893" lon="5.62845">
        <ele>777.4</ele>
        <time>2021-03-13T09:32:22Z</time>
      </trkpt>
      <trkpt lat="45.42899" lon="5.62827">
        <ele>776.6</ele>
        <time>2021-03-13T09:32:26Z</time>
      </trkpt>
      <trkpt lat="45.42905" lon="5.62831">
        <ele>775.8</ele>
        <time>2021-03-13T09:32:30Z</time>
      </trkpt>
      <trkpt lat="45.42901" lon="5.62846">
        <ele>776</ele>
        <time>2021-03-13T09:32:34Z</time>
      </trkpt>
      <trkpt lat="45.42897" lon="5.62862">
        <ele>776.6</ele>
        <time>2021-03-13T09:32:38Z</time>
      </trkpt>
      <trkpt lat="45.42892" lon="5.62875">
        <ele>777.2</ele>
        <time>2021-03-13T09:32:42Z</time>
      </trkpt>
      <trkpt lat="45.42887" lon="5.62888">
        <ele>777.4</ele>
        <time>2021-03-13T09:32:46Z</time>
      </trkpt>
      <trkpt lat="45.42883" lon="5.62903">
        <ele>778.2</ele>
        <time>2021-03-13T09:32:50Z</time>
      </trkpt>
      <trkpt lat="45.42882" lon="5.62922">
        <ele>778</ele>
        <time>2021-03-13T09:32:54Z</time>
      </trkpt>
      <trkpt lat="45.42879" lon="5.62941">
        <ele>778</ele>
        <time>2021-03-13T09:32:58Z</time>
      </trkpt>
      <trkpt lat="45.42877" lon="5.62962">
        <ele>779</ele>
        <time>2021-03-13T09:33:02Z</time>
      </trkpt>
      <trkpt lat="45.42876" lon="5.62981">
        <ele>779.2</ele>
        <time>2021-03-13T09:33:06Z</time>
      </trkpt>
      <trkpt lat="45.42873" lon="5.62999">
        <ele>779.2</ele>
        <time>2021-03-13T09:33:10Z</time>
      </trkpt>
      <trkpt lat="45.42871" lon="5.6302">
        <ele>779.8</ele>
        <time>2021-03-13T09:33:14Z</time>
      </trkpt>
      <trkpt lat="45.4287" lon="5.63042">
        <ele>779.8</ele>
        <time>2021-03-13T09:33:18Z</time>
      </trkpt>
      <trkpt lat="45.4287" lon="5.63063">
        <ele>780.2</ele>
        <time>2021-03-13T09:33:22Z</time>
      </trkpt>
      <trkpt lat="45.42875" lon="5.63083">
        <ele>781</ele>
        <time>2021-03-13T09:33:26Z</time>
      </trkpt>
      <trkpt lat="45.4288" lon="5.63101">
        <ele>781.2</ele>
        <time>2021-03-13T09:33:30Z</time>
      </trkpt>
      <trkpt lat="45.42886" lon="5.63119">
        <ele>781.4</ele>
        <time>2021-03-13T09:33:34Z</time>
      </trkpt>
      <trkpt lat="45.42891" lon="5.63135">
        <ele>781.8</ele>
        <time>2021-03-13T09:33:38Z</time>
      </trkpt>
      <trkpt lat="45.42896" lon="5.63151">
        <ele>782.6</ele>
        <time>2021-03-13T09:33:42Z</time>
      </trkpt>
      <trkpt lat="45.429" lon="5.63166">
        <ele>782.4</ele>
        <time>2021-03-13T09:33:46Z</time>
      </trkpt>
      <trkpt lat="45.42902" lon="5.63182">
        <ele>783.6</ele>
        <time>2021-03-13T09:33:50Z</time>
      </trkpt>
      <trkpt lat="45.429" lon="5.63197">
        <ele>784</ele>
        <time>2021-03-13T09:33:54Z</time>
      </trkpt>
      <trkpt lat="45.42896" lon="5.63211">
        <ele>785.2</ele>
        <time>2021-03-13T09:33:58Z</time>
      </trkpt>
      <trkpt lat="45.4289" lon="5.63221">
        <ele>785.6</ele>
        <time>2021-03-13T09:34:02Z</time>
      </trkpt>
      <trkpt lat="45.42882" lon="5.63229">
        <ele>785.8</ele>
        <time>2021-03-13T09:34:06Z</time>
      </trkpt>
      <trkpt lat="45.42872" lon="5.63236">
        <ele>785.8</ele>
        <time>2021-03-13T09:34:10Z</time>
      </trkpt>
      <trkpt lat="45.42862" lon="5.63243">
        <ele>786.8</ele>
        <time>2021-03-13T09:34:14Z</time>
      </trkpt>
      <trkpt lat="45.42851" lon="5.63249">
        <ele>786.6</ele>
        <time>2021-03-13T09:34:18Z</time>
      </trkpt>
      <trkpt lat="45.4284" lon="5.63254">
        <ele>787.6</ele>
        <time>2021-03-13T09:34:22Z</time>
      </trkpt>
      <trkpt lat="45.4283" lon="5.63258">
        <ele>787.6</ele>
        <time>2021-03-13T09:34:26Z</time>
      </trkpt>
      <trkpt lat="45.42819" lon="5.63263">
        <ele>788.4</ele>
        <time>2021-03-13T09:34:30Z</time>
      </trkpt>
      <trkpt lat="45.42809" lon="5.63267">
        <ele>788.6</ele>
        <time>2021-03-13T09:34:34Z</time>
      </trkpt>
      <trkpt lat="45.42798" lon="5.63271">
        <ele>788.8</ele>
        <time>2021-03-13T09:34:38Z</time>
      </trkpt>
      <trkpt lat="45.42788" lon="5.63277">
        <ele>789.8</ele>
        <time>2021-03-13T09:34:42Z</time>
      </trkpt>
      <trkpt lat="45.42779" lon="5.63288">
        <ele>790.8</ele>
        <time>2021-03-13T09:34:46Z</time>
      </trkpt>
      <trkpt lat="45.42772" lon="5.633">
        <ele>791</ele>
        <time>2021-03-13T09:34:50Z</time>
      </trkpt>
      <trkpt lat="45.42765" lon="5.63315">
        <ele>790.6</ele>
        <time>2021-03-13T09:34:54Z</time>
      </trkpt>
      <trkpt lat="45.42758" lon="5.63328">
        <ele>791.4</ele>
        <time>2021-03-13T09:34:58Z</time>
      </trkpt>
      <trkpt lat="45.42752" lon="5.63343">
        <ele>792.2</ele>
        <time>2021-03-13T09:35:02Z</time>
      </trkpt>
      <trkpt lat="45.42746" lon="5.63357">
        <ele>792.4</ele>
        <time>2021-03-13T09:35:06Z</time>
      </trkpt>
      <trkpt lat="45.42739" lon="5.63371">
        <ele>792</ele>
        <time>2021-03-13T09:35:10Z</time>
      </trkpt>
      <trkpt lat="45.42733" lon="5.63385">
        <ele>793.2</ele>
        <time>2021-03-13T09:35:14Z</time>
      </trkpt>
      <trkpt lat="45.42726" lon="5.63398">
        <ele>792.6</ele>
        <time>2021-03-13T09:35:18Z</time>
      </trkpt>
      <trkpt lat="45.4272" lon="5.63411">
        <ele>792.8</ele>
        <time>2021-03-13T09:35:22Z</time>
      </trkpt>
      <trkpt lat="45.42714" lon="5.63423">
        <ele>794.2</ele>
        <time>2021-03-13T09:35:26Z</time>
      </trkpt>
      <trkpt lat="45.42707" lon="5.63435">
        <ele>794.8</ele>
        <time>2021-03-13T09:35:30Z</time>
      </trkpt>
      <trkpt lat="45.42701" lon="5.63446">
        <ele>795.2</ele>
        <time>2021-03-13T09:35:34Z</time>
      </trkpt>
      <trkpt lat="45.42693" lon="5.63457">
        <ele>795.2</ele>
        <time>2021-03-13T09:35:38Z</time>
      </trkpt>
      <trkpt lat="45.42685" lon="5.63467">
        <ele>795.6</ele>
        <time>2021-03-13T09:35:42Z</time>
      </trkpt>
      <trkpt lat="45.42676" lon="5.63476">
        <ele>796.4</ele>
        <time>2021-03-13T09:35:46Z</time>
      </trkpt>
      <trkpt lat="45.42667" lon="5.63485">
        <ele>796.2</ele>
        <time>2021-03-13T09:35:50Z</time>
      </trkpt>
      <trkpt lat="45.42659" lon="5.63494">
        <ele>796.6</ele>
        <time>2021-03-13T09:35:54Z</time>
      </trkpt>
      <trkpt lat="45.4265" lon="5.63503">
        <ele>797.8</ele>
        <time>2021-03-13T09:35:58Z</time>
      </trkpt>
      <trkpt lat="45.42641" lon="5.63512">
        <ele>798</ele>
        <time>2021-03-13T09:36:02Z</time>
      </trkpt>
      <trkpt lat="45.42632" lon="5.63521">
        <ele>798.4</ele>
        <time>2021-03-13T09:36:06Z</time>
      </trkpt>
      <trkpt lat="45.42623" lon="5.63529">
        <ele>798.8</ele>
        <time>2021-03-13T09:36:10Z</time>
      </trkpt>
      <trkpt lat="45.42614" lon="5.63539">
        <ele>798.6</ele>
        <time>2021-03-13T09:36:14Z</time>
      </trkpt>
      <trkpt lat="45.42605" lon="5.63547">
        <ele>799.4</ele>
        <time>2021-03-13T09:36:18Z</time>
      </trkpt>
      <trkpt lat="45.42597" lon="5.63555">
        <ele>799.8</ele>
        <time>2021-03-13T09:36:22Z</time>
      </trkpt>
      <trkpt lat="45.42588" lon="5.63564">
        <ele>800.4</ele>
        <time>2021-03-13T09:36:26Z</time>
      </trkpt>
      <trkpt lat="45.42579" lon="5.63573">
        <ele>801.4</ele>
        <time>2021-03-13T09:36:30Z</time>
      </trkpt>
      <trkpt lat="45.42571" lon="5.63581">
        <ele>801.8</ele>
        <time>2021-03-13T09:36:34Z</time>
      </trkpt>
      <trkpt lat="45.42565" lon="5.63594">
        <ele>801.8</ele>
        <time>2021-03-13T09:36:38Z</time>
      </trkpt>
      <trkpt lat="45.42563" lon="5.63612">
        <ele>802.2</ele>
        <time>2021-03-13T09:36:42Z</time>
      </trkpt>
      <trkpt lat="45.42565" lon="5.63627">
        <ele>802</ele>
        <time>2021-03-13T09:36:46Z</time>
      </trkpt>
      <trkpt lat="45.42566" lon="5.63643">
        <ele>803</ele>
        <time>2021-03-13T09:36:50Z</time>
      </trkpt>
      <trkpt lat="45.42571" lon="5.63662">
        <ele>803.4</ele>
        <time>2021-03-13T09:36:54Z</time>
      </trkpt>
      <trkpt lat="45.42574" lon="5.63678">
        <ele>803.6</ele>
        <time>2021-03-13T09:36:58Z</time>
      </trkpt>
      <trkpt lat="45.42577" lon="5.63694">
        <ele>803.8</ele>
        <time>2021-03-13T09:37:02Z</time>
      </trkpt>
      <trkpt lat="45.4258" lon="5.6371">
        <ele>804.2</ele>
        <time>2021-03-13T09:37:06Z</time>
      </trkpt>
      <trkpt lat="45.42583" lon="5.63726">
        <ele>805.2</ele>
        <time>2021-03-13T09:37:10Z</time>
      </trkpt>
      <trkpt lat="45.42587" lon="5.63742">
        <ele>805.2</ele>
        <time>2021-03-13T09:37:14Z</time>
      </trkpt>
      <trkpt lat="45.42591" lon="5.63758">
        <ele>805.6</ele>
        <time>2021-03-13T09:37:18Z</time>
      </trkpt>
      <trkpt lat="45.42596" lon="5.63774">
        <ele>805.4</ele>
        <time>2021-03-13T09:37:22Z</time>
      </trkpt>
      <trkpt lat="45.42603" lon="5.6379">
        <ele>806.2</ele>
        <time>2021-03-13T09:37:26Z</time>
      </trkpt>
      <trkpt lat="45.42611" lon="5.63805">
        <ele>806</ele>
        <time>2021-03-13T09:37:30Z</time>
      </trkpt>
      <trkpt lat="45.42618" lon="5.63818">
        <ele>806.6</ele>
        <time>2021-03-13T09:37:34Z</time>
      </trkpt>
      <trkpt lat="45.42628" lon="5.63825">
        <ele>805.8</ele>
        <time>2021-03-13T09:37:38Z</time>
      </trkpt>
      <trkpt lat="45.42642" lon="5.63824">
        <ele>805.6</ele>
        <time>2021-03-13T09:37:42Z</time>
      </trkpt>
      <trkpt lat="45.42655" lon="5.63816">
        <ele>804.8</ele>
        <time>2021-03-13T09:37:46Z</time>
      </trkpt>
      <trkpt lat="45.42668" lon="5.6381">
        <ele>805.4</ele>
        <time>2021-03-13T09:37:50Z</time>
      </trkpt>
      <trkpt lat="45.42684" lon="5.63809">
        <ele>805</ele>
        <time>2021-03-13T09:37:54Z</time>
      </trkpt>
      <trkpt lat="45.42698" lon="5.63819">
        <ele>805</ele>
        <time>2021-03-13T09:37:58Z</time>
      </trkpt>
      <trkpt lat="45.42712" lon="5.63833">
        <ele>805</ele>
        <time>2021-03-13T09:38:02Z</time>
      </trkpt>
      <trkpt lat="45.42726" lon="5.63849">
        <ele>804.8</ele>
        <time>2021-03-13T09:38:06Z</time>
      </trkpt>
      <trkpt lat="45.4274" lon="5.63864">
        <ele>804.2</ele>
        <time>2021-03-13T09:38:10Z</time>
      </trkpt>
      <trkpt lat="45.42754" lon="5.6388">
        <ele>804.2</ele>
        <time>2021-03-13T09:38:14Z</time>
      </trkpt>
      <trkpt lat="45.42767" lon="5.63897">
        <ele>804.2</ele>
        <time>2021-03-13T09:38:18Z</time>
      </trkpt>
      <trkpt lat="45.42782" lon="5.63911">
        <ele>803.6</ele>
        <time>2021-03-13T09:38:22Z</time>
      </trkpt>
      <trkpt lat="45.428" lon="5.63916">
        <ele>802.8</ele>
        <time>2021-03-13T09:38:26Z</time>
      </trkpt>
      <trkpt lat="45.42818" lon="5.63914">
        <ele>804</ele>
        <time>2021-03-13T09:38:30Z</time>
      </trkpt>
      <trkpt lat="45.42836" lon="5.63908">
        <ele>803.6</ele>
        <time>2021-03-13T09:38:34Z</time>
      </trkpt>
      <trkpt lat="45.42855" lon="5.63903">
        <ele>803</ele>
        <time>2021-03-13T09:38:38Z</time>
      </trkpt>
      <trkpt lat="45.42875" lon="5.63896">
        <ele>803.6</ele>
        <time>2021-03-13T09:38:42Z</time>
      </trkpt>
      <trkpt lat="45.42895" lon="5.6389">
        <ele>803</ele>
        <time>2021-03-13T09:38:46Z</time>
      </trkpt>
      <trkpt lat="45.42915" lon="5.63884">
        <ele>803</ele>
        <time>2021-03-13T09:38:50Z</time>
      </trkpt>
      <trkpt lat="45.42934" lon="5.63878">
        <ele>803.4</ele>
        <time>2021-03-13T09:38:54Z</time>
      </trkpt>
      <trkpt lat="45.42953" lon="5.63878">
        <ele>802.6</ele>
        <time>2021-03-13T09:38:58Z</time>
      </trkpt>
      <trkpt lat="45.42972" lon="5.63887">
        <ele>801.8</ele>
        <time>2021-03-13T09:39:02Z</time>
      </trkpt>
      <trkpt lat="45.42986" lon="5.6391">
        <ele>801.8</ele>
        <time>2021-03-13T09:39:06Z</time>
      </trkpt>
      <trkpt lat="45.42997" lon="5.63938">
        <ele>801</ele>
        <time>2021-03-13T09:39:10Z</time>
      </trkpt>
      <trkpt lat="45.43005" lon="5.63968">
        <ele>800.8</ele>
        <time>2021-03-13T09:39:14Z</time>
      </trkpt>
      <trkpt lat="45.43015" lon="5.63997">
        <ele>799.8</ele>
        <time>2021-03-13T09:39:18Z</time>
      </trkpt>
      <trkpt lat="45.43023" lon="5.64026">
        <ele>799.4</ele>
        <time>2021-03-13T09:39:22Z</time>
      </trkpt>
      <trkpt lat="45.43029" lon="5.64057">
        <ele>799</ele>
        <time>2021-03-13T09:39:26Z</time>
      </trkpt>
      <trkpt lat="45.43032" lon="5.6409">
        <ele>797.6</ele>
        <time>2021-03-13T09:39:30Z</time>
      </trkpt>
      <trkpt lat="45.43034" lon="5.64123">
        <ele>797</ele>
        <time>2021-03-13T09:39:34Z</time>
      </trkpt>
      <trkpt lat="45.43039" lon="5.64153">
        <ele>797</ele>
        <time>2021-03-13T09:39:38Z</time>
      </trkpt>
      <trkpt lat="45.43057" lon="5.64168">
        <ele>795</ele>
        <time>2021-03-13T09:39:42Z</time>
      </trkpt>
      <trkpt lat="45.43079" lon="5.64151">
        <ele>794.2</ele>
        <time>2021-03-13T09:39:46Z</time>
      </trkpt>
      <trkpt lat="45.43097" lon="5.64119">
        <ele>793.2</ele>
        <time>2021-03-13T09:39:50Z</time>
      </trkpt>
      <trkpt lat="45.43116" lon="5.64085">
        <ele>791</ele>
        <time>2021-03-13T09:39:54Z</time>
      </trkpt>
      <trkpt lat="45.43138" lon="5.64049">
        <ele>789.6</ele>
        <time>2021-03-13T09:39:58Z</time>
      </trkpt>
      <trkpt lat="45.43167" lon="5.64031">
        <ele>786.4</ele>
        <time>2021-03-13T09:40:02Z</time>
      </trkpt>
      <trkpt lat="45.43191" lon="5.64047">
        <ele>784.2</ele>
        <time>2021-03-13T09:40:06Z</time>
      </trkpt>
      <trkpt lat="45.4321" lon="5.64079">
        <ele>783.4</ele>
        <time>2021-03-13T09:40:10Z</time>
      </trkpt>
      <trkpt lat="45.43228" lon="5.64115">
        <ele>780.2</ele>
        <time>2021-03-13T09:40:14Z</time>
      </trkpt>
      <trkpt lat="45.43247" lon="5.64154">
        <ele>778.8</ele>
        <time>2021-03-13T09:40:18Z</time>
      </trkpt>
      <trkpt lat="45.43268" lon="5.64196">
        <ele>776.2</ele>
        <time>2021-03-13T09:40:22Z</time>
      </trkpt>
      <trkpt lat="45.43288" lon="5.64239">
        <ele>773.4</ele>
        <time>2021-03-13T09:40:26Z</time>
      </trkpt>
      <trkpt lat="45.43304" lon="5.64281">
        <ele>771.6</ele>
        <time>2021-03-13T09:40:30Z</time>
      </trkpt>
      <trkpt lat="45.43318" lon="5.64324">
        <ele>769.8</ele>
        <time>2021-03-13T09:40:34Z</time>
      </trkpt>
      <trkpt lat="45.43333" lon="5.64364">
        <ele>767.6</ele>
        <time>2021-03-13T09:40:38Z</time>
      </trkpt>
      <trkpt lat="45.43347" lon="5.64404">
        <ele>764.8</ele>
        <time>2021-03-13T09:40:42Z</time>
      </trkpt>
      <trkpt lat="45.4336" lon="5.64444">
        <ele>763.6</ele>
        <time>2021-03-13T09:40:46Z</time>
      </trkpt>
      <trkpt lat="45.4338" lon="5.64479">
        <ele>762.2</ele>
        <time>2021-03-13T09:40:50Z</time>
      </trkpt>
      <trkpt lat="45.43395" lon="5.64514">
        <ele>760.6</ele>
        <time>2021-03-13T09:40:54Z</time>
      </trkpt>
      <trkpt lat="45.43401" lon="5.64544">
        <ele>759.8</ele>
        <time>2021-03-13T09:40:58Z</time>
      </trkpt>
      <trkpt lat="45.43407" lon="5.64572">
        <ele>760.4</ele>
        <time>2021-03-13T09:41:02Z</time>
      </trkpt>
      <trkpt lat="45.4341" lon="5.64599">
        <ele>761</ele>
        <time>2021-03-13T09:41:06Z</time>
      </trkpt>
      <trkpt lat="45.4341" lon="5.64619">
        <ele>761.6</ele>
        <time>2021-03-13T09:41:10Z</time>
      </trkpt>
      <trkpt lat="45.4341" lon="5.64636">
        <ele>762.2</ele>
        <time>2021-03-13T09:41:14Z</time>
      </trkpt>
      <trkpt lat="45.43409" lon="5.64651">
        <ele>762.8</ele>
        <time>2021-03-13T09:41:18Z</time>
      </trkpt>
      <trkpt lat="45.43408" lon="5.64665">
        <ele>763</ele>
        <time>2021-03-13T09:41:22Z</time>
      </trkpt>
      <trkpt lat="45.43407" lon="5.64681">
        <ele>763.8</ele>
        <time>2021-03-13T09:41:26Z</time>
      </trkpt>
      <trkpt lat="45.43407" lon="5.64697">
        <ele>764.8</ele>
        <time>2021-03-13T09:41:30Z</time>
      </trkpt>
      <trkpt lat="45.43407" lon="5.64712">
        <ele>765.6</ele>
        <time>2021-03-13T09:41:34Z</time>
      </trkpt>
      <trkpt lat="45.43406" lon="5.64728">
        <ele>766</ele>
        <time>2021-03-13T09:41:38Z</time>
      </trkpt>
      <trkpt lat="45.43406" lon="5.64743">
        <ele>767</ele>
        <time>2021-03-13T09:41:42Z</time>
      </trkpt>
      <trkpt lat="45.43406" lon="5.64759">
        <ele>767</ele>
        <time>2021-03-13T09:41:46Z</time>
      </trkpt>
      <trkpt lat="45.43405" lon="5.64774">
        <ele>767.4</ele>
        <time>2021-03-13T09:41:50Z</time>
      </trkpt>
      <trkpt lat="45.43405" lon="5.6479">
        <ele>768</ele>
        <time>2021-03-13T09:41:54Z</time>
      </trkpt>
      <trkpt lat="45.43404" lon="5.64805">
        <ele>769.2</ele>
        <time>2021-03-13T09:41:58Z</time>
      </trkpt>
      <trkpt lat="45.43403" lon="5.64821">
        <ele>769</ele>
        <time>2021-03-13T09:42:02Z</time>
      </trkpt>
      <trkpt lat="45.43402" lon="5.64838">
        <ele>769</ele>
        <time>2021-03-13T09:42:06Z</time>
      </trkpt>
      <trkpt lat="45.43401" lon="5.64855">
        <ele>769.8</ele>
        <time>2021-03-13T09:42:10Z</time>
      </trkpt>
      <trkpt lat="45.43401" lon="5.64872">
        <ele>769.8</ele>
        <time>2021-03-13T09:42:14Z</time>
      </trkpt>
      <trkpt lat="45.43399" lon="5.64888">
        <ele>770.6</ele>
        <time>2021-03-13T09:42:18Z</time>
      </trkpt>
      <trkpt lat="45.43398" lon="5.64902">
        <ele>770.8</ele>
        <time>2021-03-13T09:42:22Z</time>
      </trkpt>
      <trkpt lat="45.43411" lon="5.64905">
        <ele>770.6</ele>
        <time>2021-03-13T09:42:26Z</time>
      </trkpt>
      <trkpt lat="45.4343" lon="5.64889">
        <ele>768.2</ele>
        <time>2021-03-13T09:42:30Z</time>
      </trkpt>
      <trkpt lat="45.43453" lon="5.64873">
        <ele>764</ele>
        <time>2021-03-13T09:42:34Z</time>
      </trkpt>
      <trkpt lat="45.43479" lon="5.64861">
        <ele>761.6</ele>
        <time>2021-03-13T09:42:38Z</time>
      </trkpt>
      <trkpt lat="45.43505" lon="5.64859">
        <ele>759.6</ele>
        <time>2021-03-13T09:42:42Z</time>
      </trkpt>
      <trkpt lat="45.43531" lon="5.64865">
        <ele>757.2</ele>
        <time>2021-03-13T09:42:46Z</time>
      </trkpt>
      <trkpt lat="45.43559" lon="5.64891">
        <ele>754.8</ele>
        <time>2021-03-13T09:42:50Z</time>
      </trkpt>
      <trkpt lat="45.43587" lon="5.64914">
        <ele>754.8</ele>
        <time>2021-03-13T09:42:54Z</time>
      </trkpt>
      <trkpt lat="45.43599" lon="5.64934">
        <ele>757.4</ele>
        <time>2021-03-13T09:42:58Z</time>
      </trkpt>
      <trkpt lat="45.43605" lon="5.64945">
        <ele>758.6</ele>
        <time>2021-03-13T09:43:02Z</time>
      </trkpt>
      <trkpt lat="45.43608" lon="5.64947">
        <ele>759</ele>
        <time>2021-03-13T09:43:06Z</time>
      </trkpt>
      <trkpt lat="45.43614" lon="5.64951">
        <ele>759.6</ele>
        <time>2021-03-13T09:43:10Z</time>
      </trkpt>
      <trkpt lat="45.43623" lon="5.64958">
        <ele>760.2</ele>
        <time>2021-03-13T09:43:14Z</time>
      </trkpt>
      <trkpt lat="45.4363" lon="5.64966">
        <ele>760.8</ele>
        <time>2021-03-13T09:43:18Z</time>
      </trkpt>
      <trkpt lat="45.43637" lon="5.64975">
        <ele>760.8</ele>
        <time>2021-03-13T09:43:22Z</time>
      </trkpt>
      <trkpt lat="45.43643" lon="5.64985">
        <ele>761.4</ele>
        <time>2021-03-13T09:43:26Z</time>
      </trkpt>
      <trkpt lat="45.43643" lon="5.64985">
        <ele>762</ele>
        <time>2021-03-13T09:43:30Z</time>
      </trkpt>
      <trkpt lat="45.43635" lon="5.64976">
        <ele>761.8</ele>
        <time>2021-03-13T09:43:48Z</time>
      </trkpt>
      <trkpt lat="45.43626" lon="5.64964">
        <ele>761.2</ele>
        <time>2021-03-13T09:43:52Z</time>
      </trkpt>
      <trkpt lat="45.43615" lon="5.64954">
        <ele>760</ele>
        <time>2021-03-13T09:43:56Z</time>
      </trkpt>
      <trkpt lat="45.43607" lon="5.64946">
        <ele>759.2</ele>
        <time>2021-03-13T09:44:00Z</time>
      </trkpt>
      <trkpt lat="45.43609" lon="5.6494">
        <ele>757.8</ele>
        <time>2021-03-13T09:44:04Z</time>
      </trkpt>
      <trkpt lat="45.43602" lon="5.64945">
        <ele>757.8</ele>
        <time>2021-03-13T09:44:29Z</time>
      </trkpt>
      <trkpt lat="45.43607" lon="5.64954">
        <ele>759.2</ele>
        <time>2021-03-13T09:44:33Z</time>
      </trkpt>
      <trkpt lat="45.4361" lon="5.64963">
        <ele>760</ele>
        <time>2021-03-13T09:44:37Z</time>
      </trkpt>
      <trkpt lat="45.43615" lon="5.64971">
        <ele>760.8</ele>
        <time>2021-03-13T09:44:41Z</time>
      </trkpt>
      <trkpt lat="45.43619" lon="5.64979">
        <ele>762</ele>
        <time>2021-03-13T09:44:45Z</time>
      </trkpt>
      <trkpt lat="45.43621" lon="5.64988">
        <ele>763.4</ele>
        <time>2021-03-13T09:44:49Z</time>
      </trkpt>
      <trkpt lat="45.43622" lon="5.64997">
        <ele>764.6</ele>
        <time>2021-03-13T09:44:53Z</time>
      </trkpt>
      <trkpt lat="45.43619" lon="5.65006">
        <ele>765.2</ele>
        <time>2021-03-13T09:44:57Z</time>
      </trkpt>
      <trkpt lat="45.43614" lon="5.65011">
        <ele>765.8</ele>
        <time>2021-03-13T09:45:01Z</time>
      </trkpt>
      <trkpt lat="45.43611" lon="5.65018">
        <ele>765.8</ele>
        <time>2021-03-13T09:45:05Z</time>
      </trkpt>
      <trkpt lat="45.43606" lon="5.65029">
        <ele>765.8</ele>
        <time>2021-03-13T09:45:09Z</time>
      </trkpt>
      <trkpt lat="45.43603" lon="5.65042">
        <ele>765.4</ele>
        <time>2021-03-13T09:45:13Z</time>
      </trkpt>
      <trkpt lat="45.43602" lon="5.6506">
        <ele>765.4</ele>
        <time>2021-03-13T09:45:17Z</time>
      </trkpt>
      <trkpt lat="45.43599" lon="5.65079">
        <ele>765.4</ele>
        <time>2021-03-13T09:45:21Z</time>
      </trkpt>
      <trkpt lat="45.43595" lon="5.65095">
        <ele>765.8</ele>
        <time>2021-03-13T09:45:25Z</time>
      </trkpt>
      <trkpt lat="45.4359" lon="5.65113">
        <ele>766</ele>
        <time>2021-03-13T09:45:29Z</time>
      </trkpt>
      <trkpt lat="45.43585" lon="5.65127">
        <ele>767.4</ele>
        <time>2021-03-13T09:45:33Z</time>
      </trkpt>
      <trkpt lat="45.43576" lon="5.65135">
        <ele>768.6</ele>
        <time>2021-03-13T09:45:37Z</time>
      </trkpt>
      <trkpt lat="45.43568" lon="5.65141">
        <ele>768.8</ele>
        <time>2021-03-13T09:45:41Z</time>
      </trkpt>
      <trkpt lat="45.43559" lon="5.65148">
        <ele>769.4</ele>
        <time>2021-03-13T09:45:45Z</time>
      </trkpt>
      <trkpt lat="45.43549" lon="5.65157">
        <ele>769.4</ele>
        <time>2021-03-13T09:45:49Z</time>
      </trkpt>
      <trkpt lat="45.43538" lon="5.65164">
        <ele>769.4</ele>
        <time>2021-03-13T09:45:53Z</time>
      </trkpt>
      <trkpt lat="45.43528" lon="5.65169">
        <ele>769</ele>
        <time>2021-03-13T09:45:57Z</time>
      </trkpt>
      <trkpt lat="45.43519" lon="5.65172">
        <ele>769.6</ele>
        <time>2021-03-13T09:46:01Z</time>
      </trkpt>
      <trkpt lat="45.43509" lon="5.65171">
        <ele>770.6</ele>
        <time>2021-03-13T09:46:05Z</time>
      </trkpt>
      <trkpt lat="45.43499" lon="5.6517">
        <ele>770</ele>
        <time>2021-03-13T09:46:09Z</time>
      </trkpt>
      <trkpt lat="45.43488" lon="5.65166">
        <ele>771.4</ele>
        <time>2021-03-13T09:46:13Z</time>
      </trkpt>
      <trkpt lat="45.43479" lon="5.6516">
        <ele>771.8</ele>
        <time>2021-03-13T09:46:17Z</time>
      </trkpt>
      <trkpt lat="45.43471" lon="5.65156">
        <ele>772.6</ele>
        <time>2021-03-13T09:46:21Z</time>
      </trkpt>
      <trkpt lat="45.43464" lon="5.65154">
        <ele>773.4</ele>
        <time>2021-03-13T09:46:25Z</time>
      </trkpt>
      <trkpt lat="45.43459" lon="5.65152">
        <ele>774.4</ele>
        <time>2021-03-13T09:46:29Z</time>
      </trkpt>
      <trkpt lat="45.43455" lon="5.6515">
        <ele>775</ele>
        <time>2021-03-13T09:46:33Z</time>
      </trkpt>
      <trkpt lat="45.4345" lon="5.65148">
        <ele>773.6</ele>
        <time>2021-03-13T09:46:37Z</time>
      </trkpt>
      <trkpt lat="45.43447" lon="5.65138">
        <ele>773.6</ele>
        <time>2021-03-13T09:46:50Z</time>
      </trkpt>
      <trkpt lat="45.43444" lon="5.65127">
        <ele>774.2</ele>
        <time>2021-03-13T09:46:54Z</time>
      </trkpt>
      <trkpt lat="45.43444" lon="5.65115">
        <ele>774.6</ele>
        <time>2021-03-13T09:46:58Z</time>
      </trkpt>
      <trkpt lat="45.43442" lon="5.65106">
        <ele>775.4</ele>
        <time>2021-03-13T09:47:02Z</time>
      </trkpt>
      <trkpt lat="45.4344" lon="5.65103">
        <ele>775.6</ele>
        <time>2021-03-13T09:47:06Z</time>
      </trkpt>
      <trkpt lat="45.43441" lon="5.6511">
        <ele>775</ele>
        <time>2021-03-13T09:47:10Z</time>
      </trkpt>
      <trkpt lat="45.43444" lon="5.65126">
        <ele>774.6</ele>
        <time>2021-03-13T09:47:14Z</time>
      </trkpt>
      <trkpt lat="45.43448" lon="5.65144">
        <ele>773</ele>
        <time>2021-03-13T09:47:18Z</time>
      </trkpt>
      <trkpt lat="45.4344" lon="5.65151">
        <ele>772.6</ele>
        <time>2021-03-13T09:47:22Z</time>
      </trkpt>
      <trkpt lat="45.43424" lon="5.65148">
        <ele>771.6</ele>
        <time>2021-03-13T09:47:26Z</time>
      </trkpt>
      <trkpt lat="45.43407" lon="5.65139">
        <ele>770.8</ele>
        <time>2021-03-13T09:47:30Z</time>
      </trkpt>
      <trkpt lat="45.43388" lon="5.65131">
        <ele>770.4</ele>
        <time>2021-03-13T09:47:34Z</time>
      </trkpt>
      <trkpt lat="45.43368" lon="5.65127">
        <ele>770</ele>
        <time>2021-03-13T09:47:38Z</time>
      </trkpt>
      <trkpt lat="45.43351" lon="5.65127">
        <ele>770.8</ele>
        <time>2021-03-13T09:47:42Z</time>
      </trkpt>
      <trkpt lat="45.43338" lon="5.65131">
        <ele>770.8</ele>
        <time>2021-03-13T09:47:46Z</time>
      </trkpt>
      <trkpt lat="45.43327" lon="5.65139">
        <ele>770.6</ele>
        <time>2021-03-13T09:47:50Z</time>
      </trkpt>
      <trkpt lat="45.43316" lon="5.65145">
        <ele>770.4</ele>
        <time>2021-03-13T09:47:54Z</time>
      </trkpt>
      <trkpt lat="45.43308" lon="5.65146">
        <ele>769.8</ele>
        <time>2021-03-13T09:47:58Z</time>
      </trkpt>
      <trkpt lat="45.43297" lon="5.6515">
        <ele>770</ele>
        <time>2021-03-13T09:48:09Z</time>
      </trkpt>
      <trkpt lat="45.43287" lon="5.65155">
        <ele>770</ele>
        <time>2021-03-13T09:48:13Z</time>
      </trkpt>
      <trkpt lat="45.43273" lon="5.65159">
        <ele>769.6</ele>
        <time>2021-03-13T09:48:17Z</time>
      </trkpt>
      <trkpt lat="45.43259" lon="5.65163">
        <ele>769.4</ele>
        <time>2021-03-13T09:48:21Z</time>
      </trkpt>
      <trkpt lat="45.43244" lon="5.65168">
        <ele>769</ele>
        <time>2021-03-13T09:48:25Z</time>
      </trkpt>
      <trkpt lat="45.4323" lon="5.65172">
        <ele>769</ele>
        <time>2021-03-13T09:48:29Z</time>
      </trkpt>
      <trkpt lat="45.43215" lon="5.65175">
        <ele>768.2</ele>
        <time>2021-03-13T09:48:33Z</time>
      </trkpt>
      <trkpt lat="45.43199" lon="5.65172">
        <ele>767.6</ele>
        <time>2021-03-13T09:48:37Z</time>
      </trkpt>
      <trkpt lat="45.43185" lon="5.65165">
        <ele>767.8</ele>
        <time>2021-03-13T09:48:41Z</time>
      </trkpt>
      <trkpt lat="45.43171" lon="5.65157">
        <ele>768.2</ele>
        <time>2021-03-13T09:48:45Z</time>
      </trkpt>
      <trkpt lat="45.43155" lon="5.65151">
        <ele>767.2</ele>
        <time>2021-03-13T09:48:49Z</time>
      </trkpt>
      <trkpt lat="45.4314" lon="5.65147">
        <ele>767.6</ele>
        <time>2021-03-13T09:48:53Z</time>
      </trkpt>
      <trkpt lat="45.43124" lon="5.65142">
        <ele>767.8</ele>
        <time>2021-03-13T09:48:57Z</time>
      </trkpt>
      <trkpt lat="45.43108" lon="5.65138">
        <ele>767.2</ele>
        <time>2021-03-13T09:49:01Z</time>
      </trkpt>
      <trkpt lat="45.43092" lon="5.65137">
        <ele>767</ele>
        <time>2021-03-13T09:49:05Z</time>
      </trkpt>
      <trkpt lat="45.43075" lon="5.65136">
        <ele>767.4</ele>
        <time>2021-03-13T09:49:09Z</time>
      </trkpt>
      <trkpt lat="45.43059" lon="5.65136">
        <ele>767</ele>
        <time>2021-03-13T09:49:13Z</time>
      </trkpt>
      <trkpt lat="45.43043" lon="5.65136">
        <ele>767.2</ele>
        <time>2021-03-13T09:49:17Z</time>
      </trkpt>
      <trkpt lat="45.43026" lon="5.65138">
        <ele>767</ele>
        <time>2021-03-13T09:49:21Z</time>
      </trkpt>
      <trkpt lat="45.4301" lon="5.65142">
        <ele>766.6</ele>
        <time>2021-03-13T09:49:25Z</time>
      </trkpt>
      <trkpt lat="45.42993" lon="5.65151">
        <ele>765.8</ele>
        <time>2021-03-13T09:49:29Z</time>
      </trkpt>
      <trkpt lat="45.42976" lon="5.65162">
        <ele>766.2</ele>
        <time>2021-03-13T09:49:33Z</time>
      </trkpt>
      <trkpt lat="45.42959" lon="5.65173">
        <ele>766.2</ele>
        <time>2021-03-13T09:49:37Z</time>
      </trkpt>
      <trkpt lat="45.42946" lon="5.65193">
        <ele>766</ele>
        <time>2021-03-13T09:49:41Z</time>
      </trkpt>
      <trkpt lat="45.42946" lon="5.65218">
        <ele>766.2</ele>
        <time>2021-03-13T09:49:45Z</time>
      </trkpt>
      <trkpt lat="45.42956" lon="5.65235">
        <ele>766.8</ele>
        <time>2021-03-13T09:49:49Z</time>
      </trkpt>
      <trkpt lat="45.42966" lon="5.65247">
        <ele>767.6</ele>
        <time>2021-03-13T09:49:53Z</time>
      </trkpt>
      <trkpt lat="45.42976" lon="5.65257">
        <ele>767.4</ele>
        <time>2021-03-13T09:49:57Z</time>
      </trkpt>
      <trkpt lat="45.42986" lon="5.65268">
        <ele>768.2</ele>
        <time>2021-03-13T09:50:01Z</time>
      </trkpt>
      <trkpt lat="45.42995" lon="5.65279">
        <ele>768.8</ele>
        <time>2021-03-13T09:50:05Z</time>
      </trkpt>
      <trkpt lat="45.43003" lon="5.65289">
        <ele>769.6</ele>
        <time>2021-03-13T09:50:09Z</time>
      </trkpt>
      <trkpt lat="45.43012" lon="5.653">
        <ele>770</ele>
        <time>2021-03-13T09:50:13Z</time>
      </trkpt>
      <trkpt lat="45.4302" lon="5.65312">
        <ele>770</ele>
        <time>2021-03-13T09:50:17Z</time>
      </trkpt>
      <trkpt lat="45.43028" lon="5.65325">
        <ele>770.6</ele>
        <time>2021-03-13T09:50:21Z</time>
      </trkpt>
      <trkpt lat="45.43035" lon="5.6534">
        <ele>770.6</ele>
        <time>2021-03-13T09:50:25Z</time>
      </trkpt>
      <trkpt lat="45.43042" lon="5.65356">
        <ele>771.2</ele>
        <time>2021-03-13T09:50:29Z</time>
      </trkpt>
      <trkpt lat="45.43051" lon="5.65375">
        <ele>770.6</ele>
        <time>2021-03-13T09:50:33Z</time>
      </trkpt>
      <trkpt lat="45.43059" lon="5.65394">
        <ele>770.4</ele>
        <time>2021-03-13T09:50:37Z</time>
      </trkpt>
      <trkpt lat="45.4307" lon="5.65414">
        <ele>770</ele>
        <time>2021-03-13T09:50:41Z</time>
      </trkpt>
      <trkpt lat="45.43083" lon="5.65434">
        <ele>768.6</ele>
        <time>2021-03-13T09:50:45Z</time>
      </trkpt>
      <trkpt lat="45.43103" lon="5.65451">
        <ele>768</ele>
        <time>2021-03-13T09:50:49Z</time>
      </trkpt>
      <trkpt lat="45.43127" lon="5.65465">
        <ele>767</ele>
        <time>2021-03-13T09:50:53Z</time>
      </trkpt>
      <trkpt lat="45.43154" lon="5.65479">
        <ele>766</ele>
        <time>2021-03-13T09:50:57Z</time>
      </trkpt>
      <trkpt lat="45.43182" lon="5.65495">
        <ele>764.4</ele>
        <time>2021-03-13T09:51:01Z</time>
      </trkpt>
      <trkpt lat="45.43211" lon="5.65514">
        <ele>764.4</ele>
        <time>2021-03-13T09:51:05Z</time>
      </trkpt>
      <trkpt lat="45.4324" lon="5.65537">
        <ele>762.2</ele>
        <time>2021-03-13T09:51:09Z</time>
      </trkpt>
      <trkpt lat="45.43267" lon="5.6556">
        <ele>761.4</ele>
        <time>2021-03-13T09:51:13Z</time>
      </trkpt>
      <trkpt lat="45.43294" lon="5.65584">
        <ele>760.2</ele>
        <time>2021-03-13T09:51:17Z</time>
      </trkpt>
      <trkpt lat="45.43305" lon="5.65626">
        <ele>759.8</ele>
        <time>2021-03-13T09:51:21Z</time>
      </trkpt>
      <trkpt lat="45.43309" lon="5.65674">
        <ele>757.2</ele>
        <time>2021-03-13T09:51:25Z</time>
      </trkpt>
      <trkpt lat="45.43322" lon="5.65721">
        <ele>755.8</ele>
        <time>2021-03-13T09:51:29Z</time>
      </trkpt>
      <trkpt lat="45.43336" lon="5.6577">
        <ele>754.6</ele>
        <time>2021-03-13T09:51:33Z</time>
      </trkpt>
      <trkpt lat="45.43366" lon="5.65806">
        <ele>751</ele>
        <time>2021-03-13T09:51:37Z</time>
      </trkpt>
      <trkpt lat="45.43401" lon="5.65837">
        <ele>749</ele>
        <time>2021-03-13T09:51:41Z</time>
      </trkpt>
      <trkpt lat="45.43426" lon="5.65883">
        <ele>747.6</ele>
        <time>2021-03-13T09:51:45Z</time>
      </trkpt>
      <trkpt lat="45.4345" lon="5.65916">
        <ele>745.2</ele>
        <time>2021-03-13T09:51:49Z</time>
      </trkpt>
      <trkpt lat="45.43481" lon="5.65899">
        <ele>745.8</ele>
        <time>2021-03-13T09:51:53Z</time>
      </trkpt>
      <trkpt lat="45.43503" lon="5.65874">
        <ele>746</ele>
        <time>2021-03-13T09:51:57Z</time>
      </trkpt>
      <trkpt lat="45.43515" lon="5.65851">
        <ele>746</ele>
        <time>2021-03-13T09:52:01Z</time>
      </trkpt>
      <trkpt lat="45.43523" lon="5.65828">
        <ele>746.6</ele>
        <time>2021-03-13T09:52:05Z</time>
      </trkpt>
      <trkpt lat="45.43531" lon="5.65812">
        <ele>747</ele>
        <time>2021-03-13T09:52:09Z</time>
      </trkpt>
      <trkpt lat="45.43542" lon="5.65796">
        <ele>747.8</ele>
        <time>2021-03-13T09:52:13Z</time>
      </trkpt>
      <trkpt lat="45.43556" lon="5.65786">
        <ele>747.4</ele>
        <time>2021-03-13T09:52:17Z</time>
      </trkpt>
      <trkpt lat="45.43573" lon="5.65787">
        <ele>747.8</ele>
        <time>2021-03-13T09:52:21Z</time>
      </trkpt>
      <trkpt lat="45.43589" lon="5.65794">
        <ele>747.6</ele>
        <time>2021-03-13T09:52:25Z</time>
      </trkpt>
      <trkpt lat="45.43605" lon="5.65802">
        <ele>747.2</ele>
        <time>2021-03-13T09:52:29Z</time>
      </trkpt>
      <trkpt lat="45.43623" lon="5.65809">
        <ele>747.4</ele>
        <time>2021-03-13T09:52:33Z</time>
      </trkpt>
      <trkpt lat="45.43644" lon="5.65818">
        <ele>746.8</ele>
        <time>2021-03-13T09:52:37Z</time>
      </trkpt>
      <trkpt lat="45.43664" lon="5.65827">
        <ele>746.8</ele>
        <time>2021-03-13T09:52:41Z</time>
      </trkpt>
      <trkpt lat="45.43684" lon="5.65836">
        <ele>746.2</ele>
        <time>2021-03-13T09:52:45Z</time>
      </trkpt>
      <trkpt lat="45.43704" lon="5.65846">
        <ele>745.6</ele>
        <time>2021-03-13T09:52:49Z</time>
      </trkpt>
      <trkpt lat="45.43723" lon="5.65859">
        <ele>746</ele>
        <time>2021-03-13T09:52:53Z</time>
      </trkpt>
      <trkpt lat="45.4374" lon="5.65873">
        <ele>746</ele>
        <time>2021-03-13T09:52:57Z</time>
      </trkpt>
      <trkpt lat="45.43756" lon="5.65887">
        <ele>745.6</ele>
        <time>2021-03-13T09:53:01Z</time>
      </trkpt>
      <trkpt lat="45.4377" lon="5.65907">
        <ele>745.4</ele>
        <time>2021-03-13T09:53:05Z</time>
      </trkpt>
      <trkpt lat="45.43784" lon="5.65926">
        <ele>745.2</ele>
        <time>2021-03-13T09:53:09Z</time>
      </trkpt>
      <trkpt lat="45.43797" lon="5.65947">
        <ele>745</ele>
        <time>2021-03-13T09:53:13Z</time>
      </trkpt>
      <trkpt lat="45.43809" lon="5.65965">
        <ele>744.8</ele>
        <time>2021-03-13T09:53:17Z</time>
      </trkpt>
      <trkpt lat="45.43829" lon="5.65976">
        <ele>744.6</ele>
        <time>2021-03-13T09:53:21Z</time>
      </trkpt>
      <trkpt lat="45.43853" lon="5.65983">
        <ele>744.2</ele>
        <time>2021-03-13T09:53:25Z</time>
      </trkpt>
      <trkpt lat="45.43882" lon="5.65991">
        <ele>742.8</ele>
        <time>2021-03-13T09:53:29Z</time>
      </trkpt>
      <trkpt lat="45.43915" lon="5.66">
        <ele>740.8</ele>
        <time>2021-03-13T09:53:33Z</time>
      </trkpt>
      <trkpt lat="45.43951" lon="5.66008">
        <ele>738.2</ele>
        <time>2021-03-13T09:53:37Z</time>
      </trkpt>
      <trkpt lat="45.4399" lon="5.66014">
        <ele>736.2</ele>
        <time>2021-03-13T09:53:41Z</time>
      </trkpt>
      <trkpt lat="45.44033" lon="5.66022">
        <ele>734</ele>
        <time>2021-03-13T09:53:45Z</time>
      </trkpt>
      <trkpt lat="45.44076" lon="5.6603">
        <ele>730.4</ele>
        <time>2021-03-13T09:53:49Z</time>
      </trkpt>
      <trkpt lat="45.44111" lon="5.66052">
        <ele>726.6</ele>
        <time>2021-03-13T09:53:53Z</time>
      </trkpt>
      <trkpt lat="45.4414" lon="5.66084">
        <ele>725.2</ele>
        <time>2021-03-13T09:53:57Z</time>
      </trkpt>
      <trkpt lat="45.44174" lon="5.66103">
        <ele>724.2</ele>
        <time>2021-03-13T09:54:01Z</time>
      </trkpt>
      <trkpt lat="45.44209" lon="5.6612">
        <ele>722.6</ele>
        <time>2021-03-13T09:54:05Z</time>
      </trkpt>
      <trkpt lat="45.44239" lon="5.66128">
        <ele>723.4</ele>
        <time>2021-03-13T09:54:09Z</time>
      </trkpt>
      <trkpt lat="45.44262" lon="5.66143">
        <ele>722.6</ele>
        <time>2021-03-13T09:54:13Z</time>
      </trkpt>
      <trkpt lat="45.44283" lon="5.6616">
        <ele>723.4</ele>
        <time>2021-03-13T09:54:17Z</time>
      </trkpt>
      <trkpt lat="45.44301" lon="5.66178">
        <ele>722.6</ele>
        <time>2021-03-13T09:54:21Z</time>
      </trkpt>
      <trkpt lat="45.44318" lon="5.66197">
        <ele>722.6</ele>
        <time>2021-03-13T09:54:25Z</time>
      </trkpt>
      <trkpt lat="45.44335" lon="5.66219">
        <ele>721.8</ele>
        <time>2021-03-13T09:54:29Z</time>
      </trkpt>
      <trkpt lat="45.44355" lon="5.66243">
        <ele>721.6</ele>
        <time>2021-03-13T09:54:33Z</time>
      </trkpt>
      <trkpt lat="45.44377" lon="5.6627">
        <ele>719.6</ele>
        <time>2021-03-13T09:54:37Z</time>
      </trkpt>
      <trkpt lat="45.44404" lon="5.66295">
        <ele>719</ele>
        <time>2021-03-13T09:54:41Z</time>
      </trkpt>
      <trkpt lat="45.44431" lon="5.66319">
        <ele>717.6</ele>
        <time>2021-03-13T09:54:45Z</time>
      </trkpt>
      <trkpt lat="45.44456" lon="5.66335">
        <ele>717.2</ele>
        <time>2021-03-13T09:54:49Z</time>
      </trkpt>
      <trkpt lat="45.44476" lon="5.66349">
        <ele>717.4</ele>
        <time>2021-03-13T09:54:53Z</time>
      </trkpt>
      <trkpt lat="45.44487" lon="5.66369">
        <ele>719</ele>
        <time>2021-03-13T09:54:57Z</time>
      </trkpt>
      <trkpt lat="45.44493" lon="5.66383">
        <ele>720.8</ele>
        <time>2021-03-13T09:55:01Z</time>
      </trkpt>
      <trkpt lat="45.44497" lon="5.66389">
        <ele>720.4</ele>
        <time>2021-03-13T09:55:05Z</time>
      </trkpt>
      <trkpt lat="45.44498" lon="5.66392">
        <ele>720.6</ele>
        <time>2021-03-13T09:55:09Z</time>
      </trkpt>
      <trkpt lat="45.44495" lon="5.66387">
        <ele>720.6</ele>
        <time>2021-03-13T09:55:13Z</time>
      </trkpt>
      <trkpt lat="45.4449" lon="5.66373">
        <ele>720.2</ele>
        <time>2021-03-13T09:55:17Z</time>
      </trkpt>
      <trkpt lat="45.44484" lon="5.66353">
        <ele>719</ele>
        <time>2021-03-13T09:55:21Z</time>
      </trkpt>
      <trkpt lat="45.44491" lon="5.66347">
        <ele>717</ele>
        <time>2021-03-13T09:55:25Z</time>
      </trkpt>
      <trkpt lat="45.44508" lon="5.66359">
        <ele>717</ele>
        <time>2021-03-13T09:55:29Z</time>
      </trkpt>
      <trkpt lat="45.4453" lon="5.66376">
        <ele>714.8</ele>
        <time>2021-03-13T09:55:33Z</time>
      </trkpt>
      <trkpt lat="45.44558" lon="5.66397">
        <ele>712.4</ele>
        <time>2021-03-13T09:55:37Z</time>
      </trkpt>
      <trkpt lat="45.44587" lon="5.66427">
        <ele>711</ele>
        <time>2021-03-13T09:55:41Z</time>
      </trkpt>
      <trkpt lat="45.44614" lon="5.66461">
        <ele>708.4</ele>
        <time>2021-03-13T09:55:45Z</time>
      </trkpt>
      <trkpt lat="45.44639" lon="5.66494">
        <ele>708.8</ele>
        <time>2021-03-13T09:55:49Z</time>
      </trkpt>
      <trkpt lat="45.4466" lon="5.66525">
        <ele>707.8</ele>
        <time>2021-03-13T09:55:53Z</time>
      </trkpt>
      <trkpt lat="45.4468" lon="5.66552">
        <ele>707.8</ele>
        <time>2021-03-13T09:55:57Z</time>
      </trkpt>
      <trkpt lat="45.44698" lon="5.66578">
        <ele>707.2</ele>
        <time>2021-03-13T09:56:01Z</time>
      </trkpt>
      <trkpt lat="45.44716" lon="5.66604">
        <ele>707.2</ele>
        <time>2021-03-13T09:56:05Z</time>
      </trkpt>
      <trkpt lat="45.44733" lon="5.66629">
        <ele>707</ele>
        <time>2021-03-13T09:56:09Z</time>
      </trkpt>
      <trkpt lat="45.44748" lon="5.66656">
        <ele>707</ele>
        <time>2021-03-13T09:56:13Z</time>
      </trkpt>
      <trkpt lat="45.44762" lon="5.66682">
        <ele>706.6</ele>
        <time>2021-03-13T09:56:17Z</time>
      </trkpt>
      <trkpt lat="45.44774" lon="5.66708">
        <ele>706.4</ele>
        <time>2021-03-13T09:56:21Z</time>
      </trkpt>
      <trkpt lat="45.44769" lon="5.66736">
        <ele>706.8</ele>
        <time>2021-03-13T09:56:25Z</time>
      </trkpt>
      <trkpt lat="45.44751" lon="5.66742">
        <ele>706.6</ele>
        <time>2021-03-13T09:56:29Z</time>
      </trkpt>
      <trkpt lat="45.44733" lon="5.66734">
        <ele>706.6</ele>
        <time>2021-03-13T09:56:33Z</time>
      </trkpt>
      <trkpt lat="45.44718" lon="5.66722">
        <ele>706.4</ele>
        <time>2021-03-13T09:56:37Z</time>
      </trkpt>
      <trkpt lat="45.44702" lon="5.66712">
        <ele>707</ele>
        <time>2021-03-13T09:56:41Z</time>
      </trkpt>
      <trkpt lat="45.44686" lon="5.66704">
        <ele>706.4</ele>
        <time>2021-03-13T09:56:45Z</time>
      </trkpt>
      <trkpt lat="45.44669" lon="5.667">
        <ele>706.2</ele>
        <time>2021-03-13T09:56:49Z</time>
      </trkpt>
      <trkpt lat="45.4465" lon="5.66698">
        <ele>705.8</ele>
        <time>2021-03-13T09:56:53Z</time>
      </trkpt>
      <trkpt lat="45.4463" lon="5.66703">
        <ele>705</ele>
        <time>2021-03-13T09:56:57Z</time>
      </trkpt>
      <trkpt lat="45.4461" lon="5.66715">
        <ele>703.6</ele>
        <time>2021-03-13T09:57:01Z</time>
      </trkpt>
      <trkpt lat="45.44584" lon="5.66735">
        <ele>702.4</ele>
        <time>2021-03-13T09:57:05Z</time>
      </trkpt>
      <trkpt lat="45.44557" lon="5.66756">
        <ele>700</ele>
        <time>2021-03-13T09:57:09Z</time>
      </trkpt>
      <trkpt lat="45.44532" lon="5.6678">
        <ele>698.8</ele>
        <time>2021-03-13T09:57:13Z</time>
      </trkpt>
      <trkpt lat="45.44508" lon="5.66807">
        <ele>697.8</ele>
        <time>2021-03-13T09:57:17Z</time>
      </trkpt>
      <trkpt lat="45.44493" lon="5.66844">
        <ele>695.4</ele>
        <time>2021-03-13T09:57:21Z</time>
      </trkpt>
      <trkpt lat="45.44507" lon="5.66875">
        <ele>694.6</ele>
        <time>2021-03-13T09:57:25Z</time>
      </trkpt>
      <trkpt lat="45.44531" lon="5.66882">
        <ele>694.6</ele>
        <time>2021-03-13T09:57:29Z</time>
      </trkpt>
      <trkpt lat="45.44553" lon="5.66884">
        <ele>694.8</ele>
        <time>2021-03-13T09:57:33Z</time>
      </trkpt>
      <trkpt lat="45.44571" lon="5.6688">
        <ele>694.8</ele>
        <time>2021-03-13T09:57:37Z</time>
      </trkpt>
      <trkpt lat="45.44588" lon="5.66878">
        <ele>695.6</ele>
        <time>2021-03-13T09:57:41Z</time>
      </trkpt>
      <trkpt lat="45.44601" lon="5.66883">
        <ele>696.4</ele>
        <time>2021-03-13T09:57:45Z</time>
      </trkpt>
      <trkpt lat="45.44609" lon="5.66896">
        <ele>697.4</ele>
        <time>2021-03-13T09:57:49Z</time>
      </trkpt>
      <trkpt lat="45.44609" lon="5.66911">
        <ele>698.4</ele>
        <time>2021-03-13T09:57:53Z</time>
      </trkpt>
      <trkpt lat="45.44608" lon="5.66926">
        <ele>699.2</ele>
        <time>2021-03-13T09:57:57Z</time>
      </trkpt>
      <trkpt lat="45.44605" lon="5.66939">
        <ele>699.6</ele>
        <time>2021-03-13T09:58:01Z</time>
      </trkpt>
      <trkpt lat="45.44602" lon="5.66953">
        <ele>700.4</ele>
        <time>2021-03-13T09:58:05Z</time>
      </trkpt>
      <trkpt lat="45.44599" lon="5.66966">
        <ele>701</ele>
        <time>2021-03-13T09:58:09Z</time>
      </trkpt>
      <trkpt lat="45.44595" lon="5.66983">
        <ele>701.8</ele>
        <time>2021-03-13T09:58:13Z</time>
      </trkpt>
      <trkpt lat="45.44592" lon="5.67">
        <ele>702</ele>
        <time>2021-03-13T09:58:17Z</time>
      </trkpt>
      <trkpt lat="45.44591" lon="5.67018">
        <ele>701.8</ele>
        <time>2021-03-13T09:58:21Z</time>
      </trkpt>
      <trkpt lat="45.44592" lon="5.67035">
        <ele>702.6</ele>
        <time>2021-03-13T09:58:25Z</time>
      </trkpt>
      <trkpt lat="45.44594" lon="5.67053">
        <ele>703</ele>
        <time>2021-03-13T09:58:29Z</time>
      </trkpt>
      <trkpt lat="45.44597" lon="5.67073">
        <ele>703.2</ele>
        <time>2021-03-13T09:58:33Z</time>
      </trkpt>
      <trkpt lat="45.44603" lon="5.67094">
        <ele>702.4</ele>
        <time>2021-03-13T09:58:37Z</time>
      </trkpt>
      <trkpt lat="45.44615" lon="5.67114">
        <ele>702</ele>
        <time>2021-03-13T09:58:41Z</time>
      </trkpt>
      <trkpt lat="45.44628" lon="5.6713">
        <ele>702</ele>
        <time>2021-03-13T09:58:45Z</time>
      </trkpt>
      <trkpt lat="45.44641" lon="5.67146">
        <ele>701.2</ele>
        <time>2021-03-13T09:58:49Z</time>
      </trkpt>
      <trkpt lat="45.44659" lon="5.67165">
        <ele>700.8</ele>
        <time>2021-03-13T09:58:53Z</time>
      </trkpt>
      <trkpt lat="45.44681" lon="5.67189">
        <ele>698.8</ele>
        <time>2021-03-13T09:58:57Z</time>
      </trkpt>
      <trkpt lat="45.44707" lon="5.67219">
        <ele>697</ele>
        <time>2021-03-13T09:59:01Z</time>
      </trkpt>
      <trkpt lat="45.44736" lon="5.67252">
        <ele>695.2</ele>
        <time>2021-03-13T09:59:05Z</time>
      </trkpt>
      <trkpt lat="45.44767" lon="5.67284">
        <ele>692.2</ele>
        <time>2021-03-13T09:59:09Z</time>
      </trkpt>
      <trkpt lat="45.44804" lon="5.67304">
        <ele>690.2</ele>
        <time>2021-03-13T09:59:13Z</time>
      </trkpt>
      <trkpt lat="45.44838" lon="5.67327">
        <ele>689.4</ele>
        <time>2021-03-13T09:59:17Z</time>
      </trkpt>
      <trkpt lat="45.44862" lon="5.67362">
        <ele>687.8</ele>
        <time>2021-03-13T09:59:21Z</time>
      </trkpt>
      <trkpt lat="45.44887" lon="5.67398">
        <ele>685.8</ele>
        <time>2021-03-13T09:59:25Z</time>
      </trkpt>
      <trkpt lat="45.44905" lon="5.67435">
        <ele>686.6</ele>
        <time>2021-03-13T09:59:29Z</time>
      </trkpt>
      <trkpt lat="45.44918" lon="5.67468">
        <ele>685</ele>
        <time>2021-03-13T09:59:33Z</time>
      </trkpt>
      <trkpt lat="45.44929" lon="5.67498">
        <ele>684.6</ele>
        <time>2021-03-13T09:59:37Z</time>
      </trkpt>
      <trkpt lat="45.44942" lon="5.67526">
        <ele>684.6</ele>
        <time>2021-03-13T09:59:41Z</time>
      </trkpt>
      <trkpt lat="45.44956" lon="5.67553">
        <ele>684.8</ele>
        <time>2021-03-13T09:59:45Z</time>
      </trkpt>
      <trkpt lat="45.44974" lon="5.6758">
        <ele>683.6</ele>
        <time>2021-03-13T09:59:49Z</time>
      </trkpt>
      <trkpt lat="45.44993" lon="5.67606">
        <ele>682</ele>
        <time>2021-03-13T09:59:53Z</time>
      </trkpt>
      <trkpt lat="45.45014" lon="5.67634">
        <ele>681.6</ele>
        <time>2021-03-13T09:59:57Z</time>
      </trkpt>
      <trkpt lat="45.45035" lon="5.67665">
        <ele>679</ele>
        <time>2021-03-13T10:00:01Z</time>
      </trkpt>
      <trkpt lat="45.4506" lon="5.677">
        <ele>677.2</ele>
        <time>2021-03-13T10:00:05Z</time>
      </trkpt>
      <trkpt lat="45.4509" lon="5.67738">
        <ele>674</ele>
        <time>2021-03-13T10:00:09Z</time>
      </trkpt>
      <trkpt lat="45.45126" lon="5.67767">
        <ele>671.6</ele>
        <time>2021-03-13T10:00:13Z</time>
      </trkpt>
      <trkpt lat="45.45164" lon="5.67782">
        <ele>669.8</ele>
        <time>2021-03-13T10:00:17Z</time>
      </trkpt>
      <trkpt lat="45.45199" lon="5.67791">
        <ele>669.4</ele>
        <time>2021-03-13T10:00:21Z</time>
      </trkpt>
      <trkpt lat="45.45229" lon="5.67799">
        <ele>667.8</ele>
        <time>2021-03-13T10:00:25Z</time>
      </trkpt>
      <trkpt lat="45.45241" lon="5.67831">
        <ele>667.4</ele>
        <time>2021-03-13T10:00:29Z</time>
      </trkpt>
      <trkpt lat="45.45253" lon="5.67862">
        <ele>666.6</ele>
        <time>2021-03-13T10:00:33Z</time>
      </trkpt>
      <trkpt lat="45.45271" lon="5.67885">
        <ele>666.8</ele>
        <time>2021-03-13T10:00:37Z</time>
      </trkpt>
      <trkpt lat="45.45294" lon="5.67902">
        <ele>665.6</ele>
        <time>2021-03-13T10:00:41Z</time>
      </trkpt>
      <trkpt lat="45.45318" lon="5.6792">
        <ele>665.4</ele>
        <time>2021-03-13T10:00:45Z</time>
      </trkpt>
      <trkpt lat="45.45338" lon="5.6794">
        <ele>665.2</ele>
        <time>2021-03-13T10:00:49Z</time>
      </trkpt>
      <trkpt lat="45.45355" lon="5.67963">
        <ele>665.4</ele>
        <time>2021-03-13T10:00:53Z</time>
      </trkpt>
      <trkpt lat="45.45371" lon="5.67988">
        <ele>664</ele>
        <time>2021-03-13T10:00:57Z</time>
      </trkpt>
      <trkpt lat="45.45386" lon="5.68012">
        <ele>663.4</ele>
        <time>2021-03-13T10:01:01Z</time>
      </trkpt>
      <trkpt lat="45.45402" lon="5.68038">
        <ele>662.4</ele>
        <time>2021-03-13T10:01:05Z</time>
      </trkpt>
      <trkpt lat="45.45424" lon="5.68071">
        <ele>660.4</ele>
        <time>2021-03-13T10:01:09Z</time>
      </trkpt>
      <trkpt lat="45.45451" lon="5.68111">
        <ele>657.4</ele>
        <time>2021-03-13T10:01:13Z</time>
      </trkpt>
      <trkpt lat="45.45489" lon="5.68145">
        <ele>654.2</ele>
        <time>2021-03-13T10:01:17Z</time>
      </trkpt>
      <trkpt lat="45.45534" lon="5.6817">
        <ele>649.6</ele>
        <time>2021-03-13T10:01:21Z</time>
      </trkpt>
      <trkpt lat="45.45585" lon="5.68179">
        <ele>645</ele>
        <time>2021-03-13T10:01:25Z</time>
      </trkpt>
      <trkpt lat="45.45637" lon="5.68182">
        <ele>640.6</ele>
        <time>2021-03-13T10:01:29Z</time>
      </trkpt>
      <trkpt lat="45.4569" lon="5.68183">
        <ele>635.6</ele>
        <time>2021-03-13T10:01:33Z</time>
      </trkpt>
      <trkpt lat="45.45738" lon="5.68184">
        <ele>631.2</ele>
        <time>2021-03-13T10:01:37Z</time>
      </trkpt>
      <trkpt lat="45.45782" lon="5.68185">
        <ele>626.6</ele>
        <time>2021-03-13T10:01:41Z</time>
      </trkpt>
      <trkpt lat="45.45827" lon="5.68187">
        <ele>622.2</ele>
        <time>2021-03-13T10:01:45Z</time>
      </trkpt>
      <trkpt lat="45.45867" lon="5.68194">
        <ele>616.6</ele>
        <time>2021-03-13T10:01:49Z</time>
      </trkpt>
      <trkpt lat="45.4591" lon="5.682">
        <ele>612.8</ele>
        <time>2021-03-13T10:01:53Z</time>
      </trkpt>
      <trkpt lat="45.45945" lon="5.68207">
        <ele>607.8</ele>
        <time>2021-03-13T10:01:57Z</time>
      </trkpt>
      <trkpt lat="45.45975" lon="5.68218">
        <ele>604</ele>
        <time>2021-03-13T10:02:01Z</time>
      </trkpt>
      <trkpt lat="45.46008" lon="5.68225">
        <ele>600.4</ele>
        <time>2021-03-13T10:02:05Z</time>
      </trkpt>
      <trkpt lat="45.46036" lon="5.68204">
        <ele>596.6</ele>
        <time>2021-03-13T10:02:09Z</time>
      </trkpt>
      <trkpt lat="45.46053" lon="5.6817">
        <ele>593</ele>
        <time>2021-03-13T10:02:13Z</time>
      </trkpt>
      <trkpt lat="45.46062" lon="5.68156">
        <ele>590.2</ele>
        <time>2021-03-13T10:02:17Z</time>
      </trkpt>
      <trkpt lat="45.46056" lon="5.68145">
        <ele>589.2</ele>
        <time>2021-03-13T10:02:21Z</time>
      </trkpt>
      <trkpt lat="45.46048" lon="5.68139">
        <ele>589</ele>
        <time>2021-03-13T10:02:25Z</time>
      </trkpt>
      <trkpt lat="45.46044" lon="5.68131">
        <ele>589.4</ele>
        <time>2021-03-13T10:02:29Z</time>
      </trkpt>
      <trkpt lat="45.46042" lon="5.68124">
        <ele>588.8</ele>
        <time>2021-03-13T10:02:33Z</time>
      </trkpt>
      <trkpt lat="45.46038" lon="5.6812">
        <ele>589.4</ele>
        <time>2021-03-13T10:02:37Z</time>
      </trkpt>
      <trkpt lat="45.46043" lon="5.68125">
        <ele>588.4</ele>
        <time>2021-03-13T10:02:41Z</time>
      </trkpt>
      <trkpt lat="45.46046" lon="5.68133">
        <ele>588.4</ele>
        <time>2021-03-13T10:02:45Z</time>
      </trkpt>
      <trkpt lat="45.46051" lon="5.68143">
        <ele>588.4</ele>
        <time>2021-03-13T10:02:49Z</time>
      </trkpt>
      <trkpt lat="45.46058" lon="5.68148">
        <ele>588.8</ele>
        <time>2021-03-13T10:02:53Z</time>
      </trkpt>
      <trkpt lat="45.46068" lon="5.6814">
        <ele>588.4</ele>
        <time>2021-03-13T10:02:57Z</time>
      </trkpt>
      <trkpt lat="45.4608" lon="5.68113">
        <ele>586.8</ele>
        <time>2021-03-13T10:03:01Z</time>
      </trkpt>
      <trkpt lat="45.46087" lon="5.68071">
        <ele>584.6</ele>
        <time>2021-03-13T10:03:05Z</time>
      </trkpt>
      <trkpt lat="45.46078" lon="5.68022">
        <ele>582.4</ele>
        <time>2021-03-13T10:03:09Z</time>
      </trkpt>
      <trkpt lat="45.46083" lon="5.67972">
        <ele>577</ele>
        <time>2021-03-13T10:03:13Z</time>
      </trkpt>
      <trkpt lat="45.46115" lon="5.67938">
        <ele>572.2</ele>
        <time>2021-03-13T10:03:17Z</time>
      </trkpt>
      <trkpt lat="45.46157" lon="5.67915">
        <ele>567.4</ele>
        <time>2021-03-13T10:03:21Z</time>
      </trkpt>
      <trkpt lat="45.46201" lon="5.67892">
        <ele>563.6</ele>
        <time>2021-03-13T10:03:25Z</time>
      </trkpt>
      <trkpt lat="45.46247" lon="5.67883">
        <ele>558.4</ele>
        <time>2021-03-13T10:03:29Z</time>
      </trkpt>
      <trkpt lat="45.46297" lon="5.67894">
        <ele>553.8</ele>
        <time>2021-03-13T10:03:33Z</time>
      </trkpt>
      <trkpt lat="45.46345" lon="5.67908">
        <ele>547.2</ele>
        <time>2021-03-13T10:03:37Z</time>
      </trkpt>
      <trkpt lat="45.46382" lon="5.67935">
        <ele>541.4</ele>
        <time>2021-03-13T10:03:41Z</time>
      </trkpt>
      <trkpt lat="45.46411" lon="5.6798">
        <ele>537.4</ele>
        <time>2021-03-13T10:03:45Z</time>
      </trkpt>
      <trkpt lat="45.46435" lon="5.68029">
        <ele>532.6</ele>
        <time>2021-03-13T10:03:49Z</time>
      </trkpt>
      <trkpt lat="45.46451" lon="5.68079">
        <ele>528.6</ele>
        <time>2021-03-13T10:03:53Z</time>
      </trkpt>
      <trkpt lat="45.4649" lon="5.68093">
        <ele>524</ele>
        <time>2021-03-13T10:03:57Z</time>
      </trkpt>
      <trkpt lat="45.46533" lon="5.681">
        <ele>520.8</ele>
        <time>2021-03-13T10:04:01Z</time>
      </trkpt>
      <trkpt lat="45.46577" lon="5.68105">
        <ele>516.2</ele>
        <time>2021-03-13T10:04:05Z</time>
      </trkpt>
      <trkpt lat="45.4662" lon="5.68098">
        <ele>510.8</ele>
        <time>2021-03-13T10:04:09Z</time>
      </trkpt>
      <trkpt lat="45.46661" lon="5.68083">
        <ele>505.2</ele>
        <time>2021-03-13T10:04:13Z</time>
      </trkpt>
      <trkpt lat="45.46697" lon="5.68074">
        <ele>500.4</ele>
        <time>2021-03-13T10:04:17Z</time>
      </trkpt>
      <trkpt lat="45.46733" lon="5.6809">
        <ele>497.8</ele>
        <time>2021-03-13T10:04:21Z</time>
      </trkpt>
      <trkpt lat="45.46768" lon="5.68108">
        <ele>493.2</ele>
        <time>2021-03-13T10:04:25Z</time>
      </trkpt>
      <trkpt lat="45.46806" lon="5.68126">
        <ele>489.4</ele>
        <time>2021-03-13T10:04:29Z</time>
      </trkpt>
      <trkpt lat="45.46846" lon="5.68148">
        <ele>486.4</ele>
        <time>2021-03-13T10:04:33Z</time>
      </trkpt>
      <trkpt lat="45.46888" lon="5.68178">
        <ele>481.4</ele>
        <time>2021-03-13T10:04:37Z</time>
      </trkpt>
      <trkpt lat="45.46924" lon="5.68218">
        <ele>477.8</ele>
        <time>2021-03-13T10:04:41Z</time>
      </trkpt>
      <trkpt lat="45.46936" lon="5.68274">
        <ele>474.2</ele>
        <time>2021-03-13T10:04:45Z</time>
      </trkpt>
      <trkpt lat="45.46938" lon="5.68333">
        <ele>470.6</ele>
        <time>2021-03-13T10:04:49Z</time>
      </trkpt>
      <trkpt lat="45.4696" lon="5.68376">
        <ele>467</ele>
        <time>2021-03-13T10:04:53Z</time>
      </trkpt>
      <trkpt lat="45.46996" lon="5.68408">
        <ele>464.2</ele>
        <time>2021-03-13T10:04:57Z</time>
      </trkpt>
      <trkpt lat="45.4703" lon="5.68451">
        <ele>461</ele>
        <time>2021-03-13T10:05:01Z</time>
      </trkpt>
      <trkpt lat="45.47058" lon="5.68502">
        <ele>458.2</ele>
        <time>2021-03-13T10:05:05Z</time>
      </trkpt>
      <trkpt lat="45.47073" lon="5.6855">
        <ele>454.8</ele>
        <time>2021-03-13T10:05:09Z</time>
      </trkpt>
      <trkpt lat="45.47054" lon="5.68589">
        <ele>451.6</ele>
        <time>2021-03-13T10:05:13Z</time>
      </trkpt>
      <trkpt lat="45.47045" lon="5.68632">
        <ele>449.4</ele>
        <time>2021-03-13T10:05:17Z</time>
      </trkpt>
      <trkpt lat="45.47067" lon="5.68658">
        <ele>446</ele>
        <time>2021-03-13T10:05:21Z</time>
      </trkpt>
      <trkpt lat="45.47067" lon="5.68658">
        <ele>443.6</ele>
        <time>2021-03-13T10:05:25Z</time>
      </trkpt>
      <trkpt lat="45.47084" lon="5.68668">
        <ele>443.6</ele>
        <time>2021-03-13T10:05:33Z</time>
      </trkpt>
      <trkpt lat="45.47098" lon="5.6868">
        <ele>442.8</ele>
        <time>2021-03-13T10:05:37Z</time>
      </trkpt>
      <trkpt lat="45.47122" lon="5.68697">
        <ele>441.2</ele>
        <time>2021-03-13T10:05:41Z</time>
      </trkpt>
      <trkpt lat="45.47138" lon="5.68731">
        <ele>439.2</ele>
        <time>2021-03-13T10:05:45Z</time>
      </trkpt>
      <trkpt lat="45.47147" lon="5.68777">
        <ele>437.6</ele>
        <time>2021-03-13T10:05:49Z</time>
      </trkpt>
      <trkpt lat="45.4717" lon="5.68811">
        <ele>434.6</ele>
        <time>2021-03-13T10:05:53Z</time>
      </trkpt>
      <trkpt lat="45.47203" lon="5.68793">
        <ele>432.2</ele>
        <time>2021-03-13T10:05:57Z</time>
      </trkpt>
      <trkpt lat="45.47213" lon="5.68743">
        <ele>429.8</ele>
        <time>2021-03-13T10:06:01Z</time>
      </trkpt>
      <trkpt lat="45.47225" lon="5.68703">
        <ele>424.8</ele>
        <time>2021-03-13T10:06:05Z</time>
      </trkpt>
      <trkpt lat="45.47251" lon="5.68715">
        <ele>422.6</ele>
        <time>2021-03-13T10:06:09Z</time>
      </trkpt>
      <trkpt lat="45.47266" lon="5.68747">
        <ele>418.6</ele>
        <time>2021-03-13T10:06:13Z</time>
      </trkpt>
      <trkpt lat="45.47289" lon="5.68768">
        <ele>418</ele>
        <time>2021-03-13T10:06:17Z</time>
      </trkpt>
      <trkpt lat="45.4729" lon="5.68804">
        <ele>416.6</ele>
        <time>2021-03-13T10:06:21Z</time>
      </trkpt>
      <trkpt lat="45.47298" lon="5.68845">
        <ele>415.4</ele>
        <time>2021-03-13T10:06:25Z</time>
      </trkpt>
      <trkpt lat="45.4732" lon="5.68876">
        <ele>414.4</ele>
        <time>2021-03-13T10:06:29Z</time>
      </trkpt>
      <trkpt lat="45.47348" lon="5.68883">
        <ele>413.4</ele>
        <time>2021-03-13T10:06:33Z</time>
      </trkpt>
      <trkpt lat="45.47375" lon="5.68877">
        <ele>413.4</ele>
        <time>2021-03-13T10:06:37Z</time>
      </trkpt>
      <trkpt lat="45.47399" lon="5.68873">
        <ele>413</ele>
        <time>2021-03-13T10:06:41Z</time>
      </trkpt>
      <trkpt lat="45.47419" lon="5.68868">
        <ele>414</ele>
        <time>2021-03-13T10:06:45Z</time>
      </trkpt>
      <trkpt lat="45.47435" lon="5.68861">
        <ele>414.2</ele>
        <time>2021-03-13T10:06:49Z</time>
      </trkpt>
      <trkpt lat="45.47446" lon="5.68848">
        <ele>415</ele>
        <time>2021-03-13T10:06:53Z</time>
      </trkpt>
      <trkpt lat="45.47457" lon="5.68836">
        <ele>415.2</ele>
        <time>2021-03-13T10:06:57Z</time>
      </trkpt>
      <trkpt lat="45.47468" lon="5.68825">
        <ele>415.8</ele>
        <time>2021-03-13T10:07:01Z</time>
      </trkpt>
      <trkpt lat="45.4748" lon="5.68817">
        <ele>416.4</ele>
        <time>2021-03-13T10:07:05Z</time>
      </trkpt>
      <trkpt lat="45.47492" lon="5.68815">
        <ele>416.4</ele>
        <time>2021-03-13T10:07:09Z</time>
      </trkpt>
      <trkpt lat="45.47507" lon="5.68819">
        <ele>416</ele>
        <time>2021-03-13T10:07:13Z</time>
      </trkpt>
      <trkpt lat="45.47524" lon="5.68831">
        <ele>414.8</ele>
        <time>2021-03-13T10:07:17Z</time>
      </trkpt>
      <trkpt lat="45.47545" lon="5.68847">
        <ele>415</ele>
        <time>2021-03-13T10:07:21Z</time>
      </trkpt>
      <trkpt lat="45.47561" lon="5.68872">
        <ele>414</ele>
        <time>2021-03-13T10:07:25Z</time>
      </trkpt>
      <trkpt lat="45.47574" lon="5.68894">
        <ele>414.2</ele>
        <time>2021-03-13T10:07:29Z</time>
      </trkpt>
      <trkpt lat="45.47583" lon="5.68915">
        <ele>414.8</ele>
        <time>2021-03-13T10:07:33Z</time>
      </trkpt>
      <trkpt lat="45.47594" lon="5.68929">
        <ele>414.8</ele>
        <time>2021-03-13T10:07:37Z</time>
      </trkpt>
      <trkpt lat="45.47607" lon="5.68936">
        <ele>414.6</ele>
        <time>2021-03-13T10:07:41Z</time>
      </trkpt>
      <trkpt lat="45.47623" lon="5.6894">
        <ele>415</ele>
        <time>2021-03-13T10:07:45Z</time>
      </trkpt>
      <trkpt lat="45.47639" lon="5.68947">
        <ele>414.2</ele>
        <time>2021-03-13T10:07:49Z</time>
      </trkpt>
      <trkpt lat="45.47655" lon="5.68958">
        <ele>414</ele>
        <time>2021-03-13T10:07:53Z</time>
      </trkpt>
      <trkpt lat="45.4767" lon="5.68972">
        <ele>413.8</ele>
        <time>2021-03-13T10:07:57Z</time>
      </trkpt>
      <trkpt lat="45.47688" lon="5.68986">
        <ele>413.4</ele>
        <time>2021-03-13T10:08:01Z</time>
      </trkpt>
      <trkpt lat="45.47706" lon="5.68996">
        <ele>413.2</ele>
        <time>2021-03-13T10:08:05Z</time>
      </trkpt>
      <trkpt lat="45.47724" lon="5.69005">
        <ele>412.6</ele>
        <time>2021-03-13T10:08:09Z</time>
      </trkpt>
      <trkpt lat="45.47742" lon="5.69012">
        <ele>412.6</ele>
        <time>2021-03-13T10:08:13Z</time>
      </trkpt>
      <trkpt lat="45.47761" lon="5.69016">
        <ele>412.4</ele>
        <time>2021-03-13T10:08:17Z</time>
      </trkpt>
      <trkpt lat="45.47782" lon="5.69021">
        <ele>412.2</ele>
        <time>2021-03-13T10:08:21Z</time>
      </trkpt>
      <trkpt lat="45.47798" lon="5.69029">
        <ele>412.4</ele>
        <time>2021-03-13T10:08:25Z</time>
      </trkpt>
      <trkpt lat="45.47816" lon="5.69036">
        <ele>412.2</ele>
        <time>2021-03-13T10:08:29Z</time>
      </trkpt>
      <trkpt lat="45.47834" lon="5.69042">
        <ele>412</ele>
        <time>2021-03-13T10:08:33Z</time>
      </trkpt>
      <trkpt lat="45.47852" lon="5.69048">
        <ele>411.8</ele>
        <time>2021-03-13T10:08:37Z</time>
      </trkpt>
      <trkpt lat="45.47872" lon="5.69052">
        <ele>412</ele>
        <time>2021-03-13T10:08:41Z</time>
      </trkpt>
      <trkpt lat="45.47889" lon="5.69062">
        <ele>411.8</ele>
        <time>2021-03-13T10:08:45Z</time>
      </trkpt>
      <trkpt lat="45.47908" lon="5.69069">
        <ele>411.6</ele>
        <time>2021-03-13T10:08:49Z</time>
      </trkpt>
      <trkpt lat="45.47926" lon="5.69077">
        <ele>411.6</ele>
        <time>2021-03-13T10:08:53Z</time>
      </trkpt>
      <trkpt lat="45.47944" lon="5.69085">
        <ele>411.4</ele>
        <time>2021-03-13T10:08:57Z</time>
      </trkpt>
      <trkpt lat="45.47964" lon="5.69088">
        <ele>411.2</ele>
        <time>2021-03-13T10:09:01Z</time>
      </trkpt>
      <trkpt lat="45.47983" lon="5.69091">
        <ele>410.2</ele>
        <time>2021-03-13T10:09:05Z</time>
      </trkpt>
      <trkpt lat="45.48002" lon="5.69094">
        <ele>410.4</ele>
        <time>2021-03-13T10:09:09Z</time>
      </trkpt>
      <trkpt lat="45.4802" lon="5.69096">
        <ele>411.2</ele>
        <time>2021-03-13T10:09:13Z</time>
      </trkpt>
      <trkpt lat="45.48033" lon="5.69098">
        <ele>411.4</ele>
        <time>2021-03-13T10:09:17Z</time>
      </trkpt>
      <trkpt lat="45.48042" lon="5.69102">
        <ele>411.8</ele>
        <time>2021-03-13T10:09:21Z</time>
      </trkpt>
      <trkpt lat="45.48051" lon="5.69104">
        <ele>412.2</ele>
        <time>2021-03-13T10:09:25Z</time>
      </trkpt>
      <trkpt lat="45.48059" lon="5.69113">
        <ele>411.4</ele>
        <time>2021-03-13T10:09:29Z</time>
      </trkpt>
      <trkpt lat="45.48065" lon="5.69125">
        <ele>411.2</ele>
        <time>2021-03-13T10:09:33Z</time>
      </trkpt>
      <trkpt lat="45.48075" lon="5.69137">
        <ele>410.8</ele>
        <time>2021-03-13T10:09:37Z</time>
      </trkpt>
      <trkpt lat="45.48089" lon="5.69153">
        <ele>410.2</ele>
        <time>2021-03-13T10:09:41Z</time>
      </trkpt>
      <trkpt lat="45.48102" lon="5.69172">
        <ele>410.4</ele>
        <time>2021-03-13T10:09:45Z</time>
      </trkpt>
      <trkpt lat="45.48115" lon="5.69188">
        <ele>410.2</ele>
        <time>2021-03-13T10:09:49Z</time>
      </trkpt>
      <trkpt lat="45.48128" lon="5.69206">
        <ele>410.2</ele>
        <time>2021-03-13T10:09:53Z</time>
      </trkpt>
      <trkpt lat="45.48145" lon="5.69218">
        <ele>409.8</ele>
        <time>2021-03-13T10:09:57Z</time>
      </trkpt>
      <trkpt lat="45.48158" lon="5.69224">
        <ele>411.4</ele>
        <time>2021-03-13T10:10:01Z</time>
      </trkpt>
      <trkpt lat="45.48169" lon="5.69227">
        <ele>412.2</ele>
        <time>2021-03-13T10:10:05Z</time>
      </trkpt>
      <trkpt lat="45.48179" lon="5.6923">
        <ele>412.8</ele>
        <time>2021-03-13T10:10:09Z</time>
      </trkpt>
      <trkpt lat="45.48188" lon="5.69233">
        <ele>413.6</ele>
        <time>2021-03-13T10:10:13Z</time>
      </trkpt>
      <trkpt lat="45.48196" lon="5.6924">
        <ele>414</ele>
        <time>2021-03-13T10:10:17Z</time>
      </trkpt>
      <trkpt lat="45.48204" lon="5.69244">
        <ele>414.8</ele>
        <time>2021-03-13T10:10:21Z</time>
      </trkpt>
      <trkpt lat="45.48214" lon="5.69249">
        <ele>415.4</ele>
        <time>2021-03-13T10:10:25Z</time>
      </trkpt>
      <trkpt lat="45.48224" lon="5.69254">
        <ele>416.2</ele>
        <time>2021-03-13T10:10:29Z</time>
      </trkpt>
      <trkpt lat="45.48233" lon="5.69259">
        <ele>416</ele>
        <time>2021-03-13T10:10:33Z</time>
      </trkpt>
      <trkpt lat="45.48242" lon="5.69264">
        <ele>416.8</ele>
        <time>2021-03-13T10:10:37Z</time>
      </trkpt>
      <trkpt lat="45.48251" lon="5.69269">
        <ele>417.2</ele>
        <time>2021-03-13T10:10:41Z</time>
      </trkpt>
      <trkpt lat="45.4826" lon="5.69276">
        <ele>419</ele>
        <time>2021-03-13T10:10:45Z</time>
      </trkpt>
      <trkpt lat="45.48269" lon="5.69281">
        <ele>419</ele>
        <time>2021-03-13T10:10:49Z</time>
      </trkpt>
      <trkpt lat="45.48279" lon="5.69287">
        <ele>420</ele>
        <time>2021-03-13T10:10:53Z</time>
      </trkpt>
      <trkpt lat="45.48289" lon="5.69292">
        <ele>420.4</ele>
        <time>2021-03-13T10:10:57Z</time>
      </trkpt>
      <trkpt lat="45.48298" lon="5.69297">
        <ele>420.8</ele>
        <time>2021-03-13T10:11:01Z</time>
      </trkpt>
      <trkpt lat="45.48307" lon="5.69302">
        <ele>422</ele>
        <time>2021-03-13T10:11:05Z</time>
      </trkpt>
      <trkpt lat="45.48314" lon="5.69309">
        <ele>423</ele>
        <time>2021-03-13T10:11:09Z</time>
      </trkpt>
      <trkpt lat="45.48322" lon="5.69315">
        <ele>422.8</ele>
        <time>2021-03-13T10:11:13Z</time>
      </trkpt>
      <trkpt lat="45.48328" lon="5.69322">
        <ele>423.6</ele>
        <time>2021-03-13T10:11:17Z</time>
      </trkpt>
      <trkpt lat="45.48335" lon="5.69331">
        <ele>424.4</ele>
        <time>2021-03-13T10:11:21Z</time>
      </trkpt>
      <trkpt lat="45.48342" lon="5.69339">
        <ele>424.8</ele>
        <time>2021-03-13T10:11:25Z</time>
      </trkpt>
      <trkpt lat="45.48348" lon="5.69348">
        <ele>425.8</ele>
        <time>2021-03-13T10:11:29Z</time>
      </trkpt>
      <trkpt lat="45.48355" lon="5.69356">
        <ele>425.6</ele>
        <time>2021-03-13T10:11:33Z</time>
      </trkpt>
      <trkpt lat="45.48362" lon="5.69363">
        <ele>426.8</ele>
        <time>2021-03-13T10:11:37Z</time>
      </trkpt>
      <trkpt lat="45.4837" lon="5.69369">
        <ele>427.4</ele>
        <time>2021-03-13T10:11:41Z</time>
      </trkpt>
      <trkpt lat="45.48377" lon="5.69373">
        <ele>428</ele>
        <time>2021-03-13T10:11:45Z</time>
      </trkpt>
      <trkpt lat="45.48383" lon="5.69378">
        <ele>428.4</ele>
        <time>2021-03-13T10:11:49Z</time>
      </trkpt>
      <trkpt lat="45.48391" lon="5.69384">
        <ele>429.8</ele>
        <time>2021-03-13T10:11:53Z</time>
      </trkpt>
      <trkpt lat="45.48397" lon="5.6939">
        <ele>430.6</ele>
        <time>2021-03-13T10:11:57Z</time>
      </trkpt>
      <trkpt lat="45.48404" lon="5.69396">
        <ele>431.4</ele>
        <time>2021-03-13T10:12:01Z</time>
      </trkpt>
      <trkpt lat="45.48409" lon="5.69405">
        <ele>432</ele>
        <time>2021-03-13T10:12:05Z</time>
      </trkpt>
      <trkpt lat="45.48415" lon="5.69413">
        <ele>432.6</ele>
        <time>2021-03-13T10:12:09Z</time>
      </trkpt>
      <trkpt lat="45.4842" lon="5.69421">
        <ele>433.4</ele>
        <time>2021-03-13T10:12:13Z</time>
      </trkpt>
      <trkpt lat="45.48426" lon="5.69429">
        <ele>434</ele>
        <time>2021-03-13T10:12:17Z</time>
      </trkpt>
      <trkpt lat="45.48432" lon="5.69437">
        <ele>434.8</ele>
        <time>2021-03-13T10:12:21Z</time>
      </trkpt>
      <trkpt lat="45.48438" lon="5.69444">
        <ele>435.4</ele>
        <time>2021-03-13T10:12:25Z</time>
      </trkpt>
      <trkpt lat="45.48444" lon="5.69453">
        <ele>435.6</ele>
        <time>2021-03-13T10:12:29Z</time>
      </trkpt>
      <trkpt lat="45.48449" lon="5.69464">
        <ele>437</ele>
        <time>2021-03-13T10:12:33Z</time>
      </trkpt>
      <trkpt lat="45.48454" lon="5.69472">
        <ele>437.6</ele>
        <time>2021-03-13T10:12:37Z</time>
      </trkpt>
      <trkpt lat="45.48459" lon="5.69478">
        <ele>438.2</ele>
        <time>2021-03-13T10:12:41Z</time>
      </trkpt>
      <trkpt lat="45.48461" lon="5.69489">
        <ele>439</ele>
        <time>2021-03-13T10:12:45Z</time>
      </trkpt>
      <trkpt lat="45.48465" lon="5.69498">
        <ele>439.8</ele>
        <time>2021-03-13T10:12:49Z</time>
      </trkpt>
      <trkpt lat="45.48467" lon="5.69516">
        <ele>440.4</ele>
        <time>2021-03-13T10:12:53Z</time>
      </trkpt>
      <trkpt lat="45.48472" lon="5.69528">
        <ele>440.8</ele>
        <time>2021-03-13T10:12:57Z</time>
      </trkpt>
      <trkpt lat="45.48479" lon="5.69537">
        <ele>442</ele>
        <time>2021-03-13T10:13:01Z</time>
      </trkpt>
      <trkpt lat="45.48485" lon="5.69546">
        <ele>443.2</ele>
        <time>2021-03-13T10:13:05Z</time>
      </trkpt>
      <trkpt lat="45.4849" lon="5.69556">
        <ele>443.4</ele>
        <time>2021-03-13T10:13:09Z</time>
      </trkpt>
      <trkpt lat="45.48494" lon="5.69564">
        <ele>444.2</ele>
        <time>2021-03-13T10:13:13Z</time>
      </trkpt>
      <trkpt lat="45.48499" lon="5.69574">
        <ele>445.2</ele>
        <time>2021-03-13T10:13:17Z</time>
      </trkpt>
      <trkpt lat="45.48503" lon="5.69583">
        <ele>446.2</ele>
        <time>2021-03-13T10:13:21Z</time>
      </trkpt>
      <trkpt lat="45.48509" lon="5.69589">
        <ele>446.6</ele>
        <time>2021-03-13T10:13:25Z</time>
      </trkpt>
      <trkpt lat="45.48515" lon="5.69596">
        <ele>447.4</ele>
        <time>2021-03-13T10:13:29Z</time>
      </trkpt>
      <trkpt lat="45.48534" lon="5.69601">
        <ele>449</ele>
        <time>2021-03-13T10:14:05Z</time>
      </trkpt>
      <trkpt lat="45.48542" lon="5.69604">
        <ele>449.2</ele>
        <time>2021-03-13T10:14:09Z</time>
      </trkpt>
      <trkpt lat="45.48549" lon="5.69609">
        <ele>449.8</ele>
        <time>2021-03-13T10:14:13Z</time>
      </trkpt>
      <trkpt lat="45.48553" lon="5.69616">
        <ele>451.2</ele>
        <time>2021-03-13T10:14:17Z</time>
      </trkpt>
      <trkpt lat="45.48559" lon="5.69623">
        <ele>451.8</ele>
        <time>2021-03-13T10:14:21Z</time>
      </trkpt>
      <trkpt lat="45.48564" lon="5.69631">
        <ele>452</ele>
        <time>2021-03-13T10:14:25Z</time>
      </trkpt>
      <trkpt lat="45.48565" lon="5.69641">
        <ele>452.4</ele>
        <time>2021-03-13T10:14:29Z</time>
      </trkpt>
      <trkpt lat="45.48568" lon="5.6965">
        <ele>453.4</ele>
        <time>2021-03-13T10:14:33Z</time>
      </trkpt>
      <trkpt lat="45.48573" lon="5.69662">
        <ele>453.8</ele>
        <time>2021-03-13T10:14:37Z</time>
      </trkpt>
      <trkpt lat="45.48579" lon="5.69673">
        <ele>454.4</ele>
        <time>2021-03-13T10:14:41Z</time>
      </trkpt>
      <trkpt lat="45.48586" lon="5.69684">
        <ele>454.6</ele>
        <time>2021-03-13T10:14:45Z</time>
      </trkpt>
      <trkpt lat="45.48593" lon="5.69692">
        <ele>455.6</ele>
        <time>2021-03-13T10:14:49Z</time>
      </trkpt>
      <trkpt lat="45.48597" lon="5.697">
        <ele>456.2</ele>
        <time>2021-03-13T10:14:53Z</time>
      </trkpt>
      <trkpt lat="45.48604" lon="5.69709">
        <ele>457</ele>
        <time>2021-03-13T10:14:57Z</time>
      </trkpt>
      <trkpt lat="45.48613" lon="5.69718">
        <ele>457.4</ele>
        <time>2021-03-13T10:15:01Z</time>
      </trkpt>
      <trkpt lat="45.48623" lon="5.69732">
        <ele>458</ele>
        <time>2021-03-13T10:15:05Z</time>
      </trkpt>
      <trkpt lat="45.48631" lon="5.69743">
        <ele>458.4</ele>
        <time>2021-03-13T10:15:09Z</time>
      </trkpt>
      <trkpt lat="45.48639" lon="5.69751">
        <ele>459.4</ele>
        <time>2021-03-13T10:15:13Z</time>
      </trkpt>
      <trkpt lat="45.48648" lon="5.69758">
        <ele>459.4</ele>
        <time>2021-03-13T10:15:17Z</time>
      </trkpt>
      <trkpt lat="45.48659" lon="5.69767">
        <ele>459.6</ele>
        <time>2021-03-13T10:15:21Z</time>
      </trkpt>
      <trkpt lat="45.48671" lon="5.69776">
        <ele>460.6</ele>
        <time>2021-03-13T10:15:25Z</time>
      </trkpt>
      <trkpt lat="45.48683" lon="5.69779">
        <ele>460.4</ele>
        <time>2021-03-13T10:15:29Z</time>
      </trkpt>
      <trkpt lat="45.48697" lon="5.69778">
        <ele>461</ele>
        <time>2021-03-13T10:15:33Z</time>
      </trkpt>
      <trkpt lat="45.4871" lon="5.69774">
        <ele>461.4</ele>
        <time>2021-03-13T10:15:37Z</time>
      </trkpt>
      <trkpt lat="45.48723" lon="5.6977">
        <ele>461.4</ele>
        <time>2021-03-13T10:15:41Z</time>
      </trkpt>
      <trkpt lat="45.48739" lon="5.69763">
        <ele>461.6</ele>
        <time>2021-03-13T10:15:45Z</time>
      </trkpt>
      <trkpt lat="45.48753" lon="5.69758">
        <ele>461.8</ele>
        <time>2021-03-13T10:15:49Z</time>
      </trkpt>
      <trkpt lat="45.48769" lon="5.69753">
        <ele>462</ele>
        <time>2021-03-13T10:15:53Z</time>
      </trkpt>
      <trkpt lat="45.48783" lon="5.69751">
        <ele>462</ele>
        <time>2021-03-13T10:15:57Z</time>
      </trkpt>
      <trkpt lat="45.48799" lon="5.69751">
        <ele>462</ele>
        <time>2021-03-13T10:16:01Z</time>
      </trkpt>
      <trkpt lat="45.48815" lon="5.69751">
        <ele>462.2</ele>
        <time>2021-03-13T10:16:05Z</time>
      </trkpt>
      <trkpt lat="45.48832" lon="5.6975">
        <ele>462.4</ele>
        <time>2021-03-13T10:16:09Z</time>
      </trkpt>
      <trkpt lat="45.4885" lon="5.69744">
        <ele>462.4</ele>
        <time>2021-03-13T10:16:13Z</time>
      </trkpt>
      <trkpt lat="45.48868" lon="5.69732">
        <ele>462.8</ele>
        <time>2021-03-13T10:16:17Z</time>
      </trkpt>
      <trkpt lat="45.48884" lon="5.69721">
        <ele>462.4</ele>
        <time>2021-03-13T10:16:21Z</time>
      </trkpt>
      <trkpt lat="45.48899" lon="5.69709">
        <ele>462.2</ele>
        <time>2021-03-13T10:16:25Z</time>
      </trkpt>
      <trkpt lat="45.48914" lon="5.69699">
        <ele>462.2</ele>
        <time>2021-03-13T10:16:29Z</time>
      </trkpt>
      <trkpt lat="45.48927" lon="5.69688">
        <ele>461.6</ele>
        <time>2021-03-13T10:16:33Z</time>
      </trkpt>
      <trkpt lat="45.48941" lon="5.69677">
        <ele>461.4</ele>
        <time>2021-03-13T10:16:37Z</time>
      </trkpt>
      <trkpt lat="45.48956" lon="5.69666">
        <ele>461</ele>
        <time>2021-03-13T10:16:41Z</time>
      </trkpt>
      <trkpt lat="45.4897" lon="5.69654">
        <ele>461</ele>
        <time>2021-03-13T10:16:45Z</time>
      </trkpt>
      <trkpt lat="45.48985" lon="5.69642">
        <ele>460.4</ele>
        <time>2021-03-13T10:16:49Z</time>
      </trkpt>
      <trkpt lat="45.48999" lon="5.69629">
        <ele>460.4</ele>
        <time>2021-03-13T10:16:53Z</time>
      </trkpt>
      <trkpt lat="45.49013" lon="5.69613">
        <ele>460</ele>
        <time>2021-03-13T10:16:57Z</time>
      </trkpt>
      <trkpt lat="45.49027" lon="5.69598">
        <ele>459.8</ele>
        <time>2021-03-13T10:17:01Z</time>
      </trkpt>
      <trkpt lat="45.49041" lon="5.69583">
        <ele>460</ele>
        <time>2021-03-13T10:17:05Z</time>
      </trkpt>
      <trkpt lat="45.49053" lon="5.6957">
        <ele>460.2</ele>
        <time>2021-03-13T10:17:09Z</time>
      </trkpt>
      <trkpt lat="45.49064" lon="5.69557">
        <ele>461</ele>
        <time>2021-03-13T10:17:13Z</time>
      </trkpt>
      <trkpt lat="45.49076" lon="5.69546">
        <ele>461.2</ele>
        <time>2021-03-13T10:17:17Z</time>
      </trkpt>
      <trkpt lat="45.49087" lon="5.69536">
        <ele>461.6</ele>
        <time>2021-03-13T10:17:21Z</time>
      </trkpt>
      <trkpt lat="45.491" lon="5.69529">
        <ele>462.4</ele>
        <time>2021-03-13T10:17:25Z</time>
      </trkpt>
      <trkpt lat="45.49112" lon="5.69524">
        <ele>462.6</ele>
        <time>2021-03-13T10:17:29Z</time>
      </trkpt>
      <trkpt lat="45.49124" lon="5.6952">
        <ele>462.8</ele>
        <time>2021-03-13T10:17:33Z</time>
      </trkpt>
      <trkpt lat="45.49137" lon="5.69516">
        <ele>463.2</ele>
        <time>2021-03-13T10:17:37Z</time>
      </trkpt>
      <trkpt lat="45.4915" lon="5.69511">
        <ele>463.2</ele>
        <time>2021-03-13T10:17:41Z</time>
      </trkpt>
      <trkpt lat="45.49163" lon="5.69506">
        <ele>463.6</ele>
        <time>2021-03-13T10:17:45Z</time>
      </trkpt>
      <trkpt lat="45.49175" lon="5.69498">
        <ele>464</ele>
        <time>2021-03-13T10:17:49Z</time>
      </trkpt>
      <trkpt lat="45.49185" lon="5.69489">
        <ele>464.2</ele>
        <time>2021-03-13T10:17:53Z</time>
      </trkpt>
      <trkpt lat="45.49194" lon="5.69479">
        <ele>464.6</ele>
        <time>2021-03-13T10:17:57Z</time>
      </trkpt>
      <trkpt lat="45.49201" lon="5.69468">
        <ele>466</ele>
        <time>2021-03-13T10:18:01Z</time>
      </trkpt>
      <trkpt lat="45.49208" lon="5.69455">
        <ele>466</ele>
        <time>2021-03-13T10:18:05Z</time>
      </trkpt>
      <trkpt lat="45.49216" lon="5.69442">
        <ele>466.6</ele>
        <time>2021-03-13T10:18:09Z</time>
      </trkpt>
      <trkpt lat="45.49223" lon="5.69429">
        <ele>467.2</ele>
        <time>2021-03-13T10:18:13Z</time>
      </trkpt>
      <trkpt lat="45.49231" lon="5.69415">
        <ele>468</ele>
        <time>2021-03-13T10:18:17Z</time>
      </trkpt>
      <trkpt lat="45.49238" lon="5.69402">
        <ele>468.4</ele>
        <time>2021-03-13T10:18:21Z</time>
      </trkpt>
      <trkpt lat="45.49245" lon="5.69388">
        <ele>469.2</ele>
        <time>2021-03-13T10:18:25Z</time>
      </trkpt>
      <trkpt lat="45.49252" lon="5.69374">
        <ele>469.2</ele>
        <time>2021-03-13T10:18:29Z</time>
      </trkpt>
      <trkpt lat="45.49259" lon="5.6936">
        <ele>470.6</ele>
        <time>2021-03-13T10:18:33Z</time>
      </trkpt>
      <trkpt lat="45.49262" lon="5.69344">
        <ele>471.4</ele>
        <time>2021-03-13T10:18:37Z</time>
      </trkpt>
      <trkpt lat="45.49262" lon="5.69327">
        <ele>471.8</ele>
        <time>2021-03-13T10:18:41Z</time>
      </trkpt>
      <trkpt lat="45.49259" lon="5.69309">
        <ele>471.6</ele>
        <time>2021-03-13T10:18:45Z</time>
      </trkpt>
      <trkpt lat="45.49255" lon="5.69292">
        <ele>472</ele>
        <time>2021-03-13T10:18:49Z</time>
      </trkpt>
      <trkpt lat="45.49249" lon="5.69275">
        <ele>471.6</ele>
        <time>2021-03-13T10:18:53Z</time>
      </trkpt>
      <trkpt lat="45.49243" lon="5.69258">
        <ele>471.8</ele>
        <time>2021-03-13T10:18:57Z</time>
      </trkpt>
      <trkpt lat="45.49237" lon="5.6924">
        <ele>471.8</ele>
        <time>2021-03-13T10:19:01Z</time>
      </trkpt>
      <trkpt lat="45.4923" lon="5.69221">
        <ele>472.2</ele>
        <time>2021-03-13T10:19:05Z</time>
      </trkpt>
      <trkpt lat="45.49224" lon="5.69204">
        <ele>472</ele>
        <time>2021-03-13T10:19:09Z</time>
      </trkpt>
      <trkpt lat="45.49218" lon="5.69187">
        <ele>472.4</ele>
        <time>2021-03-13T10:19:13Z</time>
      </trkpt>
      <trkpt lat="45.49212" lon="5.6917">
        <ele>473.6</ele>
        <time>2021-03-13T10:19:17Z</time>
      </trkpt>
      <trkpt lat="45.49206" lon="5.69153">
        <ele>473.2</ele>
        <time>2021-03-13T10:19:21Z</time>
      </trkpt>
      <trkpt lat="45.492" lon="5.69136">
        <ele>473.6</ele>
        <time>2021-03-13T10:19:25Z</time>
      </trkpt>
      <trkpt lat="45.49195" lon="5.69119">
        <ele>473.6</ele>
        <time>2021-03-13T10:19:29Z</time>
      </trkpt>
      <trkpt lat="45.4919" lon="5.69101">
        <ele>474.4</ele>
        <time>2021-03-13T10:19:33Z</time>
      </trkpt>
      <trkpt lat="45.49185" lon="5.69085">
        <ele>474.8</ele>
        <time>2021-03-13T10:19:37Z</time>
      </trkpt>
      <trkpt lat="45.49182" lon="5.69069">
        <ele>475</ele>
        <time>2021-03-13T10:19:41Z</time>
      </trkpt>
      <trkpt lat="45.49179" lon="5.6905">
        <ele>475.8</ele>
        <time>2021-03-13T10:19:45Z</time>
      </trkpt>
      <trkpt lat="45.49176" lon="5.69032">
        <ele>476</ele>
        <time>2021-03-13T10:19:49Z</time>
      </trkpt>
      <trkpt lat="45.49174" lon="5.69012">
        <ele>476</ele>
        <time>2021-03-13T10:19:53Z</time>
      </trkpt>
      <trkpt lat="45.49172" lon="5.68991">
        <ele>476.4</ele>
        <time>2021-03-13T10:19:57Z</time>
      </trkpt>
      <trkpt lat="45.49171" lon="5.68971">
        <ele>476.6</ele>
        <time>2021-03-13T10:20:01Z</time>
      </trkpt>
      <trkpt lat="45.4917" lon="5.68951">
        <ele>477</ele>
        <time>2021-03-13T10:20:05Z</time>
      </trkpt>
      <trkpt lat="45.4917" lon="5.68932">
        <ele>477.2</ele>
        <time>2021-03-13T10:20:09Z</time>
      </trkpt>
      <trkpt lat="45.49169" lon="5.68914">
        <ele>477.2</ele>
        <time>2021-03-13T10:20:13Z</time>
      </trkpt>
      <trkpt lat="45.49171" lon="5.68897">
        <ele>477.6</ele>
        <time>2021-03-13T10:20:17Z</time>
      </trkpt>
      <trkpt lat="45.49173" lon="5.6888">
        <ele>477.4</ele>
        <time>2021-03-13T10:20:21Z</time>
      </trkpt>
      <trkpt lat="45.49172" lon="5.68857">
        <ele>477.4</ele>
        <time>2021-03-13T10:20:25Z</time>
      </trkpt>
      <trkpt lat="45.49172" lon="5.68833">
        <ele>477.6</ele>
        <time>2021-03-13T10:20:29Z</time>
      </trkpt>
      <trkpt lat="45.4917" lon="5.68807">
        <ele>477.4</ele>
        <time>2021-03-13T10:20:33Z</time>
      </trkpt>
      <trkpt lat="45.49166" lon="5.68781">
        <ele>477.2</ele>
        <time>2021-03-13T10:20:37Z</time>
      </trkpt>
      <trkpt lat="45.49159" lon="5.68757">
        <ele>477</ele>
        <time>2021-03-13T10:20:41Z</time>
      </trkpt>
      <trkpt lat="45.49148" lon="5.68734">
        <ele>477</ele>
        <time>2021-03-13T10:20:45Z</time>
      </trkpt>
      <trkpt lat="45.49138" lon="5.68709">
        <ele>475.6</ele>
        <time>2021-03-13T10:20:49Z</time>
      </trkpt>
      <trkpt lat="45.49127" lon="5.68688">
        <ele>475.8</ele>
        <time>2021-03-13T10:20:53Z</time>
      </trkpt>
      <trkpt lat="45.49118" lon="5.68667">
        <ele>477</ele>
        <time>2021-03-13T10:20:57Z</time>
      </trkpt>
      <trkpt lat="45.49111" lon="5.68645">
        <ele>477</ele>
        <time>2021-03-13T10:21:01Z</time>
      </trkpt>
      <trkpt lat="45.49111" lon="5.68621">
        <ele>477.4</ele>
        <time>2021-03-13T10:21:05Z</time>
      </trkpt>
      <trkpt lat="45.49116" lon="5.68601">
        <ele>477</ele>
        <time>2021-03-13T10:21:09Z</time>
      </trkpt>
      <trkpt lat="45.49122" lon="5.68583">
        <ele>478.2</ele>
        <time>2021-03-13T10:21:13Z</time>
      </trkpt>
      <trkpt lat="45.49129" lon="5.68567">
        <ele>478.2</ele>
        <time>2021-03-13T10:21:17Z</time>
      </trkpt>
      <trkpt lat="45.49136" lon="5.68554">
        <ele>478.8</ele>
        <time>2021-03-13T10:21:21Z</time>
      </trkpt>
      <trkpt lat="45.49144" lon="5.68539">
        <ele>479.4</ele>
        <time>2021-03-13T10:21:25Z</time>
      </trkpt>
      <trkpt lat="45.49151" lon="5.68525">
        <ele>479.8</ele>
        <time>2021-03-13T10:21:29Z</time>
      </trkpt>
      <trkpt lat="45.49158" lon="5.6851">
        <ele>480.2</ele>
        <time>2021-03-13T10:21:33Z</time>
      </trkpt>
      <trkpt lat="45.49166" lon="5.68497">
        <ele>481</ele>
        <time>2021-03-13T10:21:37Z</time>
      </trkpt>
      <trkpt lat="45.49173" lon="5.68482">
        <ele>481.6</ele>
        <time>2021-03-13T10:21:41Z</time>
      </trkpt>
      <trkpt lat="45.49179" lon="5.68466">
        <ele>482.4</ele>
        <time>2021-03-13T10:21:45Z</time>
      </trkpt>
      <trkpt lat="45.49185" lon="5.6845">
        <ele>482.8</ele>
        <time>2021-03-13T10:21:49Z</time>
      </trkpt>
      <trkpt lat="45.4919" lon="5.68434">
        <ele>483.4</ele>
        <time>2021-03-13T10:21:53Z</time>
      </trkpt>
      <trkpt lat="45.49192" lon="5.68417">
        <ele>484</ele>
        <time>2021-03-13T10:21:57Z</time>
      </trkpt>
      <trkpt lat="45.49193" lon="5.684">
        <ele>484.2</ele>
        <time>2021-03-13T10:22:01Z</time>
      </trkpt>
      <trkpt lat="45.49194" lon="5.68385">
        <ele>484.6</ele>
        <time>2021-03-13T10:22:05Z</time>
      </trkpt>
      <trkpt lat="45.49196" lon="5.6837">
        <ele>484.8</ele>
        <time>2021-03-13T10:22:09Z</time>
      </trkpt>
      <trkpt lat="45.492" lon="5.68348">
        <ele>483.8</ele>
        <time>2021-03-13T10:22:13Z</time>
      </trkpt>
      <trkpt lat="45.49207" lon="5.68319">
        <ele>482.8</ele>
        <time>2021-03-13T10:22:17Z</time>
      </trkpt>
      <trkpt lat="45.49216" lon="5.68287">
        <ele>481.2</ele>
        <time>2021-03-13T10:22:21Z</time>
      </trkpt>
      <trkpt lat="45.49223" lon="5.68252">
        <ele>480.2</ele>
        <time>2021-03-13T10:22:25Z</time>
      </trkpt>
      <trkpt lat="45.49235" lon="5.68217">
        <ele>479.4</ele>
        <time>2021-03-13T10:22:29Z</time>
      </trkpt>
      <trkpt lat="45.4925" lon="5.68184">
        <ele>478.8</ele>
        <time>2021-03-13T10:22:33Z</time>
      </trkpt>
      <trkpt lat="45.49265" lon="5.68154">
        <ele>479</ele>
        <time>2021-03-13T10:22:37Z</time>
      </trkpt>
      <trkpt lat="45.49278" lon="5.68126">
        <ele>478</ele>
        <time>2021-03-13T10:22:41Z</time>
      </trkpt>
      <trkpt lat="45.49291" lon="5.68096">
        <ele>477.8</ele>
        <time>2021-03-13T10:22:45Z</time>
      </trkpt>
      <trkpt lat="45.49303" lon="5.68069">
        <ele>477</ele>
        <time>2021-03-13T10:22:49Z</time>
      </trkpt>
      <trkpt lat="45.49313" lon="5.68042">
        <ele>476.8</ele>
        <time>2021-03-13T10:22:53Z</time>
      </trkpt>
      <trkpt lat="45.49319" lon="5.68014">
        <ele>476.8</ele>
        <time>2021-03-13T10:22:57Z</time>
      </trkpt>
      <trkpt lat="45.49326" lon="5.67986">
        <ele>476.4</ele>
        <time>2021-03-13T10:23:01Z</time>
      </trkpt>
      <trkpt lat="45.49332" lon="5.67959">
        <ele>476.6</ele>
        <time>2021-03-13T10:23:05Z</time>
      </trkpt>
      <trkpt lat="45.49338" lon="5.67935">
        <ele>476.8</ele>
        <time>2021-03-13T10:23:09Z</time>
      </trkpt>
      <trkpt lat="45.49346" lon="5.67917">
        <ele>477.6</ele>
        <time>2021-03-13T10:23:13Z</time>
      </trkpt>
      <trkpt lat="45.49356" lon="5.67906">
        <ele>478.4</ele>
        <time>2021-03-13T10:23:17Z</time>
      </trkpt>
      <trkpt lat="45.49365" lon="5.679">
        <ele>478.8</ele>
        <time>2021-03-13T10:23:21Z</time>
      </trkpt>
      <trkpt lat="45.49374" lon="5.67895">
        <ele>479.4</ele>
        <time>2021-03-13T10:23:25Z</time>
      </trkpt>
      <trkpt lat="45.49383" lon="5.67891">
        <ele>480</ele>
        <time>2021-03-13T10:23:29Z</time>
      </trkpt>
      <trkpt lat="45.49391" lon="5.67886">
        <ele>481</ele>
        <time>2021-03-13T10:23:33Z</time>
      </trkpt>
      <trkpt lat="45.49398" lon="5.67881">
        <ele>481.8</ele>
        <time>2021-03-13T10:23:37Z</time>
      </trkpt>
      <trkpt lat="45.49406" lon="5.67875">
        <ele>483.2</ele>
        <time>2021-03-13T10:23:41Z</time>
      </trkpt>
      <trkpt lat="45.49412" lon="5.67867">
        <ele>483.4</ele>
        <time>2021-03-13T10:23:45Z</time>
      </trkpt>
      <trkpt lat="45.49418" lon="5.67858">
        <ele>483.8</ele>
        <time>2021-03-13T10:23:49Z</time>
      </trkpt>
      <trkpt lat="45.49424" lon="5.6785">
        <ele>484.6</ele>
        <time>2021-03-13T10:23:53Z</time>
      </trkpt>
      <trkpt lat="45.4943" lon="5.6784">
        <ele>485.8</ele>
        <time>2021-03-13T10:23:57Z</time>
      </trkpt>
      <trkpt lat="45.49434" lon="5.6783">
        <ele>486.2</ele>
        <time>2021-03-13T10:24:01Z</time>
      </trkpt>
      <trkpt lat="45.49437" lon="5.67818">
        <ele>486.8</ele>
        <time>2021-03-13T10:24:05Z</time>
      </trkpt>
      <trkpt lat="45.4944" lon="5.67807">
        <ele>487</ele>
        <time>2021-03-13T10:24:09Z</time>
      </trkpt>
      <trkpt lat="45.49442" lon="5.67795">
        <ele>487.4</ele>
        <time>2021-03-13T10:24:13Z</time>
      </trkpt>
      <trkpt lat="45.49445" lon="5.67781">
        <ele>487.2</ele>
        <time>2021-03-13T10:24:17Z</time>
      </trkpt>
      <trkpt lat="45.4945" lon="5.67764">
        <ele>486.6</ele>
        <time>2021-03-13T10:24:21Z</time>
      </trkpt>
      <trkpt lat="45.49457" lon="5.67743">
        <ele>485.8</ele>
        <time>2021-03-13T10:24:25Z</time>
      </trkpt>
      <trkpt lat="45.49464" lon="5.67721">
        <ele>485.6</ele>
        <time>2021-03-13T10:24:29Z</time>
      </trkpt>
      <trkpt lat="45.49472" lon="5.67696">
        <ele>485</ele>
        <time>2021-03-13T10:24:33Z</time>
      </trkpt>
      <trkpt lat="45.4948" lon="5.67668">
        <ele>483.6</ele>
        <time>2021-03-13T10:24:37Z</time>
      </trkpt>
      <trkpt lat="45.49489" lon="5.67636">
        <ele>483.2</ele>
        <time>2021-03-13T10:24:41Z</time>
      </trkpt>
      <trkpt lat="45.495" lon="5.67606">
        <ele>483</ele>
        <time>2021-03-13T10:24:45Z</time>
      </trkpt>
      <trkpt lat="45.49511" lon="5.67578">
        <ele>482.4</ele>
        <time>2021-03-13T10:24:49Z</time>
      </trkpt>
      <trkpt lat="45.49521" lon="5.67551">
        <ele>481.2</ele>
        <time>2021-03-13T10:24:53Z</time>
      </trkpt>
      <trkpt lat="45.4953" lon="5.67525">
        <ele>480.8</ele>
        <time>2021-03-13T10:24:57Z</time>
      </trkpt>
      <trkpt lat="45.49538" lon="5.67499">
        <ele>480.4</ele>
        <time>2021-03-13T10:25:01Z</time>
      </trkpt>
      <trkpt lat="45.49547" lon="5.67474">
        <ele>479.6</ele>
        <time>2021-03-13T10:25:05Z</time>
      </trkpt>
      <trkpt lat="45.49555" lon="5.67448">
        <ele>479.2</ele>
        <time>2021-03-13T10:25:09Z</time>
      </trkpt>
      <trkpt lat="45.49563" lon="5.67422">
        <ele>478.8</ele>
        <time>2021-03-13T10:25:13Z</time>
      </trkpt>
      <trkpt lat="45.49571" lon="5.67398">
        <ele>478.2</ele>
        <time>2021-03-13T10:25:17Z</time>
      </trkpt>
      <trkpt lat="45.49577" lon="5.67375">
        <ele>478.4</ele>
        <time>2021-03-13T10:25:21Z</time>
      </trkpt>
      <trkpt lat="45.49585" lon="5.67354">
        <ele>477.6</ele>
        <time>2021-03-13T10:25:25Z</time>
      </trkpt>
      <trkpt lat="45.49592" lon="5.67328">
        <ele>477.6</ele>
        <time>2021-03-13T10:25:29Z</time>
      </trkpt>
      <trkpt lat="45.49599" lon="5.67302">
        <ele>477.6</ele>
        <time>2021-03-13T10:25:33Z</time>
      </trkpt>
      <trkpt lat="45.49606" lon="5.67275">
        <ele>477</ele>
        <time>2021-03-13T10:25:37Z</time>
      </trkpt>
      <trkpt lat="45.49616" lon="5.67249">
        <ele>477</ele>
        <time>2021-03-13T10:25:41Z</time>
      </trkpt>
      <trkpt lat="45.49626" lon="5.67223">
        <ele>476.2</ele>
        <time>2021-03-13T10:25:45Z</time>
      </trkpt>
      <trkpt lat="45.49635" lon="5.67196">
        <ele>475.8</ele>
        <time>2021-03-13T10:25:49Z</time>
      </trkpt>
      <trkpt lat="45.49643" lon="5.67168">
        <ele>475.2</ele>
        <time>2021-03-13T10:25:53Z</time>
      </trkpt>
      <trkpt lat="45.49651" lon="5.67141">
        <ele>475</ele>
        <time>2021-03-13T10:25:57Z</time>
      </trkpt>
      <trkpt lat="45.4966" lon="5.67113">
        <ele>474</ele>
        <time>2021-03-13T10:26:01Z</time>
      </trkpt>
      <trkpt lat="45.49668" lon="5.67084">
        <ele>473.4</ele>
        <time>2021-03-13T10:26:05Z</time>
      </trkpt>
      <trkpt lat="45.49678" lon="5.67053">
        <ele>472.4</ele>
        <time>2021-03-13T10:26:09Z</time>
      </trkpt>
      <trkpt lat="45.4969" lon="5.67021">
        <ele>471.2</ele>
        <time>2021-03-13T10:26:13Z</time>
      </trkpt>
      <trkpt lat="45.49707" lon="5.66989">
        <ele>469.8</ele>
        <time>2021-03-13T10:26:17Z</time>
      </trkpt>
      <trkpt lat="45.49723" lon="5.66955">
        <ele>468</ele>
        <time>2021-03-13T10:26:21Z</time>
      </trkpt>
      <trkpt lat="45.49721" lon="5.66906">
        <ele>465</ele>
        <time>2021-03-13T10:26:25Z</time>
      </trkpt>
      <trkpt lat="45.49708" lon="5.66861">
        <ele>462</ele>
        <time>2021-03-13T10:26:29Z</time>
      </trkpt>
      <trkpt lat="45.49709" lon="5.66822">
        <ele>459.2</ele>
        <time>2021-03-13T10:26:33Z</time>
      </trkpt>
      <trkpt lat="45.49739" lon="5.66807">
        <ele>458.4</ele>
        <time>2021-03-13T10:26:37Z</time>
      </trkpt>
      <trkpt lat="45.49765" lon="5.66802">
        <ele>459</ele>
        <time>2021-03-13T10:26:41Z</time>
      </trkpt>
      <trkpt lat="45.49782" lon="5.6681">
        <ele>459.2</ele>
        <time>2021-03-13T10:26:45Z</time>
      </trkpt>
      <trkpt lat="45.49793" lon="5.66818">
        <ele>460.6</ele>
        <time>2021-03-13T10:26:49Z</time>
      </trkpt>
      <trkpt lat="45.49802" lon="5.66822">
        <ele>461.4</ele>
        <time>2021-03-13T10:26:53Z</time>
      </trkpt>
      <trkpt lat="45.4981" lon="5.66827">
        <ele>462.4</ele>
        <time>2021-03-13T10:26:57Z</time>
      </trkpt>
      <trkpt lat="45.49817" lon="5.66831">
        <ele>462.8</ele>
        <time>2021-03-13T10:27:01Z</time>
      </trkpt>
      <trkpt lat="45.49823" lon="5.66836">
        <ele>463.6</ele>
        <time>2021-03-13T10:27:05Z</time>
      </trkpt>
      <trkpt lat="45.49831" lon="5.66839">
        <ele>464</ele>
        <time>2021-03-13T10:27:09Z</time>
      </trkpt>
      <trkpt lat="45.49838" lon="5.66844">
        <ele>464.6</ele>
        <time>2021-03-13T10:27:13Z</time>
      </trkpt>
      <trkpt lat="45.49846" lon="5.6685">
        <ele>464.8</ele>
        <time>2021-03-13T10:27:17Z</time>
      </trkpt>
      <trkpt lat="45.49853" lon="5.66855">
        <ele>465.6</ele>
        <time>2021-03-13T10:27:21Z</time>
      </trkpt>
      <trkpt lat="45.49861" lon="5.66857">
        <ele>466</ele>
        <time>2021-03-13T10:27:25Z</time>
      </trkpt>
      <trkpt lat="45.49866" lon="5.66858">
        <ele>466</ele>
        <time>2021-03-13T10:27:29Z</time>
      </trkpt>
      <trkpt lat="45.49874" lon="5.6686">
        <ele>465.6</ele>
        <time>2021-03-13T10:27:33Z</time>
      </trkpt>
      <trkpt lat="45.49885" lon="5.6687">
        <ele>465</ele>
        <time>2021-03-13T10:27:37Z</time>
      </trkpt>
      <trkpt lat="45.499" lon="5.66887">
        <ele>463.6</ele>
        <time>2021-03-13T10:27:41Z</time>
      </trkpt>
      <trkpt lat="45.49918" lon="5.66913">
        <ele>461.8</ele>
        <time>2021-03-13T10:27:45Z</time>
      </trkpt>
      <trkpt lat="45.49941" lon="5.66947">
        <ele>459.6</ele>
        <time>2021-03-13T10:27:49Z</time>
      </trkpt>
      <trkpt lat="45.49963" lon="5.66985">
        <ele>457.2</ele>
        <time>2021-03-13T10:27:53Z</time>
      </trkpt>
      <trkpt lat="45.49995" lon="5.67014">
        <ele>453</ele>
        <time>2021-03-13T10:27:57Z</time>
      </trkpt>
      <trkpt lat="45.50038" lon="5.6702">
        <ele>449.8</ele>
        <time>2021-03-13T10:28:01Z</time>
      </trkpt>
      <trkpt lat="45.50086" lon="5.67021">
        <ele>444.6</ele>
        <time>2021-03-13T10:28:05Z</time>
      </trkpt>
      <trkpt lat="45.50135" lon="5.6703">
        <ele>440.8</ele>
        <time>2021-03-13T10:28:09Z</time>
      </trkpt>
      <trkpt lat="45.50179" lon="5.67058">
        <ele>436.6</ele>
        <time>2021-03-13T10:28:13Z</time>
      </trkpt>
      <trkpt lat="45.50221" lon="5.67095">
        <ele>434.2</ele>
        <time>2021-03-13T10:28:17Z</time>
      </trkpt>
      <trkpt lat="45.50262" lon="5.67131">
        <ele>432</ele>
        <time>2021-03-13T10:28:21Z</time>
      </trkpt>
      <trkpt lat="45.50303" lon="5.67165">
        <ele>428.6</ele>
        <time>2021-03-13T10:28:25Z</time>
      </trkpt>
      <trkpt lat="45.50344" lon="5.67184">
        <ele>426.6</ele>
        <time>2021-03-13T10:28:29Z</time>
      </trkpt>
      <trkpt lat="45.50385" lon="5.67179">
        <ele>424.6</ele>
        <time>2021-03-13T10:28:33Z</time>
      </trkpt>
      <trkpt lat="45.50425" lon="5.67169">
        <ele>423.6</ele>
        <time>2021-03-13T10:28:37Z</time>
      </trkpt>
      <trkpt lat="45.50466" lon="5.67159">
        <ele>421.6</ele>
        <time>2021-03-13T10:28:41Z</time>
      </trkpt>
      <trkpt lat="45.50506" lon="5.67145">
        <ele>418.8</ele>
        <time>2021-03-13T10:28:45Z</time>
      </trkpt>
      <trkpt lat="45.50546" lon="5.67159">
        <ele>414.6</ele>
        <time>2021-03-13T10:28:49Z</time>
      </trkpt>
      <trkpt lat="45.50585" lon="5.67181">
        <ele>412.4</ele>
        <time>2021-03-13T10:28:53Z</time>
      </trkpt>
      <trkpt lat="45.50621" lon="5.67202">
        <ele>410.2</ele>
        <time>2021-03-13T10:28:57Z</time>
      </trkpt>
      <trkpt lat="45.50654" lon="5.67223">
        <ele>408.2</ele>
        <time>2021-03-13T10:29:01Z</time>
      </trkpt>
      <trkpt lat="45.50687" lon="5.67237">
        <ele>406.6</ele>
        <time>2021-03-13T10:29:05Z</time>
      </trkpt>
      <trkpt lat="45.50719" lon="5.67248">
        <ele>405.4</ele>
        <time>2021-03-13T10:29:09Z</time>
      </trkpt>
      <trkpt lat="45.50745" lon="5.67263">
        <ele>405</ele>
        <time>2021-03-13T10:29:13Z</time>
      </trkpt>
      <trkpt lat="45.50764" lon="5.67294">
        <ele>402.6</ele>
        <time>2021-03-13T10:29:17Z</time>
      </trkpt>
      <trkpt lat="45.50771" lon="5.67331">
        <ele>403.8</ele>
        <time>2021-03-13T10:29:21Z</time>
      </trkpt>
      <trkpt lat="45.50776" lon="5.67368">
        <ele>403</ele>
        <time>2021-03-13T10:29:25Z</time>
      </trkpt>
      <trkpt lat="45.50781" lon="5.67401">
        <ele>402.4</ele>
        <time>2021-03-13T10:29:29Z</time>
      </trkpt>
      <trkpt lat="45.50785" lon="5.67435">
        <ele>401.6</ele>
        <time>2021-03-13T10:29:33Z</time>
      </trkpt>
      <trkpt lat="45.5079" lon="5.6747">
        <ele>400.8</ele>
        <time>2021-03-13T10:29:37Z</time>
      </trkpt>
      <trkpt lat="45.50796" lon="5.67503">
        <ele>398.8</ele>
        <time>2021-03-13T10:29:41Z</time>
      </trkpt>
      <trkpt lat="45.50795" lon="5.67526">
        <ele>399.4</ele>
        <time>2021-03-13T10:29:45Z</time>
      </trkpt>
      <trkpt lat="45.50792" lon="5.67541">
        <ele>399.8</ele>
        <time>2021-03-13T10:30:13Z</time>
      </trkpt>
      <trkpt lat="45.50789" lon="5.6756">
        <ele>400.2</ele>
        <time>2021-03-13T10:30:17Z</time>
      </trkpt>
      <trkpt lat="45.50785" lon="5.67579">
        <ele>399.8</ele>
        <time>2021-03-13T10:30:21Z</time>
      </trkpt>
      <trkpt lat="45.50783" lon="5.67602">
        <ele>400.2</ele>
        <time>2021-03-13T10:30:25Z</time>
      </trkpt>
      <trkpt lat="45.50779" lon="5.67628">
        <ele>399.4</ele>
        <time>2021-03-13T10:30:29Z</time>
      </trkpt>
      <trkpt lat="45.50773" lon="5.67655">
        <ele>399.4</ele>
        <time>2021-03-13T10:30:33Z</time>
      </trkpt>
      <trkpt lat="45.50769" lon="5.67682">
        <ele>399.2</ele>
        <time>2021-03-13T10:30:37Z</time>
      </trkpt>
      <trkpt lat="45.50764" lon="5.67711">
        <ele>397.6</ele>
        <time>2021-03-13T10:30:41Z</time>
      </trkpt>
      <trkpt lat="45.50758" lon="5.67741">
        <ele>397.4</ele>
        <time>2021-03-13T10:30:45Z</time>
      </trkpt>
      <trkpt lat="45.50749" lon="5.67768">
        <ele>397</ele>
        <time>2021-03-13T10:30:49Z</time>
      </trkpt>
      <trkpt lat="45.5074" lon="5.67793">
        <ele>397.2</ele>
        <time>2021-03-13T10:30:53Z</time>
      </trkpt>
      <trkpt lat="45.50729" lon="5.67815">
        <ele>397.4</ele>
        <time>2021-03-13T10:30:57Z</time>
      </trkpt>
      <trkpt lat="45.50719" lon="5.67835">
        <ele>397.4</ele>
        <time>2021-03-13T10:31:01Z</time>
      </trkpt>
      <trkpt lat="45.50711" lon="5.67851">
        <ele>397.6</ele>
        <time>2021-03-13T10:31:05Z</time>
      </trkpt>
      <trkpt lat="45.50703" lon="5.67863">
        <ele>398.8</ele>
        <time>2021-03-13T10:31:09Z</time>
      </trkpt>
      <trkpt lat="45.50698" lon="5.67874">
        <ele>397.8</ele>
        <time>2021-03-13T10:31:13Z</time>
      </trkpt>
      <trkpt lat="45.50689" lon="5.67889">
        <ele>398.2</ele>
        <time>2021-03-13T10:31:17Z</time>
      </trkpt>
      <trkpt lat="45.50681" lon="5.67905">
        <ele>398.8</ele>
        <time>2021-03-13T10:31:21Z</time>
      </trkpt>
      <trkpt lat="45.50673" lon="5.67921">
        <ele>399</ele>
        <time>2021-03-13T10:31:25Z</time>
      </trkpt>
      <trkpt lat="45.50664" lon="5.67936">
        <ele>399.2</ele>
        <time>2021-03-13T10:31:29Z</time>
      </trkpt>
      <trkpt lat="45.50657" lon="5.67951">
        <ele>400</ele>
        <time>2021-03-13T10:31:33Z</time>
      </trkpt>
      <trkpt lat="45.50648" lon="5.67967">
        <ele>400</ele>
        <time>2021-03-13T10:31:37Z</time>
      </trkpt>
      <trkpt lat="45.50641" lon="5.67981">
        <ele>401</ele>
        <time>2021-03-13T10:31:41Z</time>
      </trkpt>
      <trkpt lat="45.50632" lon="5.67994">
        <ele>401.2</ele>
        <time>2021-03-13T10:31:45Z</time>
      </trkpt>
      <trkpt lat="45.50622" lon="5.68008">
        <ele>401.4</ele>
        <time>2021-03-13T10:31:49Z</time>
      </trkpt>
      <trkpt lat="45.50613" lon="5.68021">
        <ele>401.4</ele>
        <time>2021-03-13T10:31:53Z</time>
      </trkpt>
      <trkpt lat="45.50605" lon="5.68034">
        <ele>401.2</ele>
        <time>2021-03-13T10:31:57Z</time>
      </trkpt>
      <trkpt lat="45.50599" lon="5.68048">
        <ele>401.4</ele>
        <time>2021-03-13T10:32:01Z</time>
      </trkpt>
      <trkpt lat="45.5059" lon="5.68064">
        <ele>401</ele>
        <time>2021-03-13T10:32:05Z</time>
      </trkpt>
      <trkpt lat="45.5058" lon="5.68087">
        <ele>400.4</ele>
        <time>2021-03-13T10:32:09Z</time>
      </trkpt>
      <trkpt lat="45.50565" lon="5.6811">
        <ele>399</ele>
        <time>2021-03-13T10:32:13Z</time>
      </trkpt>
      <trkpt lat="45.50548" lon="5.68135">
        <ele>398.2</ele>
        <time>2021-03-13T10:32:17Z</time>
      </trkpt>
      <trkpt lat="45.50539" lon="5.68167">
        <ele>396.4</ele>
        <time>2021-03-13T10:32:21Z</time>
      </trkpt>
      <trkpt lat="45.50539" lon="5.68212">
        <ele>396.2</ele>
        <time>2021-03-13T10:32:25Z</time>
      </trkpt>
      <trkpt lat="45.50545" lon="5.68251">
        <ele>397</ele>
        <time>2021-03-13T10:32:29Z</time>
      </trkpt>
      <trkpt lat="45.50548" lon="5.68278">
        <ele>398.6</ele>
        <time>2021-03-13T10:32:33Z</time>
      </trkpt>
      <trkpt lat="45.50551" lon="5.68297">
        <ele>399.4</ele>
        <time>2021-03-13T10:32:37Z</time>
      </trkpt>
      <trkpt lat="45.5055" lon="5.68319">
        <ele>400.6</ele>
        <time>2021-03-13T10:32:41Z</time>
      </trkpt>
      <trkpt lat="45.50551" lon="5.68335">
        <ele>400.4</ele>
        <time>2021-03-13T10:32:45Z</time>
      </trkpt>
      <trkpt lat="45.50553" lon="5.6835">
        <ele>401.4</ele>
        <time>2021-03-13T10:32:49Z</time>
      </trkpt>
      <trkpt lat="45.50554" lon="5.68362">
        <ele>402.4</ele>
        <time>2021-03-13T10:32:53Z</time>
      </trkpt>
      <trkpt lat="45.50555" lon="5.68373">
        <ele>403.4</ele>
        <time>2021-03-13T10:32:57Z</time>
      </trkpt>
      <trkpt lat="45.50557" lon="5.68386">
        <ele>403.6</ele>
        <time>2021-03-13T10:33:01Z</time>
      </trkpt>
      <trkpt lat="45.50558" lon="5.68403">
        <ele>403.2</ele>
        <time>2021-03-13T10:33:05Z</time>
      </trkpt>
      <trkpt lat="45.5056" lon="5.6842">
        <ele>403</ele>
        <time>2021-03-13T10:33:09Z</time>
      </trkpt>
      <trkpt lat="45.50561" lon="5.68438">
        <ele>403.6</ele>
        <time>2021-03-13T10:33:13Z</time>
      </trkpt>
      <trkpt lat="45.50563" lon="5.68459">
        <ele>403.2</ele>
        <time>2021-03-13T10:33:17Z</time>
      </trkpt>
      <trkpt lat="45.50565" lon="5.6848">
        <ele>403</ele>
        <time>2021-03-13T10:33:21Z</time>
      </trkpt>
      <trkpt lat="45.50568" lon="5.685">
        <ele>403</ele>
        <time>2021-03-13T10:33:25Z</time>
      </trkpt>
      <trkpt lat="45.50571" lon="5.68522">
        <ele>403.2</ele>
        <time>2021-03-13T10:33:29Z</time>
      </trkpt>
      <trkpt lat="45.50573" lon="5.68545">
        <ele>402.8</ele>
        <time>2021-03-13T10:33:33Z</time>
      </trkpt>
      <trkpt lat="45.50575" lon="5.6857">
        <ele>402.6</ele>
        <time>2021-03-13T10:33:37Z</time>
      </trkpt>
      <trkpt lat="45.50578" lon="5.68596">
        <ele>402.4</ele>
        <time>2021-03-13T10:33:41Z</time>
      </trkpt>
      <trkpt lat="45.5058" lon="5.68621">
        <ele>402.2</ele>
        <time>2021-03-13T10:33:45Z</time>
      </trkpt>
      <trkpt lat="45.5058" lon="5.68644">
        <ele>402.4</ele>
        <time>2021-03-13T10:33:49Z</time>
      </trkpt>
      <trkpt lat="45.50579" lon="5.68666">
        <ele>403</ele>
        <time>2021-03-13T10:33:53Z</time>
      </trkpt>
      <trkpt lat="45.50577" lon="5.68689">
        <ele>403.2</ele>
        <time>2021-03-13T10:33:57Z</time>
      </trkpt>
      <trkpt lat="45.50575" lon="5.68713">
        <ele>403.8</ele>
        <time>2021-03-13T10:34:01Z</time>
      </trkpt>
      <trkpt lat="45.50572" lon="5.68736">
        <ele>404.4</ele>
        <time>2021-03-13T10:34:05Z</time>
      </trkpt>
      <trkpt lat="45.50571" lon="5.68759">
        <ele>404.2</ele>
        <time>2021-03-13T10:34:09Z</time>
      </trkpt>
      <trkpt lat="45.50568" lon="5.68781">
        <ele>404.8</ele>
        <time>2021-03-13T10:34:13Z</time>
      </trkpt>
      <trkpt lat="45.50565" lon="5.68803">
        <ele>404.8</ele>
        <time>2021-03-13T10:34:17Z</time>
      </trkpt>
      <trkpt lat="45.50562" lon="5.68824">
        <ele>405.2</ele>
        <time>2021-03-13T10:34:21Z</time>
      </trkpt>
      <trkpt lat="45.50559" lon="5.68845">
        <ele>405.6</ele>
        <time>2021-03-13T10:34:25Z</time>
      </trkpt>
      <trkpt lat="45.50557" lon="5.68866">
        <ele>406.2</ele>
        <time>2021-03-13T10:34:29Z</time>
      </trkpt>
      <trkpt lat="45.50554" lon="5.68886">
        <ele>406.4</ele>
        <time>2021-03-13T10:34:33Z</time>
      </trkpt>
      <trkpt lat="45.5055" lon="5.68904">
        <ele>406.4</ele>
        <time>2021-03-13T10:34:37Z</time>
      </trkpt>
      <trkpt lat="45.50547" lon="5.68921">
        <ele>407.6</ele>
        <time>2021-03-13T10:34:41Z</time>
      </trkpt>
      <trkpt lat="45.50544" lon="5.6894">
        <ele>408.2</ele>
        <time>2021-03-13T10:34:45Z</time>
      </trkpt>
      <trkpt lat="45.50543" lon="5.68959">
        <ele>408.6</ele>
        <time>2021-03-13T10:34:49Z</time>
      </trkpt>
      <trkpt lat="45.50541" lon="5.68977">
        <ele>409</ele>
        <time>2021-03-13T10:34:53Z</time>
      </trkpt>
      <trkpt lat="45.50537" lon="5.68997">
        <ele>410</ele>
        <time>2021-03-13T10:34:57Z</time>
      </trkpt>
      <trkpt lat="45.50534" lon="5.69016">
        <ele>410</ele>
        <time>2021-03-13T10:35:01Z</time>
      </trkpt>
      <trkpt lat="45.5053" lon="5.69035">
        <ele>410</ele>
        <time>2021-03-13T10:35:05Z</time>
      </trkpt>
      <trkpt lat="45.50526" lon="5.69054">
        <ele>410.8</ele>
        <time>2021-03-13T10:35:09Z</time>
      </trkpt>
      <trkpt lat="45.50521" lon="5.69073">
        <ele>410.8</ele>
        <time>2021-03-13T10:35:13Z</time>
      </trkpt>
      <trkpt lat="45.50518" lon="5.69091">
        <ele>411.6</ele>
        <time>2021-03-13T10:35:17Z</time>
      </trkpt>
      <trkpt lat="45.50513" lon="5.6911">
        <ele>411.6</ele>
        <time>2021-03-13T10:35:21Z</time>
      </trkpt>
      <trkpt lat="45.50509" lon="5.69129">
        <ele>412.4</ele>
        <time>2021-03-13T10:35:25Z</time>
      </trkpt>
      <trkpt lat="45.50505" lon="5.69147">
        <ele>412.8</ele>
        <time>2021-03-13T10:35:29Z</time>
      </trkpt>
      <trkpt lat="45.50501" lon="5.69166">
        <ele>413.4</ele>
        <time>2021-03-13T10:35:33Z</time>
      </trkpt>
      <trkpt lat="45.50497" lon="5.69185">
        <ele>414</ele>
        <time>2021-03-13T10:35:37Z</time>
      </trkpt>
      <trkpt lat="45.50493" lon="5.69204">
        <ele>414</ele>
        <time>2021-03-13T10:35:41Z</time>
      </trkpt>
      <trkpt lat="45.5049" lon="5.69223">
        <ele>414.6</ele>
        <time>2021-03-13T10:35:45Z</time>
      </trkpt>
      <trkpt lat="45.50486" lon="5.69242">
        <ele>415.4</ele>
        <time>2021-03-13T10:35:49Z</time>
      </trkpt>
      <trkpt lat="45.50482" lon="5.6926">
        <ele>415.4</ele>
        <time>2021-03-13T10:35:53Z</time>
      </trkpt>
      <trkpt lat="45.50478" lon="5.6928">
        <ele>416</ele>
        <time>2021-03-13T10:35:57Z</time>
      </trkpt>
      <trkpt lat="45.50473" lon="5.69298">
        <ele>415.8</ele>
        <time>2021-03-13T10:36:01Z</time>
      </trkpt>
      <trkpt lat="45.5047" lon="5.69318">
        <ele>415.8</ele>
        <time>2021-03-13T10:36:05Z</time>
      </trkpt>
      <trkpt lat="45.50467" lon="5.69335">
        <ele>416.2</ele>
        <time>2021-03-13T10:36:09Z</time>
      </trkpt>
      <trkpt lat="45.50464" lon="5.69351">
        <ele>416.8</ele>
        <time>2021-03-13T10:36:13Z</time>
      </trkpt>
      <trkpt lat="45.5046" lon="5.69366">
        <ele>416.2</ele>
        <time>2021-03-13T10:36:17Z</time>
      </trkpt>
      <trkpt lat="45.50455" lon="5.69377">
        <ele>416.8</ele>
        <time>2021-03-13T10:36:21Z</time>
      </trkpt>
      <trkpt lat="45.50453" lon="5.69385">
        <ele>416.4</ele>
        <time>2021-03-13T10:36:25Z</time>
      </trkpt>
      <trkpt lat="45.50453" lon="5.69392">
        <ele>416.2</ele>
        <time>2021-03-13T10:36:29Z</time>
      </trkpt>
      <trkpt lat="45.50455" lon="5.69382">
        <ele>416.6</ele>
        <time>2021-03-13T10:36:33Z</time>
      </trkpt>
      <trkpt lat="45.5046" lon="5.69367">
        <ele>416.6</ele>
        <time>2021-03-13T10:36:37Z</time>
      </trkpt>
      <trkpt lat="45.50463" lon="5.69351">
        <ele>416.6</ele>
        <time>2021-03-13T10:36:41Z</time>
      </trkpt>
      <trkpt lat="45.50459" lon="5.69341">
        <ele>417</ele>
        <time>2021-03-13T10:36:45Z</time>
      </trkpt>
      <trkpt lat="45.50451" lon="5.69342">
        <ele>417</ele>
        <time>2021-03-13T10:36:49Z</time>
      </trkpt>
      <trkpt lat="45.50445" lon="5.69345">
        <ele>417.6</ele>
        <time>2021-03-13T10:36:53Z</time>
      </trkpt>
      <trkpt lat="45.50439" lon="5.69348">
        <ele>418.6</ele>
        <time>2021-03-13T10:36:57Z</time>
      </trkpt>
      <trkpt lat="45.50433" lon="5.6935">
        <ele>419.2</ele>
        <time>2021-03-13T10:37:01Z</time>
      </trkpt>
      <trkpt lat="45.50427" lon="5.69352">
        <ele>420</ele>
        <time>2021-03-13T10:37:05Z</time>
      </trkpt>
      <trkpt lat="45.50422" lon="5.69354">
        <ele>420.4</ele>
        <time>2021-03-13T10:37:09Z</time>
      </trkpt>
      <trkpt lat="45.50417" lon="5.69357">
        <ele>420.8</ele>
        <time>2021-03-13T10:37:13Z</time>
      </trkpt>
      <trkpt lat="45.50412" lon="5.6936">
        <ele>421.8</ele>
        <time>2021-03-13T10:37:17Z</time>
      </trkpt>
      <trkpt lat="45.50406" lon="5.69361">
        <ele>423</ele>
        <time>2021-03-13T10:37:21Z</time>
      </trkpt>
      <trkpt lat="45.50401" lon="5.69362">
        <ele>424.6</ele>
        <time>2021-03-13T10:37:25Z</time>
      </trkpt>
      <trkpt lat="45.50397" lon="5.69365">
        <ele>425</ele>
        <time>2021-03-13T10:37:29Z</time>
      </trkpt>
      <trkpt lat="45.50392" lon="5.69365">
        <ele>426</ele>
        <time>2021-03-13T10:37:33Z</time>
      </trkpt>
      <trkpt lat="45.50387" lon="5.69367">
        <ele>426.6</ele>
        <time>2021-03-13T10:37:37Z</time>
      </trkpt>
      <trkpt lat="45.50382" lon="5.69367">
        <ele>427.4</ele>
        <time>2021-03-13T10:37:41Z</time>
      </trkpt>
      <trkpt lat="45.50378" lon="5.69371">
        <ele>428.2</ele>
        <time>2021-03-13T10:37:45Z</time>
      </trkpt>
      <trkpt lat="45.50373" lon="5.69371">
        <ele>428.6</ele>
        <time>2021-03-13T10:37:49Z</time>
      </trkpt>
      <trkpt lat="45.50369" lon="5.69375">
        <ele>429.4</ele>
        <time>2021-03-13T10:37:53Z</time>
      </trkpt>
      <trkpt lat="45.50364" lon="5.69377">
        <ele>430.2</ele>
        <time>2021-03-13T10:37:57Z</time>
      </trkpt>
      <trkpt lat="45.5036" lon="5.6938">
        <ele>431.2</ele>
        <time>2021-03-13T10:38:01Z</time>
      </trkpt>
      <trkpt lat="45.50355" lon="5.69384">
        <ele>432</ele>
        <time>2021-03-13T10:38:05Z</time>
      </trkpt>
      <trkpt lat="45.50351" lon="5.69388">
        <ele>432.6</ele>
        <time>2021-03-13T10:38:09Z</time>
      </trkpt>
      <trkpt lat="45.50347" lon="5.69393">
        <ele>432.6</ele>
        <time>2021-03-13T10:38:13Z</time>
      </trkpt>
      <trkpt lat="45.50342" lon="5.694">
        <ele>433.2</ele>
        <time>2021-03-13T10:38:17Z</time>
      </trkpt>
      <trkpt lat="45.50336" lon="5.69407">
        <ele>433.4</ele>
        <time>2021-03-13T10:38:21Z</time>
      </trkpt>
      <trkpt lat="45.50329" lon="5.69417">
        <ele>433.8</ele>
        <time>2021-03-13T10:38:25Z</time>
      </trkpt>
      <trkpt lat="45.50321" lon="5.69425">
        <ele>434.2</ele>
        <time>2021-03-13T10:38:29Z</time>
      </trkpt>
      <trkpt lat="45.50313" lon="5.69435">
        <ele>434</ele>
        <time>2021-03-13T10:38:33Z</time>
      </trkpt>
      <trkpt lat="45.50306" lon="5.69445">
        <ele>433.8</ele>
        <time>2021-03-13T10:38:37Z</time>
      </trkpt>
      <trkpt lat="45.50297" lon="5.69459">
        <ele>433.8</ele>
        <time>2021-03-13T10:38:41Z</time>
      </trkpt>
      <trkpt lat="45.50288" lon="5.6947">
        <ele>434</ele>
        <time>2021-03-13T10:38:45Z</time>
      </trkpt>
      <trkpt lat="45.50279" lon="5.69484">
        <ele>434.2</ele>
        <time>2021-03-13T10:38:49Z</time>
      </trkpt>
      <trkpt lat="45.50269" lon="5.69498">
        <ele>434.2</ele>
        <time>2021-03-13T10:38:53Z</time>
      </trkpt>
      <trkpt lat="45.50261" lon="5.69512">
        <ele>434.8</ele>
        <time>2021-03-13T10:38:57Z</time>
      </trkpt>
      <trkpt lat="45.50252" lon="5.69526">
        <ele>434.6</ele>
        <time>2021-03-13T10:39:01Z</time>
      </trkpt>
      <trkpt lat="45.50244" lon="5.6954">
        <ele>434.8</ele>
        <time>2021-03-13T10:39:05Z</time>
      </trkpt>
      <trkpt lat="45.50235" lon="5.69554">
        <ele>435.4</ele>
        <time>2021-03-13T10:39:09Z</time>
      </trkpt>
      <trkpt lat="45.50225" lon="5.6957">
        <ele>435.2</ele>
        <time>2021-03-13T10:39:13Z</time>
      </trkpt>
      <trkpt lat="45.50216" lon="5.69584">
        <ele>435</ele>
        <time>2021-03-13T10:39:17Z</time>
      </trkpt>
      <trkpt lat="45.50205" lon="5.69598">
        <ele>435.6</ele>
        <time>2021-03-13T10:39:21Z</time>
      </trkpt>
      <trkpt lat="45.50195" lon="5.69612">
        <ele>435.6</ele>
        <time>2021-03-13T10:39:25Z</time>
      </trkpt>
      <trkpt lat="45.50184" lon="5.69625">
        <ele>435.8</ele>
        <time>2021-03-13T10:39:29Z</time>
      </trkpt>
      <trkpt lat="45.50173" lon="5.69639">
        <ele>435.6</ele>
        <time>2021-03-13T10:39:33Z</time>
      </trkpt>
      <trkpt lat="45.50161" lon="5.69654">
        <ele>436.2</ele>
        <time>2021-03-13T10:39:37Z</time>
      </trkpt>
      <trkpt lat="45.50148" lon="5.69666">
        <ele>435.8</ele>
        <time>2021-03-13T10:39:41Z</time>
      </trkpt>
      <trkpt lat="45.50134" lon="5.69676">
        <ele>436.2</ele>
        <time>2021-03-13T10:39:45Z</time>
      </trkpt>
      <trkpt lat="45.50121" lon="5.69684">
        <ele>436.2</ele>
        <time>2021-03-13T10:39:49Z</time>
      </trkpt>
      <trkpt lat="45.50108" lon="5.69692">
        <ele>436</ele>
        <time>2021-03-13T10:39:53Z</time>
      </trkpt>
      <trkpt lat="45.50096" lon="5.69702">
        <ele>435.8</ele>
        <time>2021-03-13T10:39:57Z</time>
      </trkpt>
      <trkpt lat="45.50083" lon="5.69717">
        <ele>435</ele>
        <time>2021-03-13T10:40:01Z</time>
      </trkpt>
      <trkpt lat="45.50068" lon="5.69733">
        <ele>435.4</ele>
        <time>2021-03-13T10:40:05Z</time>
      </trkpt>
      <trkpt lat="45.50054" lon="5.69748">
        <ele>435.6</ele>
        <time>2021-03-13T10:40:09Z</time>
      </trkpt>
      <trkpt lat="45.50039" lon="5.69758">
        <ele>435.4</ele>
        <time>2021-03-13T10:40:13Z</time>
      </trkpt>
      <trkpt lat="45.50026" lon="5.69768">
        <ele>436</ele>
        <time>2021-03-13T10:40:17Z</time>
      </trkpt>
      <trkpt lat="45.50014" lon="5.69778">
        <ele>436.8</ele>
        <time>2021-03-13T10:40:21Z</time>
      </trkpt>
      <trkpt lat="45.50004" lon="5.69786">
        <ele>437.4</ele>
        <time>2021-03-13T10:40:25Z</time>
      </trkpt>
      <trkpt lat="45.49994" lon="5.69795">
        <ele>437.4</ele>
        <time>2021-03-13T10:40:29Z</time>
      </trkpt>
      <trkpt lat="45.49984" lon="5.69805">
        <ele>438</ele>
        <time>2021-03-13T10:40:33Z</time>
      </trkpt>
      <trkpt lat="45.49973" lon="5.69815">
        <ele>438.8</ele>
        <time>2021-03-13T10:40:37Z</time>
      </trkpt>
      <trkpt lat="45.49962" lon="5.69825">
        <ele>438.6</ele>
        <time>2021-03-13T10:40:41Z</time>
      </trkpt>
      <trkpt lat="45.49952" lon="5.69835">
        <ele>439.8</ele>
        <time>2021-03-13T10:40:45Z</time>
      </trkpt>
      <trkpt lat="45.49942" lon="5.69845">
        <ele>440.4</ele>
        <time>2021-03-13T10:40:49Z</time>
      </trkpt>
      <trkpt lat="45.49932" lon="5.69857">
        <ele>440</ele>
        <time>2021-03-13T10:40:53Z</time>
      </trkpt>
      <trkpt lat="45.49921" lon="5.69869">
        <ele>440.4</ele>
        <time>2021-03-13T10:40:57Z</time>
      </trkpt>
      <trkpt lat="45.4991" lon="5.69882">
        <ele>439.8</ele>
        <time>2021-03-13T10:41:01Z</time>
      </trkpt>
      <trkpt lat="45.49898" lon="5.69896">
        <ele>439.6</ele>
        <time>2021-03-13T10:41:05Z</time>
      </trkpt>
      <trkpt lat="45.49887" lon="5.6991">
        <ele>439.2</ele>
        <time>2021-03-13T10:41:09Z</time>
      </trkpt>
      <trkpt lat="45.49876" lon="5.69925">
        <ele>438.8</ele>
        <time>2021-03-13T10:41:13Z</time>
      </trkpt>
      <trkpt lat="45.49865" lon="5.69939">
        <ele>439.2</ele>
        <time>2021-03-13T10:41:17Z</time>
      </trkpt>
      <trkpt lat="45.49853" lon="5.69952">
        <ele>439.4</ele>
        <time>2021-03-13T10:41:21Z</time>
      </trkpt>
      <trkpt lat="45.49844" lon="5.69964">
        <ele>440</ele>
        <time>2021-03-13T10:41:25Z</time>
      </trkpt>
      <trkpt lat="45.49842" lon="5.69977">
        <ele>440.2</ele>
        <time>2021-03-13T10:41:29Z</time>
      </trkpt>
      <trkpt lat="45.49847" lon="5.69985">
        <ele>440.4</ele>
        <time>2021-03-13T10:41:33Z</time>
      </trkpt>
      <trkpt lat="45.49861" lon="5.69995">
        <ele>440.2</ele>
        <time>2021-03-13T10:44:21Z</time>
      </trkpt>
      <trkpt lat="45.49871" lon="5.7">
        <ele>440.4</ele>
        <time>2021-03-13T10:44:25Z</time>
      </trkpt>
      <trkpt lat="45.49885" lon="5.70005">
        <ele>439.8</ele>
        <time>2021-03-13T10:44:29Z</time>
      </trkpt>
      <trkpt lat="45.49899" lon="5.7001">
        <ele>440.4</ele>
        <time>2021-03-13T10:44:33Z</time>
      </trkpt>
      <trkpt lat="45.49914" lon="5.70015">
        <ele>439.8</ele>
        <time>2021-03-13T10:44:37Z</time>
      </trkpt>
      <trkpt lat="45.49929" lon="5.7002">
        <ele>440.2</ele>
        <time>2021-03-13T10:44:41Z</time>
      </trkpt>
      <trkpt lat="45.49944" lon="5.70024">
        <ele>440.2</ele>
        <time>2021-03-13T10:44:45Z</time>
      </trkpt>
      <trkpt lat="45.49959" lon="5.70029">
        <ele>440.2</ele>
        <time>2021-03-13T10:44:49Z</time>
      </trkpt>
      <trkpt lat="45.49975" lon="5.70035">
        <ele>440.2</ele>
        <time>2021-03-13T10:44:53Z</time>
      </trkpt>
      <trkpt lat="45.49992" lon="5.7004">
        <ele>439.4</ele>
        <time>2021-03-13T10:44:57Z</time>
      </trkpt>
      <trkpt lat="45.50011" lon="5.70047">
        <ele>438.2</ele>
        <time>2021-03-13T10:45:01Z</time>
      </trkpt>
      <trkpt lat="45.5003" lon="5.70052">
        <ele>436.4</ele>
        <time>2021-03-13T10:45:05Z</time>
      </trkpt>
      <trkpt lat="45.50039" lon="5.70058">
        <ele>435.6</ele>
        <time>2021-03-13T10:45:09Z</time>
      </trkpt>
      <trkpt lat="45.50045" lon="5.70067">
        <ele>434.2</ele>
        <time>2021-03-13T10:45:13Z</time>
      </trkpt>
      <trkpt lat="45.50052" lon="5.70076">
        <ele>433</ele>
        <time>2021-03-13T10:45:17Z</time>
      </trkpt>
      <trkpt lat="45.50058" lon="5.70092">
        <ele>430.8</ele>
        <time>2021-03-13T10:45:21Z</time>
      </trkpt>
      <trkpt lat="45.50064" lon="5.70114">
        <ele>427.4</ele>
        <time>2021-03-13T10:45:25Z</time>
      </trkpt>
      <trkpt lat="45.50067" lon="5.70138">
        <ele>424.4</ele>
        <time>2021-03-13T10:45:29Z</time>
      </trkpt>
      <trkpt lat="45.50066" lon="5.70172">
        <ele>421</ele>
        <time>2021-03-13T10:45:33Z</time>
      </trkpt>
      <trkpt lat="45.50057" lon="5.70201">
        <ele>420.4</ele>
        <time>2021-03-13T10:45:37Z</time>
      </trkpt>
      <trkpt lat="45.50044" lon="5.70232">
        <ele>419.4</ele>
        <time>2021-03-13T10:45:41Z</time>
      </trkpt>
      <trkpt lat="45.50035" lon="5.70258">
        <ele>417.8</ele>
        <time>2021-03-13T10:45:45Z</time>
      </trkpt>
      <trkpt lat="45.50034" lon="5.70279">
        <ele>416</ele>
        <time>2021-03-13T10:45:49Z</time>
      </trkpt>
      <trkpt lat="45.50039" lon="5.70307">
        <ele>412.4</ele>
        <time>2021-03-13T10:45:53Z</time>
      </trkpt>
      <trkpt lat="45.50056" lon="5.70339">
        <ele>410</ele>
        <time>2021-03-13T10:45:57Z</time>
      </trkpt>
      <trkpt lat="45.50074" lon="5.70369">
        <ele>408.2</ele>
        <time>2021-03-13T10:46:01Z</time>
      </trkpt>
      <trkpt lat="45.5009" lon="5.70407">
        <ele>406.4</ele>
        <time>2021-03-13T10:46:05Z</time>
      </trkpt>
      <trkpt lat="45.50107" lon="5.70448">
        <ele>403.2</ele>
        <time>2021-03-13T10:46:09Z</time>
      </trkpt>
      <trkpt lat="45.50116" lon="5.70488">
        <ele>399.4</ele>
        <time>2021-03-13T10:46:13Z</time>
      </trkpt>
      <trkpt lat="45.50117" lon="5.70527">
        <ele>397.6</ele>
        <time>2021-03-13T10:46:17Z</time>
      </trkpt>
      <trkpt lat="45.50116" lon="5.70556">
        <ele>395.8</ele>
        <time>2021-03-13T10:46:21Z</time>
      </trkpt>
      <trkpt lat="45.50122" lon="5.70577">
        <ele>394.4</ele>
        <time>2021-03-13T10:46:25Z</time>
      </trkpt>
      <trkpt lat="45.50118" lon="5.70586">
        <ele>394.4</ele>
        <time>2021-03-13T10:46:29Z</time>
      </trkpt>
      <trkpt lat="45.50106" lon="5.70598">
        <ele>393.6</ele>
        <time>2021-03-13T10:46:33Z</time>
      </trkpt>
      <trkpt lat="45.50093" lon="5.7061">
        <ele>393.6</ele>
        <time>2021-03-13T10:46:37Z</time>
      </trkpt>
      <trkpt lat="45.5008" lon="5.70623">
        <ele>392.8</ele>
        <time>2021-03-13T10:46:41Z</time>
      </trkpt>
      <trkpt lat="45.50068" lon="5.70638">
        <ele>392.2</ele>
        <time>2021-03-13T10:46:45Z</time>
      </trkpt>
      <trkpt lat="45.50067" lon="5.70662">
        <ele>392</ele>
        <time>2021-03-13T10:46:49Z</time>
      </trkpt>
      <trkpt lat="45.50072" lon="5.70687">
        <ele>391</ele>
        <time>2021-03-13T10:46:53Z</time>
      </trkpt>
      <trkpt lat="45.50075" lon="5.70697">
        <ele>390.6</ele>
        <time>2021-03-13T10:46:57Z</time>
      </trkpt>
      <trkpt lat="45.50076" lon="5.70706">
        <ele>390.2</ele>
        <time>2021-03-13T10:47:01Z</time>
      </trkpt>
      <trkpt lat="45.50077" lon="5.70706">
        <ele>390.4</ele>
        <time>2021-03-13T10:47:13Z</time>
      </trkpt>
      <trkpt lat="45.50074" lon="5.70694">
        <ele>390.8</ele>
        <time>2021-03-13T10:47:17Z</time>
      </trkpt>
      <trkpt lat="45.50071" lon="5.7068">
        <ele>391.4</ele>
        <time>2021-03-13T10:47:21Z</time>
      </trkpt>
      <trkpt lat="45.50067" lon="5.70665">
        <ele>392</ele>
        <time>2021-03-13T10:47:25Z</time>
      </trkpt>
      <trkpt lat="45.50064" lon="5.70655">
        <ele>392.2</ele>
        <time>2021-03-13T10:47:29Z</time>
      </trkpt>
      <trkpt lat="45.50057" lon="5.70651">
        <ele>393</ele>
        <time>2021-03-13T10:47:33Z</time>
      </trkpt>
      <trkpt lat="45.50046" lon="5.70662">
        <ele>392.8</ele>
        <time>2021-03-13T10:47:37Z</time>
      </trkpt>
      <trkpt lat="45.50034" lon="5.70673">
        <ele>393</ele>
        <time>2021-03-13T10:47:41Z</time>
      </trkpt>
      <trkpt lat="45.50022" lon="5.70687">
        <ele>392.8</ele>
        <time>2021-03-13T10:47:45Z</time>
      </trkpt>
      <trkpt lat="45.50011" lon="5.70703">
        <ele>393</ele>
        <time>2021-03-13T10:47:49Z</time>
      </trkpt>
      <trkpt lat="45.49999" lon="5.7072">
        <ele>393.6</ele>
        <time>2021-03-13T10:47:53Z</time>
      </trkpt>
      <trkpt lat="45.49987" lon="5.70733">
        <ele>393.2</ele>
        <time>2021-03-13T10:47:57Z</time>
      </trkpt>
      <trkpt lat="45.49974" lon="5.70744">
        <ele>393.8</ele>
        <time>2021-03-13T10:48:01Z</time>
      </trkpt>
      <trkpt lat="45.4996" lon="5.70754">
        <ele>394.2</ele>
        <time>2021-03-13T10:48:05Z</time>
      </trkpt>
      <trkpt lat="45.49947" lon="5.70765">
        <ele>394</ele>
        <time>2021-03-13T10:48:09Z</time>
      </trkpt>
      <trkpt lat="45.49935" lon="5.70776">
        <ele>394.8</ele>
        <time>2021-03-13T10:48:13Z</time>
      </trkpt>
      <trkpt lat="45.49922" lon="5.70787">
        <ele>395</ele>
        <time>2021-03-13T10:48:17Z</time>
      </trkpt>
      <trkpt lat="45.49909" lon="5.70799">
        <ele>395</ele>
        <time>2021-03-13T10:48:21Z</time>
      </trkpt>
      <trkpt lat="45.49896" lon="5.70811">
        <ele>394.4</ele>
        <time>2021-03-13T10:48:25Z</time>
      </trkpt>
      <trkpt lat="45.49882" lon="5.70819">
        <ele>394.8</ele>
        <time>2021-03-13T10:48:29Z</time>
      </trkpt>
      <trkpt lat="45.49868" lon="5.70826">
        <ele>394.4</ele>
        <time>2021-03-13T10:48:33Z</time>
      </trkpt>
      <trkpt lat="45.49854" lon="5.70833">
        <ele>395</ele>
        <time>2021-03-13T10:48:37Z</time>
      </trkpt>
      <trkpt lat="45.49839" lon="5.70839">
        <ele>395.4</ele>
        <time>2021-03-13T10:48:41Z</time>
      </trkpt>
      <trkpt lat="45.49826" lon="5.70843">
        <ele>396.2</ele>
        <time>2021-03-13T10:48:45Z</time>
      </trkpt>
      <trkpt lat="45.4981" lon="5.70849">
        <ele>395.6</ele>
        <time>2021-03-13T10:48:49Z</time>
      </trkpt>
      <trkpt lat="45.49796" lon="5.70855">
        <ele>396</ele>
        <time>2021-03-13T10:48:53Z</time>
      </trkpt>
      <trkpt lat="45.49781" lon="5.70862">
        <ele>395.2</ele>
        <time>2021-03-13T10:48:57Z</time>
      </trkpt>
      <trkpt lat="45.49766" lon="5.7087">
        <ele>396</ele>
        <time>2021-03-13T10:49:01Z</time>
      </trkpt>
      <trkpt lat="45.49751" lon="5.70878">
        <ele>396.2</ele>
        <time>2021-03-13T10:49:05Z</time>
      </trkpt>
      <trkpt lat="45.49736" lon="5.70884">
        <ele>396</ele>
        <time>2021-03-13T10:49:09Z</time>
      </trkpt>
      <trkpt lat="45.49722" lon="5.70888">
        <ele>396</ele>
        <time>2021-03-13T10:49:13Z</time>
      </trkpt>
      <trkpt lat="45.49708" lon="5.7089">
        <ele>396.2</ele>
        <time>2021-03-13T10:49:17Z</time>
      </trkpt>
      <trkpt lat="45.49693" lon="5.70891">
        <ele>395.6</ele>
        <time>2021-03-13T10:49:21Z</time>
      </trkpt>
      <trkpt lat="45.49677" lon="5.70889">
        <ele>395.8</ele>
        <time>2021-03-13T10:49:25Z</time>
      </trkpt>
      <trkpt lat="45.4966" lon="5.70885">
        <ele>395</ele>
        <time>2021-03-13T10:49:29Z</time>
      </trkpt>
      <trkpt lat="45.49642" lon="5.70878">
        <ele>394.8</ele>
        <time>2021-03-13T10:49:33Z</time>
      </trkpt>
      <trkpt lat="45.49622" lon="5.70868">
        <ele>393.6</ele>
        <time>2021-03-13T10:49:37Z</time>
      </trkpt>
      <trkpt lat="45.496" lon="5.70855">
        <ele>392.8</ele>
        <time>2021-03-13T10:49:41Z</time>
      </trkpt>
      <trkpt lat="45.49576" lon="5.70838">
        <ele>391</ele>
        <time>2021-03-13T10:49:45Z</time>
      </trkpt>
      <trkpt lat="45.49552" lon="5.70821">
        <ele>390.2</ele>
        <time>2021-03-13T10:49:49Z</time>
      </trkpt>
      <trkpt lat="45.49528" lon="5.70804">
        <ele>389.2</ele>
        <time>2021-03-13T10:49:53Z</time>
      </trkpt>
      <trkpt lat="45.495" lon="5.70795">
        <ele>388.4</ele>
        <time>2021-03-13T10:49:57Z</time>
      </trkpt>
      <trkpt lat="45.49473" lon="5.70782">
        <ele>387.4</ele>
        <time>2021-03-13T10:50:01Z</time>
      </trkpt>
      <trkpt lat="45.49449" lon="5.70767">
        <ele>386.8</ele>
        <time>2021-03-13T10:50:05Z</time>
      </trkpt>
      <trkpt lat="45.49429" lon="5.70747">
        <ele>385.6</ele>
        <time>2021-03-13T10:50:09Z</time>
      </trkpt>
      <trkpt lat="45.49408" lon="5.7073">
        <ele>385</ele>
        <time>2021-03-13T10:50:13Z</time>
      </trkpt>
      <trkpt lat="45.49387" lon="5.70711">
        <ele>384.8</ele>
        <time>2021-03-13T10:50:17Z</time>
      </trkpt>
      <trkpt lat="45.49367" lon="5.70691">
        <ele>383.8</ele>
        <time>2021-03-13T10:50:21Z</time>
      </trkpt>
      <trkpt lat="45.49346" lon="5.70671">
        <ele>381.8</ele>
        <time>2021-03-13T10:50:25Z</time>
      </trkpt>
      <trkpt lat="45.49322" lon="5.70656">
        <ele>381.2</ele>
        <time>2021-03-13T10:50:29Z</time>
      </trkpt>
      <trkpt lat="45.49301" lon="5.70641">
        <ele>380.8</ele>
        <time>2021-03-13T10:50:33Z</time>
      </trkpt>
      <trkpt lat="45.49282" lon="5.70627">
        <ele>380.6</ele>
        <time>2021-03-13T10:50:37Z</time>
      </trkpt>
      <trkpt lat="45.49264" lon="5.70622">
        <ele>380.2</ele>
        <time>2021-03-13T10:50:41Z</time>
      </trkpt>
      <trkpt lat="45.4925" lon="5.70644">
        <ele>379.2</ele>
        <time>2021-03-13T10:50:45Z</time>
      </trkpt>
      <trkpt lat="45.49225" lon="5.70639">
        <ele>376.8</ele>
        <time>2021-03-13T10:50:49Z</time>
      </trkpt>
      <trkpt lat="45.49193" lon="5.70626">
        <ele>374.4</ele>
        <time>2021-03-13T10:50:53Z</time>
      </trkpt>
      <trkpt lat="45.49158" lon="5.70609">
        <ele>371.6</ele>
        <time>2021-03-13T10:50:57Z</time>
      </trkpt>
      <trkpt lat="45.49124" lon="5.70592">
        <ele>369.2</ele>
        <time>2021-03-13T10:51:01Z</time>
      </trkpt>
      <trkpt lat="45.4909" lon="5.70575">
        <ele>368</ele>
        <time>2021-03-13T10:51:05Z</time>
      </trkpt>
      <trkpt lat="45.49058" lon="5.70559">
        <ele>365.2</ele>
        <time>2021-03-13T10:51:09Z</time>
      </trkpt>
      <trkpt lat="45.49028" lon="5.7054">
        <ele>364.2</ele>
        <time>2021-03-13T10:51:13Z</time>
      </trkpt>
      <trkpt lat="45.49003" lon="5.7052">
        <ele>363.8</ele>
        <time>2021-03-13T10:51:17Z</time>
      </trkpt>
      <trkpt lat="45.48983" lon="5.70501">
        <ele>363</ele>
        <time>2021-03-13T10:51:21Z</time>
      </trkpt>
      <trkpt lat="45.48963" lon="5.70483">
        <ele>363.6</ele>
        <time>2021-03-13T10:51:25Z</time>
      </trkpt>
      <trkpt lat="45.48944" lon="5.70466">
        <ele>363.2</ele>
        <time>2021-03-13T10:51:29Z</time>
      </trkpt>
      <trkpt lat="45.48926" lon="5.70448">
        <ele>362.8</ele>
        <time>2021-03-13T10:51:33Z</time>
      </trkpt>
      <trkpt lat="45.48907" lon="5.70437">
        <ele>363</ele>
        <time>2021-03-13T10:51:37Z</time>
      </trkpt>
      <trkpt lat="45.48889" lon="5.70434">
        <ele>362.8</ele>
        <time>2021-03-13T10:51:41Z</time>
      </trkpt>
      <trkpt lat="45.48876" lon="5.70435">
        <ele>363.6</ele>
        <time>2021-03-13T10:51:45Z</time>
      </trkpt>
      <trkpt lat="45.48865" lon="5.70436">
        <ele>363.2</ele>
        <time>2021-03-13T10:51:49Z</time>
      </trkpt>
      <trkpt lat="45.48853" lon="5.70437">
        <ele>363</ele>
        <time>2021-03-13T10:51:53Z</time>
      </trkpt>
      <trkpt lat="45.48841" lon="5.70436">
        <ele>362.4</ele>
        <time>2021-03-13T10:51:57Z</time>
      </trkpt>
      <trkpt lat="45.48833" lon="5.70431">
        <ele>362.4</ele>
        <time>2021-03-13T10:52:01Z</time>
      </trkpt>
      <trkpt lat="45.4883" lon="5.70418">
        <ele>362.6</ele>
        <time>2021-03-13T10:52:05Z</time>
      </trkpt>
      <trkpt lat="45.48829" lon="5.70406">
        <ele>362.4</ele>
        <time>2021-03-13T10:52:09Z</time>
      </trkpt>
      <trkpt lat="45.48828" lon="5.70399">
        <ele>363.2</ele>
        <time>2021-03-13T10:52:13Z</time>
      </trkpt>
      <trkpt lat="45.48832" lon="5.70421">
        <ele>364</ele>
        <time>2021-03-13T11:21:05Z</time>
      </trkpt>
      <trkpt lat="45.48829" lon="5.70435">
        <ele>364.2</ele>
        <time>2021-03-13T11:21:09Z</time>
      </trkpt>
      <trkpt lat="45.48816" lon="5.70439">
        <ele>364.6</ele>
        <time>2021-03-13T11:21:13Z</time>
      </trkpt>
      <trkpt lat="45.48804" lon="5.7044">
        <ele>365.2</ele>
        <time>2021-03-13T11:21:17Z</time>
      </trkpt>
      <trkpt lat="45.48792" lon="5.70442">
        <ele>365.4</ele>
        <time>2021-03-13T11:21:21Z</time>
      </trkpt>
      <trkpt lat="45.48781" lon="5.70442">
        <ele>365.8</ele>
        <time>2021-03-13T11:21:25Z</time>
      </trkpt>
      <trkpt lat="45.48772" lon="5.70444">
        <ele>366.4</ele>
        <time>2021-03-13T11:21:29Z</time>
      </trkpt>
      <trkpt lat="45.48765" lon="5.70445">
        <ele>367</ele>
        <time>2021-03-13T11:21:33Z</time>
      </trkpt>
      <trkpt lat="45.48755" lon="5.70446">
        <ele>367.4</ele>
        <time>2021-03-13T11:21:37Z</time>
      </trkpt>
      <trkpt lat="45.48746" lon="5.70446">
        <ele>368.4</ele>
        <time>2021-03-13T11:21:41Z</time>
      </trkpt>
      <trkpt lat="45.48738" lon="5.70447">
        <ele>368.6</ele>
        <time>2021-03-13T11:21:45Z</time>
      </trkpt>
      <trkpt lat="45.4873" lon="5.7045">
        <ele>369.4</ele>
        <time>2021-03-13T11:21:49Z</time>
      </trkpt>
      <trkpt lat="45.48723" lon="5.70453">
        <ele>369.6</ele>
        <time>2021-03-13T11:21:53Z</time>
      </trkpt>
      <trkpt lat="45.48715" lon="5.70459">
        <ele>370.4</ele>
        <time>2021-03-13T11:21:57Z</time>
      </trkpt>
      <trkpt lat="45.48709" lon="5.70467">
        <ele>371.2</ele>
        <time>2021-03-13T11:22:01Z</time>
      </trkpt>
      <trkpt lat="45.48704" lon="5.70476">
        <ele>372</ele>
        <time>2021-03-13T11:22:05Z</time>
      </trkpt>
      <trkpt lat="45.48701" lon="5.70484">
        <ele>372.2</ele>
        <time>2021-03-13T11:22:09Z</time>
      </trkpt>
      <trkpt lat="45.48699" lon="5.70495">
        <ele>373.2</ele>
        <time>2021-03-13T11:22:13Z</time>
      </trkpt>
      <trkpt lat="45.48698" lon="5.70506">
        <ele>373.6</ele>
        <time>2021-03-13T11:22:17Z</time>
      </trkpt>
      <trkpt lat="45.48698" lon="5.70518">
        <ele>374.6</ele>
        <time>2021-03-13T11:22:21Z</time>
      </trkpt>
      <trkpt lat="45.48699" lon="5.70529">
        <ele>375</ele>
        <time>2021-03-13T11:22:25Z</time>
      </trkpt>
      <trkpt lat="45.48698" lon="5.70539">
        <ele>375.8</ele>
        <time>2021-03-13T11:22:29Z</time>
      </trkpt>
      <trkpt lat="45.48699" lon="5.7055">
        <ele>376.2</ele>
        <time>2021-03-13T11:22:33Z</time>
      </trkpt>
      <trkpt lat="45.487" lon="5.7056">
        <ele>377.2</ele>
        <time>2021-03-13T11:22:37Z</time>
      </trkpt>
      <trkpt lat="45.48703" lon="5.7057">
        <ele>377.6</ele>
        <time>2021-03-13T11:22:41Z</time>
      </trkpt>
      <trkpt lat="45.48706" lon="5.70581">
        <ele>377.8</ele>
        <time>2021-03-13T11:22:45Z</time>
      </trkpt>
      <trkpt lat="45.48712" lon="5.70591">
        <ele>378.8</ele>
        <time>2021-03-13T11:22:49Z</time>
      </trkpt>
      <trkpt lat="45.48719" lon="5.70599">
        <ele>378.6</ele>
        <time>2021-03-13T11:22:53Z</time>
      </trkpt>
      <trkpt lat="45.48725" lon="5.70605">
        <ele>379.2</ele>
        <time>2021-03-13T11:22:57Z</time>
      </trkpt>
      <trkpt lat="45.48732" lon="5.70612">
        <ele>379.8</ele>
        <time>2021-03-13T11:23:01Z</time>
      </trkpt>
      <trkpt lat="45.48738" lon="5.7062">
        <ele>380.6</ele>
        <time>2021-03-13T11:23:05Z</time>
      </trkpt>
      <trkpt lat="45.48742" lon="5.70628">
        <ele>381.4</ele>
        <time>2021-03-13T11:23:09Z</time>
      </trkpt>
      <trkpt lat="45.48741" lon="5.70639">
        <ele>382</ele>
        <time>2021-03-13T11:23:13Z</time>
      </trkpt>
      <trkpt lat="45.4874" lon="5.7065">
        <ele>383.2</ele>
        <time>2021-03-13T11:23:17Z</time>
      </trkpt>
      <trkpt lat="45.48737" lon="5.70661">
        <ele>383.6</ele>
        <time>2021-03-13T11:23:21Z</time>
      </trkpt>
      <trkpt lat="45.48734" lon="5.70671">
        <ele>384</ele>
        <time>2021-03-13T11:23:25Z</time>
      </trkpt>
      <trkpt lat="45.48733" lon="5.7068">
        <ele>384.8</ele>
        <time>2021-03-13T11:23:29Z</time>
      </trkpt>
      <trkpt lat="45.48729" lon="5.7069">
        <ele>385</ele>
        <time>2021-03-13T11:23:33Z</time>
      </trkpt>
      <trkpt lat="45.48726" lon="5.70699">
        <ele>385.4</ele>
        <time>2021-03-13T11:23:37Z</time>
      </trkpt>
      <trkpt lat="45.48723" lon="5.70709">
        <ele>386.4</ele>
        <time>2021-03-13T11:23:41Z</time>
      </trkpt>
      <trkpt lat="45.48717" lon="5.70719">
        <ele>387.6</ele>
        <time>2021-03-13T11:23:45Z</time>
      </trkpt>
      <trkpt lat="45.48709" lon="5.70725">
        <ele>388.2</ele>
        <time>2021-03-13T11:23:49Z</time>
      </trkpt>
      <trkpt lat="45.48702" lon="5.70728">
        <ele>389.4</ele>
        <time>2021-03-13T11:23:53Z</time>
      </trkpt>
      <trkpt lat="45.48693" lon="5.7073">
        <ele>389.6</ele>
        <time>2021-03-13T11:23:57Z</time>
      </trkpt>
      <trkpt lat="45.48685" lon="5.70729">
        <ele>390.4</ele>
        <time>2021-03-13T11:24:01Z</time>
      </trkpt>
      <trkpt lat="45.48678" lon="5.70726">
        <ele>391.2</ele>
        <time>2021-03-13T11:24:05Z</time>
      </trkpt>
      <trkpt lat="45.48672" lon="5.70721">
        <ele>391.6</ele>
        <time>2021-03-13T11:24:09Z</time>
      </trkpt>
      <trkpt lat="45.48665" lon="5.70716">
        <ele>392.2</ele>
        <time>2021-03-13T11:24:13Z</time>
      </trkpt>
      <trkpt lat="45.48659" lon="5.70709">
        <ele>393.2</ele>
        <time>2021-03-13T11:24:17Z</time>
      </trkpt>
      <trkpt lat="45.48652" lon="5.70703">
        <ele>393.4</ele>
        <time>2021-03-13T11:24:21Z</time>
      </trkpt>
      <trkpt lat="45.48646" lon="5.70697">
        <ele>393.4</ele>
        <time>2021-03-13T11:24:25Z</time>
      </trkpt>
      <trkpt lat="45.4864" lon="5.70691">
        <ele>393.6</ele>
        <time>2021-03-13T11:24:29Z</time>
      </trkpt>
      <trkpt lat="45.48635" lon="5.70683">
        <ele>394.4</ele>
        <time>2021-03-13T11:24:33Z</time>
      </trkpt>
      <trkpt lat="45.48628" lon="5.70677">
        <ele>395</ele>
        <time>2021-03-13T11:24:37Z</time>
      </trkpt>
      <trkpt lat="45.48622" lon="5.70671">
        <ele>395.6</ele>
        <time>2021-03-13T11:24:41Z</time>
      </trkpt>
      <trkpt lat="45.48616" lon="5.70664">
        <ele>396</ele>
        <time>2021-03-13T11:24:45Z</time>
      </trkpt>
      <trkpt lat="45.48608" lon="5.70656">
        <ele>397.4</ele>
        <time>2021-03-13T11:24:49Z</time>
      </trkpt>
      <trkpt lat="45.48602" lon="5.70649">
        <ele>398</ele>
        <time>2021-03-13T11:24:53Z</time>
      </trkpt>
      <trkpt lat="45.48595" lon="5.70643">
        <ele>397.6</ele>
        <time>2021-03-13T11:24:57Z</time>
      </trkpt>
      <trkpt lat="45.48587" lon="5.70636">
        <ele>398.2</ele>
        <time>2021-03-13T11:25:01Z</time>
      </trkpt>
      <trkpt lat="45.48579" lon="5.70631">
        <ele>398.4</ele>
        <time>2021-03-13T11:25:05Z</time>
      </trkpt>
      <trkpt lat="45.48572" lon="5.70626">
        <ele>399</ele>
        <time>2021-03-13T11:25:09Z</time>
      </trkpt>
      <trkpt lat="45.48564" lon="5.7062">
        <ele>399.6</ele>
        <time>2021-03-13T11:25:13Z</time>
      </trkpt>
      <trkpt lat="45.48557" lon="5.70615">
        <ele>400.2</ele>
        <time>2021-03-13T11:25:17Z</time>
      </trkpt>
      <trkpt lat="45.4855" lon="5.70611">
        <ele>400.8</ele>
        <time>2021-03-13T11:25:21Z</time>
      </trkpt>
      <trkpt lat="45.48544" lon="5.70606">
        <ele>401.8</ele>
        <time>2021-03-13T11:25:25Z</time>
      </trkpt>
      <trkpt lat="45.48538" lon="5.70602">
        <ele>402.6</ele>
        <time>2021-03-13T11:25:29Z</time>
      </trkpt>
      <trkpt lat="45.48532" lon="5.70597">
        <ele>403.4</ele>
        <time>2021-03-13T11:25:33Z</time>
      </trkpt>
      <trkpt lat="45.48525" lon="5.70592">
        <ele>404.2</ele>
        <time>2021-03-13T11:25:37Z</time>
      </trkpt>
      <trkpt lat="45.48518" lon="5.7059">
        <ele>405.2</ele>
        <time>2021-03-13T11:25:41Z</time>
      </trkpt>
      <trkpt lat="45.48513" lon="5.70597">
        <ele>405.6</ele>
        <time>2021-03-13T11:25:45Z</time>
      </trkpt>
      <trkpt lat="45.48513" lon="5.70608">
        <ele>405.8</ele>
        <time>2021-03-13T11:25:49Z</time>
      </trkpt>
      <trkpt lat="45.48516" lon="5.70618">
        <ele>406.6</ele>
        <time>2021-03-13T11:25:53Z</time>
      </trkpt>
      <trkpt lat="45.4852" lon="5.70628">
        <ele>407</ele>
        <time>2021-03-13T11:25:57Z</time>
      </trkpt>
      <trkpt lat="45.48523" lon="5.70638">
        <ele>408.2</ele>
        <time>2021-03-13T11:26:01Z</time>
      </trkpt>
      <trkpt lat="45.48526" lon="5.70648">
        <ele>408.6</ele>
        <time>2021-03-13T11:26:05Z</time>
      </trkpt>
      <trkpt lat="45.48528" lon="5.70659">
        <ele>409.6</ele>
        <time>2021-03-13T11:26:09Z</time>
      </trkpt>
      <trkpt lat="45.48529" lon="5.7067">
        <ele>410.2</ele>
        <time>2021-03-13T11:26:13Z</time>
      </trkpt>
      <trkpt lat="45.4853" lon="5.70681">
        <ele>410.6</ele>
        <time>2021-03-13T11:26:17Z</time>
      </trkpt>
      <trkpt lat="45.48531" lon="5.70692">
        <ele>411.2</ele>
        <time>2021-03-13T11:26:21Z</time>
      </trkpt>
      <trkpt lat="45.48532" lon="5.70702">
        <ele>411.4</ele>
        <time>2021-03-13T11:26:25Z</time>
      </trkpt>
      <trkpt lat="45.48533" lon="5.70714">
        <ele>411.8</ele>
        <time>2021-03-13T11:26:29Z</time>
      </trkpt>
      <trkpt lat="45.48535" lon="5.70725">
        <ele>412.8</ele>
        <time>2021-03-13T11:26:33Z</time>
      </trkpt>
      <trkpt lat="45.48538" lon="5.70736">
        <ele>413.4</ele>
        <time>2021-03-13T11:26:37Z</time>
      </trkpt>
      <trkpt lat="45.48541" lon="5.70747">
        <ele>413.8</ele>
        <time>2021-03-13T11:26:41Z</time>
      </trkpt>
      <trkpt lat="45.48544" lon="5.70757">
        <ele>414.6</ele>
        <time>2021-03-13T11:26:45Z</time>
      </trkpt>
      <trkpt lat="45.48546" lon="5.70768">
        <ele>415</ele>
        <time>2021-03-13T11:26:49Z</time>
      </trkpt>
      <trkpt lat="45.4855" lon="5.70778">
        <ele>415.6</ele>
        <time>2021-03-13T11:26:53Z</time>
      </trkpt>
      <trkpt lat="45.48554" lon="5.70789">
        <ele>416.4</ele>
        <time>2021-03-13T11:26:57Z</time>
      </trkpt>
      <trkpt lat="45.48557" lon="5.708">
        <ele>417</ele>
        <time>2021-03-13T11:27:01Z</time>
      </trkpt>
      <trkpt lat="45.48561" lon="5.70809">
        <ele>417.4</ele>
        <time>2021-03-13T11:27:05Z</time>
      </trkpt>
      <trkpt lat="45.48565" lon="5.70819">
        <ele>418</ele>
        <time>2021-03-13T11:27:09Z</time>
      </trkpt>
      <trkpt lat="45.48569" lon="5.70829">
        <ele>418.6</ele>
        <time>2021-03-13T11:27:13Z</time>
      </trkpt>
      <trkpt lat="45.48571" lon="5.7084">
        <ele>419.4</ele>
        <time>2021-03-13T11:27:17Z</time>
      </trkpt>
      <trkpt lat="45.48573" lon="5.7085">
        <ele>420.2</ele>
        <time>2021-03-13T11:27:21Z</time>
      </trkpt>
      <trkpt lat="45.48576" lon="5.70861">
        <ele>421</ele>
        <time>2021-03-13T11:27:25Z</time>
      </trkpt>
      <trkpt lat="45.48579" lon="5.70871">
        <ele>421.4</ele>
        <time>2021-03-13T11:27:29Z</time>
      </trkpt>
      <trkpt lat="45.48582" lon="5.70882">
        <ele>422</ele>
        <time>2021-03-13T11:27:33Z</time>
      </trkpt>
      <trkpt lat="45.48585" lon="5.70892">
        <ele>422.4</ele>
        <time>2021-03-13T11:27:37Z</time>
      </trkpt>
      <trkpt lat="45.48589" lon="5.70902">
        <ele>423.2</ele>
        <time>2021-03-13T11:27:41Z</time>
      </trkpt>
      <trkpt lat="45.48593" lon="5.70911">
        <ele>423.8</ele>
        <time>2021-03-13T11:27:45Z</time>
      </trkpt>
      <trkpt lat="45.48597" lon="5.7092">
        <ele>424.8</ele>
        <time>2021-03-13T11:27:49Z</time>
      </trkpt>
      <trkpt lat="45.48601" lon="5.7093">
        <ele>425</ele>
        <time>2021-03-13T11:27:53Z</time>
      </trkpt>
      <trkpt lat="45.48605" lon="5.7094">
        <ele>426</ele>
        <time>2021-03-13T11:27:57Z</time>
      </trkpt>
      <trkpt lat="45.48608" lon="5.70949">
        <ele>426.4</ele>
        <time>2021-03-13T11:28:01Z</time>
      </trkpt>
      <trkpt lat="45.48612" lon="5.70958">
        <ele>427.4</ele>
        <time>2021-03-13T11:28:05Z</time>
      </trkpt>
      <trkpt lat="45.48615" lon="5.70967">
        <ele>428</ele>
        <time>2021-03-13T11:28:09Z</time>
      </trkpt>
      <trkpt lat="45.4862" lon="5.70976">
        <ele>428.4</ele>
        <time>2021-03-13T11:28:13Z</time>
      </trkpt>
      <trkpt lat="45.48625" lon="5.70984">
        <ele>429</ele>
        <time>2021-03-13T11:28:17Z</time>
      </trkpt>
      <trkpt lat="45.4863" lon="5.70991">
        <ele>430</ele>
        <time>2021-03-13T11:28:21Z</time>
      </trkpt>
      <trkpt lat="45.48635" lon="5.70998">
        <ele>430.4</ele>
        <time>2021-03-13T11:28:25Z</time>
      </trkpt>
      <trkpt lat="45.4864" lon="5.71005">
        <ele>430.8</ele>
        <time>2021-03-13T11:28:29Z</time>
      </trkpt>
      <trkpt lat="45.48645" lon="5.71012">
        <ele>431.6</ele>
        <time>2021-03-13T11:28:33Z</time>
      </trkpt>
      <trkpt lat="45.4865" lon="5.71019">
        <ele>432</ele>
        <time>2021-03-13T11:28:37Z</time>
      </trkpt>
      <trkpt lat="45.48656" lon="5.71026">
        <ele>432.8</ele>
        <time>2021-03-13T11:28:41Z</time>
      </trkpt>
      <trkpt lat="45.48661" lon="5.71033">
        <ele>433</ele>
        <time>2021-03-13T11:28:45Z</time>
      </trkpt>
      <trkpt lat="45.48667" lon="5.7104">
        <ele>434.2</ele>
        <time>2021-03-13T11:28:49Z</time>
      </trkpt>
      <trkpt lat="45.48672" lon="5.71047">
        <ele>434.6</ele>
        <time>2021-03-13T11:28:53Z</time>
      </trkpt>
      <trkpt lat="45.48676" lon="5.71054">
        <ele>435.6</ele>
        <time>2021-03-13T11:28:57Z</time>
      </trkpt>
      <trkpt lat="45.48675" lon="5.71061">
        <ele>437.2</ele>
        <time>2021-03-13T11:29:01Z</time>
      </trkpt>
      <trkpt lat="45.48667" lon="5.71065">
        <ele>436.8</ele>
        <time>2021-03-13T11:29:05Z</time>
      </trkpt>
      <trkpt lat="45.4866" lon="5.71064">
        <ele>437.2</ele>
        <time>2021-03-13T11:29:09Z</time>
      </trkpt>
      <trkpt lat="45.48652" lon="5.71062">
        <ele>437.2</ele>
        <time>2021-03-13T11:29:13Z</time>
      </trkpt>
      <trkpt lat="45.48645" lon="5.7106">
        <ele>439.4</ele>
        <time>2021-03-13T11:29:17Z</time>
      </trkpt>
      <trkpt lat="45.48637" lon="5.71058">
        <ele>439.6</ele>
        <time>2021-03-13T11:29:21Z</time>
      </trkpt>
      <trkpt lat="45.48629" lon="5.71055">
        <ele>440.4</ele>
        <time>2021-03-13T11:29:25Z</time>
      </trkpt>
      <trkpt lat="45.48622" lon="5.71053">
        <ele>440.4</ele>
        <time>2021-03-13T11:29:29Z</time>
      </trkpt>
      <trkpt lat="45.48614" lon="5.71051">
        <ele>441.8</ele>
        <time>2021-03-13T11:29:33Z</time>
      </trkpt>
      <trkpt lat="45.48608" lon="5.71049">
        <ele>442.4</ele>
        <time>2021-03-13T11:29:37Z</time>
      </trkpt>
      <trkpt lat="45.48601" lon="5.71046">
        <ele>442.4</ele>
        <time>2021-03-13T11:29:41Z</time>
      </trkpt>
      <trkpt lat="45.48595" lon="5.71043">
        <ele>443.8</ele>
        <time>2021-03-13T11:29:45Z</time>
      </trkpt>
      <trkpt lat="45.48588" lon="5.7104">
        <ele>444.4</ele>
        <time>2021-03-13T11:29:49Z</time>
      </trkpt>
      <trkpt lat="45.48581" lon="5.71038">
        <ele>444.4</ele>
        <time>2021-03-13T11:29:53Z</time>
      </trkpt>
      <trkpt lat="45.48575" lon="5.71035">
        <ele>445.2</ele>
        <time>2021-03-13T11:29:57Z</time>
      </trkpt>
      <trkpt lat="45.48568" lon="5.71033">
        <ele>446.2</ele>
        <time>2021-03-13T11:30:01Z</time>
      </trkpt>
      <trkpt lat="45.48561" lon="5.7103">
        <ele>446.2</ele>
        <time>2021-03-13T11:30:05Z</time>
      </trkpt>
      <trkpt lat="45.48555" lon="5.71028">
        <ele>446.8</ele>
        <time>2021-03-13T11:30:09Z</time>
      </trkpt>
      <trkpt lat="45.48548" lon="5.71025">
        <ele>448</ele>
        <time>2021-03-13T11:30:13Z</time>
      </trkpt>
      <trkpt lat="45.48541" lon="5.71023">
        <ele>448.6</ele>
        <time>2021-03-13T11:30:17Z</time>
      </trkpt>
      <trkpt lat="45.48533" lon="5.71021">
        <ele>449.2</ele>
        <time>2021-03-13T11:30:21Z</time>
      </trkpt>
      <trkpt lat="45.48526" lon="5.7102">
        <ele>449.8</ele>
        <time>2021-03-13T11:30:25Z</time>
      </trkpt>
      <trkpt lat="45.48518" lon="5.71019">
        <ele>450.4</ele>
        <time>2021-03-13T11:30:29Z</time>
      </trkpt>
      <trkpt lat="45.48511" lon="5.71019">
        <ele>451.4</ele>
        <time>2021-03-13T11:30:33Z</time>
      </trkpt>
      <trkpt lat="45.48503" lon="5.71019">
        <ele>451.4</ele>
        <time>2021-03-13T11:30:37Z</time>
      </trkpt>
      <trkpt lat="45.48496" lon="5.71019">
        <ele>451.6</ele>
        <time>2021-03-13T11:30:41Z</time>
      </trkpt>
      <trkpt lat="45.48489" lon="5.7102">
        <ele>452.8</ele>
        <time>2021-03-13T11:30:45Z</time>
      </trkpt>
      <trkpt lat="45.48481" lon="5.7102">
        <ele>453.4</ele>
        <time>2021-03-13T11:30:49Z</time>
      </trkpt>
      <trkpt lat="45.48474" lon="5.71021">
        <ele>454</ele>
        <time>2021-03-13T11:30:53Z</time>
      </trkpt>
      <trkpt lat="45.48466" lon="5.7102">
        <ele>455.8</ele>
        <time>2021-03-13T11:30:57Z</time>
      </trkpt>
      <trkpt lat="45.4846" lon="5.7102">
        <ele>457.4</ele>
        <time>2021-03-13T11:31:01Z</time>
      </trkpt>
      <trkpt lat="45.48454" lon="5.71018">
        <ele>457.4</ele>
        <time>2021-03-13T11:31:05Z</time>
      </trkpt>
      <trkpt lat="45.48448" lon="5.71014">
        <ele>458</ele>
        <time>2021-03-13T11:31:09Z</time>
      </trkpt>
      <trkpt lat="45.48441" lon="5.71011">
        <ele>460.2</ele>
        <time>2021-03-13T11:31:13Z</time>
      </trkpt>
      <trkpt lat="45.48435" lon="5.71007">
        <ele>460.6</ele>
        <time>2021-03-13T11:31:17Z</time>
      </trkpt>
      <trkpt lat="45.48428" lon="5.71002">
        <ele>460</ele>
        <time>2021-03-13T11:31:21Z</time>
      </trkpt>
      <trkpt lat="45.48422" lon="5.70996">
        <ele>459.8</ele>
        <time>2021-03-13T11:31:25Z</time>
      </trkpt>
      <trkpt lat="45.48416" lon="5.7099">
        <ele>460</ele>
        <time>2021-03-13T11:31:29Z</time>
      </trkpt>
      <trkpt lat="45.48409" lon="5.70984">
        <ele>461</ele>
        <time>2021-03-13T11:31:33Z</time>
      </trkpt>
      <trkpt lat="45.48402" lon="5.70979">
        <ele>461.8</ele>
        <time>2021-03-13T11:31:37Z</time>
      </trkpt>
      <trkpt lat="45.48396" lon="5.70973">
        <ele>462.2</ele>
        <time>2021-03-13T11:31:41Z</time>
      </trkpt>
      <trkpt lat="45.4839" lon="5.70969">
        <ele>462.6</ele>
        <time>2021-03-13T11:31:45Z</time>
      </trkpt>
      <trkpt lat="45.48384" lon="5.70965">
        <ele>463.4</ele>
        <time>2021-03-13T11:31:49Z</time>
      </trkpt>
      <trkpt lat="45.48378" lon="5.70961">
        <ele>463.2</ele>
        <time>2021-03-13T11:31:53Z</time>
      </trkpt>
      <trkpt lat="45.48371" lon="5.70958">
        <ele>463.6</ele>
        <time>2021-03-13T11:31:57Z</time>
      </trkpt>
      <trkpt lat="45.48363" lon="5.70957">
        <ele>463.8</ele>
        <time>2021-03-13T11:32:01Z</time>
      </trkpt>
      <trkpt lat="45.48355" lon="5.70957">
        <ele>464.2</ele>
        <time>2021-03-13T11:32:05Z</time>
      </trkpt>
      <trkpt lat="45.48348" lon="5.70956">
        <ele>464</ele>
        <time>2021-03-13T11:32:09Z</time>
      </trkpt>
      <trkpt lat="45.48342" lon="5.70953">
        <ele>465.2</ele>
        <time>2021-03-13T11:32:13Z</time>
      </trkpt>
      <trkpt lat="45.48334" lon="5.70948">
        <ele>466</ele>
        <time>2021-03-13T11:32:17Z</time>
      </trkpt>
      <trkpt lat="45.48321" lon="5.70942">
        <ele>466.4</ele>
        <time>2021-03-13T11:32:21Z</time>
      </trkpt>
      <trkpt lat="45.48311" lon="5.70939">
        <ele>466.4</ele>
        <time>2021-03-13T11:32:25Z</time>
      </trkpt>
      <trkpt lat="45.48302" lon="5.70937">
        <ele>467.4</ele>
        <time>2021-03-13T11:32:29Z</time>
      </trkpt>
      <trkpt lat="45.48295" lon="5.70934">
        <ele>468</ele>
        <time>2021-03-13T11:32:33Z</time>
      </trkpt>
      <trkpt lat="45.48287" lon="5.70931">
        <ele>468.4</ele>
        <time>2021-03-13T11:32:37Z</time>
      </trkpt>
      <trkpt lat="45.48279" lon="5.70927">
        <ele>469.2</ele>
        <time>2021-03-13T11:32:41Z</time>
      </trkpt>
      <trkpt lat="45.48272" lon="5.70922">
        <ele>470</ele>
        <time>2021-03-13T11:32:45Z</time>
      </trkpt>
      <trkpt lat="45.48265" lon="5.70916">
        <ele>470</ele>
        <time>2021-03-13T11:32:49Z</time>
      </trkpt>
      <trkpt lat="45.4826" lon="5.70909">
        <ele>471</ele>
        <time>2021-03-13T11:32:53Z</time>
      </trkpt>
      <trkpt lat="45.48254" lon="5.70902">
        <ele>471.4</ele>
        <time>2021-03-13T11:32:57Z</time>
      </trkpt>
      <trkpt lat="45.48249" lon="5.70894">
        <ele>472</ele>
        <time>2021-03-13T11:33:01Z</time>
      </trkpt>
      <trkpt lat="45.48244" lon="5.70888">
        <ele>472.4</ele>
        <time>2021-03-13T11:33:05Z</time>
      </trkpt>
      <trkpt lat="45.48237" lon="5.70883">
        <ele>473</ele>
        <time>2021-03-13T11:33:09Z</time>
      </trkpt>
      <trkpt lat="45.48229" lon="5.70883">
        <ele>473</ele>
        <time>2021-03-13T11:33:13Z</time>
      </trkpt>
      <trkpt lat="45.48223" lon="5.70888">
        <ele>473.4</ele>
        <time>2021-03-13T11:33:17Z</time>
      </trkpt>
      <trkpt lat="45.48217" lon="5.70898">
        <ele>473.4</ele>
        <time>2021-03-13T11:33:21Z</time>
      </trkpt>
      <trkpt lat="45.48221" lon="5.70924">
        <ele>474.2</ele>
        <time>2021-03-13T11:33:38Z</time>
      </trkpt>
      <trkpt lat="45.48222" lon="5.70936">
        <ele>474.6</ele>
        <time>2021-03-13T11:33:42Z</time>
      </trkpt>
      <trkpt lat="45.48221" lon="5.70949">
        <ele>475.8</ele>
        <time>2021-03-13T11:33:46Z</time>
      </trkpt>
      <trkpt lat="45.48222" lon="5.70962">
        <ele>475.8</ele>
        <time>2021-03-13T11:33:50Z</time>
      </trkpt>
      <trkpt lat="45.48221" lon="5.70975">
        <ele>476.4</ele>
        <time>2021-03-13T11:33:54Z</time>
      </trkpt>
      <trkpt lat="45.48224" lon="5.70988">
        <ele>476.8</ele>
        <time>2021-03-13T11:33:58Z</time>
      </trkpt>
      <trkpt lat="45.48231" lon="5.71">
        <ele>477.6</ele>
        <time>2021-03-13T11:34:02Z</time>
      </trkpt>
      <trkpt lat="45.48238" lon="5.71009">
        <ele>478</ele>
        <time>2021-03-13T11:34:06Z</time>
      </trkpt>
      <trkpt lat="45.48242" lon="5.71017">
        <ele>478.4</ele>
        <time>2021-03-13T11:34:10Z</time>
      </trkpt>
      <trkpt lat="45.48249" lon="5.71026">
        <ele>479</ele>
        <time>2021-03-13T11:34:14Z</time>
      </trkpt>
      <trkpt lat="45.48256" lon="5.71034">
        <ele>480</ele>
        <time>2021-03-13T11:34:18Z</time>
      </trkpt>
      <trkpt lat="45.48261" lon="5.71044">
        <ele>480.8</ele>
        <time>2021-03-13T11:34:22Z</time>
      </trkpt>
      <trkpt lat="45.48266" lon="5.71053">
        <ele>482.2</ele>
        <time>2021-03-13T11:34:26Z</time>
      </trkpt>
      <trkpt lat="45.4827" lon="5.71063">
        <ele>482.2</ele>
        <time>2021-03-13T11:34:30Z</time>
      </trkpt>
      <trkpt lat="45.48274" lon="5.71073">
        <ele>482.2</ele>
        <time>2021-03-13T11:34:34Z</time>
      </trkpt>
      <trkpt lat="45.48277" lon="5.71084">
        <ele>483.2</ele>
        <time>2021-03-13T11:34:38Z</time>
      </trkpt>
      <trkpt lat="45.48278" lon="5.71094">
        <ele>483.6</ele>
        <time>2021-03-13T11:34:42Z</time>
      </trkpt>
      <trkpt lat="45.48281" lon="5.71104">
        <ele>484.4</ele>
        <time>2021-03-13T11:34:46Z</time>
      </trkpt>
      <trkpt lat="45.48284" lon="5.71114">
        <ele>485.2</ele>
        <time>2021-03-13T11:34:50Z</time>
      </trkpt>
      <trkpt lat="45.48285" lon="5.71125">
        <ele>485.8</ele>
        <time>2021-03-13T11:34:54Z</time>
      </trkpt>
      <trkpt lat="45.48289" lon="5.71135">
        <ele>486.2</ele>
        <time>2021-03-13T11:34:58Z</time>
      </trkpt>
      <trkpt lat="45.48293" lon="5.71144">
        <ele>486.6</ele>
        <time>2021-03-13T11:35:02Z</time>
      </trkpt>
      <trkpt lat="45.48298" lon="5.71154">
        <ele>487.6</ele>
        <time>2021-03-13T11:35:06Z</time>
      </trkpt>
      <trkpt lat="45.48303" lon="5.71163">
        <ele>488</ele>
        <time>2021-03-13T11:35:10Z</time>
      </trkpt>
      <trkpt lat="45.48309" lon="5.71172">
        <ele>488.6</ele>
        <time>2021-03-13T11:35:14Z</time>
      </trkpt>
      <trkpt lat="45.48314" lon="5.7118">
        <ele>489.2</ele>
        <time>2021-03-13T11:35:18Z</time>
      </trkpt>
      <trkpt lat="45.48319" lon="5.71189">
        <ele>489.4</ele>
        <time>2021-03-13T11:35:22Z</time>
      </trkpt>
      <trkpt lat="45.48324" lon="5.71197">
        <ele>490.4</ele>
        <time>2021-03-13T11:35:26Z</time>
      </trkpt>
      <trkpt lat="45.4833" lon="5.71206">
        <ele>490.8</ele>
        <time>2021-03-13T11:35:30Z</time>
      </trkpt>
      <trkpt lat="45.48334" lon="5.71215">
        <ele>491.8</ele>
        <time>2021-03-13T11:35:34Z</time>
      </trkpt>
      <trkpt lat="45.48337" lon="5.71224">
        <ele>492.6</ele>
        <time>2021-03-13T11:35:38Z</time>
      </trkpt>
      <trkpt lat="45.48341" lon="5.71233">
        <ele>493.4</ele>
        <time>2021-03-13T11:35:42Z</time>
      </trkpt>
      <trkpt lat="45.48344" lon="5.71243">
        <ele>494.2</ele>
        <time>2021-03-13T11:35:46Z</time>
      </trkpt>
      <trkpt lat="45.48349" lon="5.71252">
        <ele>494.8</ele>
        <time>2021-03-13T11:35:50Z</time>
      </trkpt>
      <trkpt lat="45.48353" lon="5.71263">
        <ele>495.2</ele>
        <time>2021-03-13T11:35:54Z</time>
      </trkpt>
      <trkpt lat="45.48356" lon="5.71273">
        <ele>495.6</ele>
        <time>2021-03-13T11:35:58Z</time>
      </trkpt>
      <trkpt lat="45.48359" lon="5.71282">
        <ele>496.4</ele>
        <time>2021-03-13T11:36:02Z</time>
      </trkpt>
      <trkpt lat="45.48364" lon="5.7129">
        <ele>496.8</ele>
        <time>2021-03-13T11:36:06Z</time>
      </trkpt>
      <trkpt lat="45.48369" lon="5.71298">
        <ele>497.8</ele>
        <time>2021-03-13T11:36:10Z</time>
      </trkpt>
      <trkpt lat="45.48375" lon="5.71306">
        <ele>498.6</ele>
        <time>2021-03-13T11:36:14Z</time>
      </trkpt>
      <trkpt lat="45.48381" lon="5.71315">
        <ele>499</ele>
        <time>2021-03-13T11:36:18Z</time>
      </trkpt>
      <trkpt lat="45.48385" lon="5.71324">
        <ele>499.4</ele>
        <time>2021-03-13T11:36:22Z</time>
      </trkpt>
      <trkpt lat="45.48389" lon="5.71334">
        <ele>500.2</ele>
        <time>2021-03-13T11:36:26Z</time>
      </trkpt>
      <trkpt lat="45.48394" lon="5.71343">
        <ele>500.6</ele>
        <time>2021-03-13T11:36:30Z</time>
      </trkpt>
      <trkpt lat="45.48398" lon="5.71352">
        <ele>501.4</ele>
        <time>2021-03-13T11:36:34Z</time>
      </trkpt>
      <trkpt lat="45.48401" lon="5.71362">
        <ele>501.4</ele>
        <time>2021-03-13T11:36:38Z</time>
      </trkpt>
      <trkpt lat="45.48404" lon="5.71371">
        <ele>502.6</ele>
        <time>2021-03-13T11:36:42Z</time>
      </trkpt>
      <trkpt lat="45.48406" lon="5.71382">
        <ele>503.2</ele>
        <time>2021-03-13T11:36:46Z</time>
      </trkpt>
      <trkpt lat="45.48409" lon="5.71393">
        <ele>503.6</ele>
        <time>2021-03-13T11:36:50Z</time>
      </trkpt>
      <trkpt lat="45.4841" lon="5.71403">
        <ele>504</ele>
        <time>2021-03-13T11:36:54Z</time>
      </trkpt>
      <trkpt lat="45.48411" lon="5.71413">
        <ele>505.2</ele>
        <time>2021-03-13T11:36:58Z</time>
      </trkpt>
      <trkpt lat="45.48411" lon="5.71423">
        <ele>505.6</ele>
        <time>2021-03-13T11:37:02Z</time>
      </trkpt>
      <trkpt lat="45.48411" lon="5.71432">
        <ele>506.2</ele>
        <time>2021-03-13T11:37:06Z</time>
      </trkpt>
      <trkpt lat="45.48411" lon="5.7144">
        <ele>506.6</ele>
        <time>2021-03-13T11:37:10Z</time>
      </trkpt>
      <trkpt lat="45.48412" lon="5.7145">
        <ele>507.6</ele>
        <time>2021-03-13T11:37:14Z</time>
      </trkpt>
      <trkpt lat="45.48413" lon="5.71459">
        <ele>508.4</ele>
        <time>2021-03-13T11:37:18Z</time>
      </trkpt>
      <trkpt lat="45.48414" lon="5.71468">
        <ele>509.2</ele>
        <time>2021-03-13T11:37:22Z</time>
      </trkpt>
      <trkpt lat="45.48414" lon="5.71478">
        <ele>510</ele>
        <time>2021-03-13T11:37:26Z</time>
      </trkpt>
      <trkpt lat="45.48417" lon="5.71489">
        <ele>510.4</ele>
        <time>2021-03-13T11:37:30Z</time>
      </trkpt>
      <trkpt lat="45.48417" lon="5.71499">
        <ele>511</ele>
        <time>2021-03-13T11:37:34Z</time>
      </trkpt>
      <trkpt lat="45.48423" lon="5.71509">
        <ele>511.4</ele>
        <time>2021-03-13T11:37:38Z</time>
      </trkpt>
      <trkpt lat="45.48429" lon="5.71521">
        <ele>512.4</ele>
        <time>2021-03-13T11:37:42Z</time>
      </trkpt>
      <trkpt lat="45.48436" lon="5.7153">
        <ele>513</ele>
        <time>2021-03-13T11:37:46Z</time>
      </trkpt>
      <trkpt lat="45.48443" lon="5.71537">
        <ele>513.6</ele>
        <time>2021-03-13T11:37:50Z</time>
      </trkpt>
      <trkpt lat="45.4845" lon="5.71544">
        <ele>514.2</ele>
        <time>2021-03-13T11:37:54Z</time>
      </trkpt>
      <trkpt lat="45.48457" lon="5.71551">
        <ele>514.6</ele>
        <time>2021-03-13T11:37:58Z</time>
      </trkpt>
      <trkpt lat="45.48463" lon="5.71558">
        <ele>515.4</ele>
        <time>2021-03-13T11:38:02Z</time>
      </trkpt>
      <trkpt lat="45.48468" lon="5.71568">
        <ele>515.6</ele>
        <time>2021-03-13T11:38:06Z</time>
      </trkpt>
      <trkpt lat="45.48469" lon="5.7158">
        <ele>516</ele>
        <time>2021-03-13T11:38:10Z</time>
      </trkpt>
      <trkpt lat="45.48466" lon="5.71593">
        <ele>516.4</ele>
        <time>2021-03-13T11:38:14Z</time>
      </trkpt>
      <trkpt lat="45.48459" lon="5.716">
        <ele>517</ele>
        <time>2021-03-13T11:38:18Z</time>
      </trkpt>
      <trkpt lat="45.48452" lon="5.71604">
        <ele>517.4</ele>
        <time>2021-03-13T11:38:22Z</time>
      </trkpt>
      <trkpt lat="45.48444" lon="5.71606">
        <ele>517.4</ele>
        <time>2021-03-13T11:38:26Z</time>
      </trkpt>
      <trkpt lat="45.48437" lon="5.71607">
        <ele>518.4</ele>
        <time>2021-03-13T11:38:30Z</time>
      </trkpt>
      <trkpt lat="45.4843" lon="5.71608">
        <ele>519.2</ele>
        <time>2021-03-13T11:38:34Z</time>
      </trkpt>
      <trkpt lat="45.48423" lon="5.7161">
        <ele>519.8</ele>
        <time>2021-03-13T11:38:38Z</time>
      </trkpt>
      <trkpt lat="45.48416" lon="5.71614">
        <ele>521.2</ele>
        <time>2021-03-13T11:38:42Z</time>
      </trkpt>
      <trkpt lat="45.48409" lon="5.71617">
        <ele>522</ele>
        <time>2021-03-13T11:38:46Z</time>
      </trkpt>
      <trkpt lat="45.48402" lon="5.7162">
        <ele>522.6</ele>
        <time>2021-03-13T11:38:50Z</time>
      </trkpt>
      <trkpt lat="45.48394" lon="5.71618">
        <ele>523.2</ele>
        <time>2021-03-13T11:38:54Z</time>
      </trkpt>
      <trkpt lat="45.48389" lon="5.7161">
        <ele>523.8</ele>
        <time>2021-03-13T11:38:58Z</time>
      </trkpt>
      <trkpt lat="45.48387" lon="5.716">
        <ele>524.4</ele>
        <time>2021-03-13T11:39:02Z</time>
      </trkpt>
      <trkpt lat="45.48387" lon="5.71589">
        <ele>525</ele>
        <time>2021-03-13T11:39:06Z</time>
      </trkpt>
      <trkpt lat="45.48387" lon="5.71579">
        <ele>525.4</ele>
        <time>2021-03-13T11:39:10Z</time>
      </trkpt>
      <trkpt lat="45.48386" lon="5.71569">
        <ele>526.2</ele>
        <time>2021-03-13T11:39:14Z</time>
      </trkpt>
      <trkpt lat="45.48385" lon="5.71557">
        <ele>526.4</ele>
        <time>2021-03-13T11:39:18Z</time>
      </trkpt>
      <trkpt lat="45.48382" lon="5.71547">
        <ele>527</ele>
        <time>2021-03-13T11:39:22Z</time>
      </trkpt>
      <trkpt lat="45.48381" lon="5.71539">
        <ele>527</ele>
        <time>2021-03-13T11:39:26Z</time>
      </trkpt>
      <trkpt lat="45.48377" lon="5.7153">
        <ele>528.2</ele>
        <time>2021-03-13T11:39:30Z</time>
      </trkpt>
      <trkpt lat="45.48372" lon="5.71523">
        <ele>529</ele>
        <time>2021-03-13T11:39:34Z</time>
      </trkpt>
      <trkpt lat="45.48368" lon="5.71515">
        <ele>529</ele>
        <time>2021-03-13T11:39:38Z</time>
      </trkpt>
      <trkpt lat="45.48362" lon="5.71508">
        <ele>530.2</ele>
        <time>2021-03-13T11:39:42Z</time>
      </trkpt>
      <trkpt lat="45.48357" lon="5.71501">
        <ele>530.6</ele>
        <time>2021-03-13T11:39:46Z</time>
      </trkpt>
      <trkpt lat="45.48351" lon="5.71494">
        <ele>531.4</ele>
        <time>2021-03-13T11:39:50Z</time>
      </trkpt>
      <trkpt lat="45.48347" lon="5.71485">
        <ele>531.6</ele>
        <time>2021-03-13T11:39:54Z</time>
      </trkpt>
      <trkpt lat="45.48343" lon="5.71476">
        <ele>531.8</ele>
        <time>2021-03-13T11:39:58Z</time>
      </trkpt>
      <trkpt lat="45.4834" lon="5.71468">
        <ele>532.6</ele>
        <time>2021-03-13T11:40:02Z</time>
      </trkpt>
      <trkpt lat="45.48337" lon="5.71458">
        <ele>533.4</ele>
        <time>2021-03-13T11:40:06Z</time>
      </trkpt>
      <trkpt lat="45.48334" lon="5.71447">
        <ele>534.4</ele>
        <time>2021-03-13T11:40:10Z</time>
      </trkpt>
      <trkpt lat="45.4833" lon="5.71436">
        <ele>534.4</ele>
        <time>2021-03-13T11:40:14Z</time>
      </trkpt>
      <trkpt lat="45.48327" lon="5.71425">
        <ele>535.6</ele>
        <time>2021-03-13T11:40:18Z</time>
      </trkpt>
      <trkpt lat="45.48326" lon="5.71415">
        <ele>536.4</ele>
        <time>2021-03-13T11:40:22Z</time>
      </trkpt>
      <trkpt lat="45.48323" lon="5.71406">
        <ele>536.6</ele>
        <time>2021-03-13T11:40:26Z</time>
      </trkpt>
      <trkpt lat="45.4832" lon="5.71398">
        <ele>537.2</ele>
        <time>2021-03-13T11:40:30Z</time>
      </trkpt>
      <trkpt lat="45.48316" lon="5.71389">
        <ele>538</ele>
        <time>2021-03-13T11:40:34Z</time>
      </trkpt>
      <trkpt lat="45.48311" lon="5.71383">
        <ele>538.6</ele>
        <time>2021-03-13T11:40:38Z</time>
      </trkpt>
      <trkpt lat="45.48303" lon="5.71378">
        <ele>539.6</ele>
        <time>2021-03-13T11:40:42Z</time>
      </trkpt>
      <trkpt lat="45.48297" lon="5.71373">
        <ele>539.8</ele>
        <time>2021-03-13T11:40:46Z</time>
      </trkpt>
      <trkpt lat="45.48291" lon="5.71368">
        <ele>540.4</ele>
        <time>2021-03-13T11:40:50Z</time>
      </trkpt>
      <trkpt lat="45.48285" lon="5.71364">
        <ele>541</ele>
        <time>2021-03-13T11:40:54Z</time>
      </trkpt>
      <trkpt lat="45.4828" lon="5.71358">
        <ele>541.4</ele>
        <time>2021-03-13T11:40:58Z</time>
      </trkpt>
      <trkpt lat="45.48275" lon="5.71351">
        <ele>542.2</ele>
        <time>2021-03-13T11:41:02Z</time>
      </trkpt>
      <trkpt lat="45.48271" lon="5.71342">
        <ele>542.6</ele>
        <time>2021-03-13T11:41:06Z</time>
      </trkpt>
      <trkpt lat="45.48267" lon="5.71333">
        <ele>542.8</ele>
        <time>2021-03-13T11:41:10Z</time>
      </trkpt>
      <trkpt lat="45.48261" lon="5.71325">
        <ele>544</ele>
        <time>2021-03-13T11:41:14Z</time>
      </trkpt>
      <trkpt lat="45.48253" lon="5.71324">
        <ele>544.2</ele>
        <time>2021-03-13T11:41:18Z</time>
      </trkpt>
      <trkpt lat="45.48248" lon="5.71331">
        <ele>544.8</ele>
        <time>2021-03-13T11:41:22Z</time>
      </trkpt>
      <trkpt lat="45.48245" lon="5.71342">
        <ele>545.4</ele>
        <time>2021-03-13T11:41:26Z</time>
      </trkpt>
      <trkpt lat="45.48247" lon="5.71353">
        <ele>545.8</ele>
        <time>2021-03-13T11:41:30Z</time>
      </trkpt>
      <trkpt lat="45.48249" lon="5.71364">
        <ele>545.6</ele>
        <time>2021-03-13T11:41:34Z</time>
      </trkpt>
      <trkpt lat="45.48247" lon="5.71372">
        <ele>546.6</ele>
        <time>2021-03-13T11:41:38Z</time>
      </trkpt>
      <trkpt lat="45.48249" lon="5.71382">
        <ele>547.4</ele>
        <time>2021-03-13T11:41:42Z</time>
      </trkpt>
      <trkpt lat="45.48251" lon="5.71392">
        <ele>547.4</ele>
        <time>2021-03-13T11:41:46Z</time>
      </trkpt>
      <trkpt lat="45.48254" lon="5.71402">
        <ele>548.2</ele>
        <time>2021-03-13T11:41:50Z</time>
      </trkpt>
      <trkpt lat="45.48257" lon="5.71413">
        <ele>548.4</ele>
        <time>2021-03-13T11:41:54Z</time>
      </trkpt>
      <trkpt lat="45.48258" lon="5.71424">
        <ele>548.8</ele>
        <time>2021-03-13T11:41:58Z</time>
      </trkpt>
      <trkpt lat="45.48255" lon="5.71434">
        <ele>549.6</ele>
        <time>2021-03-13T11:42:02Z</time>
      </trkpt>
      <trkpt lat="45.48256" lon="5.71438">
        <ele>550.6</ele>
        <time>2021-03-13T11:42:06Z</time>
      </trkpt>
      <trkpt lat="45.48251" lon="5.71434">
        <ele>551.2</ele>
        <time>2021-03-13T11:42:10Z</time>
      </trkpt>
      <trkpt lat="45.48249" lon="5.71428">
        <ele>551</ele>
        <time>2021-03-13T11:42:14Z</time>
      </trkpt>
      <trkpt lat="45.48245" lon="5.71421">
        <ele>551.8</ele>
        <time>2021-03-13T11:42:18Z</time>
      </trkpt>
      <trkpt lat="45.4824" lon="5.71413">
        <ele>552.4</ele>
        <time>2021-03-13T11:42:22Z</time>
      </trkpt>
      <trkpt lat="45.48238" lon="5.71407">
        <ele>552.8</ele>
        <time>2021-03-13T11:42:26Z</time>
      </trkpt>
      <trkpt lat="45.48235" lon="5.71402">
        <ele>553.4</ele>
        <time>2021-03-13T11:42:30Z</time>
      </trkpt>
      <trkpt lat="45.4823" lon="5.71395">
        <ele>554</ele>
        <time>2021-03-13T11:42:34Z</time>
      </trkpt>
      <trkpt lat="45.48226" lon="5.71387">
        <ele>554.6</ele>
        <time>2021-03-13T11:42:38Z</time>
      </trkpt>
      <trkpt lat="45.48221" lon="5.71378">
        <ele>555.4</ele>
        <time>2021-03-13T11:42:42Z</time>
      </trkpt>
      <trkpt lat="45.48221" lon="5.71378">
        <ele>556</ele>
        <time>2021-03-13T11:42:46Z</time>
      </trkpt>
      <trkpt lat="45.48216" lon="5.71369">
        <ele>556.2</ele>
        <time>2021-03-13T11:42:50Z</time>
      </trkpt>
      <trkpt lat="45.48211" lon="5.71358">
        <ele>557</ele>
        <time>2021-03-13T11:42:54Z</time>
      </trkpt>
      <trkpt lat="45.48206" lon="5.71349">
        <ele>557.8</ele>
        <time>2021-03-13T11:42:58Z</time>
      </trkpt>
      <trkpt lat="45.48201" lon="5.71339">
        <ele>558.4</ele>
        <time>2021-03-13T11:43:02Z</time>
      </trkpt>
      <trkpt lat="45.48197" lon="5.71329">
        <ele>558.6</ele>
        <time>2021-03-13T11:43:06Z</time>
      </trkpt>
      <trkpt lat="45.48194" lon="5.71318">
        <ele>559.4</ele>
        <time>2021-03-13T11:43:10Z</time>
      </trkpt>
      <trkpt lat="45.48192" lon="5.71307">
        <ele>559.8</ele>
        <time>2021-03-13T11:43:14Z</time>
      </trkpt>
      <trkpt lat="45.4819" lon="5.71296">
        <ele>560.4</ele>
        <time>2021-03-13T11:43:18Z</time>
      </trkpt>
      <trkpt lat="45.48189" lon="5.71285">
        <ele>560.8</ele>
        <time>2021-03-13T11:43:22Z</time>
      </trkpt>
      <trkpt lat="45.48182" lon="5.71279">
        <ele>561.2</ele>
        <time>2021-03-13T11:43:26Z</time>
      </trkpt>
      <trkpt lat="45.48174" lon="5.71281">
        <ele>562.2</ele>
        <time>2021-03-13T11:43:30Z</time>
      </trkpt>
      <trkpt lat="45.4817" lon="5.71289">
        <ele>562.8</ele>
        <time>2021-03-13T11:43:34Z</time>
      </trkpt>
      <trkpt lat="45.48171" lon="5.71299">
        <ele>563.6</ele>
        <time>2021-03-13T11:43:38Z</time>
      </trkpt>
      <trkpt lat="45.48171" lon="5.71309">
        <ele>564.2</ele>
        <time>2021-03-13T11:43:42Z</time>
      </trkpt>
      <trkpt lat="45.48172" lon="5.71318">
        <ele>564.6</ele>
        <time>2021-03-13T11:43:46Z</time>
      </trkpt>
      <trkpt lat="45.4817" lon="5.71326">
        <ele>565.4</ele>
        <time>2021-03-13T11:43:50Z</time>
      </trkpt>
      <trkpt lat="45.48171" lon="5.71334">
        <ele>565.8</ele>
        <time>2021-03-13T11:43:54Z</time>
      </trkpt>
      <trkpt lat="45.48172" lon="5.71343">
        <ele>566.4</ele>
        <time>2021-03-13T11:43:58Z</time>
      </trkpt>
      <trkpt lat="45.4817" lon="5.71349">
        <ele>567.2</ele>
        <time>2021-03-13T11:44:02Z</time>
      </trkpt>
      <trkpt lat="45.48173" lon="5.71359">
        <ele>567.6</ele>
        <time>2021-03-13T11:44:06Z</time>
      </trkpt>
      <trkpt lat="45.48172" lon="5.71368">
        <ele>567.8</ele>
        <time>2021-03-13T11:44:10Z</time>
      </trkpt>
      <trkpt lat="45.48173" lon="5.71378">
        <ele>568.8</ele>
        <time>2021-03-13T11:44:14Z</time>
      </trkpt>
      <trkpt lat="45.48173" lon="5.71387">
        <ele>569.4</ele>
        <time>2021-03-13T11:44:18Z</time>
      </trkpt>
      <trkpt lat="45.48177" lon="5.71396">
        <ele>569.8</ele>
        <time>2021-03-13T11:44:22Z</time>
      </trkpt>
      <trkpt lat="45.48182" lon="5.71406">
        <ele>570.4</ele>
        <time>2021-03-13T11:44:26Z</time>
      </trkpt>
      <trkpt lat="45.48185" lon="5.71414">
        <ele>571</ele>
        <time>2021-03-13T11:44:30Z</time>
      </trkpt>
      <trkpt lat="45.48188" lon="5.71423">
        <ele>571.4</ele>
        <time>2021-03-13T11:44:34Z</time>
      </trkpt>
      <trkpt lat="45.48193" lon="5.71433">
        <ele>572.2</ele>
        <time>2021-03-13T11:44:38Z</time>
      </trkpt>
      <trkpt lat="45.48195" lon="5.71442">
        <ele>572.8</ele>
        <time>2021-03-13T11:44:42Z</time>
      </trkpt>
      <trkpt lat="45.48197" lon="5.7145">
        <ele>573.8</ele>
        <time>2021-03-13T11:44:46Z</time>
      </trkpt>
      <trkpt lat="45.48201" lon="5.7146">
        <ele>574.2</ele>
        <time>2021-03-13T11:44:50Z</time>
      </trkpt>
      <trkpt lat="45.48201" lon="5.71468">
        <ele>575</ele>
        <time>2021-03-13T11:44:54Z</time>
      </trkpt>
      <trkpt lat="45.48198" lon="5.71476">
        <ele>575</ele>
        <time>2021-03-13T11:44:58Z</time>
      </trkpt>
      <trkpt lat="45.48193" lon="5.71482">
        <ele>575.6</ele>
        <time>2021-03-13T11:45:02Z</time>
      </trkpt>
      <trkpt lat="45.48189" lon="5.71489">
        <ele>576.2</ele>
        <time>2021-03-13T11:45:06Z</time>
      </trkpt>
      <trkpt lat="45.48185" lon="5.71493">
        <ele>577</ele>
        <time>2021-03-13T11:45:10Z</time>
      </trkpt>
      <trkpt lat="45.48179" lon="5.71497">
        <ele>577.6</ele>
        <time>2021-03-13T11:45:14Z</time>
      </trkpt>
      <trkpt lat="45.48176" lon="5.71499">
        <ele>577.8</ele>
        <time>2021-03-13T11:45:18Z</time>
      </trkpt>
      <trkpt lat="45.48169" lon="5.71503">
        <ele>578.8</ele>
        <time>2021-03-13T11:45:22Z</time>
      </trkpt>
      <trkpt lat="45.48161" lon="5.71507">
        <ele>579.6</ele>
        <time>2021-03-13T11:45:26Z</time>
      </trkpt>
      <trkpt lat="45.48155" lon="5.71512">
        <ele>580.4</ele>
        <time>2021-03-13T11:45:30Z</time>
      </trkpt>
      <trkpt lat="45.4815" lon="5.71519">
        <ele>581</ele>
        <time>2021-03-13T11:45:34Z</time>
      </trkpt>
      <trkpt lat="45.48144" lon="5.71527">
        <ele>581.6</ele>
        <time>2021-03-13T11:45:38Z</time>
      </trkpt>
      <trkpt lat="45.4814" lon="5.71535">
        <ele>582.6</ele>
        <time>2021-03-13T11:45:42Z</time>
      </trkpt>
      <trkpt lat="45.48136" lon="5.71544">
        <ele>582</ele>
        <time>2021-03-13T11:45:46Z</time>
      </trkpt>
      <trkpt lat="45.48131" lon="5.71552">
        <ele>583.2</ele>
        <time>2021-03-13T11:45:50Z</time>
      </trkpt>
      <trkpt lat="45.48128" lon="5.7156">
        <ele>583.2</ele>
        <time>2021-03-13T11:45:54Z</time>
      </trkpt>
      <trkpt lat="45.48125" lon="5.7157">
        <ele>584.6</ele>
        <time>2021-03-13T11:45:58Z</time>
      </trkpt>
      <trkpt lat="45.48122" lon="5.71578">
        <ele>585</ele>
        <time>2021-03-13T11:46:02Z</time>
      </trkpt>
      <trkpt lat="45.48119" lon="5.71587">
        <ele>586.2</ele>
        <time>2021-03-13T11:46:06Z</time>
      </trkpt>
      <trkpt lat="45.48117" lon="5.71597">
        <ele>587</ele>
        <time>2021-03-13T11:46:10Z</time>
      </trkpt>
      <trkpt lat="45.48113" lon="5.71607">
        <ele>587</ele>
        <time>2021-03-13T11:46:14Z</time>
      </trkpt>
      <trkpt lat="45.48107" lon="5.71612">
        <ele>587.4</ele>
        <time>2021-03-13T11:46:18Z</time>
      </trkpt>
      <trkpt lat="45.48102" lon="5.71617">
        <ele>588.8</ele>
        <time>2021-03-13T11:46:22Z</time>
      </trkpt>
      <trkpt lat="45.48096" lon="5.7162">
        <ele>589.2</ele>
        <time>2021-03-13T11:46:26Z</time>
      </trkpt>
      <trkpt lat="45.48091" lon="5.71623">
        <ele>589.4</ele>
        <time>2021-03-13T11:46:30Z</time>
      </trkpt>
      <trkpt lat="45.48088" lon="5.71622">
        <ele>590</ele>
        <time>2021-03-13T11:46:34Z</time>
      </trkpt>
      <trkpt lat="45.48085" lon="5.71622">
        <ele>590.8</ele>
        <time>2021-03-13T11:46:38Z</time>
      </trkpt>
      <trkpt lat="45.48078" lon="5.71619">
        <ele>591.8</ele>
        <time>2021-03-13T11:47:11Z</time>
      </trkpt>
      <trkpt lat="45.48072" lon="5.71615">
        <ele>591.8</ele>
        <time>2021-03-13T11:47:15Z</time>
      </trkpt>
      <trkpt lat="45.48067" lon="5.71609">
        <ele>592.8</ele>
        <time>2021-03-13T11:47:19Z</time>
      </trkpt>
      <trkpt lat="45.48064" lon="5.71604">
        <ele>593.4</ele>
        <time>2021-03-13T11:47:23Z</time>
      </trkpt>
      <trkpt lat="45.4806" lon="5.71597">
        <ele>594.8</ele>
        <time>2021-03-13T11:47:27Z</time>
      </trkpt>
      <trkpt lat="45.48056" lon="5.71591">
        <ele>594.6</ele>
        <time>2021-03-13T11:47:31Z</time>
      </trkpt>
      <trkpt lat="45.48051" lon="5.71583">
        <ele>595.4</ele>
        <time>2021-03-13T11:47:35Z</time>
      </trkpt>
      <trkpt lat="45.48045" lon="5.71576">
        <ele>595.8</ele>
        <time>2021-03-13T11:47:39Z</time>
      </trkpt>
      <trkpt lat="45.4804" lon="5.7157">
        <ele>597.2</ele>
        <time>2021-03-13T11:47:43Z</time>
      </trkpt>
      <trkpt lat="45.48034" lon="5.71564">
        <ele>597.8</ele>
        <time>2021-03-13T11:47:47Z</time>
      </trkpt>
      <trkpt lat="45.48029" lon="5.71557">
        <ele>599.4</ele>
        <time>2021-03-13T11:47:51Z</time>
      </trkpt>
      <trkpt lat="45.48024" lon="5.71551">
        <ele>599.2</ele>
        <time>2021-03-13T11:47:55Z</time>
      </trkpt>
      <trkpt lat="45.48019" lon="5.71545">
        <ele>600</ele>
        <time>2021-03-13T11:47:59Z</time>
      </trkpt>
      <trkpt lat="45.48013" lon="5.71539">
        <ele>599.8</ele>
        <time>2021-03-13T11:48:03Z</time>
      </trkpt>
      <trkpt lat="45.48008" lon="5.71534">
        <ele>601</ele>
        <time>2021-03-13T11:48:07Z</time>
      </trkpt>
      <trkpt lat="45.48003" lon="5.71528">
        <ele>601.8</ele>
        <time>2021-03-13T11:48:11Z</time>
      </trkpt>
      <trkpt lat="45.47998" lon="5.71522">
        <ele>602.2</ele>
        <time>2021-03-13T11:48:15Z</time>
      </trkpt>
      <trkpt lat="45.47993" lon="5.71515">
        <ele>602.8</ele>
        <time>2021-03-13T11:48:19Z</time>
      </trkpt>
      <trkpt lat="45.47989" lon="5.71509">
        <ele>603.6</ele>
        <time>2021-03-13T11:48:23Z</time>
      </trkpt>
      <trkpt lat="45.47984" lon="5.71502">
        <ele>604.2</ele>
        <time>2021-03-13T11:48:27Z</time>
      </trkpt>
      <trkpt lat="45.47982" lon="5.71494">
        <ele>604.6</ele>
        <time>2021-03-13T11:48:31Z</time>
      </trkpt>
      <trkpt lat="45.47977" lon="5.71487">
        <ele>605.2</ele>
        <time>2021-03-13T11:48:35Z</time>
      </trkpt>
      <trkpt lat="45.47973" lon="5.7148">
        <ele>606.2</ele>
        <time>2021-03-13T11:48:39Z</time>
      </trkpt>
      <trkpt lat="45.47969" lon="5.71473">
        <ele>606.4</ele>
        <time>2021-03-13T11:48:43Z</time>
      </trkpt>
      <trkpt lat="45.47965" lon="5.71466">
        <ele>607.6</ele>
        <time>2021-03-13T11:48:47Z</time>
      </trkpt>
      <trkpt lat="45.4796" lon="5.71459">
        <ele>608.4</ele>
        <time>2021-03-13T11:48:51Z</time>
      </trkpt>
      <trkpt lat="45.47957" lon="5.71451">
        <ele>608.8</ele>
        <time>2021-03-13T11:48:55Z</time>
      </trkpt>
      <trkpt lat="45.47953" lon="5.71444">
        <ele>609.8</ele>
        <time>2021-03-13T11:48:59Z</time>
      </trkpt>
      <trkpt lat="45.47949" lon="5.71437">
        <ele>610.6</ele>
        <time>2021-03-13T11:49:03Z</time>
      </trkpt>
      <trkpt lat="45.47944" lon="5.71429">
        <ele>610.8</ele>
        <time>2021-03-13T11:49:07Z</time>
      </trkpt>
      <trkpt lat="45.47941" lon="5.71422">
        <ele>611.6</ele>
        <time>2021-03-13T11:49:11Z</time>
      </trkpt>
      <trkpt lat="45.47936" lon="5.71415">
        <ele>611.8</ele>
        <time>2021-03-13T11:49:15Z</time>
      </trkpt>
      <trkpt lat="45.47932" lon="5.71407">
        <ele>612.8</ele>
        <time>2021-03-13T11:49:19Z</time>
      </trkpt>
      <trkpt lat="45.47928" lon="5.714">
        <ele>613.8</ele>
        <time>2021-03-13T11:49:23Z</time>
      </trkpt>
      <trkpt lat="45.47923" lon="5.71394">
        <ele>614.2</ele>
        <time>2021-03-13T11:49:27Z</time>
      </trkpt>
      <trkpt lat="45.47916" lon="5.71389">
        <ele>614.8</ele>
        <time>2021-03-13T11:49:31Z</time>
      </trkpt>
      <trkpt lat="45.47909" lon="5.71385">
        <ele>614.8</ele>
        <time>2021-03-13T11:49:35Z</time>
      </trkpt>
      <trkpt lat="45.47903" lon="5.7138">
        <ele>615.4</ele>
        <time>2021-03-13T11:49:39Z</time>
      </trkpt>
      <trkpt lat="45.47896" lon="5.71377">
        <ele>616</ele>
        <time>2021-03-13T11:49:43Z</time>
      </trkpt>
      <trkpt lat="45.4789" lon="5.71374">
        <ele>616.8</ele>
        <time>2021-03-13T11:49:47Z</time>
      </trkpt>
      <trkpt lat="45.47883" lon="5.71371">
        <ele>617</ele>
        <time>2021-03-13T11:49:51Z</time>
      </trkpt>
      <trkpt lat="45.47877" lon="5.71367">
        <ele>618.2</ele>
        <time>2021-03-13T11:49:55Z</time>
      </trkpt>
      <trkpt lat="45.47871" lon="5.71363">
        <ele>618.4</ele>
        <time>2021-03-13T11:49:59Z</time>
      </trkpt>
      <trkpt lat="45.47866" lon="5.71357">
        <ele>619.2</ele>
        <time>2021-03-13T11:50:03Z</time>
      </trkpt>
      <trkpt lat="45.47861" lon="5.71351">
        <ele>620.4</ele>
        <time>2021-03-13T11:50:07Z</time>
      </trkpt>
      <trkpt lat="45.47857" lon="5.71344">
        <ele>620.8</ele>
        <time>2021-03-13T11:50:11Z</time>
      </trkpt>
      <trkpt lat="45.47854" lon="5.71336">
        <ele>621.2</ele>
        <time>2021-03-13T11:50:15Z</time>
      </trkpt>
      <trkpt lat="45.47852" lon="5.71327">
        <ele>621.8</ele>
        <time>2021-03-13T11:50:19Z</time>
      </trkpt>
      <trkpt lat="45.47852" lon="5.71317">
        <ele>622.2</ele>
        <time>2021-03-13T11:50:23Z</time>
      </trkpt>
      <trkpt lat="45.47852" lon="5.71306">
        <ele>623.2</ele>
        <time>2021-03-13T11:50:27Z</time>
      </trkpt>
      <trkpt lat="45.47852" lon="5.71296">
        <ele>624</ele>
        <time>2021-03-13T11:50:31Z</time>
      </trkpt>
      <trkpt lat="45.4785" lon="5.71288">
        <ele>625</ele>
        <time>2021-03-13T11:50:35Z</time>
      </trkpt>
      <trkpt lat="45.47848" lon="5.71281">
        <ele>624.8</ele>
        <time>2021-03-13T11:50:39Z</time>
      </trkpt>
      <trkpt lat="45.47845" lon="5.71275">
        <ele>626</ele>
        <time>2021-03-13T11:50:43Z</time>
      </trkpt>
      <trkpt lat="45.4784" lon="5.71269">
        <ele>627.6</ele>
        <time>2021-03-13T11:50:47Z</time>
      </trkpt>
      <trkpt lat="45.47835" lon="5.71262">
        <ele>628</ele>
        <time>2021-03-13T11:50:51Z</time>
      </trkpt>
      <trkpt lat="45.47829" lon="5.71256">
        <ele>628.2</ele>
        <time>2021-03-13T11:50:55Z</time>
      </trkpt>
      <trkpt lat="45.47824" lon="5.71251">
        <ele>629.4</ele>
        <time>2021-03-13T11:50:59Z</time>
      </trkpt>
      <trkpt lat="45.47818" lon="5.71246">
        <ele>629.8</ele>
        <time>2021-03-13T11:51:03Z</time>
      </trkpt>
      <trkpt lat="45.47812" lon="5.71242">
        <ele>630.2</ele>
        <time>2021-03-13T11:51:07Z</time>
      </trkpt>
      <trkpt lat="45.47807" lon="5.71237">
        <ele>631.4</ele>
        <time>2021-03-13T11:51:11Z</time>
      </trkpt>
      <trkpt lat="45.47801" lon="5.71233">
        <ele>631.8</ele>
        <time>2021-03-13T11:51:15Z</time>
      </trkpt>
      <trkpt lat="45.47794" lon="5.71228">
        <ele>632</ele>
        <time>2021-03-13T11:51:19Z</time>
      </trkpt>
      <trkpt lat="45.47789" lon="5.71225">
        <ele>632.4</ele>
        <time>2021-03-13T11:51:23Z</time>
      </trkpt>
      <trkpt lat="45.47784" lon="5.71221">
        <ele>633.4</ele>
        <time>2021-03-13T11:51:27Z</time>
      </trkpt>
      <trkpt lat="45.4778" lon="5.71219">
        <ele>633.8</ele>
        <time>2021-03-13T11:51:31Z</time>
      </trkpt>
      <trkpt lat="45.47774" lon="5.71213">
        <ele>634.6</ele>
        <time>2021-03-13T11:51:35Z</time>
      </trkpt>
      <trkpt lat="45.47768" lon="5.71211">
        <ele>635.4</ele>
        <time>2021-03-13T11:51:39Z</time>
      </trkpt>
      <trkpt lat="45.47761" lon="5.71206">
        <ele>636.2</ele>
        <time>2021-03-13T11:51:43Z</time>
      </trkpt>
      <trkpt lat="45.47755" lon="5.71202">
        <ele>636</ele>
        <time>2021-03-13T11:51:47Z</time>
      </trkpt>
      <trkpt lat="45.47749" lon="5.71197">
        <ele>636.8</ele>
        <time>2021-03-13T11:51:51Z</time>
      </trkpt>
      <trkpt lat="45.47744" lon="5.71194">
        <ele>638</ele>
        <time>2021-03-13T11:51:55Z</time>
      </trkpt>
      <trkpt lat="45.47738" lon="5.71189">
        <ele>638.4</ele>
        <time>2021-03-13T11:51:59Z</time>
      </trkpt>
      <trkpt lat="45.47731" lon="5.71185">
        <ele>639.2</ele>
        <time>2021-03-13T11:52:03Z</time>
      </trkpt>
      <trkpt lat="45.47726" lon="5.71181">
        <ele>640</ele>
        <time>2021-03-13T11:52:07Z</time>
      </trkpt>
      <trkpt lat="45.47719" lon="5.71178">
        <ele>640.4</ele>
        <time>2021-03-13T11:52:11Z</time>
      </trkpt>
      <trkpt lat="45.47713" lon="5.71174">
        <ele>641</ele>
        <time>2021-03-13T11:52:15Z</time>
      </trkpt>
      <trkpt lat="45.47708" lon="5.71171">
        <ele>642</ele>
        <time>2021-03-13T11:52:19Z</time>
      </trkpt>
      <trkpt lat="45.47701" lon="5.71167">
        <ele>642</ele>
        <time>2021-03-13T11:52:23Z</time>
      </trkpt>
      <trkpt lat="45.47695" lon="5.71163">
        <ele>643.4</ele>
        <time>2021-03-13T11:52:27Z</time>
      </trkpt>
      <trkpt lat="45.47688" lon="5.71159">
        <ele>643.4</ele>
        <time>2021-03-13T11:52:31Z</time>
      </trkpt>
      <trkpt lat="45.47681" lon="5.71155">
        <ele>644.6</ele>
        <time>2021-03-13T11:52:35Z</time>
      </trkpt>
      <trkpt lat="45.47675" lon="5.71153">
        <ele>645</ele>
        <time>2021-03-13T11:52:39Z</time>
      </trkpt>
      <trkpt lat="45.47668" lon="5.71152">
        <ele>645.4</ele>
        <time>2021-03-13T11:52:43Z</time>
      </trkpt>
      <trkpt lat="45.47662" lon="5.71151">
        <ele>646.6</ele>
        <time>2021-03-13T11:52:47Z</time>
      </trkpt>
      <trkpt lat="45.47655" lon="5.71152">
        <ele>647</ele>
        <time>2021-03-13T11:52:51Z</time>
      </trkpt>
      <trkpt lat="45.47649" lon="5.71154">
        <ele>647.6</ele>
        <time>2021-03-13T11:52:55Z</time>
      </trkpt>
      <trkpt lat="45.47642" lon="5.71156">
        <ele>648.4</ele>
        <time>2021-03-13T11:52:59Z</time>
      </trkpt>
      <trkpt lat="45.47636" lon="5.71161">
        <ele>649</ele>
        <time>2021-03-13T11:53:03Z</time>
      </trkpt>
      <trkpt lat="45.47629" lon="5.71165">
        <ele>649.8</ele>
        <time>2021-03-13T11:53:07Z</time>
      </trkpt>
      <trkpt lat="45.47622" lon="5.71168">
        <ele>650</ele>
        <time>2021-03-13T11:53:11Z</time>
      </trkpt>
      <trkpt lat="45.47614" lon="5.71172">
        <ele>651.2</ele>
        <time>2021-03-13T11:53:15Z</time>
      </trkpt>
      <trkpt lat="45.47606" lon="5.71174">
        <ele>652.4</ele>
        <time>2021-03-13T11:53:19Z</time>
      </trkpt>
      <trkpt lat="45.47599" lon="5.71175">
        <ele>653</ele>
        <time>2021-03-13T11:53:23Z</time>
      </trkpt>
      <trkpt lat="45.47594" lon="5.71173">
        <ele>653.6</ele>
        <time>2021-03-13T11:53:27Z</time>
      </trkpt>
      <trkpt lat="45.47588" lon="5.71174">
        <ele>654.2</ele>
        <time>2021-03-13T11:53:31Z</time>
      </trkpt>
      <trkpt lat="45.47582" lon="5.71172">
        <ele>654.6</ele>
        <time>2021-03-13T11:53:35Z</time>
      </trkpt>
      <trkpt lat="45.47576" lon="5.71173">
        <ele>655.2</ele>
        <time>2021-03-13T11:53:39Z</time>
      </trkpt>
      <trkpt lat="45.47571" lon="5.7117">
        <ele>655.8</ele>
        <time>2021-03-13T11:53:43Z</time>
      </trkpt>
      <trkpt lat="45.47565" lon="5.71171">
        <ele>656.6</ele>
        <time>2021-03-13T11:53:47Z</time>
      </trkpt>
      <trkpt lat="45.4756" lon="5.71169">
        <ele>657.6</ele>
        <time>2021-03-13T11:53:51Z</time>
      </trkpt>
      <trkpt lat="45.47555" lon="5.7117">
        <ele>658</ele>
        <time>2021-03-13T11:53:55Z</time>
      </trkpt>
      <trkpt lat="45.4755" lon="5.71169">
        <ele>659</ele>
        <time>2021-03-13T11:53:59Z</time>
      </trkpt>
      <trkpt lat="45.47544" lon="5.71168">
        <ele>659.4</ele>
        <time>2021-03-13T11:54:03Z</time>
      </trkpt>
      <trkpt lat="45.47538" lon="5.71168">
        <ele>660</ele>
        <time>2021-03-13T11:54:07Z</time>
      </trkpt>
      <trkpt lat="45.47531" lon="5.71169">
        <ele>661</ele>
        <time>2021-03-13T11:54:11Z</time>
      </trkpt>
      <trkpt lat="45.47526" lon="5.71173">
        <ele>661.4</ele>
        <time>2021-03-13T11:54:15Z</time>
      </trkpt>
      <trkpt lat="45.4752" lon="5.71176">
        <ele>661.8</ele>
        <time>2021-03-13T11:54:19Z</time>
      </trkpt>
      <trkpt lat="45.47514" lon="5.71182">
        <ele>662.4</ele>
        <time>2021-03-13T11:54:23Z</time>
      </trkpt>
      <trkpt lat="45.47511" lon="5.71194">
        <ele>663</ele>
        <time>2021-03-13T11:54:27Z</time>
      </trkpt>
      <trkpt lat="45.47511" lon="5.71207">
        <ele>662.4</ele>
        <time>2021-03-13T11:54:31Z</time>
      </trkpt>
      <trkpt lat="45.47517" lon="5.71219">
        <ele>662.8</ele>
        <time>2021-03-13T11:54:35Z</time>
      </trkpt>
      <trkpt lat="45.47525" lon="5.71228">
        <ele>662.4</ele>
        <time>2021-03-13T11:54:39Z</time>
      </trkpt>
      <trkpt lat="45.47533" lon="5.71238">
        <ele>663.2</ele>
        <time>2021-03-13T11:54:43Z</time>
      </trkpt>
      <trkpt lat="45.47538" lon="5.71248">
        <ele>664.6</ele>
        <time>2021-03-13T11:54:47Z</time>
      </trkpt>
      <trkpt lat="45.47541" lon="5.71258">
        <ele>664.6</ele>
        <time>2021-03-13T11:54:51Z</time>
      </trkpt>
      <trkpt lat="45.47541" lon="5.71268">
        <ele>665.6</ele>
        <time>2021-03-13T11:54:55Z</time>
      </trkpt>
      <trkpt lat="45.47541" lon="5.71277">
        <ele>666.2</ele>
        <time>2021-03-13T11:54:59Z</time>
      </trkpt>
      <trkpt lat="45.47541" lon="5.71286">
        <ele>666.4</ele>
        <time>2021-03-13T11:55:03Z</time>
      </trkpt>
      <trkpt lat="45.47541" lon="5.71295">
        <ele>667.2</ele>
        <time>2021-03-13T11:55:07Z</time>
      </trkpt>
      <trkpt lat="45.47542" lon="5.71306">
        <ele>667.4</ele>
        <time>2021-03-13T11:55:11Z</time>
      </trkpt>
      <trkpt lat="45.47543" lon="5.71315">
        <ele>667.6</ele>
        <time>2021-03-13T11:55:15Z</time>
      </trkpt>
      <trkpt lat="45.47547" lon="5.71324">
        <ele>668.2</ele>
        <time>2021-03-13T11:55:19Z</time>
      </trkpt>
      <trkpt lat="45.4755" lon="5.71331">
        <ele>669</ele>
        <time>2021-03-13T11:55:23Z</time>
      </trkpt>
      <trkpt lat="45.47553" lon="5.71339">
        <ele>670</ele>
        <time>2021-03-13T11:55:27Z</time>
      </trkpt>
      <trkpt lat="45.47553" lon="5.71346">
        <ele>670.8</ele>
        <time>2021-03-13T11:55:31Z</time>
      </trkpt>
      <trkpt lat="45.47553" lon="5.71355">
        <ele>671.2</ele>
        <time>2021-03-13T11:55:35Z</time>
      </trkpt>
      <trkpt lat="45.47551" lon="5.71363">
        <ele>672</ele>
        <time>2021-03-13T11:55:39Z</time>
      </trkpt>
      <trkpt lat="45.47549" lon="5.7137">
        <ele>672.4</ele>
        <time>2021-03-13T11:55:43Z</time>
      </trkpt>
      <trkpt lat="45.47547" lon="5.71378">
        <ele>673.2</ele>
        <time>2021-03-13T11:55:47Z</time>
      </trkpt>
      <trkpt lat="45.47545" lon="5.71387">
        <ele>674.2</ele>
        <time>2021-03-13T11:55:51Z</time>
      </trkpt>
      <trkpt lat="45.47547" lon="5.71398">
        <ele>674.4</ele>
        <time>2021-03-13T11:55:55Z</time>
      </trkpt>
      <trkpt lat="45.47548" lon="5.71408">
        <ele>675</ele>
        <time>2021-03-13T11:55:59Z</time>
      </trkpt>
      <trkpt lat="45.47551" lon="5.71418">
        <ele>676</ele>
        <time>2021-03-13T11:56:03Z</time>
      </trkpt>
      <trkpt lat="45.47555" lon="5.71428">
        <ele>676.4</ele>
        <time>2021-03-13T11:56:07Z</time>
      </trkpt>
      <trkpt lat="45.47559" lon="5.71437">
        <ele>677.2</ele>
        <time>2021-03-13T11:56:11Z</time>
      </trkpt>
      <trkpt lat="45.47564" lon="5.71445">
        <ele>677.6</ele>
        <time>2021-03-13T11:56:15Z</time>
      </trkpt>
      <trkpt lat="45.47565" lon="5.71455">
        <ele>678</ele>
        <time>2021-03-13T11:56:19Z</time>
      </trkpt>
      <trkpt lat="45.47563" lon="5.71463">
        <ele>679.2</ele>
        <time>2021-03-13T11:56:23Z</time>
      </trkpt>
      <trkpt lat="45.4756" lon="5.71466">
        <ele>679.6</ele>
        <time>2021-03-13T11:56:27Z</time>
      </trkpt>
      <trkpt lat="45.47555" lon="5.71464">
        <ele>680.4</ele>
        <time>2021-03-13T11:56:31Z</time>
      </trkpt>
      <trkpt lat="45.47549" lon="5.71459">
        <ele>680.8</ele>
        <time>2021-03-13T11:56:35Z</time>
      </trkpt>
      <trkpt lat="45.47544" lon="5.71453">
        <ele>681</ele>
        <time>2021-03-13T11:56:39Z</time>
      </trkpt>
      <trkpt lat="45.47539" lon="5.71447">
        <ele>682.2</ele>
        <time>2021-03-13T11:56:43Z</time>
      </trkpt>
      <trkpt lat="45.47535" lon="5.71439">
        <ele>682.8</ele>
        <time>2021-03-13T11:56:47Z</time>
      </trkpt>
      <trkpt lat="45.47531" lon="5.71431">
        <ele>683.4</ele>
        <time>2021-03-13T11:56:51Z</time>
      </trkpt>
      <trkpt lat="45.47527" lon="5.71423">
        <ele>683.4</ele>
        <time>2021-03-13T11:56:55Z</time>
      </trkpt>
      <trkpt lat="45.47523" lon="5.71415">
        <ele>684.6</ele>
        <time>2021-03-13T11:56:59Z</time>
      </trkpt>
      <trkpt lat="45.47519" lon="5.71407">
        <ele>685</ele>
        <time>2021-03-13T11:57:03Z</time>
      </trkpt>
      <trkpt lat="45.47515" lon="5.714">
        <ele>686.2</ele>
        <time>2021-03-13T11:57:07Z</time>
      </trkpt>
      <trkpt lat="45.47511" lon="5.71392">
        <ele>686.8</ele>
        <time>2021-03-13T11:57:11Z</time>
      </trkpt>
      <trkpt lat="45.47507" lon="5.71385">
        <ele>687.6</ele>
        <time>2021-03-13T11:57:15Z</time>
      </trkpt>
      <trkpt lat="45.47505" lon="5.71378">
        <ele>687.8</ele>
        <time>2021-03-13T11:57:19Z</time>
      </trkpt>
      <trkpt lat="45.47501" lon="5.71371">
        <ele>688.6</ele>
        <time>2021-03-13T11:57:23Z</time>
      </trkpt>
      <trkpt lat="45.47496" lon="5.71364">
        <ele>690</ele>
        <time>2021-03-13T11:57:27Z</time>
      </trkpt>
      <trkpt lat="45.47493" lon="5.71356">
        <ele>690</ele>
        <time>2021-03-13T11:57:31Z</time>
      </trkpt>
      <trkpt lat="45.47489" lon="5.71349">
        <ele>690.8</ele>
        <time>2021-03-13T11:57:35Z</time>
      </trkpt>
      <trkpt lat="45.47486" lon="5.71343">
        <ele>691.8</ele>
        <time>2021-03-13T11:57:39Z</time>
      </trkpt>
      <trkpt lat="45.47483" lon="5.71335">
        <ele>692</ele>
        <time>2021-03-13T11:57:43Z</time>
      </trkpt>
      <trkpt lat="45.47478" lon="5.71328">
        <ele>692.8</ele>
        <time>2021-03-13T11:57:47Z</time>
      </trkpt>
      <trkpt lat="45.47474" lon="5.7132">
        <ele>693</ele>
        <time>2021-03-13T11:57:51Z</time>
      </trkpt>
      <trkpt lat="45.47471" lon="5.71313">
        <ele>693.6</ele>
        <time>2021-03-13T11:57:55Z</time>
      </trkpt>
      <trkpt lat="45.47468" lon="5.71305">
        <ele>694.2</ele>
        <time>2021-03-13T11:57:59Z</time>
      </trkpt>
      <trkpt lat="45.47465" lon="5.71296">
        <ele>695.4</ele>
        <time>2021-03-13T11:58:03Z</time>
      </trkpt>
      <trkpt lat="45.47464" lon="5.71286">
        <ele>696.4</ele>
        <time>2021-03-13T11:58:07Z</time>
      </trkpt>
      <trkpt lat="45.47462" lon="5.71276">
        <ele>696.6</ele>
        <time>2021-03-13T11:58:11Z</time>
      </trkpt>
      <trkpt lat="45.47461" lon="5.71266">
        <ele>697.2</ele>
        <time>2021-03-13T11:58:15Z</time>
      </trkpt>
      <trkpt lat="45.47458" lon="5.71256">
        <ele>698.4</ele>
        <time>2021-03-13T11:58:19Z</time>
      </trkpt>
      <trkpt lat="45.47454" lon="5.7125">
        <ele>698.4</ele>
        <time>2021-03-13T11:58:23Z</time>
      </trkpt>
      <trkpt lat="45.47447" lon="5.71249">
        <ele>699.2</ele>
        <time>2021-03-13T11:58:27Z</time>
      </trkpt>
      <trkpt lat="45.47441" lon="5.71252">
        <ele>700</ele>
        <time>2021-03-13T11:58:31Z</time>
      </trkpt>
      <trkpt lat="45.4744" lon="5.71262">
        <ele>700.6</ele>
        <time>2021-03-13T11:58:35Z</time>
      </trkpt>
      <trkpt lat="45.47442" lon="5.71274">
        <ele>701</ele>
        <time>2021-03-13T11:58:39Z</time>
      </trkpt>
      <trkpt lat="45.47444" lon="5.71285">
        <ele>701.8</ele>
        <time>2021-03-13T11:58:43Z</time>
      </trkpt>
      <trkpt lat="45.47445" lon="5.71296">
        <ele>702.2</ele>
        <time>2021-03-13T11:58:47Z</time>
      </trkpt>
      <trkpt lat="45.47445" lon="5.71307">
        <ele>702.8</ele>
        <time>2021-03-13T11:58:51Z</time>
      </trkpt>
      <trkpt lat="45.47445" lon="5.71317">
        <ele>703.4</ele>
        <time>2021-03-13T11:58:55Z</time>
      </trkpt>
      <trkpt lat="45.47445" lon="5.71327">
        <ele>703.8</ele>
        <time>2021-03-13T11:58:59Z</time>
      </trkpt>
      <trkpt lat="45.47444" lon="5.71337">
        <ele>704</ele>
        <time>2021-03-13T11:59:03Z</time>
      </trkpt>
      <trkpt lat="45.47445" lon="5.71347">
        <ele>705.4</ele>
        <time>2021-03-13T11:59:07Z</time>
      </trkpt>
      <trkpt lat="45.47446" lon="5.71356">
        <ele>706</ele>
        <time>2021-03-13T11:59:11Z</time>
      </trkpt>
      <trkpt lat="45.47446" lon="5.71366">
        <ele>706.6</ele>
        <time>2021-03-13T11:59:15Z</time>
      </trkpt>
      <trkpt lat="45.47448" lon="5.71374">
        <ele>707</ele>
        <time>2021-03-13T11:59:19Z</time>
      </trkpt>
      <trkpt lat="45.47448" lon="5.71383">
        <ele>707.6</ele>
        <time>2021-03-13T11:59:23Z</time>
      </trkpt>
      <trkpt lat="45.47448" lon="5.71393">
        <ele>708.4</ele>
        <time>2021-03-13T11:59:27Z</time>
      </trkpt>
      <trkpt lat="45.47448" lon="5.71403">
        <ele>709</ele>
        <time>2021-03-13T11:59:31Z</time>
      </trkpt>
      <trkpt lat="45.47448" lon="5.71413">
        <ele>709.4</ele>
        <time>2021-03-13T11:59:35Z</time>
      </trkpt>
      <trkpt lat="45.47448" lon="5.71423">
        <ele>710</ele>
        <time>2021-03-13T11:59:39Z</time>
      </trkpt>
      <trkpt lat="45.47449" lon="5.71432">
        <ele>711.2</ele>
        <time>2021-03-13T11:59:43Z</time>
      </trkpt>
      <trkpt lat="45.47451" lon="5.71441">
        <ele>711.2</ele>
        <time>2021-03-13T11:59:47Z</time>
      </trkpt>
      <trkpt lat="45.47452" lon="5.7145">
        <ele>712.4</ele>
        <time>2021-03-13T11:59:51Z</time>
      </trkpt>
      <trkpt lat="45.47455" lon="5.71459">
        <ele>712.6</ele>
        <time>2021-03-13T11:59:55Z</time>
      </trkpt>
      <trkpt lat="45.47457" lon="5.71469">
        <ele>713.4</ele>
        <time>2021-03-13T11:59:59Z</time>
      </trkpt>
      <trkpt lat="45.47458" lon="5.71478">
        <ele>713.8</ele>
        <time>2021-03-13T12:00:03Z</time>
      </trkpt>
      <trkpt lat="45.47459" lon="5.71487">
        <ele>714</ele>
        <time>2021-03-13T12:00:07Z</time>
      </trkpt>
      <trkpt lat="45.4746" lon="5.71496">
        <ele>714.6</ele>
        <time>2021-03-13T12:00:11Z</time>
      </trkpt>
      <trkpt lat="45.47461" lon="5.71505">
        <ele>715.6</ele>
        <time>2021-03-13T12:00:15Z</time>
      </trkpt>
      <trkpt lat="45.47461" lon="5.71514">
        <ele>716.8</ele>
        <time>2021-03-13T12:00:19Z</time>
      </trkpt>
      <trkpt lat="45.47462" lon="5.71523">
        <ele>716.8</ele>
        <time>2021-03-13T12:00:23Z</time>
      </trkpt>
      <trkpt lat="45.47463" lon="5.71532">
        <ele>718.2</ele>
        <time>2021-03-13T12:00:27Z</time>
      </trkpt>
      <trkpt lat="45.47464" lon="5.71541">
        <ele>718.8</ele>
        <time>2021-03-13T12:00:31Z</time>
      </trkpt>
      <trkpt lat="45.47466" lon="5.71549">
        <ele>719</ele>
        <time>2021-03-13T12:00:35Z</time>
      </trkpt>
      <trkpt lat="45.47469" lon="5.71558">
        <ele>719.8</ele>
        <time>2021-03-13T12:00:39Z</time>
      </trkpt>
      <trkpt lat="45.47471" lon="5.71567">
        <ele>720.2</ele>
        <time>2021-03-13T12:00:43Z</time>
      </trkpt>
      <trkpt lat="45.47474" lon="5.71574">
        <ele>721.2</ele>
        <time>2021-03-13T12:00:47Z</time>
      </trkpt>
      <trkpt lat="45.47477" lon="5.71582">
        <ele>722</ele>
        <time>2021-03-13T12:00:51Z</time>
      </trkpt>
      <trkpt lat="45.4748" lon="5.7159">
        <ele>721.8</ele>
        <time>2021-03-13T12:00:55Z</time>
      </trkpt>
      <trkpt lat="45.47484" lon="5.71598">
        <ele>722.6</ele>
        <time>2021-03-13T12:00:59Z</time>
      </trkpt>
      <trkpt lat="45.47486" lon="5.71607">
        <ele>723.2</ele>
        <time>2021-03-13T12:01:03Z</time>
      </trkpt>
      <trkpt lat="45.47486" lon="5.71617">
        <ele>723.8</ele>
        <time>2021-03-13T12:01:07Z</time>
      </trkpt>
      <trkpt lat="45.47485" lon="5.71627">
        <ele>724.8</ele>
        <time>2021-03-13T12:01:11Z</time>
      </trkpt>
      <trkpt lat="45.47482" lon="5.71636">
        <ele>726.2</ele>
        <time>2021-03-13T12:01:15Z</time>
      </trkpt>
      <trkpt lat="45.47479" lon="5.71643">
        <ele>726.2</ele>
        <time>2021-03-13T12:01:19Z</time>
      </trkpt>
      <trkpt lat="45.47475" lon="5.71651">
        <ele>727.2</ele>
        <time>2021-03-13T12:01:23Z</time>
      </trkpt>
      <trkpt lat="45.47471" lon="5.71658">
        <ele>728.2</ele>
        <time>2021-03-13T12:01:27Z</time>
      </trkpt>
      <trkpt lat="45.47467" lon="5.71665">
        <ele>728.4</ele>
        <time>2021-03-13T12:01:31Z</time>
      </trkpt>
      <trkpt lat="45.47464" lon="5.71672">
        <ele>729</ele>
        <time>2021-03-13T12:01:35Z</time>
      </trkpt>
      <trkpt lat="45.47459" lon="5.71677">
        <ele>729.6</ele>
        <time>2021-03-13T12:01:39Z</time>
      </trkpt>
      <trkpt lat="45.47456" lon="5.71685">
        <ele>730.6</ele>
        <time>2021-03-13T12:01:43Z</time>
      </trkpt>
      <trkpt lat="45.47453" lon="5.71694">
        <ele>731</ele>
        <time>2021-03-13T12:01:47Z</time>
      </trkpt>
      <trkpt lat="45.47451" lon="5.71702">
        <ele>731.6</ele>
        <time>2021-03-13T12:01:51Z</time>
      </trkpt>
      <trkpt lat="45.47448" lon="5.7171">
        <ele>732.2</ele>
        <time>2021-03-13T12:01:55Z</time>
      </trkpt>
      <trkpt lat="45.47444" lon="5.71715">
        <ele>732.6</ele>
        <time>2021-03-13T12:01:59Z</time>
      </trkpt>
      <trkpt lat="45.47445" lon="5.71724">
        <ele>733</ele>
        <time>2021-03-13T12:02:03Z</time>
      </trkpt>
      <trkpt lat="45.47447" lon="5.71732">
        <ele>733.6</ele>
        <time>2021-03-13T12:02:07Z</time>
      </trkpt>
      <trkpt lat="45.47449" lon="5.71741">
        <ele>734.2</ele>
        <time>2021-03-13T12:02:11Z</time>
      </trkpt>
      <trkpt lat="45.47449" lon="5.7175">
        <ele>734.4</ele>
        <time>2021-03-13T12:02:15Z</time>
      </trkpt>
      <trkpt lat="45.47449" lon="5.7176">
        <ele>735</ele>
        <time>2021-03-13T12:02:19Z</time>
      </trkpt>
      <trkpt lat="45.47448" lon="5.71769">
        <ele>735.4</ele>
        <time>2021-03-13T12:02:23Z</time>
      </trkpt>
      <trkpt lat="45.47446" lon="5.71779">
        <ele>736.2</ele>
        <time>2021-03-13T12:02:27Z</time>
      </trkpt>
      <trkpt lat="45.47443" lon="5.71788">
        <ele>737</ele>
        <time>2021-03-13T12:02:31Z</time>
      </trkpt>
      <trkpt lat="45.47441" lon="5.71797">
        <ele>738.4</ele>
        <time>2021-03-13T12:02:35Z</time>
      </trkpt>
      <trkpt lat="45.47439" lon="5.71806">
        <ele>738.8</ele>
        <time>2021-03-13T12:02:39Z</time>
      </trkpt>
      <trkpt lat="45.47437" lon="5.71814">
        <ele>738.8</ele>
        <time>2021-03-13T12:02:43Z</time>
      </trkpt>
      <trkpt lat="45.47435" lon="5.71823">
        <ele>740.2</ele>
        <time>2021-03-13T12:02:47Z</time>
      </trkpt>
      <trkpt lat="45.47433" lon="5.71832">
        <ele>740.4</ele>
        <time>2021-03-13T12:02:51Z</time>
      </trkpt>
      <trkpt lat="45.47432" lon="5.71841">
        <ele>741</ele>
        <time>2021-03-13T12:02:55Z</time>
      </trkpt>
      <trkpt lat="45.4743" lon="5.71849">
        <ele>742</ele>
        <time>2021-03-13T12:02:59Z</time>
      </trkpt>
      <trkpt lat="45.47427" lon="5.71858">
        <ele>742.6</ele>
        <time>2021-03-13T12:03:03Z</time>
      </trkpt>
      <trkpt lat="45.47425" lon="5.71866">
        <ele>742.8</ele>
        <time>2021-03-13T12:03:07Z</time>
      </trkpt>
      <trkpt lat="45.47422" lon="5.71874">
        <ele>743.2</ele>
        <time>2021-03-13T12:03:11Z</time>
      </trkpt>
      <trkpt lat="45.47416" lon="5.71877">
        <ele>744.8</ele>
        <time>2021-03-13T12:03:15Z</time>
      </trkpt>
      <trkpt lat="45.4741" lon="5.71874">
        <ele>744.6</ele>
        <time>2021-03-13T12:03:19Z</time>
      </trkpt>
      <trkpt lat="45.47406" lon="5.71866">
        <ele>746.2</ele>
        <time>2021-03-13T12:03:23Z</time>
      </trkpt>
      <trkpt lat="45.47402" lon="5.71859">
        <ele>747.2</ele>
        <time>2021-03-13T12:03:27Z</time>
      </trkpt>
      <trkpt lat="45.47398" lon="5.71852">
        <ele>746.6</ele>
        <time>2021-03-13T12:03:31Z</time>
      </trkpt>
      <trkpt lat="45.47393" lon="5.71846">
        <ele>747.6</ele>
        <time>2021-03-13T12:03:35Z</time>
      </trkpt>
      <trkpt lat="45.47389" lon="5.71841">
        <ele>748.2</ele>
        <time>2021-03-13T12:03:39Z</time>
      </trkpt>
      <trkpt lat="45.47383" lon="5.71836">
        <ele>748.6</ele>
        <time>2021-03-13T12:03:43Z</time>
      </trkpt>
      <trkpt lat="45.47377" lon="5.71831">
        <ele>748.4</ele>
        <time>2021-03-13T12:03:47Z</time>
      </trkpt>
      <trkpt lat="45.47372" lon="5.71826">
        <ele>749</ele>
        <time>2021-03-13T12:03:51Z</time>
      </trkpt>
      <trkpt lat="45.47366" lon="5.71822">
        <ele>750.4</ele>
        <time>2021-03-13T12:03:55Z</time>
      </trkpt>
      <trkpt lat="45.47361" lon="5.71817">
        <ele>750.6</ele>
        <time>2021-03-13T12:03:59Z</time>
      </trkpt>
      <trkpt lat="45.47355" lon="5.71812">
        <ele>750.8</ele>
        <time>2021-03-13T12:04:03Z</time>
      </trkpt>
      <trkpt lat="45.47349" lon="5.71807">
        <ele>751.6</ele>
        <time>2021-03-13T12:04:07Z</time>
      </trkpt>
      <trkpt lat="45.47342" lon="5.71803">
        <ele>752.4</ele>
        <time>2021-03-13T12:04:11Z</time>
      </trkpt>
      <trkpt lat="45.47336" lon="5.718">
        <ele>752.8</ele>
        <time>2021-03-13T12:04:15Z</time>
      </trkpt>
      <trkpt lat="45.47329" lon="5.71797">
        <ele>754.2</ele>
        <time>2021-03-13T12:04:19Z</time>
      </trkpt>
      <trkpt lat="45.47323" lon="5.71794">
        <ele>754.4</ele>
        <time>2021-03-13T12:04:23Z</time>
      </trkpt>
      <trkpt lat="45.47317" lon="5.71791">
        <ele>754.2</ele>
        <time>2021-03-13T12:04:27Z</time>
      </trkpt>
      <trkpt lat="45.4731" lon="5.71789">
        <ele>754.2</ele>
        <time>2021-03-13T12:04:31Z</time>
      </trkpt>
      <trkpt lat="45.47303" lon="5.71786">
        <ele>755.2</ele>
        <time>2021-03-13T12:04:35Z</time>
      </trkpt>
      <trkpt lat="45.47296" lon="5.71783">
        <ele>755.4</ele>
        <time>2021-03-13T12:04:39Z</time>
      </trkpt>
      <trkpt lat="45.4729" lon="5.7178">
        <ele>756</ele>
        <time>2021-03-13T12:04:43Z</time>
      </trkpt>
      <trkpt lat="45.47283" lon="5.71778">
        <ele>757</ele>
        <time>2021-03-13T12:04:47Z</time>
      </trkpt>
      <trkpt lat="45.47276" lon="5.71776">
        <ele>756.6</ele>
        <time>2021-03-13T12:04:51Z</time>
      </trkpt>
      <trkpt lat="45.4727" lon="5.71773">
        <ele>758.4</ele>
        <time>2021-03-13T12:04:55Z</time>
      </trkpt>
      <trkpt lat="45.47264" lon="5.71772">
        <ele>759.4</ele>
        <time>2021-03-13T12:04:59Z</time>
      </trkpt>
      <trkpt lat="45.47257" lon="5.71772">
        <ele>758.8</ele>
        <time>2021-03-13T12:05:03Z</time>
      </trkpt>
      <trkpt lat="45.4725" lon="5.71775">
        <ele>759.4</ele>
        <time>2021-03-13T12:05:07Z</time>
      </trkpt>
      <trkpt lat="45.47243" lon="5.71779">
        <ele>759.6</ele>
        <time>2021-03-13T12:05:11Z</time>
      </trkpt>
      <trkpt lat="45.47236" lon="5.71782">
        <ele>760</ele>
        <time>2021-03-13T12:05:15Z</time>
      </trkpt>
      <trkpt lat="45.47229" lon="5.71786">
        <ele>760.8</ele>
        <time>2021-03-13T12:05:19Z</time>
      </trkpt>
      <trkpt lat="45.47222" lon="5.71788">
        <ele>760.8</ele>
        <time>2021-03-13T12:05:23Z</time>
      </trkpt>
      <trkpt lat="45.47215" lon="5.71789">
        <ele>761.6</ele>
        <time>2021-03-13T12:05:27Z</time>
      </trkpt>
      <trkpt lat="45.47208" lon="5.7179">
        <ele>762</ele>
        <time>2021-03-13T12:05:31Z</time>
      </trkpt>
      <trkpt lat="45.472" lon="5.7179">
        <ele>762.4</ele>
        <time>2021-03-13T12:05:35Z</time>
      </trkpt>
      <trkpt lat="45.47193" lon="5.71789">
        <ele>763.2</ele>
        <time>2021-03-13T12:05:39Z</time>
      </trkpt>
      <trkpt lat="45.47186" lon="5.71788">
        <ele>763</ele>
        <time>2021-03-13T12:05:43Z</time>
      </trkpt>
      <trkpt lat="45.47178" lon="5.71786">
        <ele>763.8</ele>
        <time>2021-03-13T12:05:47Z</time>
      </trkpt>
      <trkpt lat="45.47172" lon="5.71782">
        <ele>765</ele>
        <time>2021-03-13T12:05:51Z</time>
      </trkpt>
      <trkpt lat="45.47165" lon="5.71777">
        <ele>765.2</ele>
        <time>2021-03-13T12:05:55Z</time>
      </trkpt>
      <trkpt lat="45.47158" lon="5.71774">
        <ele>766</ele>
        <time>2021-03-13T12:05:59Z</time>
      </trkpt>
      <trkpt lat="45.47151" lon="5.71771">
        <ele>765.8</ele>
        <time>2021-03-13T12:06:03Z</time>
      </trkpt>
      <trkpt lat="45.47143" lon="5.71769">
        <ele>766.6</ele>
        <time>2021-03-13T12:06:07Z</time>
      </trkpt>
      <trkpt lat="45.47135" lon="5.7177">
        <ele>766.4</ele>
        <time>2021-03-13T12:06:11Z</time>
      </trkpt>
      <trkpt lat="45.47128" lon="5.71774">
        <ele>767.2</ele>
        <time>2021-03-13T12:06:15Z</time>
      </trkpt>
      <trkpt lat="45.4712" lon="5.71779">
        <ele>767.4</ele>
        <time>2021-03-13T12:06:19Z</time>
      </trkpt>
      <trkpt lat="45.47114" lon="5.71786">
        <ele>767.8</ele>
        <time>2021-03-13T12:06:23Z</time>
      </trkpt>
      <trkpt lat="45.47108" lon="5.71793">
        <ele>768.2</ele>
        <time>2021-03-13T12:06:27Z</time>
      </trkpt>
      <trkpt lat="45.47102" lon="5.718">
        <ele>769</ele>
        <time>2021-03-13T12:06:31Z</time>
      </trkpt>
      <trkpt lat="45.47095" lon="5.71806">
        <ele>768.8</ele>
        <time>2021-03-13T12:06:35Z</time>
      </trkpt>
      <trkpt lat="45.47088" lon="5.71812">
        <ele>769.6</ele>
        <time>2021-03-13T12:06:39Z</time>
      </trkpt>
      <trkpt lat="45.47081" lon="5.71818">
        <ele>769.8</ele>
        <time>2021-03-13T12:06:43Z</time>
      </trkpt>
      <trkpt lat="45.47074" lon="5.71822">
        <ele>770</ele>
        <time>2021-03-13T12:06:47Z</time>
      </trkpt>
      <trkpt lat="45.47067" lon="5.71826">
        <ele>771.8</ele>
        <time>2021-03-13T12:06:51Z</time>
      </trkpt>
      <trkpt lat="45.47059" lon="5.71829">
        <ele>771.4</ele>
        <time>2021-03-13T12:06:55Z</time>
      </trkpt>
      <trkpt lat="45.47051" lon="5.7183">
        <ele>772</ele>
        <time>2021-03-13T12:06:59Z</time>
      </trkpt>
      <trkpt lat="45.47043" lon="5.7183">
        <ele>771.8</ele>
        <time>2021-03-13T12:07:03Z</time>
      </trkpt>
      <trkpt lat="45.47036" lon="5.7183">
        <ele>772.2</ele>
        <time>2021-03-13T12:07:07Z</time>
      </trkpt>
      <trkpt lat="45.47027" lon="5.71829">
        <ele>772.4</ele>
        <time>2021-03-13T12:07:11Z</time>
      </trkpt>
      <trkpt lat="45.47019" lon="5.71828">
        <ele>773.2</ele>
        <time>2021-03-13T12:07:15Z</time>
      </trkpt>
      <trkpt lat="45.47011" lon="5.71826">
        <ele>773.8</ele>
        <time>2021-03-13T12:07:19Z</time>
      </trkpt>
      <trkpt lat="45.47003" lon="5.71823">
        <ele>774.4</ele>
        <time>2021-03-13T12:07:23Z</time>
      </trkpt>
      <trkpt lat="45.46994" lon="5.71819">
        <ele>774</ele>
        <time>2021-03-13T12:07:27Z</time>
      </trkpt>
      <trkpt lat="45.46985" lon="5.71815">
        <ele>774.4</ele>
        <time>2021-03-13T12:07:31Z</time>
      </trkpt>
      <trkpt lat="45.46975" lon="5.7181">
        <ele>774.8</ele>
        <time>2021-03-13T12:07:35Z</time>
      </trkpt>
      <trkpt lat="45.46965" lon="5.71806">
        <ele>775</ele>
        <time>2021-03-13T12:07:39Z</time>
      </trkpt>
      <trkpt lat="45.46956" lon="5.71801">
        <ele>775.2</ele>
        <time>2021-03-13T12:07:43Z</time>
      </trkpt>
      <trkpt lat="45.46947" lon="5.71797">
        <ele>775.8</ele>
        <time>2021-03-13T12:07:47Z</time>
      </trkpt>
      <trkpt lat="45.46937" lon="5.71792">
        <ele>775.8</ele>
        <time>2021-03-13T12:07:51Z</time>
      </trkpt>
      <trkpt lat="45.46927" lon="5.71791">
        <ele>776</ele>
        <time>2021-03-13T12:07:55Z</time>
      </trkpt>
      <trkpt lat="45.46918" lon="5.71792">
        <ele>776</ele>
        <time>2021-03-13T12:07:59Z</time>
      </trkpt>
      <trkpt lat="45.46909" lon="5.71792">
        <ele>776.4</ele>
        <time>2021-03-13T12:08:03Z</time>
      </trkpt>
      <trkpt lat="45.469" lon="5.71793">
        <ele>776.4</ele>
        <time>2021-03-13T12:08:07Z</time>
      </trkpt>
      <trkpt lat="45.46891" lon="5.71795">
        <ele>777.2</ele>
        <time>2021-03-13T12:08:11Z</time>
      </trkpt>
      <trkpt lat="45.46882" lon="5.71795">
        <ele>777.4</ele>
        <time>2021-03-13T12:08:15Z</time>
      </trkpt>
      <trkpt lat="45.46872" lon="5.71796">
        <ele>777.6</ele>
        <time>2021-03-13T12:08:19Z</time>
      </trkpt>
      <trkpt lat="45.46862" lon="5.71797">
        <ele>777.4</ele>
        <time>2021-03-13T12:08:23Z</time>
      </trkpt>
      <trkpt lat="45.46851" lon="5.71799">
        <ele>778.6</ele>
        <time>2021-03-13T12:08:27Z</time>
      </trkpt>
      <trkpt lat="45.46841" lon="5.71801">
        <ele>778.4</ele>
        <time>2021-03-13T12:08:31Z</time>
      </trkpt>
      <trkpt lat="45.46831" lon="5.71802">
        <ele>778.8</ele>
        <time>2021-03-13T12:08:35Z</time>
      </trkpt>
      <trkpt lat="45.46822" lon="5.71803">
        <ele>779.4</ele>
        <time>2021-03-13T12:08:39Z</time>
      </trkpt>
      <trkpt lat="45.46812" lon="5.71805">
        <ele>779.8</ele>
        <time>2021-03-13T12:08:43Z</time>
      </trkpt>
      <trkpt lat="45.46803" lon="5.71806">
        <ele>780.6</ele>
        <time>2021-03-13T12:08:47Z</time>
      </trkpt>
      <trkpt lat="45.46794" lon="5.71806">
        <ele>780.4</ele>
        <time>2021-03-13T12:08:51Z</time>
      </trkpt>
      <trkpt lat="45.46785" lon="5.71806">
        <ele>781.2</ele>
        <time>2021-03-13T12:08:55Z</time>
      </trkpt>
      <trkpt lat="45.46776" lon="5.71804">
        <ele>781.2</ele>
        <time>2021-03-13T12:08:59Z</time>
      </trkpt>
      <trkpt lat="45.46767" lon="5.71801">
        <ele>782</ele>
        <time>2021-03-13T12:09:03Z</time>
      </trkpt>
      <trkpt lat="45.46759" lon="5.71797">
        <ele>782.2</ele>
        <time>2021-03-13T12:09:07Z</time>
      </trkpt>
      <trkpt lat="45.4675" lon="5.71792">
        <ele>782.8</ele>
        <time>2021-03-13T12:09:11Z</time>
      </trkpt>
      <trkpt lat="45.46743" lon="5.71789">
        <ele>783.6</ele>
        <time>2021-03-13T12:09:15Z</time>
      </trkpt>
      <trkpt lat="45.46734" lon="5.71784">
        <ele>784</ele>
        <time>2021-03-13T12:09:19Z</time>
      </trkpt>
      <trkpt lat="45.46727" lon="5.71779">
        <ele>784.6</ele>
        <time>2021-03-13T12:09:23Z</time>
      </trkpt>
      <trkpt lat="45.46719" lon="5.71773">
        <ele>785</ele>
        <time>2021-03-13T12:09:27Z</time>
      </trkpt>
      <trkpt lat="45.46713" lon="5.71766">
        <ele>784.8</ele>
        <time>2021-03-13T12:09:31Z</time>
      </trkpt>
      <trkpt lat="45.46706" lon="5.71757">
        <ele>785.2</ele>
        <time>2021-03-13T12:09:35Z</time>
      </trkpt>
      <trkpt lat="45.467" lon="5.71749">
        <ele>785.2</ele>
        <time>2021-03-13T12:09:39Z</time>
      </trkpt>
      <trkpt lat="45.46693" lon="5.7174">
        <ele>785.6</ele>
        <time>2021-03-13T12:09:43Z</time>
      </trkpt>
      <trkpt lat="45.46687" lon="5.7173">
        <ele>786.6</ele>
        <time>2021-03-13T12:09:47Z</time>
      </trkpt>
      <trkpt lat="45.4668" lon="5.71721">
        <ele>786.4</ele>
        <time>2021-03-13T12:09:51Z</time>
      </trkpt>
      <trkpt lat="45.46674" lon="5.71711">
        <ele>787.4</ele>
        <time>2021-03-13T12:09:55Z</time>
      </trkpt>
      <trkpt lat="45.46668" lon="5.71702">
        <ele>787.2</ele>
        <time>2021-03-13T12:09:59Z</time>
      </trkpt>
      <trkpt lat="45.46661" lon="5.71693">
        <ele>788</ele>
        <time>2021-03-13T12:10:03Z</time>
      </trkpt>
      <trkpt lat="45.46655" lon="5.71684">
        <ele>788.4</ele>
        <time>2021-03-13T12:10:07Z</time>
      </trkpt>
      <trkpt lat="45.46648" lon="5.71677">
        <ele>788.6</ele>
        <time>2021-03-13T12:10:11Z</time>
      </trkpt>
      <trkpt lat="45.4664" lon="5.7167">
        <ele>788.6</ele>
        <time>2021-03-13T12:10:15Z</time>
      </trkpt>
      <trkpt lat="45.46632" lon="5.71664">
        <ele>789.4</ele>
        <time>2021-03-13T12:10:19Z</time>
      </trkpt>
      <trkpt lat="45.46625" lon="5.7166">
        <ele>790.2</ele>
        <time>2021-03-13T12:10:23Z</time>
      </trkpt>
      <trkpt lat="45.46616" lon="5.71655">
        <ele>790.4</ele>
        <time>2021-03-13T12:10:27Z</time>
      </trkpt>
      <trkpt lat="45.46608" lon="5.71651">
        <ele>790.8</ele>
        <time>2021-03-13T12:10:31Z</time>
      </trkpt>
      <trkpt lat="45.46599" lon="5.71648">
        <ele>791.2</ele>
        <time>2021-03-13T12:10:35Z</time>
      </trkpt>
      <trkpt lat="45.46591" lon="5.71644">
        <ele>791.8</ele>
        <time>2021-03-13T12:10:39Z</time>
      </trkpt>
      <trkpt lat="45.46584" lon="5.7164">
        <ele>792.6</ele>
        <time>2021-03-13T12:10:43Z</time>
      </trkpt>
      <trkpt lat="45.46576" lon="5.71636">
        <ele>793</ele>
        <time>2021-03-13T12:10:47Z</time>
      </trkpt>
      <trkpt lat="45.46567" lon="5.71632">
        <ele>793.4</ele>
        <time>2021-03-13T12:10:51Z</time>
      </trkpt>
      <trkpt lat="45.4656" lon="5.71629">
        <ele>793.8</ele>
        <time>2021-03-13T12:10:55Z</time>
      </trkpt>
      <trkpt lat="45.46551" lon="5.71625">
        <ele>794.4</ele>
        <time>2021-03-13T12:10:59Z</time>
      </trkpt>
      <trkpt lat="45.46543" lon="5.71621">
        <ele>794.8</ele>
        <time>2021-03-13T12:11:03Z</time>
      </trkpt>
      <trkpt lat="45.46535" lon="5.71617">
        <ele>795.6</ele>
        <time>2021-03-13T12:11:07Z</time>
      </trkpt>
      <trkpt lat="45.46527" lon="5.71614">
        <ele>795.6</ele>
        <time>2021-03-13T12:11:11Z</time>
      </trkpt>
      <trkpt lat="45.46519" lon="5.7161">
        <ele>795.8</ele>
        <time>2021-03-13T12:11:15Z</time>
      </trkpt>
      <trkpt lat="45.46511" lon="5.71606">
        <ele>796.4</ele>
        <time>2021-03-13T12:11:19Z</time>
      </trkpt>
      <trkpt lat="45.46503" lon="5.71603">
        <ele>797.4</ele>
        <time>2021-03-13T12:11:23Z</time>
      </trkpt>
      <trkpt lat="45.46495" lon="5.716">
        <ele>797.6</ele>
        <time>2021-03-13T12:11:27Z</time>
      </trkpt>
      <trkpt lat="45.46487" lon="5.71595">
        <ele>797.8</ele>
        <time>2021-03-13T12:11:31Z</time>
      </trkpt>
      <trkpt lat="45.46479" lon="5.71592">
        <ele>798.6</ele>
        <time>2021-03-13T12:11:35Z</time>
      </trkpt>
      <trkpt lat="45.4647" lon="5.71588">
        <ele>798.8</ele>
        <time>2021-03-13T12:11:39Z</time>
      </trkpt>
      <trkpt lat="45.46461" lon="5.71585">
        <ele>798.6</ele>
        <time>2021-03-13T12:11:43Z</time>
      </trkpt>
      <trkpt lat="45.46451" lon="5.71583">
        <ele>799.2</ele>
        <time>2021-03-13T12:11:47Z</time>
      </trkpt>
      <trkpt lat="45.46441" lon="5.71582">
        <ele>799.6</ele>
        <time>2021-03-13T12:11:51Z</time>
      </trkpt>
      <trkpt lat="45.4643" lon="5.71581">
        <ele>799.6</ele>
        <time>2021-03-13T12:11:55Z</time>
      </trkpt>
      <trkpt lat="45.4642" lon="5.71582">
        <ele>800</ele>
        <time>2021-03-13T12:11:59Z</time>
      </trkpt>
      <trkpt lat="45.46409" lon="5.71581">
        <ele>799.8</ele>
        <time>2021-03-13T12:12:03Z</time>
      </trkpt>
      <trkpt lat="45.46399" lon="5.7158">
        <ele>801.2</ele>
        <time>2021-03-13T12:12:07Z</time>
      </trkpt>
      <trkpt lat="45.4639" lon="5.71574">
        <ele>800.8</ele>
        <time>2021-03-13T12:12:11Z</time>
      </trkpt>
      <trkpt lat="45.46381" lon="5.71568">
        <ele>801.4</ele>
        <time>2021-03-13T12:12:15Z</time>
      </trkpt>
      <trkpt lat="45.46374" lon="5.7156">
        <ele>801.4</ele>
        <time>2021-03-13T12:12:19Z</time>
      </trkpt>
      <trkpt lat="45.46367" lon="5.71551">
        <ele>801.8</ele>
        <time>2021-03-13T12:12:23Z</time>
      </trkpt>
      <trkpt lat="45.46359" lon="5.71542">
        <ele>802</ele>
        <time>2021-03-13T12:12:27Z</time>
      </trkpt>
      <trkpt lat="45.46351" lon="5.71533">
        <ele>801.8</ele>
        <time>2021-03-13T12:12:31Z</time>
      </trkpt>
      <trkpt lat="45.46344" lon="5.71523">
        <ele>802.4</ele>
        <time>2021-03-13T12:12:35Z</time>
      </trkpt>
      <trkpt lat="45.46336" lon="5.71515">
        <ele>802.8</ele>
        <time>2021-03-13T12:12:39Z</time>
      </trkpt>
      <trkpt lat="45.46328" lon="5.71505">
        <ele>802.6</ele>
        <time>2021-03-13T12:12:43Z</time>
      </trkpt>
      <trkpt lat="45.4632" lon="5.71497">
        <ele>803.4</ele>
        <time>2021-03-13T12:12:47Z</time>
      </trkpt>
      <trkpt lat="45.46311" lon="5.71491">
        <ele>803.4</ele>
        <time>2021-03-13T12:12:51Z</time>
      </trkpt>
      <trkpt lat="45.46301" lon="5.71487">
        <ele>803.4</ele>
        <time>2021-03-13T12:12:55Z</time>
      </trkpt>
      <trkpt lat="45.46289" lon="5.71485">
        <ele>802.6</ele>
        <time>2021-03-13T12:12:59Z</time>
      </trkpt>
      <trkpt lat="45.46276" lon="5.71482">
        <ele>802.4</ele>
        <time>2021-03-13T12:13:03Z</time>
      </trkpt>
      <trkpt lat="45.46261" lon="5.71479">
        <ele>801.8</ele>
        <time>2021-03-13T12:13:07Z</time>
      </trkpt>
      <trkpt lat="45.46246" lon="5.71476">
        <ele>801.4</ele>
        <time>2021-03-13T12:13:11Z</time>
      </trkpt>
      <trkpt lat="45.46231" lon="5.71472">
        <ele>801.2</ele>
        <time>2021-03-13T12:13:15Z</time>
      </trkpt>
      <trkpt lat="45.46215" lon="5.7147">
        <ele>800.4</ele>
        <time>2021-03-13T12:13:19Z</time>
      </trkpt>
      <trkpt lat="45.46198" lon="5.71468">
        <ele>800</ele>
        <time>2021-03-13T12:13:23Z</time>
      </trkpt>
      <trkpt lat="45.4618" lon="5.71464">
        <ele>800</ele>
        <time>2021-03-13T12:13:27Z</time>
      </trkpt>
      <trkpt lat="45.46162" lon="5.71457">
        <ele>798.2</ele>
        <time>2021-03-13T12:13:31Z</time>
      </trkpt>
      <trkpt lat="45.46144" lon="5.71445">
        <ele>796.4</ele>
        <time>2021-03-13T12:13:35Z</time>
      </trkpt>
      <trkpt lat="45.46127" lon="5.71432">
        <ele>799.2</ele>
        <time>2021-03-13T12:13:39Z</time>
      </trkpt>
      <trkpt lat="45.46112" lon="5.71423">
        <ele>797.6</ele>
        <time>2021-03-13T12:13:43Z</time>
      </trkpt>
      <trkpt lat="45.46098" lon="5.71414">
        <ele>797.8</ele>
        <time>2021-03-13T12:13:47Z</time>
      </trkpt>
      <trkpt lat="45.46085" lon="5.71407">
        <ele>798.4</ele>
        <time>2021-03-13T12:13:51Z</time>
      </trkpt>
      <trkpt lat="45.46073" lon="5.71399">
        <ele>799.2</ele>
        <time>2021-03-13T12:13:55Z</time>
      </trkpt>
      <trkpt lat="45.4606" lon="5.71392">
        <ele>798.6</ele>
        <time>2021-03-13T12:13:59Z</time>
      </trkpt>
      <trkpt lat="45.46046" lon="5.71385">
        <ele>798.6</ele>
        <time>2021-03-13T12:14:03Z</time>
      </trkpt>
      <trkpt lat="45.46033" lon="5.71379">
        <ele>799.6</ele>
        <time>2021-03-13T12:14:07Z</time>
      </trkpt>
      <trkpt lat="45.4602" lon="5.71374">
        <ele>800.2</ele>
        <time>2021-03-13T12:14:11Z</time>
      </trkpt>
      <trkpt lat="45.46008" lon="5.71371">
        <ele>800.8</ele>
        <time>2021-03-13T12:14:15Z</time>
      </trkpt>
      <trkpt lat="45.45995" lon="5.71369">
        <ele>801.4</ele>
        <time>2021-03-13T12:14:19Z</time>
      </trkpt>
      <trkpt lat="45.45984" lon="5.7137">
        <ele>801.4</ele>
        <time>2021-03-13T12:14:23Z</time>
      </trkpt>
      <trkpt lat="45.45971" lon="5.71372">
        <ele>801.2</ele>
        <time>2021-03-13T12:14:27Z</time>
      </trkpt>
      <trkpt lat="45.45957" lon="5.71373">
        <ele>801</ele>
        <time>2021-03-13T12:14:31Z</time>
      </trkpt>
      <trkpt lat="45.45944" lon="5.71375">
        <ele>800.2</ele>
        <time>2021-03-13T12:14:35Z</time>
      </trkpt>
      <trkpt lat="45.45932" lon="5.71375">
        <ele>800.4</ele>
        <time>2021-03-13T12:14:39Z</time>
      </trkpt>
      <trkpt lat="45.45909" lon="5.71377">
        <ele>798.8</ele>
        <time>2021-03-13T12:17:49Z</time>
      </trkpt>
      <trkpt lat="45.45893" lon="5.71381">
        <ele>798.2</ele>
        <time>2021-03-13T12:17:53Z</time>
      </trkpt>
      <trkpt lat="45.45876" lon="5.71383">
        <ele>798.2</ele>
        <time>2021-03-13T12:17:57Z</time>
      </trkpt>
      <trkpt lat="45.45857" lon="5.71383">
        <ele>798.6</ele>
        <time>2021-03-13T12:18:01Z</time>
      </trkpt>
      <trkpt lat="45.4584" lon="5.71376">
        <ele>797.8</ele>
        <time>2021-03-13T12:18:05Z</time>
      </trkpt>
      <trkpt lat="45.45822" lon="5.71366">
        <ele>797.2</ele>
        <time>2021-03-13T12:18:09Z</time>
      </trkpt>
      <trkpt lat="45.45804" lon="5.71355">
        <ele>796.4</ele>
        <time>2021-03-13T12:18:13Z</time>
      </trkpt>
      <trkpt lat="45.45785" lon="5.71345">
        <ele>796.4</ele>
        <time>2021-03-13T12:18:17Z</time>
      </trkpt>
      <trkpt lat="45.45767" lon="5.71335">
        <ele>796.2</ele>
        <time>2021-03-13T12:18:21Z</time>
      </trkpt>
      <trkpt lat="45.45748" lon="5.71328">
        <ele>796</ele>
        <time>2021-03-13T12:18:25Z</time>
      </trkpt>
      <trkpt lat="45.45729" lon="5.71327">
        <ele>795.6</ele>
        <time>2021-03-13T12:18:29Z</time>
      </trkpt>
      <trkpt lat="45.45711" lon="5.71325">
        <ele>795.6</ele>
        <time>2021-03-13T12:18:33Z</time>
      </trkpt>
      <trkpt lat="45.45693" lon="5.71323">
        <ele>796.2</ele>
        <time>2021-03-13T12:18:37Z</time>
      </trkpt>
      <trkpt lat="45.45675" lon="5.71321">
        <ele>795.6</ele>
        <time>2021-03-13T12:18:41Z</time>
      </trkpt>
      <trkpt lat="45.45657" lon="5.71318">
        <ele>795.2</ele>
        <time>2021-03-13T12:18:45Z</time>
      </trkpt>
      <trkpt lat="45.45639" lon="5.71314">
        <ele>794.6</ele>
        <time>2021-03-13T12:18:49Z</time>
      </trkpt>
      <trkpt lat="45.4562" lon="5.71306">
        <ele>794.2</ele>
        <time>2021-03-13T12:18:53Z</time>
      </trkpt>
      <trkpt lat="45.456" lon="5.71296">
        <ele>793.2</ele>
        <time>2021-03-13T12:18:57Z</time>
      </trkpt>
      <trkpt lat="45.4558" lon="5.71286">
        <ele>793</ele>
        <time>2021-03-13T12:19:01Z</time>
      </trkpt>
      <trkpt lat="45.45561" lon="5.71278">
        <ele>792</ele>
        <time>2021-03-13T12:19:05Z</time>
      </trkpt>
      <trkpt lat="45.45542" lon="5.7127">
        <ele>791.8</ele>
        <time>2021-03-13T12:19:09Z</time>
      </trkpt>
      <trkpt lat="45.45521" lon="5.7126">
        <ele>790.2</ele>
        <time>2021-03-13T12:19:13Z</time>
      </trkpt>
      <trkpt lat="45.455" lon="5.71251">
        <ele>790</ele>
        <time>2021-03-13T12:19:17Z</time>
      </trkpt>
      <trkpt lat="45.45479" lon="5.71245">
        <ele>789</ele>
        <time>2021-03-13T12:19:21Z</time>
      </trkpt>
      <trkpt lat="45.45455" lon="5.71241">
        <ele>787.4</ele>
        <time>2021-03-13T12:19:25Z</time>
      </trkpt>
      <trkpt lat="45.45427" lon="5.71229">
        <ele>785.4</ele>
        <time>2021-03-13T12:19:29Z</time>
      </trkpt>
      <trkpt lat="45.45402" lon="5.71209">
        <ele>784.6</ele>
        <time>2021-03-13T12:19:33Z</time>
      </trkpt>
      <trkpt lat="45.4538" lon="5.71187">
        <ele>784</ele>
        <time>2021-03-13T12:19:37Z</time>
      </trkpt>
      <trkpt lat="45.45359" lon="5.71166">
        <ele>783.4</ele>
        <time>2021-03-13T12:19:41Z</time>
      </trkpt>
      <trkpt lat="45.45334" lon="5.71155">
        <ele>781.8</ele>
        <time>2021-03-13T12:19:45Z</time>
      </trkpt>
      <trkpt lat="45.45306" lon="5.71162">
        <ele>779.6</ele>
        <time>2021-03-13T12:19:49Z</time>
      </trkpt>
      <trkpt lat="45.45274" lon="5.71185">
        <ele>775.4</ele>
        <time>2021-03-13T12:19:53Z</time>
      </trkpt>
      <trkpt lat="45.45236" lon="5.7119">
        <ele>773.6</ele>
        <time>2021-03-13T12:19:57Z</time>
      </trkpt>
      <trkpt lat="45.45199" lon="5.71182">
        <ele>771</ele>
        <time>2021-03-13T12:20:01Z</time>
      </trkpt>
      <trkpt lat="45.45162" lon="5.71173">
        <ele>767.4</ele>
        <time>2021-03-13T12:20:05Z</time>
      </trkpt>
      <trkpt lat="45.45124" lon="5.71161">
        <ele>764.4</ele>
        <time>2021-03-13T12:20:09Z</time>
      </trkpt>
      <trkpt lat="45.45084" lon="5.71158">
        <ele>759.2</ele>
        <time>2021-03-13T12:20:13Z</time>
      </trkpt>
      <trkpt lat="45.45045" lon="5.71157">
        <ele>757.4</ele>
        <time>2021-03-13T12:20:17Z</time>
      </trkpt>
      <trkpt lat="45.45008" lon="5.71158">
        <ele>754.8</ele>
        <time>2021-03-13T12:20:21Z</time>
      </trkpt>
      <trkpt lat="45.44973" lon="5.71156">
        <ele>754.4</ele>
        <time>2021-03-13T12:20:25Z</time>
      </trkpt>
      <trkpt lat="45.44942" lon="5.71146">
        <ele>752.6</ele>
        <time>2021-03-13T12:20:29Z</time>
      </trkpt>
      <trkpt lat="45.44914" lon="5.71133">
        <ele>751</ele>
        <time>2021-03-13T12:20:33Z</time>
      </trkpt>
      <trkpt lat="45.44888" lon="5.7112">
        <ele>749.8</ele>
        <time>2021-03-13T12:20:37Z</time>
      </trkpt>
      <trkpt lat="45.44863" lon="5.71105">
        <ele>748</ele>
        <time>2021-03-13T12:20:41Z</time>
      </trkpt>
      <trkpt lat="45.44837" lon="5.7109">
        <ele>748.2</ele>
        <time>2021-03-13T12:20:45Z</time>
      </trkpt>
      <trkpt lat="45.44812" lon="5.71078">
        <ele>747</ele>
        <time>2021-03-13T12:20:49Z</time>
      </trkpt>
      <trkpt lat="45.44791" lon="5.7107">
        <ele>748.2</ele>
        <time>2021-03-13T12:20:53Z</time>
      </trkpt>
      <trkpt lat="45.44774" lon="5.71063">
        <ele>747.6</ele>
        <time>2021-03-13T12:20:57Z</time>
      </trkpt>
      <trkpt lat="45.44754" lon="5.71052">
        <ele>746.4</ele>
        <time>2021-03-13T12:21:01Z</time>
      </trkpt>
      <trkpt lat="45.44731" lon="5.71034">
        <ele>743.8</ele>
        <time>2021-03-13T12:21:05Z</time>
      </trkpt>
      <trkpt lat="45.44705" lon="5.71023">
        <ele>743.2</ele>
        <time>2021-03-13T12:21:09Z</time>
      </trkpt>
      <trkpt lat="45.4468" lon="5.71016">
        <ele>741.4</ele>
        <time>2021-03-13T12:21:13Z</time>
      </trkpt>
      <trkpt lat="45.44655" lon="5.71009">
        <ele>740.4</ele>
        <time>2021-03-13T12:21:17Z</time>
      </trkpt>
      <trkpt lat="45.44628" lon="5.71001">
        <ele>737.6</ele>
        <time>2021-03-13T12:21:21Z</time>
      </trkpt>
      <trkpt lat="45.446" lon="5.70992">
        <ele>735.6</ele>
        <time>2021-03-13T12:21:25Z</time>
      </trkpt>
      <trkpt lat="45.44573" lon="5.70984">
        <ele>736</ele>
        <time>2021-03-13T12:21:29Z</time>
      </trkpt>
      <trkpt lat="45.44547" lon="5.70977">
        <ele>735</ele>
        <time>2021-03-13T12:21:33Z</time>
      </trkpt>
      <trkpt lat="45.44518" lon="5.7097">
        <ele>732.8</ele>
        <time>2021-03-13T12:21:37Z</time>
      </trkpt>
      <trkpt lat="45.44488" lon="5.70961">
        <ele>731.4</ele>
        <time>2021-03-13T12:21:41Z</time>
      </trkpt>
      <trkpt lat="45.44459" lon="5.70945">
        <ele>729</ele>
        <time>2021-03-13T12:21:45Z</time>
      </trkpt>
      <trkpt lat="45.44429" lon="5.70927">
        <ele>727.2</ele>
        <time>2021-03-13T12:21:49Z</time>
      </trkpt>
      <trkpt lat="45.44398" lon="5.70914">
        <ele>725</ele>
        <time>2021-03-13T12:21:53Z</time>
      </trkpt>
      <trkpt lat="45.44365" lon="5.70909">
        <ele>722</ele>
        <time>2021-03-13T12:21:57Z</time>
      </trkpt>
      <trkpt lat="45.44334" lon="5.70911">
        <ele>721</ele>
        <time>2021-03-13T12:22:01Z</time>
      </trkpt>
      <trkpt lat="45.44309" lon="5.70926">
        <ele>720</ele>
        <time>2021-03-13T12:22:05Z</time>
      </trkpt>
      <trkpt lat="45.44287" lon="5.70942">
        <ele>719.8</ele>
        <time>2021-03-13T12:22:09Z</time>
      </trkpt>
      <trkpt lat="45.44264" lon="5.70956">
        <ele>719</ele>
        <time>2021-03-13T12:22:13Z</time>
      </trkpt>
      <trkpt lat="45.4424" lon="5.70959">
        <ele>719.4</ele>
        <time>2021-03-13T12:22:17Z</time>
      </trkpt>
      <trkpt lat="45.44218" lon="5.70956">
        <ele>718.4</ele>
        <time>2021-03-13T12:22:21Z</time>
      </trkpt>
      <trkpt lat="45.44197" lon="5.7095">
        <ele>719</ele>
        <time>2021-03-13T12:22:25Z</time>
      </trkpt>
      <trkpt lat="45.44177" lon="5.7094">
        <ele>719</ele>
        <time>2021-03-13T12:22:29Z</time>
      </trkpt>
      <trkpt lat="45.44158" lon="5.70928">
        <ele>718.2</ele>
        <time>2021-03-13T12:22:33Z</time>
      </trkpt>
      <trkpt lat="45.44139" lon="5.70918">
        <ele>718.6</ele>
        <time>2021-03-13T12:22:37Z</time>
      </trkpt>
      <trkpt lat="45.44122" lon="5.70909">
        <ele>719</ele>
        <time>2021-03-13T12:22:41Z</time>
      </trkpt>
      <trkpt lat="45.44106" lon="5.70901">
        <ele>719.4</ele>
        <time>2021-03-13T12:22:45Z</time>
      </trkpt>
      <trkpt lat="45.44091" lon="5.70895">
        <ele>719</ele>
        <time>2021-03-13T12:22:49Z</time>
      </trkpt>
      <trkpt lat="45.44077" lon="5.7089">
        <ele>720.4</ele>
        <time>2021-03-13T12:22:53Z</time>
      </trkpt>
      <trkpt lat="45.44064" lon="5.70886">
        <ele>720.2</ele>
        <time>2021-03-13T12:22:57Z</time>
      </trkpt>
      <trkpt lat="45.44051" lon="5.70883">
        <ele>720.6</ele>
        <time>2021-03-13T12:23:01Z</time>
      </trkpt>
      <trkpt lat="45.44039" lon="5.7088">
        <ele>721</ele>
        <time>2021-03-13T12:23:05Z</time>
      </trkpt>
      <trkpt lat="45.44028" lon="5.70878">
        <ele>721.8</ele>
        <time>2021-03-13T12:23:09Z</time>
      </trkpt>
      <trkpt lat="45.44017" lon="5.70877">
        <ele>722.4</ele>
        <time>2021-03-13T12:23:13Z</time>
      </trkpt>
      <trkpt lat="45.44008" lon="5.70875">
        <ele>722.6</ele>
        <time>2021-03-13T12:23:17Z</time>
      </trkpt>
      <trkpt lat="45.43999" lon="5.70873">
        <ele>724</ele>
        <time>2021-03-13T12:23:21Z</time>
      </trkpt>
      <trkpt lat="45.4399" lon="5.70869">
        <ele>724.6</ele>
        <time>2021-03-13T12:23:25Z</time>
      </trkpt>
      <trkpt lat="45.43982" lon="5.70866">
        <ele>725.4</ele>
        <time>2021-03-13T12:23:29Z</time>
      </trkpt>
      <trkpt lat="45.43974" lon="5.70863">
        <ele>726</ele>
        <time>2021-03-13T12:23:33Z</time>
      </trkpt>
      <trkpt lat="45.43966" lon="5.70856">
        <ele>726.2</ele>
        <time>2021-03-13T12:23:37Z</time>
      </trkpt>
      <trkpt lat="45.43956" lon="5.70849">
        <ele>726.4</ele>
        <time>2021-03-13T12:23:41Z</time>
      </trkpt>
      <trkpt lat="45.43947" lon="5.70843">
        <ele>726.8</ele>
        <time>2021-03-13T12:23:45Z</time>
      </trkpt>
      <trkpt lat="45.43937" lon="5.70837">
        <ele>727</ele>
        <time>2021-03-13T12:23:49Z</time>
      </trkpt>
      <trkpt lat="45.43926" lon="5.70831">
        <ele>727.8</ele>
        <time>2021-03-13T12:23:53Z</time>
      </trkpt>
      <trkpt lat="45.43915" lon="5.70826">
        <ele>728.2</ele>
        <time>2021-03-13T12:23:57Z</time>
      </trkpt>
      <trkpt lat="45.43904" lon="5.70822">
        <ele>728.4</ele>
        <time>2021-03-13T12:24:01Z</time>
      </trkpt>
      <trkpt lat="45.43893" lon="5.70821">
        <ele>728.8</ele>
        <time>2021-03-13T12:24:05Z</time>
      </trkpt>
      <trkpt lat="45.43882" lon="5.70822">
        <ele>729.4</ele>
        <time>2021-03-13T12:24:09Z</time>
      </trkpt>
      <trkpt lat="45.43871" lon="5.70824">
        <ele>729.8</ele>
        <time>2021-03-13T12:24:13Z</time>
      </trkpt>
      <trkpt lat="45.43861" lon="5.70826">
        <ele>730</ele>
        <time>2021-03-13T12:24:17Z</time>
      </trkpt>
      <trkpt lat="45.43854" lon="5.70825">
        <ele>730.6</ele>
        <time>2021-03-13T12:24:21Z</time>
      </trkpt>
      <trkpt lat="45.43847" lon="5.70823">
        <ele>729.2</ele>
        <time>2021-03-13T12:24:45Z</time>
      </trkpt>
      <trkpt lat="45.43833" lon="5.70821">
        <ele>728.8</ele>
        <time>2021-03-13T12:24:49Z</time>
      </trkpt>
      <trkpt lat="45.43814" lon="5.70819">
        <ele>727</ele>
        <time>2021-03-13T12:24:53Z</time>
      </trkpt>
      <trkpt lat="45.43793" lon="5.70818">
        <ele>726.2</ele>
        <time>2021-03-13T12:24:57Z</time>
      </trkpt>
      <trkpt lat="45.43769" lon="5.7082">
        <ele>725</ele>
        <time>2021-03-13T12:25:01Z</time>
      </trkpt>
      <trkpt lat="45.43741" lon="5.7082">
        <ele>721.4</ele>
        <time>2021-03-13T12:25:05Z</time>
      </trkpt>
      <trkpt lat="45.43712" lon="5.70818">
        <ele>719.2</ele>
        <time>2021-03-13T12:25:09Z</time>
      </trkpt>
      <trkpt lat="45.43678" lon="5.70809">
        <ele>716</ele>
        <time>2021-03-13T12:25:13Z</time>
      </trkpt>
      <trkpt lat="45.43648" lon="5.70808">
        <ele>715.2</ele>
        <time>2021-03-13T12:25:17Z</time>
      </trkpt>
      <trkpt lat="45.43627" lon="5.708">
        <ele>716.4</ele>
        <time>2021-03-13T12:25:21Z</time>
      </trkpt>
      <trkpt lat="45.43615" lon="5.70794">
        <ele>717</ele>
        <time>2021-03-13T12:25:25Z</time>
      </trkpt>
      <trkpt lat="45.43609" lon="5.7079">
        <ele>717.2</ele>
        <time>2021-03-13T12:25:29Z</time>
      </trkpt>
      <trkpt lat="45.43618" lon="5.70799">
        <ele>715.6</ele>
        <time>2021-03-13T12:28:24Z</time>
      </trkpt>
      <trkpt lat="45.43628" lon="5.70816">
        <ele>714.2</ele>
        <time>2021-03-13T12:28:28Z</time>
      </trkpt>
      <trkpt lat="45.43617" lon="5.7084">
        <ele>712.8</ele>
        <time>2021-03-13T12:28:32Z</time>
      </trkpt>
      <trkpt lat="45.43593" lon="5.70863">
        <ele>711</ele>
        <time>2021-03-13T12:28:36Z</time>
      </trkpt>
      <trkpt lat="45.43565" lon="5.70892">
        <ele>708.4</ele>
        <time>2021-03-13T12:28:40Z</time>
      </trkpt>
      <trkpt lat="45.43543" lon="5.70919">
        <ele>705.6</ele>
        <time>2021-03-13T12:28:44Z</time>
      </trkpt>
      <trkpt lat="45.43524" lon="5.70942">
        <ele>703.8</ele>
        <time>2021-03-13T12:28:48Z</time>
      </trkpt>
      <trkpt lat="45.43504" lon="5.70963">
        <ele>702.4</ele>
        <time>2021-03-13T12:28:52Z</time>
      </trkpt>
      <trkpt lat="45.43484" lon="5.70971">
        <ele>702.2</ele>
        <time>2021-03-13T12:28:56Z</time>
      </trkpt>
      <trkpt lat="45.43466" lon="5.7097">
        <ele>701.8</ele>
        <time>2021-03-13T12:29:00Z</time>
      </trkpt>
      <trkpt lat="45.43446" lon="5.70966">
        <ele>700.4</ele>
        <time>2021-03-13T12:29:04Z</time>
      </trkpt>
      <trkpt lat="45.43421" lon="5.70968">
        <ele>698.4</ele>
        <time>2021-03-13T12:29:08Z</time>
      </trkpt>
      <trkpt lat="45.43398" lon="5.70982">
        <ele>695.8</ele>
        <time>2021-03-13T12:29:12Z</time>
      </trkpt>
      <trkpt lat="45.43372" lon="5.70984">
        <ele>694.6</ele>
        <time>2021-03-13T12:29:16Z</time>
      </trkpt>
      <trkpt lat="45.43351" lon="5.7098">
        <ele>695.4</ele>
        <time>2021-03-13T12:29:20Z</time>
      </trkpt>
      <trkpt lat="45.43333" lon="5.70979">
        <ele>695.4</ele>
        <time>2021-03-13T12:29:24Z</time>
      </trkpt>
      <trkpt lat="45.43317" lon="5.70976">
        <ele>696</ele>
        <time>2021-03-13T12:29:28Z</time>
      </trkpt>
      <trkpt lat="45.43302" lon="5.70974">
        <ele>696.2</ele>
        <time>2021-03-13T12:29:32Z</time>
      </trkpt>
      <trkpt lat="45.43289" lon="5.70972">
        <ele>696.8</ele>
        <time>2021-03-13T12:29:36Z</time>
      </trkpt>
      <trkpt lat="45.43276" lon="5.7097">
        <ele>698</ele>
        <time>2021-03-13T12:29:40Z</time>
      </trkpt>
      <trkpt lat="45.43263" lon="5.70968">
        <ele>698.4</ele>
        <time>2021-03-13T12:29:44Z</time>
      </trkpt>
      <trkpt lat="45.43251" lon="5.70962">
        <ele>698.6</ele>
        <time>2021-03-13T12:29:48Z</time>
      </trkpt>
      <trkpt lat="45.4324" lon="5.70954">
        <ele>699</ele>
        <time>2021-03-13T12:29:52Z</time>
      </trkpt>
      <trkpt lat="45.43228" lon="5.70943">
        <ele>699.6</ele>
        <time>2021-03-13T12:29:56Z</time>
      </trkpt>
      <trkpt lat="45.43219" lon="5.70932">
        <ele>699.6</ele>
        <time>2021-03-13T12:30:00Z</time>
      </trkpt>
      <trkpt lat="45.43209" lon="5.7092">
        <ele>699.2</ele>
        <time>2021-03-13T12:30:04Z</time>
      </trkpt>
      <trkpt lat="45.43195" lon="5.70909">
        <ele>698.6</ele>
        <time>2021-03-13T12:30:08Z</time>
      </trkpt>
      <trkpt lat="45.43179" lon="5.70898">
        <ele>698</ele>
        <time>2021-03-13T12:30:12Z</time>
      </trkpt>
      <trkpt lat="45.43163" lon="5.70888">
        <ele>699</ele>
        <time>2021-03-13T12:30:16Z</time>
      </trkpt>
      <trkpt lat="45.43147" lon="5.70878">
        <ele>698.2</ele>
        <time>2021-03-13T12:30:20Z</time>
      </trkpt>
      <trkpt lat="45.43132" lon="5.70867">
        <ele>698.6</ele>
        <time>2021-03-13T12:30:24Z</time>
      </trkpt>
      <trkpt lat="45.43115" lon="5.70856">
        <ele>697</ele>
        <time>2021-03-13T12:30:28Z</time>
      </trkpt>
      <trkpt lat="45.43097" lon="5.70852">
        <ele>698</ele>
        <time>2021-03-13T12:30:32Z</time>
      </trkpt>
      <trkpt lat="45.4308" lon="5.70854">
        <ele>697.2</ele>
        <time>2021-03-13T12:30:36Z</time>
      </trkpt>
      <trkpt lat="45.43063" lon="5.70854">
        <ele>697.2</ele>
        <time>2021-03-13T12:30:40Z</time>
      </trkpt>
      <trkpt lat="45.43048" lon="5.70849">
        <ele>696.6</ele>
        <time>2021-03-13T12:30:44Z</time>
      </trkpt>
      <trkpt lat="45.43032" lon="5.70843">
        <ele>695.2</ele>
        <time>2021-03-13T12:30:48Z</time>
      </trkpt>
      <trkpt lat="45.43011" lon="5.70838">
        <ele>694.2</ele>
        <time>2021-03-13T12:30:52Z</time>
      </trkpt>
      <trkpt lat="45.4299" lon="5.70829">
        <ele>692.4</ele>
        <time>2021-03-13T12:30:56Z</time>
      </trkpt>
      <trkpt lat="45.42967" lon="5.70822">
        <ele>692</ele>
        <time>2021-03-13T12:31:00Z</time>
      </trkpt>
      <trkpt lat="45.42945" lon="5.70814">
        <ele>690.4</ele>
        <time>2021-03-13T12:31:04Z</time>
      </trkpt>
      <trkpt lat="45.42926" lon="5.70805">
        <ele>689.6</ele>
        <time>2021-03-13T12:31:08Z</time>
      </trkpt>
      <trkpt lat="45.42905" lon="5.70797">
        <ele>688.4</ele>
        <time>2021-03-13T12:31:12Z</time>
      </trkpt>
      <trkpt lat="45.42887" lon="5.70778">
        <ele>688.2</ele>
        <time>2021-03-13T12:31:16Z</time>
      </trkpt>
      <trkpt lat="45.42869" lon="5.70759">
        <ele>686.8</ele>
        <time>2021-03-13T12:31:20Z</time>
      </trkpt>
      <trkpt lat="45.42849" lon="5.70742">
        <ele>686</ele>
        <time>2021-03-13T12:31:24Z</time>
      </trkpt>
      <trkpt lat="45.42821" lon="5.70729">
        <ele>684.2</ele>
        <time>2021-03-13T12:31:28Z</time>
      </trkpt>
      <trkpt lat="45.4279" lon="5.70721">
        <ele>681.2</ele>
        <time>2021-03-13T12:31:32Z</time>
      </trkpt>
      <trkpt lat="45.42771" lon="5.70718">
        <ele>678.8</ele>
        <time>2021-03-13T12:31:36Z</time>
      </trkpt>
      <trkpt lat="45.42751" lon="5.70714">
        <ele>677.6</ele>
        <time>2021-03-13T12:31:40Z</time>
      </trkpt>
      <trkpt lat="45.42727" lon="5.70705">
        <ele>676.4</ele>
        <time>2021-03-13T12:31:44Z</time>
      </trkpt>
      <trkpt lat="45.42698" lon="5.70693">
        <ele>675.4</ele>
        <time>2021-03-13T12:31:48Z</time>
      </trkpt>
      <trkpt lat="45.42667" lon="5.70681">
        <ele>672</ele>
        <time>2021-03-13T12:31:52Z</time>
      </trkpt>
      <trkpt lat="45.42633" lon="5.70663">
        <ele>669.6</ele>
        <time>2021-03-13T12:31:56Z</time>
      </trkpt>
      <trkpt lat="45.42602" lon="5.70645">
        <ele>666.4</ele>
        <time>2021-03-13T12:32:00Z</time>
      </trkpt>
      <trkpt lat="45.42573" lon="5.70633">
        <ele>666.2</ele>
        <time>2021-03-13T12:32:04Z</time>
      </trkpt>
      <trkpt lat="45.42551" lon="5.70623">
        <ele>665.6</ele>
        <time>2021-03-13T12:32:08Z</time>
      </trkpt>
      <trkpt lat="45.42532" lon="5.70612">
        <ele>665.8</ele>
        <time>2021-03-13T12:32:12Z</time>
      </trkpt>
      <trkpt lat="45.42513" lon="5.70603">
        <ele>665.8</ele>
        <time>2021-03-13T12:32:16Z</time>
      </trkpt>
      <trkpt lat="45.42497" lon="5.70593">
        <ele>665.4</ele>
        <time>2021-03-13T12:32:20Z</time>
      </trkpt>
      <trkpt lat="45.42481" lon="5.70583">
        <ele>665.8</ele>
        <time>2021-03-13T12:32:24Z</time>
      </trkpt>
      <trkpt lat="45.42466" lon="5.7057">
        <ele>665.2</ele>
        <time>2021-03-13T12:32:28Z</time>
      </trkpt>
      <trkpt lat="45.42453" lon="5.70553">
        <ele>664.4</ele>
        <time>2021-03-13T12:32:32Z</time>
      </trkpt>
      <trkpt lat="45.42441" lon="5.70537">
        <ele>665</ele>
        <time>2021-03-13T12:32:36Z</time>
      </trkpt>
      <trkpt lat="45.42429" lon="5.7052">
        <ele>665</ele>
        <time>2021-03-13T12:32:40Z</time>
      </trkpt>
      <trkpt lat="45.42419" lon="5.705">
        <ele>665.6</ele>
        <time>2021-03-13T12:32:44Z</time>
      </trkpt>
      <trkpt lat="45.4241" lon="5.70482">
        <ele>666</ele>
        <time>2021-03-13T12:32:48Z</time>
      </trkpt>
      <trkpt lat="45.42401" lon="5.70463">
        <ele>666.2</ele>
        <time>2021-03-13T12:32:52Z</time>
      </trkpt>
      <trkpt lat="45.42392" lon="5.70446">
        <ele>666.8</ele>
        <time>2021-03-13T12:32:56Z</time>
      </trkpt>
      <trkpt lat="45.42384" lon="5.70429">
        <ele>667</ele>
        <time>2021-03-13T12:33:00Z</time>
      </trkpt>
      <trkpt lat="45.42375" lon="5.70414">
        <ele>667.2</ele>
        <time>2021-03-13T12:33:04Z</time>
      </trkpt>
      <trkpt lat="45.42368" lon="5.70397">
        <ele>668</ele>
        <time>2021-03-13T12:33:08Z</time>
      </trkpt>
      <trkpt lat="45.4236" lon="5.7038">
        <ele>667.6</ele>
        <time>2021-03-13T12:33:12Z</time>
      </trkpt>
      <trkpt lat="45.42354" lon="5.70362">
        <ele>667.6</ele>
        <time>2021-03-13T12:33:16Z</time>
      </trkpt>
      <trkpt lat="45.4235" lon="5.70341">
        <ele>667.6</ele>
        <time>2021-03-13T12:33:20Z</time>
      </trkpt>
      <trkpt lat="45.42345" lon="5.70322">
        <ele>668.2</ele>
        <time>2021-03-13T12:33:24Z</time>
      </trkpt>
      <trkpt lat="45.42338" lon="5.70304">
        <ele>668.6</ele>
        <time>2021-03-13T12:33:28Z</time>
      </trkpt>
      <trkpt lat="45.42329" lon="5.70287">
        <ele>668.8</ele>
        <time>2021-03-13T12:33:32Z</time>
      </trkpt>
      <trkpt lat="45.42317" lon="5.70272">
        <ele>668.6</ele>
        <time>2021-03-13T12:33:36Z</time>
      </trkpt>
      <trkpt lat="45.42307" lon="5.70258">
        <ele>668.8</ele>
        <time>2021-03-13T12:33:40Z</time>
      </trkpt>
      <trkpt lat="45.42297" lon="5.70244">
        <ele>669.2</ele>
        <time>2021-03-13T12:33:44Z</time>
      </trkpt>
      <trkpt lat="45.42286" lon="5.7023">
        <ele>669.2</ele>
        <time>2021-03-13T12:33:48Z</time>
      </trkpt>
      <trkpt lat="45.42276" lon="5.70216">
        <ele>669.8</ele>
        <time>2021-03-13T12:33:52Z</time>
      </trkpt>
      <trkpt lat="45.42267" lon="5.70203">
        <ele>669.8</ele>
        <time>2021-03-13T12:33:56Z</time>
      </trkpt>
      <trkpt lat="45.42257" lon="5.70188">
        <ele>670</ele>
        <time>2021-03-13T12:34:00Z</time>
      </trkpt>
      <trkpt lat="45.42246" lon="5.70174">
        <ele>670.8</ele>
        <time>2021-03-13T12:34:04Z</time>
      </trkpt>
      <trkpt lat="45.42236" lon="5.7016">
        <ele>671</ele>
        <time>2021-03-13T12:34:08Z</time>
      </trkpt>
      <trkpt lat="45.42227" lon="5.70146">
        <ele>671.6</ele>
        <time>2021-03-13T12:34:12Z</time>
      </trkpt>
      <trkpt lat="45.42218" lon="5.70134">
        <ele>672.2</ele>
        <time>2021-03-13T12:34:16Z</time>
      </trkpt>
      <trkpt lat="45.42209" lon="5.70123">
        <ele>672.4</ele>
        <time>2021-03-13T12:34:20Z</time>
      </trkpt>
      <trkpt lat="45.42201" lon="5.70112">
        <ele>673.4</ele>
        <time>2021-03-13T12:34:24Z</time>
      </trkpt>
      <trkpt lat="45.42193" lon="5.70101">
        <ele>674.6</ele>
        <time>2021-03-13T12:34:28Z</time>
      </trkpt>
      <trkpt lat="45.42186" lon="5.70091">
        <ele>675</ele>
        <time>2021-03-13T12:34:32Z</time>
      </trkpt>
      <trkpt lat="45.42179" lon="5.7008">
        <ele>675</ele>
        <time>2021-03-13T12:34:36Z</time>
      </trkpt>
      <trkpt lat="45.42171" lon="5.70069">
        <ele>676</ele>
        <time>2021-03-13T12:34:40Z</time>
      </trkpt>
      <trkpt lat="45.42163" lon="5.70056">
        <ele>676.4</ele>
        <time>2021-03-13T12:34:44Z</time>
      </trkpt>
      <trkpt lat="45.42155" lon="5.70042">
        <ele>676.4</ele>
        <time>2021-03-13T12:34:48Z</time>
      </trkpt>
      <trkpt lat="45.42148" lon="5.70027">
        <ele>676.6</ele>
        <time>2021-03-13T12:34:52Z</time>
      </trkpt>
      <trkpt lat="45.42141" lon="5.7001">
        <ele>677</ele>
        <time>2021-03-13T12:34:56Z</time>
      </trkpt>
      <trkpt lat="45.42134" lon="5.69993">
        <ele>677.8</ele>
        <time>2021-03-13T12:35:00Z</time>
      </trkpt>
      <trkpt lat="45.42128" lon="5.69976">
        <ele>677</ele>
        <time>2021-03-13T12:35:04Z</time>
      </trkpt>
      <trkpt lat="45.42122" lon="5.69959">
        <ele>676.2</ele>
        <time>2021-03-13T12:35:08Z</time>
      </trkpt>
      <trkpt lat="45.42116" lon="5.69942">
        <ele>677.4</ele>
        <time>2021-03-13T12:35:12Z</time>
      </trkpt>
      <trkpt lat="45.4211" lon="5.69926">
        <ele>677.4</ele>
        <time>2021-03-13T12:35:16Z</time>
      </trkpt>
      <trkpt lat="45.42104" lon="5.69914">
        <ele>678</ele>
        <time>2021-03-13T12:35:20Z</time>
      </trkpt>
      <trkpt lat="45.42098" lon="5.699">
        <ele>679.2</ele>
        <time>2021-03-13T12:35:24Z</time>
      </trkpt>
      <trkpt lat="45.42092" lon="5.69887">
        <ele>679</ele>
        <time>2021-03-13T12:35:28Z</time>
      </trkpt>
      <trkpt lat="45.42085" lon="5.69874">
        <ele>679.6</ele>
        <time>2021-03-13T12:35:32Z</time>
      </trkpt>
      <trkpt lat="45.42078" lon="5.69861">
        <ele>680.6</ele>
        <time>2021-03-13T12:35:36Z</time>
      </trkpt>
      <trkpt lat="45.4207" lon="5.69848">
        <ele>680.6</ele>
        <time>2021-03-13T12:35:40Z</time>
      </trkpt>
      <trkpt lat="45.42061" lon="5.69836">
        <ele>681.4</ele>
        <time>2021-03-13T12:35:44Z</time>
      </trkpt>
      <trkpt lat="45.4205" lon="5.69826">
        <ele>681.6</ele>
        <time>2021-03-13T12:35:48Z</time>
      </trkpt>
      <trkpt lat="45.42039" lon="5.69816">
        <ele>682.4</ele>
        <time>2021-03-13T12:35:52Z</time>
      </trkpt>
      <trkpt lat="45.42028" lon="5.69808">
        <ele>682.4</ele>
        <time>2021-03-13T12:35:56Z</time>
      </trkpt>
      <trkpt lat="45.42018" lon="5.69799">
        <ele>683.4</ele>
        <time>2021-03-13T12:36:00Z</time>
      </trkpt>
      <trkpt lat="45.42009" lon="5.6979">
        <ele>684.6</ele>
        <time>2021-03-13T12:36:04Z</time>
      </trkpt>
      <trkpt lat="45.41999" lon="5.69783">
        <ele>684.6</ele>
        <time>2021-03-13T12:36:08Z</time>
      </trkpt>
      <trkpt lat="45.4199" lon="5.69775">
        <ele>685.4</ele>
        <time>2021-03-13T12:36:12Z</time>
      </trkpt>
      <trkpt lat="45.41981" lon="5.69768">
        <ele>686</ele>
        <time>2021-03-13T12:36:16Z</time>
      </trkpt>
      <trkpt lat="45.41972" lon="5.6976">
        <ele>686.2</ele>
        <time>2021-03-13T12:36:20Z</time>
      </trkpt>
      <trkpt lat="45.41964" lon="5.69751">
        <ele>686.6</ele>
        <time>2021-03-13T12:36:24Z</time>
      </trkpt>
      <trkpt lat="45.41954" lon="5.69742">
        <ele>686.6</ele>
        <time>2021-03-13T12:36:28Z</time>
      </trkpt>
      <trkpt lat="45.41945" lon="5.69733">
        <ele>687.2</ele>
        <time>2021-03-13T12:36:32Z</time>
      </trkpt>
      <trkpt lat="45.41935" lon="5.69723">
        <ele>687.4</ele>
        <time>2021-03-13T12:36:36Z</time>
      </trkpt>
      <trkpt lat="45.41925" lon="5.69714">
        <ele>687.8</ele>
        <time>2021-03-13T12:36:40Z</time>
      </trkpt>
      <trkpt lat="45.41916" lon="5.69704">
        <ele>688.4</ele>
        <time>2021-03-13T12:36:44Z</time>
      </trkpt>
      <trkpt lat="45.41906" lon="5.69693">
        <ele>688.6</ele>
        <time>2021-03-13T12:36:48Z</time>
      </trkpt>
      <trkpt lat="45.41895" lon="5.69682">
        <ele>689.4</ele>
        <time>2021-03-13T12:36:52Z</time>
      </trkpt>
      <trkpt lat="45.41884" lon="5.69671">
        <ele>690</ele>
        <time>2021-03-13T12:36:56Z</time>
      </trkpt>
      <trkpt lat="45.41874" lon="5.6966">
        <ele>689.6</ele>
        <time>2021-03-13T12:37:00Z</time>
      </trkpt>
      <trkpt lat="45.41863" lon="5.69651">
        <ele>689.6</ele>
        <time>2021-03-13T12:37:04Z</time>
      </trkpt>
      <trkpt lat="45.41852" lon="5.69642">
        <ele>690.4</ele>
        <time>2021-03-13T12:37:08Z</time>
      </trkpt>
      <trkpt lat="45.41841" lon="5.69634">
        <ele>690.6</ele>
        <time>2021-03-13T12:37:12Z</time>
      </trkpt>
      <trkpt lat="45.41832" lon="5.69628">
        <ele>691.4</ele>
        <time>2021-03-13T12:37:16Z</time>
      </trkpt>
      <trkpt lat="45.41822" lon="5.69622">
        <ele>692.4</ele>
        <time>2021-03-13T12:37:20Z</time>
      </trkpt>
      <trkpt lat="45.41812" lon="5.69615">
        <ele>692.8</ele>
        <time>2021-03-13T12:37:24Z</time>
      </trkpt>
      <trkpt lat="45.418" lon="5.69608">
        <ele>692.8</ele>
        <time>2021-03-13T12:37:28Z</time>
      </trkpt>
      <trkpt lat="45.41787" lon="5.696">
        <ele>692.8</ele>
        <time>2021-03-13T12:37:32Z</time>
      </trkpt>
      <trkpt lat="45.41773" lon="5.69592">
        <ele>691.6</ele>
        <time>2021-03-13T12:37:36Z</time>
      </trkpt>
      <trkpt lat="45.41759" lon="5.69583">
        <ele>691.6</ele>
        <time>2021-03-13T12:37:40Z</time>
      </trkpt>
      <trkpt lat="45.41743" lon="5.69573">
        <ele>691.4</ele>
        <time>2021-03-13T12:37:44Z</time>
      </trkpt>
      <trkpt lat="45.41727" lon="5.69563">
        <ele>691</ele>
        <time>2021-03-13T12:37:48Z</time>
      </trkpt>
      <trkpt lat="45.41712" lon="5.69553">
        <ele>690.8</ele>
        <time>2021-03-13T12:37:52Z</time>
      </trkpt>
      <trkpt lat="45.41694" lon="5.69543">
        <ele>690.4</ele>
        <time>2021-03-13T12:37:56Z</time>
      </trkpt>
      <trkpt lat="45.41676" lon="5.69535">
        <ele>689.8</ele>
        <time>2021-03-13T12:38:00Z</time>
      </trkpt>
      <trkpt lat="45.41656" lon="5.6953">
        <ele>688.8</ele>
        <time>2021-03-13T12:38:04Z</time>
      </trkpt>
      <trkpt lat="45.41637" lon="5.69525">
        <ele>688</ele>
        <time>2021-03-13T12:38:08Z</time>
      </trkpt>
      <trkpt lat="45.41619" lon="5.69517">
        <ele>688</ele>
        <time>2021-03-13T12:38:12Z</time>
      </trkpt>
      <trkpt lat="45.41602" lon="5.69506">
        <ele>688.6</ele>
        <time>2021-03-13T12:38:16Z</time>
      </trkpt>
      <trkpt lat="45.41586" lon="5.69494">
        <ele>688.4</ele>
        <time>2021-03-13T12:38:20Z</time>
      </trkpt>
      <trkpt lat="45.41572" lon="5.69484">
        <ele>689.2</ele>
        <time>2021-03-13T12:38:24Z</time>
      </trkpt>
      <trkpt lat="45.41559" lon="5.69473">
        <ele>689.4</ele>
        <time>2021-03-13T12:38:28Z</time>
      </trkpt>
      <trkpt lat="45.41546" lon="5.69459">
        <ele>690.2</ele>
        <time>2021-03-13T12:38:32Z</time>
      </trkpt>
      <trkpt lat="45.41534" lon="5.69445">
        <ele>690.2</ele>
        <time>2021-03-13T12:38:36Z</time>
      </trkpt>
      <trkpt lat="45.41522" lon="5.6943">
        <ele>690.2</ele>
        <time>2021-03-13T12:38:40Z</time>
      </trkpt>
      <trkpt lat="45.41507" lon="5.69415">
        <ele>690.2</ele>
        <time>2021-03-13T12:38:44Z</time>
      </trkpt>
      <trkpt lat="45.41493" lon="5.694">
        <ele>690</ele>
        <time>2021-03-13T12:38:48Z</time>
      </trkpt>
      <trkpt lat="45.41481" lon="5.69387">
        <ele>689.6</ele>
        <time>2021-03-13T12:38:52Z</time>
      </trkpt>
      <trkpt lat="45.41463" lon="5.69373">
        <ele>688</ele>
        <time>2021-03-13T12:39:20Z</time>
      </trkpt>
      <trkpt lat="45.4145" lon="5.69361">
        <ele>688.8</ele>
        <time>2021-03-13T12:39:24Z</time>
      </trkpt>
      <trkpt lat="45.4144" lon="5.69344">
        <ele>688.2</ele>
        <time>2021-03-13T12:39:28Z</time>
      </trkpt>
      <trkpt lat="45.4143" lon="5.69323">
        <ele>688.4</ele>
        <time>2021-03-13T12:39:32Z</time>
      </trkpt>
      <trkpt lat="45.41418" lon="5.69303">
        <ele>688.2</ele>
        <time>2021-03-13T12:39:36Z</time>
      </trkpt>
      <trkpt lat="45.41406" lon="5.69286">
        <ele>687.6</ele>
        <time>2021-03-13T12:39:40Z</time>
      </trkpt>
      <trkpt lat="45.41391" lon="5.69272">
        <ele>687.2</ele>
        <time>2021-03-13T12:39:44Z</time>
      </trkpt>
      <trkpt lat="45.41379" lon="5.69257">
        <ele>686.8</ele>
        <time>2021-03-13T12:39:48Z</time>
      </trkpt>
      <trkpt lat="45.41376" lon="5.69232">
        <ele>686.4</ele>
        <time>2021-03-13T12:39:52Z</time>
      </trkpt>
      <trkpt lat="45.41376" lon="5.69206">
        <ele>686</ele>
        <time>2021-03-13T12:39:56Z</time>
      </trkpt>
      <trkpt lat="45.41377" lon="5.69182">
        <ele>685.6</ele>
        <time>2021-03-13T12:40:00Z</time>
      </trkpt>
      <trkpt lat="45.4138" lon="5.69157">
        <ele>685.6</ele>
        <time>2021-03-13T12:40:04Z</time>
      </trkpt>
      <trkpt lat="45.41374" lon="5.69129">
        <ele>684.4</ele>
        <time>2021-03-13T12:40:08Z</time>
      </trkpt>
      <trkpt lat="45.41365" lon="5.69101">
        <ele>684.2</ele>
        <time>2021-03-13T12:40:12Z</time>
      </trkpt>
      <trkpt lat="45.41356" lon="5.69073">
        <ele>684.4</ele>
        <time>2021-03-13T12:40:16Z</time>
      </trkpt>
      <trkpt lat="45.41347" lon="5.69044">
        <ele>683.6</ele>
        <time>2021-03-13T12:40:20Z</time>
      </trkpt>
      <trkpt lat="45.41338" lon="5.69016">
        <ele>683.6</ele>
        <time>2021-03-13T12:40:24Z</time>
      </trkpt>
      <trkpt lat="45.4133" lon="5.68987">
        <ele>683.4</ele>
        <time>2021-03-13T12:40:28Z</time>
      </trkpt>
      <trkpt lat="45.41321" lon="5.68958">
        <ele>683.2</ele>
        <time>2021-03-13T12:40:32Z</time>
      </trkpt>
      <trkpt lat="45.41313" lon="5.68929">
        <ele>682.8</ele>
        <time>2021-03-13T12:40:36Z</time>
      </trkpt>
      <trkpt lat="45.41306" lon="5.68899">
        <ele>682</ele>
        <time>2021-03-13T12:40:40Z</time>
      </trkpt>
      <trkpt lat="45.41302" lon="5.6887">
        <ele>682</ele>
        <time>2021-03-13T12:40:44Z</time>
      </trkpt>
      <trkpt lat="45.41299" lon="5.68842">
        <ele>681.6</ele>
        <time>2021-03-13T12:40:48Z</time>
      </trkpt>
      <trkpt lat="45.41296" lon="5.68814">
        <ele>681.2</ele>
        <time>2021-03-13T12:40:52Z</time>
      </trkpt>
      <trkpt lat="45.41292" lon="5.68784">
        <ele>681.4</ele>
        <time>2021-03-13T12:40:56Z</time>
      </trkpt>
      <trkpt lat="45.4129" lon="5.68753">
        <ele>681.2</ele>
        <time>2021-03-13T12:41:00Z</time>
      </trkpt>
      <trkpt lat="45.41289" lon="5.6872">
        <ele>681.2</ele>
        <time>2021-03-13T12:41:04Z</time>
      </trkpt>
      <trkpt lat="45.41291" lon="5.68689">
        <ele>681.4</ele>
        <time>2021-03-13T12:41:08Z</time>
      </trkpt>
      <trkpt lat="45.41296" lon="5.68662">
        <ele>680.6</ele>
        <time>2021-03-13T12:41:12Z</time>
      </trkpt>
      <trkpt lat="45.41308" lon="5.68637">
        <ele>680.2</ele>
        <time>2021-03-13T12:41:16Z</time>
      </trkpt>
      <trkpt lat="45.41322" lon="5.68621">
        <ele>679.4</ele>
        <time>2021-03-13T12:41:20Z</time>
      </trkpt>
      <trkpt lat="45.41341" lon="5.68608">
        <ele>679.4</ele>
        <time>2021-03-13T12:41:24Z</time>
      </trkpt>
      <trkpt lat="45.41359" lon="5.68597">
        <ele>678.6</ele>
        <time>2021-03-13T12:41:28Z</time>
      </trkpt>
      <trkpt lat="45.41373" lon="5.68571">
        <ele>678</ele>
        <time>2021-03-13T12:41:32Z</time>
      </trkpt>
      <trkpt lat="45.41381" lon="5.68537">
        <ele>677</ele>
        <time>2021-03-13T12:41:36Z</time>
      </trkpt>
      <trkpt lat="45.41394" lon="5.68498">
        <ele>674.6</ele>
        <time>2021-03-13T12:41:40Z</time>
      </trkpt>
      <trkpt lat="45.41407" lon="5.68456">
        <ele>673</ele>
        <time>2021-03-13T12:41:44Z</time>
      </trkpt>
      <trkpt lat="45.41418" lon="5.68419">
        <ele>671.8</ele>
        <time>2021-03-13T12:41:48Z</time>
      </trkpt>
      <trkpt lat="45.41426" lon="5.68386">
        <ele>670</ele>
        <time>2021-03-13T12:41:52Z</time>
      </trkpt>
      <trkpt lat="45.41431" lon="5.68353">
        <ele>668.8</ele>
        <time>2021-03-13T12:41:56Z</time>
      </trkpt>
      <trkpt lat="45.41453" lon="5.68344">
        <ele>668.4</ele>
        <time>2021-03-13T12:42:00Z</time>
      </trkpt>
      <trkpt lat="45.41463" lon="5.68366">
        <ele>665.4</ele>
        <time>2021-03-13T12:42:04Z</time>
      </trkpt>
      <trkpt lat="45.41467" lon="5.6839">
        <ele>663.8</ele>
        <time>2021-03-13T12:42:08Z</time>
      </trkpt>
      <trkpt lat="45.41448" lon="5.68384">
        <ele>661.8</ele>
        <time>2021-03-13T12:42:12Z</time>
      </trkpt>
      <trkpt lat="45.41442" lon="5.68351">
        <ele>659.6</ele>
        <time>2021-03-13T12:42:16Z</time>
      </trkpt>
      <trkpt lat="45.41431" lon="5.68317">
        <ele>657</ele>
        <time>2021-03-13T12:42:20Z</time>
      </trkpt>
      <trkpt lat="45.41413" lon="5.68276">
        <ele>654.6</ele>
        <time>2021-03-13T12:42:24Z</time>
      </trkpt>
      <trkpt lat="45.414" lon="5.6823">
        <ele>651.4</ele>
        <time>2021-03-13T12:42:28Z</time>
      </trkpt>
      <trkpt lat="45.41404" lon="5.68175">
        <ele>648.2</ele>
        <time>2021-03-13T12:42:32Z</time>
      </trkpt>
      <trkpt lat="45.41393" lon="5.68117">
        <ele>645.8</ele>
        <time>2021-03-13T12:42:36Z</time>
      </trkpt>
      <trkpt lat="45.41377" lon="5.68055">
        <ele>642.6</ele>
        <time>2021-03-13T12:42:40Z</time>
      </trkpt>
      <trkpt lat="45.41369" lon="5.67997">
        <ele>641</ele>
        <time>2021-03-13T12:42:44Z</time>
      </trkpt>
      <trkpt lat="45.41362" lon="5.6794">
        <ele>635.8</ele>
        <time>2021-03-13T12:42:48Z</time>
      </trkpt>
      <trkpt lat="45.41363" lon="5.67884">
        <ele>631.4</ele>
        <time>2021-03-13T12:42:52Z</time>
      </trkpt>
      <trkpt lat="45.41364" lon="5.67831">
        <ele>627.6</ele>
        <time>2021-03-13T12:42:56Z</time>
      </trkpt>
      <trkpt lat="45.41353" lon="5.67778">
        <ele>624.6</ele>
        <time>2021-03-13T12:43:00Z</time>
      </trkpt>
      <trkpt lat="45.41339" lon="5.67725">
        <ele>621.8</ele>
        <time>2021-03-13T12:43:04Z</time>
      </trkpt>
      <trkpt lat="45.41337" lon="5.6767">
        <ele>619.6</ele>
        <time>2021-03-13T12:43:08Z</time>
      </trkpt>
      <trkpt lat="45.41333" lon="5.67612">
        <ele>616.6</ele>
        <time>2021-03-13T12:43:12Z</time>
      </trkpt>
      <trkpt lat="45.41333" lon="5.67612">
        <ele>613.8</ele>
        <time>2021-03-13T12:43:16Z</time>
      </trkpt>
      <trkpt lat="45.41327" lon="5.67544">
        <ele>610</ele>
        <time>2021-03-13T12:43:20Z</time>
      </trkpt>
      <trkpt lat="45.41288" lon="5.67516">
        <ele>608</ele>
        <time>2021-03-13T12:43:24Z</time>
      </trkpt>
      <trkpt lat="45.41247" lon="5.67492">
        <ele>608.2</ele>
        <time>2021-03-13T12:43:28Z</time>
      </trkpt>
      <trkpt lat="45.41213" lon="5.67471">
        <ele>605.8</ele>
        <time>2021-03-13T12:43:32Z</time>
      </trkpt>
      <trkpt lat="45.41183" lon="5.6745">
        <ele>605</ele>
        <time>2021-03-13T12:43:36Z</time>
      </trkpt>
      <trkpt lat="45.41155" lon="5.67431">
        <ele>604.4</ele>
        <time>2021-03-13T12:43:40Z</time>
      </trkpt>
      <trkpt lat="45.41128" lon="5.67413">
        <ele>602.6</ele>
        <time>2021-03-13T12:43:44Z</time>
      </trkpt>
      <trkpt lat="45.41099" lon="5.67394">
        <ele>600.8</ele>
        <time>2021-03-13T12:43:48Z</time>
      </trkpt>
      <trkpt lat="45.41068" lon="5.67374">
        <ele>599.4</ele>
        <time>2021-03-13T12:43:52Z</time>
      </trkpt>
      <trkpt lat="45.41038" lon="5.67352">
        <ele>597.2</ele>
        <time>2021-03-13T12:43:56Z</time>
      </trkpt>
      <trkpt lat="45.41007" lon="5.67329">
        <ele>595.6</ele>
        <time>2021-03-13T12:44:00Z</time>
      </trkpt>
      <trkpt lat="45.40977" lon="5.67309">
        <ele>593.6</ele>
        <time>2021-03-13T12:44:04Z</time>
      </trkpt>
      <trkpt lat="45.40949" lon="5.67291">
        <ele>592</ele>
        <time>2021-03-13T12:44:08Z</time>
      </trkpt>
      <trkpt lat="45.40928" lon="5.67259">
        <ele>590</ele>
        <time>2021-03-13T12:44:12Z</time>
      </trkpt>
      <trkpt lat="45.40911" lon="5.67225">
        <ele>588.8</ele>
        <time>2021-03-13T12:44:16Z</time>
      </trkpt>
      <trkpt lat="45.40894" lon="5.67193">
        <ele>588</ele>
        <time>2021-03-13T12:44:20Z</time>
      </trkpt>
      <trkpt lat="45.40874" lon="5.67166">
        <ele>585.8</ele>
        <time>2021-03-13T12:44:24Z</time>
      </trkpt>
      <trkpt lat="45.40852" lon="5.67146">
        <ele>585.4</ele>
        <time>2021-03-13T12:44:28Z</time>
      </trkpt>
      <trkpt lat="45.40824" lon="5.67151">
        <ele>583.6</ele>
        <time>2021-03-13T12:44:32Z</time>
      </trkpt>
      <trkpt lat="45.40796" lon="5.67162">
        <ele>581.6</ele>
        <time>2021-03-13T12:44:36Z</time>
      </trkpt>
      <trkpt lat="45.40768" lon="5.67168">
        <ele>580</ele>
        <time>2021-03-13T12:44:40Z</time>
      </trkpt>
      <trkpt lat="45.40742" lon="5.67171">
        <ele>579.2</ele>
        <time>2021-03-13T12:44:44Z</time>
      </trkpt>
      <trkpt lat="45.40715" lon="5.67172">
        <ele>578.8</ele>
        <time>2021-03-13T12:44:48Z</time>
      </trkpt>
      <trkpt lat="45.40689" lon="5.67172">
        <ele>577.2</ele>
        <time>2021-03-13T12:44:52Z</time>
      </trkpt>
      <trkpt lat="45.40662" lon="5.6717">
        <ele>576.4</ele>
        <time>2021-03-13T12:44:56Z</time>
      </trkpt>
      <trkpt lat="45.40637" lon="5.67169">
        <ele>575.4</ele>
        <time>2021-03-13T12:45:00Z</time>
      </trkpt>
      <trkpt lat="45.40615" lon="5.6717">
        <ele>574.8</ele>
        <time>2021-03-13T12:45:04Z</time>
      </trkpt>
      <trkpt lat="45.40592" lon="5.6717">
        <ele>574.6</ele>
        <time>2021-03-13T12:45:08Z</time>
      </trkpt>
      <trkpt lat="45.40571" lon="5.67168">
        <ele>573</ele>
        <time>2021-03-13T12:45:12Z</time>
      </trkpt>
      <trkpt lat="45.40548" lon="5.67168">
        <ele>573</ele>
        <time>2021-03-13T12:45:16Z</time>
      </trkpt>
      <trkpt lat="45.40526" lon="5.67165">
        <ele>573.2</ele>
        <time>2021-03-13T12:45:20Z</time>
      </trkpt>
      <trkpt lat="45.40507" lon="5.67157">
        <ele>572.8</ele>
        <time>2021-03-13T12:45:24Z</time>
      </trkpt>
      <trkpt lat="45.40489" lon="5.67149">
        <ele>572.6</ele>
        <time>2021-03-13T12:45:28Z</time>
      </trkpt>
      <trkpt lat="45.4047" lon="5.6714">
        <ele>572.6</ele>
        <time>2021-03-13T12:45:32Z</time>
      </trkpt>
      <trkpt lat="45.40451" lon="5.67131">
        <ele>572</ele>
        <time>2021-03-13T12:45:36Z</time>
      </trkpt>
      <trkpt lat="45.40431" lon="5.67121">
        <ele>572.2</ele>
        <time>2021-03-13T12:45:40Z</time>
      </trkpt>
      <trkpt lat="45.40412" lon="5.67113">
        <ele>570.6</ele>
        <time>2021-03-13T12:45:44Z</time>
      </trkpt>
      <trkpt lat="45.40394" lon="5.6711">
        <ele>568.8</ele>
        <time>2021-03-13T12:45:48Z</time>
      </trkpt>
      <trkpt lat="45.40375" lon="5.67109">
        <ele>568.8</ele>
        <time>2021-03-13T12:45:52Z</time>
      </trkpt>
      <trkpt lat="45.40356" lon="5.67109">
        <ele>568.4</ele>
        <time>2021-03-13T12:45:56Z</time>
      </trkpt>
      <trkpt lat="45.40338" lon="5.67106">
        <ele>568.2</ele>
        <time>2021-03-13T12:46:00Z</time>
      </trkpt>
      <trkpt lat="45.4032" lon="5.67104">
        <ele>568</ele>
        <time>2021-03-13T12:46:04Z</time>
      </trkpt>
      <trkpt lat="45.40302" lon="5.67103">
        <ele>566.8</ele>
        <time>2021-03-13T12:46:08Z</time>
      </trkpt>
      <trkpt lat="45.40283" lon="5.6711">
        <ele>565.6</ele>
        <time>2021-03-13T12:46:12Z</time>
      </trkpt>
      <trkpt lat="45.40263" lon="5.67119">
        <ele>565.8</ele>
        <time>2021-03-13T12:46:16Z</time>
      </trkpt>
      <trkpt lat="45.40243" lon="5.6712">
        <ele>565.8</ele>
        <time>2021-03-13T12:46:20Z</time>
      </trkpt>
      <trkpt lat="45.40222" lon="5.67114">
        <ele>564.8</ele>
        <time>2021-03-13T12:46:24Z</time>
      </trkpt>
      <trkpt lat="45.402" lon="5.67109">
        <ele>563.8</ele>
        <time>2021-03-13T12:46:28Z</time>
      </trkpt>
      <trkpt lat="45.40178" lon="5.67103">
        <ele>562.6</ele>
        <time>2021-03-13T12:46:32Z</time>
      </trkpt>
      <trkpt lat="45.40156" lon="5.67099">
        <ele>562</ele>
        <time>2021-03-13T12:46:36Z</time>
      </trkpt>
      <trkpt lat="45.40134" lon="5.67095">
        <ele>561.2</ele>
        <time>2021-03-13T12:46:40Z</time>
      </trkpt>
      <trkpt lat="45.40112" lon="5.67089">
        <ele>561</ele>
        <time>2021-03-13T12:46:44Z</time>
      </trkpt>
      <trkpt lat="45.40091" lon="5.67079">
        <ele>560</ele>
        <time>2021-03-13T12:46:48Z</time>
      </trkpt>
      <trkpt lat="45.4007" lon="5.67068">
        <ele>559.4</ele>
        <time>2021-03-13T12:46:52Z</time>
      </trkpt>
      <trkpt lat="45.40049" lon="5.67057">
        <ele>558.6</ele>
        <time>2021-03-13T12:46:56Z</time>
      </trkpt>
      <trkpt lat="45.40026" lon="5.67056">
        <ele>557.6</ele>
        <time>2021-03-13T12:47:00Z</time>
      </trkpt>
      <trkpt lat="45.40003" lon="5.67059">
        <ele>556.6</ele>
        <time>2021-03-13T12:47:04Z</time>
      </trkpt>
      <trkpt lat="45.3998" lon="5.67061">
        <ele>556.2</ele>
        <time>2021-03-13T12:47:08Z</time>
      </trkpt>
      <trkpt lat="45.39958" lon="5.67062">
        <ele>555.6</ele>
        <time>2021-03-13T12:47:12Z</time>
      </trkpt>
      <trkpt lat="45.39936" lon="5.67064">
        <ele>555.2</ele>
        <time>2021-03-13T12:47:16Z</time>
      </trkpt>
      <trkpt lat="45.39911" lon="5.67066">
        <ele>554.4</ele>
        <time>2021-03-13T12:47:20Z</time>
      </trkpt>
      <trkpt lat="45.39888" lon="5.67073">
        <ele>554.4</ele>
        <time>2021-03-13T12:47:24Z</time>
      </trkpt>
      <trkpt lat="45.39865" lon="5.67077">
        <ele>554.6</ele>
        <time>2021-03-13T12:47:28Z</time>
      </trkpt>
      <trkpt lat="45.39846" lon="5.67064">
        <ele>553.8</ele>
        <time>2021-03-13T12:47:32Z</time>
      </trkpt>
      <trkpt lat="45.3983" lon="5.67043">
        <ele>553.4</ele>
        <time>2021-03-13T12:47:36Z</time>
      </trkpt>
      <trkpt lat="45.39817" lon="5.67019">
        <ele>553.6</ele>
        <time>2021-03-13T12:47:40Z</time>
      </trkpt>
      <trkpt lat="45.39808" lon="5.66994">
        <ele>553.6</ele>
        <time>2021-03-13T12:47:44Z</time>
      </trkpt>
      <trkpt lat="45.39799" lon="5.66969">
        <ele>552.8</ele>
        <time>2021-03-13T12:47:48Z</time>
      </trkpt>
      <trkpt lat="45.39791" lon="5.66944">
        <ele>552.4</ele>
        <time>2021-03-13T12:47:52Z</time>
      </trkpt>
      <trkpt lat="45.39788" lon="5.66932">
        <ele>551.8</ele>
        <time>2021-03-13T12:47:56Z</time>
      </trkpt>
      <trkpt lat="45.39786" lon="5.66938">
        <ele>552</ele>
        <time>2021-03-13T12:48:10Z</time>
      </trkpt>
      <trkpt lat="45.39792" lon="5.66954">
        <ele>552.2</ele>
        <time>2021-03-13T12:48:14Z</time>
      </trkpt>
      <trkpt lat="45.39799" lon="5.66972">
        <ele>552.4</ele>
        <time>2021-03-13T12:48:18Z</time>
      </trkpt>
      <trkpt lat="45.39805" lon="5.66992">
        <ele>553</ele>
        <time>2021-03-13T12:48:22Z</time>
      </trkpt>
      <trkpt lat="45.39813" lon="5.67012">
        <ele>553.4</ele>
        <time>2021-03-13T12:48:26Z</time>
      </trkpt>
      <trkpt lat="45.39823" lon="5.67033">
        <ele>553.2</ele>
        <time>2021-03-13T12:48:30Z</time>
      </trkpt>
      <trkpt lat="45.39833" lon="5.6705">
        <ele>553.6</ele>
        <time>2021-03-13T12:48:34Z</time>
      </trkpt>
      <trkpt lat="45.39844" lon="5.67066">
        <ele>554</ele>
        <time>2021-03-13T12:48:38Z</time>
      </trkpt>
      <trkpt lat="45.39845" lon="5.67084">
        <ele>554.6</ele>
        <time>2021-03-13T12:48:42Z</time>
      </trkpt>
      <trkpt lat="45.39843" lon="5.67104">
        <ele>555.4</ele>
        <time>2021-03-13T12:48:46Z</time>
      </trkpt>
      <trkpt lat="45.3984" lon="5.67121">
        <ele>555</ele>
        <time>2021-03-13T12:48:50Z</time>
      </trkpt>
      <trkpt lat="45.39833" lon="5.67135">
        <ele>555.6</ele>
        <time>2021-03-13T12:48:54Z</time>
      </trkpt>
      <trkpt lat="45.39822" lon="5.67147">
        <ele>557</ele>
        <time>2021-03-13T12:48:58Z</time>
      </trkpt>
      <trkpt lat="45.3981" lon="5.67157">
        <ele>556.2</ele>
        <time>2021-03-13T12:49:02Z</time>
      </trkpt>
      <trkpt lat="45.39799" lon="5.67168">
        <ele>556.4</ele>
        <time>2021-03-13T12:49:06Z</time>
      </trkpt>
      <trkpt lat="45.39792" lon="5.67181">
        <ele>556.6</ele>
        <time>2021-03-13T12:49:10Z</time>
      </trkpt>
      <trkpt lat="45.39783" lon="5.67193">
        <ele>558</ele>
        <time>2021-03-13T12:49:14Z</time>
      </trkpt>
      <trkpt lat="45.39773" lon="5.67203">
        <ele>558.2</ele>
        <time>2021-03-13T12:49:18Z</time>
      </trkpt>
      <trkpt lat="45.39764" lon="5.67208">
        <ele>559</ele>
        <time>2021-03-13T12:49:22Z</time>
      </trkpt>
      <trkpt lat="45.39756" lon="5.67211">
        <ele>559</ele>
        <time>2021-03-13T12:49:26Z</time>
      </trkpt>
      <trkpt lat="45.39748" lon="5.67211">
        <ele>560.4</ele>
        <time>2021-03-13T12:49:30Z</time>
      </trkpt>
      <trkpt lat="45.39739" lon="5.67211">
        <ele>560.8</ele>
        <time>2021-03-13T12:49:34Z</time>
      </trkpt>
      <trkpt lat="45.39732" lon="5.6721">
        <ele>561.4</ele>
        <time>2021-03-13T12:49:38Z</time>
      </trkpt>
      <trkpt lat="45.39722" lon="5.67209">
        <ele>561.6</ele>
        <time>2021-03-13T12:49:42Z</time>
      </trkpt>
      <trkpt lat="45.39711" lon="5.67206">
        <ele>562.6</ele>
        <time>2021-03-13T12:49:46Z</time>
      </trkpt>
      <trkpt lat="45.397" lon="5.67204">
        <ele>562.8</ele>
        <time>2021-03-13T12:49:50Z</time>
      </trkpt>
      <trkpt lat="45.3969" lon="5.67202">
        <ele>562.8</ele>
        <time>2021-03-13T12:49:54Z</time>
      </trkpt>
      <trkpt lat="45.39683" lon="5.67201">
        <ele>563.2</ele>
        <time>2021-03-13T12:49:58Z</time>
      </trkpt>
      <trkpt lat="45.39672" lon="5.67199">
        <ele>563.2</ele>
        <time>2021-03-13T12:50:02Z</time>
      </trkpt>
      <trkpt lat="45.3966" lon="5.67195">
        <ele>563.2</ele>
        <time>2021-03-13T12:50:06Z</time>
      </trkpt>
      <trkpt lat="45.39647" lon="5.67188">
        <ele>562.2</ele>
        <time>2021-03-13T12:50:10Z</time>
      </trkpt>
      <trkpt lat="45.39633" lon="5.6718">
        <ele>562.2</ele>
        <time>2021-03-13T12:50:14Z</time>
      </trkpt>
      <trkpt lat="45.3962" lon="5.67169">
        <ele>561.6</ele>
        <time>2021-03-13T12:50:18Z</time>
      </trkpt>
      <trkpt lat="45.39608" lon="5.67154">
        <ele>561.2</ele>
        <time>2021-03-13T12:50:22Z</time>
      </trkpt>
      <trkpt lat="45.3959" lon="5.67134">
        <ele>560</ele>
        <time>2021-03-13T12:50:26Z</time>
      </trkpt>
      <trkpt lat="45.39572" lon="5.67121">
        <ele>558.2</ele>
        <time>2021-03-13T12:50:30Z</time>
      </trkpt>
      <trkpt lat="45.39548" lon="5.67097">
        <ele>557.6</ele>
        <time>2021-03-13T12:50:34Z</time>
      </trkpt>
      <trkpt lat="45.39521" lon="5.67064">
        <ele>551.4</ele>
        <time>2021-03-13T12:50:38Z</time>
      </trkpt>
      <trkpt lat="45.39493" lon="5.67023">
        <ele>551</ele>
        <time>2021-03-13T12:50:42Z</time>
      </trkpt>
      <trkpt lat="45.39469" lon="5.66987">
        <ele>549.8</ele>
        <time>2021-03-13T12:50:46Z</time>
      </trkpt>
      <trkpt lat="45.39442" lon="5.66958">
        <ele>547.4</ele>
        <time>2021-03-13T12:50:50Z</time>
      </trkpt>
      <trkpt lat="45.39415" lon="5.66939">
        <ele>548</ele>
        <time>2021-03-13T12:50:54Z</time>
      </trkpt>
      <trkpt lat="45.39391" lon="5.66921">
        <ele>547.4</ele>
        <time>2021-03-13T12:50:58Z</time>
      </trkpt>
      <trkpt lat="45.3937" lon="5.66907">
        <ele>548.2</ele>
        <time>2021-03-13T12:51:02Z</time>
      </trkpt>
      <trkpt lat="45.3935" lon="5.66896">
        <ele>548</ele>
        <time>2021-03-13T12:51:06Z</time>
      </trkpt>
      <trkpt lat="45.39331" lon="5.66886">
        <ele>547.4</ele>
        <time>2021-03-13T12:51:10Z</time>
      </trkpt>
      <trkpt lat="45.39321" lon="5.66874">
        <ele>548</ele>
        <time>2021-03-13T12:51:14Z</time>
      </trkpt>
      <trkpt lat="45.3931" lon="5.66864">
        <ele>549</ele>
        <time>2021-03-13T12:51:18Z</time>
      </trkpt>
      <trkpt lat="45.39298" lon="5.66855">
        <ele>549</ele>
        <time>2021-03-13T12:51:22Z</time>
      </trkpt>
      <trkpt lat="45.39292" lon="5.66837">
        <ele>549.4</ele>
        <time>2021-03-13T12:51:26Z</time>
      </trkpt>
      <trkpt lat="45.3928" lon="5.6682">
        <ele>549</ele>
        <time>2021-03-13T12:51:30Z</time>
      </trkpt>
      <trkpt lat="45.39268" lon="5.66806">
        <ele>548.6</ele>
        <time>2021-03-13T12:51:34Z</time>
      </trkpt>
      <trkpt lat="45.39253" lon="5.66791">
        <ele>548.8</ele>
        <time>2021-03-13T12:51:38Z</time>
      </trkpt>
      <trkpt lat="45.39239" lon="5.66773">
        <ele>549</ele>
        <time>2021-03-13T12:51:42Z</time>
      </trkpt>
      <trkpt lat="45.39226" lon="5.66757">
        <ele>548</ele>
        <time>2021-03-13T12:51:46Z</time>
      </trkpt>
      <trkpt lat="45.39209" lon="5.66739">
        <ele>548</ele>
        <time>2021-03-13T12:51:50Z</time>
      </trkpt>
      <trkpt lat="45.39193" lon="5.66715">
        <ele>546.2</ele>
        <time>2021-03-13T12:51:54Z</time>
      </trkpt>
      <trkpt lat="45.39177" lon="5.6669">
        <ele>546.2</ele>
        <time>2021-03-13T12:51:58Z</time>
      </trkpt>
      <trkpt lat="45.39162" lon="5.66668">
        <ele>546</ele>
        <time>2021-03-13T12:52:02Z</time>
      </trkpt>
      <trkpt lat="45.39147" lon="5.66644">
        <ele>545.4</ele>
        <time>2021-03-13T12:52:06Z</time>
      </trkpt>
      <trkpt lat="45.39132" lon="5.66623">
        <ele>544.4</ele>
        <time>2021-03-13T12:52:10Z</time>
      </trkpt>
      <trkpt lat="45.39117" lon="5.66604">
        <ele>543.6</ele>
        <time>2021-03-13T12:52:14Z</time>
      </trkpt>
      <trkpt lat="45.39101" lon="5.66588">
        <ele>545.2</ele>
        <time>2021-03-13T12:52:18Z</time>
      </trkpt>
      <trkpt lat="45.39086" lon="5.66575">
        <ele>544.8</ele>
        <time>2021-03-13T12:52:22Z</time>
      </trkpt>
      <trkpt lat="45.39071" lon="5.66562">
        <ele>544.8</ele>
        <time>2021-03-13T12:52:26Z</time>
      </trkpt>
      <trkpt lat="45.39056" lon="5.66549">
        <ele>544.2</ele>
        <time>2021-03-13T12:52:30Z</time>
      </trkpt>
      <trkpt lat="45.39042" lon="5.66538">
        <ele>543.8</ele>
        <time>2021-03-13T12:52:34Z</time>
      </trkpt>
      <trkpt lat="45.39027" lon="5.66525">
        <ele>544.2</ele>
        <time>2021-03-13T12:52:38Z</time>
      </trkpt>
      <trkpt lat="45.3901" lon="5.66514">
        <ele>543.4</ele>
        <time>2021-03-13T12:52:42Z</time>
      </trkpt>
      <trkpt lat="45.38994" lon="5.66501">
        <ele>543.6</ele>
        <time>2021-03-13T12:52:46Z</time>
      </trkpt>
      <trkpt lat="45.38978" lon="5.66488">
        <ele>543.2</ele>
        <time>2021-03-13T12:52:50Z</time>
      </trkpt>
      <trkpt lat="45.38961" lon="5.66473">
        <ele>543.6</ele>
        <time>2021-03-13T12:52:54Z</time>
      </trkpt>
      <trkpt lat="45.38945" lon="5.66457">
        <ele>543</ele>
        <time>2021-03-13T12:52:58Z</time>
      </trkpt>
      <trkpt lat="45.38929" lon="5.66442">
        <ele>542.6</ele>
        <time>2021-03-13T12:53:02Z</time>
      </trkpt>
      <trkpt lat="45.38914" lon="5.6643">
        <ele>543</ele>
        <time>2021-03-13T12:53:06Z</time>
      </trkpt>
      <trkpt lat="45.389" lon="5.66418">
        <ele>542.4</ele>
        <time>2021-03-13T12:53:10Z</time>
      </trkpt>
      <trkpt lat="45.38888" lon="5.66407">
        <ele>542.6</ele>
        <time>2021-03-13T12:53:14Z</time>
      </trkpt>
      <trkpt lat="45.38874" lon="5.66393">
        <ele>542.4</ele>
        <time>2021-03-13T12:53:18Z</time>
      </trkpt>
      <trkpt lat="45.3886" lon="5.6638">
        <ele>543.2</ele>
        <time>2021-03-13T12:53:22Z</time>
      </trkpt>
      <trkpt lat="45.38845" lon="5.66367">
        <ele>543.4</ele>
        <time>2021-03-13T12:53:26Z</time>
      </trkpt>
      <trkpt lat="45.3883" lon="5.66355">
        <ele>542.4</ele>
        <time>2021-03-13T12:53:30Z</time>
      </trkpt>
      <trkpt lat="45.38815" lon="5.66343">
        <ele>543</ele>
        <time>2021-03-13T12:53:34Z</time>
      </trkpt>
      <trkpt lat="45.38801" lon="5.66329">
        <ele>543</ele>
        <time>2021-03-13T12:53:38Z</time>
      </trkpt>
      <trkpt lat="45.38788" lon="5.66318">
        <ele>544</ele>
        <time>2021-03-13T12:53:42Z</time>
      </trkpt>
      <trkpt lat="45.38777" lon="5.66306">
        <ele>544.8</ele>
        <time>2021-03-13T12:53:46Z</time>
      </trkpt>
      <trkpt lat="45.38767" lon="5.66297">
        <ele>544.4</ele>
        <time>2021-03-13T12:53:50Z</time>
      </trkpt>
      <trkpt lat="45.38758" lon="5.66287">
        <ele>545.4</ele>
        <time>2021-03-13T12:53:54Z</time>
      </trkpt>
      <trkpt lat="45.38747" lon="5.66275">
        <ele>545.8</ele>
        <time>2021-03-13T12:53:58Z</time>
      </trkpt>
      <trkpt lat="45.38737" lon="5.6626">
        <ele>546.2</ele>
        <time>2021-03-13T12:54:02Z</time>
      </trkpt>
      <trkpt lat="45.38726" lon="5.66249">
        <ele>547</ele>
        <time>2021-03-13T12:54:06Z</time>
      </trkpt>
      <trkpt lat="45.38717" lon="5.66238">
        <ele>547.2</ele>
        <time>2021-03-13T12:54:10Z</time>
      </trkpt>
      <trkpt lat="45.38706" lon="5.66228">
        <ele>546.6</ele>
        <time>2021-03-13T12:54:14Z</time>
      </trkpt>
      <trkpt lat="45.38696" lon="5.66217">
        <ele>545.8</ele>
        <time>2021-03-13T12:54:18Z</time>
      </trkpt>
      <trkpt lat="45.38686" lon="5.66203">
        <ele>545.6</ele>
        <time>2021-03-13T12:54:22Z</time>
      </trkpt>
      <trkpt lat="45.38678" lon="5.66181">
        <ele>544.8</ele>
        <time>2021-03-13T12:54:26Z</time>
      </trkpt>
      <trkpt lat="45.38666" lon="5.66156">
        <ele>543.8</ele>
        <time>2021-03-13T12:54:30Z</time>
      </trkpt>
      <trkpt lat="45.38654" lon="5.66133">
        <ele>544</ele>
        <time>2021-03-13T12:54:34Z</time>
      </trkpt>
      <trkpt lat="45.38638" lon="5.66116">
        <ele>543.6</ele>
        <time>2021-03-13T12:54:38Z</time>
      </trkpt>
      <trkpt lat="45.38622" lon="5.66099">
        <ele>543.8</ele>
        <time>2021-03-13T12:54:42Z</time>
      </trkpt>
      <trkpt lat="45.38607" lon="5.66083">
        <ele>543.6</ele>
        <time>2021-03-13T12:54:46Z</time>
      </trkpt>
      <trkpt lat="45.38593" lon="5.66069">
        <ele>543</ele>
        <time>2021-03-13T12:54:50Z</time>
      </trkpt>
      <trkpt lat="45.38578" lon="5.66052">
        <ele>542</ele>
        <time>2021-03-13T12:54:54Z</time>
      </trkpt>
      <trkpt lat="45.38567" lon="5.6603">
        <ele>542.8</ele>
        <time>2021-03-13T12:54:58Z</time>
      </trkpt>
      <trkpt lat="45.38557" lon="5.66006">
        <ele>542.6</ele>
        <time>2021-03-13T12:55:02Z</time>
      </trkpt>
      <trkpt lat="45.38548" lon="5.65981">
        <ele>543.4</ele>
        <time>2021-03-13T12:55:06Z</time>
      </trkpt>
      <trkpt lat="45.3854" lon="5.65956">
        <ele>542</ele>
        <time>2021-03-13T12:55:10Z</time>
      </trkpt>
      <trkpt lat="45.38533" lon="5.6593">
        <ele>542.8</ele>
        <time>2021-03-13T12:55:14Z</time>
      </trkpt>
      <trkpt lat="45.38527" lon="5.65905">
        <ele>542.4</ele>
        <time>2021-03-13T12:55:18Z</time>
      </trkpt>
      <trkpt lat="45.38522" lon="5.6588">
        <ele>542.6</ele>
        <time>2021-03-13T12:55:22Z</time>
      </trkpt>
      <trkpt lat="45.38515" lon="5.65857">
        <ele>542.2</ele>
        <time>2021-03-13T12:55:26Z</time>
      </trkpt>
      <trkpt lat="45.38508" lon="5.65834">
        <ele>542.4</ele>
        <time>2021-03-13T12:55:30Z</time>
      </trkpt>
      <trkpt lat="45.38499" lon="5.65814">
        <ele>542.2</ele>
        <time>2021-03-13T12:55:34Z</time>
      </trkpt>
      <trkpt lat="45.38487" lon="5.65794">
        <ele>542.4</ele>
        <time>2021-03-13T12:55:38Z</time>
      </trkpt>
      <trkpt lat="45.38476" lon="5.65776">
        <ele>542.4</ele>
        <time>2021-03-13T12:55:42Z</time>
      </trkpt>
      <trkpt lat="45.38465" lon="5.65757">
        <ele>542.6</ele>
        <time>2021-03-13T12:55:46Z</time>
      </trkpt>
      <trkpt lat="45.38455" lon="5.65737">
        <ele>542.8</ele>
        <time>2021-03-13T12:55:50Z</time>
      </trkpt>
      <trkpt lat="45.38445" lon="5.6572">
        <ele>542.6</ele>
        <time>2021-03-13T12:55:54Z</time>
      </trkpt>
      <trkpt lat="45.38435" lon="5.65701">
        <ele>543</ele>
        <time>2021-03-13T12:55:58Z</time>
      </trkpt>
      <trkpt lat="45.38424" lon="5.65681">
        <ele>542</ele>
        <time>2021-03-13T12:56:02Z</time>
      </trkpt>
      <trkpt lat="45.38413" lon="5.65661">
        <ele>542.6</ele>
        <time>2021-03-13T12:56:06Z</time>
      </trkpt>
      <trkpt lat="45.38401" lon="5.6564">
        <ele>542</ele>
        <time>2021-03-13T12:56:10Z</time>
      </trkpt>
      <trkpt lat="45.38391" lon="5.65619">
        <ele>542.2</ele>
        <time>2021-03-13T12:56:14Z</time>
      </trkpt>
      <trkpt lat="45.38381" lon="5.656">
        <ele>542.4</ele>
        <time>2021-03-13T12:56:18Z</time>
      </trkpt>
      <trkpt lat="45.38372" lon="5.65582">
        <ele>543.8</ele>
        <time>2021-03-13T12:56:22Z</time>
      </trkpt>
      <trkpt lat="45.38365" lon="5.65561">
        <ele>544</ele>
        <time>2021-03-13T12:56:26Z</time>
      </trkpt>
      <trkpt lat="45.38362" lon="5.65537">
        <ele>543</ele>
        <time>2021-03-13T12:56:30Z</time>
      </trkpt>
      <trkpt lat="45.3836" lon="5.65513">
        <ele>543</ele>
        <time>2021-03-13T12:56:34Z</time>
      </trkpt>
      <trkpt lat="45.38358" lon="5.65488">
        <ele>543.6</ele>
        <time>2021-03-13T12:56:38Z</time>
      </trkpt>
      <trkpt lat="45.38355" lon="5.65464">
        <ele>543.6</ele>
        <time>2021-03-13T12:56:42Z</time>
      </trkpt>
      <trkpt lat="45.38352" lon="5.6544">
        <ele>543.8</ele>
        <time>2021-03-13T12:56:46Z</time>
      </trkpt>
      <trkpt lat="45.38348" lon="5.65416">
        <ele>544.2</ele>
        <time>2021-03-13T12:56:50Z</time>
      </trkpt>
      <trkpt lat="45.38344" lon="5.65395">
        <ele>544.8</ele>
        <time>2021-03-13T12:56:54Z</time>
      </trkpt>
      <trkpt lat="45.38337" lon="5.65375">
        <ele>545</ele>
        <time>2021-03-13T12:56:58Z</time>
      </trkpt>
      <trkpt lat="45.38327" lon="5.65357">
        <ele>545.2</ele>
        <time>2021-03-13T12:57:02Z</time>
      </trkpt>
      <trkpt lat="45.38316" lon="5.6534">
        <ele>544</ele>
        <time>2021-03-13T12:57:06Z</time>
      </trkpt>
      <trkpt lat="45.38303" lon="5.65324">
        <ele>544.8</ele>
        <time>2021-03-13T12:57:10Z</time>
      </trkpt>
      <trkpt lat="45.38295" lon="5.65307">
        <ele>545.4</ele>
        <time>2021-03-13T12:57:14Z</time>
      </trkpt>
      <trkpt lat="45.38297" lon="5.65282">
        <ele>544.4</ele>
        <time>2021-03-13T12:57:18Z</time>
      </trkpt>
      <trkpt lat="45.38296" lon="5.65255">
        <ele>544.2</ele>
        <time>2021-03-13T12:57:22Z</time>
      </trkpt>
      <trkpt lat="45.38297" lon="5.65229">
        <ele>543.8</ele>
        <time>2021-03-13T12:57:26Z</time>
      </trkpt>
      <trkpt lat="45.38298" lon="5.65204">
        <ele>544</ele>
        <time>2021-03-13T12:57:30Z</time>
      </trkpt>
      <trkpt lat="45.38299" lon="5.6518">
        <ele>543.8</ele>
        <time>2021-03-13T12:57:34Z</time>
      </trkpt>
      <trkpt lat="45.38301" lon="5.65155">
        <ele>544.8</ele>
        <time>2021-03-13T12:57:38Z</time>
      </trkpt>
      <trkpt lat="45.38302" lon="5.6513">
        <ele>545.4</ele>
        <time>2021-03-13T12:57:42Z</time>
      </trkpt>
      <trkpt lat="45.38303" lon="5.65104">
        <ele>544</ele>
        <time>2021-03-13T12:57:46Z</time>
      </trkpt>
      <trkpt lat="45.38303" lon="5.65078">
        <ele>544.2</ele>
        <time>2021-03-13T12:57:50Z</time>
      </trkpt>
      <trkpt lat="45.38304" lon="5.65051">
        <ele>544.6</ele>
        <time>2021-03-13T12:57:54Z</time>
      </trkpt>
      <trkpt lat="45.38307" lon="5.65025">
        <ele>544.4</ele>
        <time>2021-03-13T12:57:58Z</time>
      </trkpt>
      <trkpt lat="45.3831" lon="5.64999">
        <ele>544</ele>
        <time>2021-03-13T12:58:02Z</time>
      </trkpt>
      <trkpt lat="45.38313" lon="5.64973">
        <ele>544.2</ele>
        <time>2021-03-13T12:58:06Z</time>
      </trkpt>
      <trkpt lat="45.38316" lon="5.64946">
        <ele>543.2</ele>
        <time>2021-03-13T12:58:10Z</time>
      </trkpt>
      <trkpt lat="45.3832" lon="5.6492">
        <ele>544</ele>
        <time>2021-03-13T12:58:14Z</time>
      </trkpt>
      <trkpt lat="45.38323" lon="5.64895">
        <ele>543.8</ele>
        <time>2021-03-13T12:58:18Z</time>
      </trkpt>
      <trkpt lat="45.38325" lon="5.64868">
        <ele>543.4</ele>
        <time>2021-03-13T12:58:22Z</time>
      </trkpt>
      <trkpt lat="45.38327" lon="5.64841">
        <ele>543</ele>
        <time>2021-03-13T12:58:26Z</time>
      </trkpt>
      <trkpt lat="45.38327" lon="5.64814">
        <ele>543.6</ele>
        <time>2021-03-13T12:58:30Z</time>
      </trkpt>
      <trkpt lat="45.38328" lon="5.64788">
        <ele>542.8</ele>
        <time>2021-03-13T12:58:34Z</time>
      </trkpt>
      <trkpt lat="45.38328" lon="5.64762">
        <ele>542.2</ele>
        <time>2021-03-13T12:58:38Z</time>
      </trkpt>
      <trkpt lat="45.38328" lon="5.64736">
        <ele>542.8</ele>
        <time>2021-03-13T12:58:42Z</time>
      </trkpt>
      <trkpt lat="45.38326" lon="5.64711">
        <ele>541.6</ele>
        <time>2021-03-13T12:58:46Z</time>
      </trkpt>
      <trkpt lat="45.38322" lon="5.64685">
        <ele>541.6</ele>
        <time>2021-03-13T12:58:50Z</time>
      </trkpt>
      <trkpt lat="45.38317" lon="5.6466">
        <ele>542.8</ele>
        <time>2021-03-13T12:58:54Z</time>
      </trkpt>
      <trkpt lat="45.38311" lon="5.64636">
        <ele>542.2</ele>
        <time>2021-03-13T12:58:58Z</time>
      </trkpt>
      <trkpt lat="45.38305" lon="5.64612">
        <ele>541.6</ele>
        <time>2021-03-13T12:59:02Z</time>
      </trkpt>
      <trkpt lat="45.38299" lon="5.6459">
        <ele>542</ele>
        <time>2021-03-13T12:59:06Z</time>
      </trkpt>
      <trkpt lat="45.38295" lon="5.64566">
        <ele>542</ele>
        <time>2021-03-13T12:59:10Z</time>
      </trkpt>
      <trkpt lat="45.38289" lon="5.64542">
        <ele>542.4</ele>
        <time>2021-03-13T12:59:14Z</time>
      </trkpt>
      <trkpt lat="45.38291" lon="5.6452">
        <ele>541.8</ele>
        <time>2021-03-13T12:59:18Z</time>
      </trkpt>
      <trkpt lat="45.38281" lon="5.64502">
        <ele>541.6</ele>
        <time>2021-03-13T12:59:22Z</time>
      </trkpt>
      <trkpt lat="45.38267" lon="5.6449">
        <ele>541.6</ele>
        <time>2021-03-13T12:59:26Z</time>
      </trkpt>
      <trkpt lat="45.38253" lon="5.64477">
        <ele>542</ele>
        <time>2021-03-13T12:59:30Z</time>
      </trkpt>
      <trkpt lat="45.3824" lon="5.64463">
        <ele>542.6</ele>
        <time>2021-03-13T12:59:34Z</time>
      </trkpt>
      <trkpt lat="45.38229" lon="5.64447">
        <ele>541.8</ele>
        <time>2021-03-13T12:59:38Z</time>
      </trkpt>
      <trkpt lat="45.38217" lon="5.6443">
        <ele>541.8</ele>
        <time>2021-03-13T12:59:42Z</time>
      </trkpt>
      <trkpt lat="45.38205" lon="5.64413">
        <ele>542.2</ele>
        <time>2021-03-13T12:59:46Z</time>
      </trkpt>
      <trkpt lat="45.38194" lon="5.64395">
        <ele>542</ele>
        <time>2021-03-13T12:59:50Z</time>
      </trkpt>
      <trkpt lat="45.38183" lon="5.64377">
        <ele>542</ele>
        <time>2021-03-13T12:59:54Z</time>
      </trkpt>
      <trkpt lat="45.38172" lon="5.64359">
        <ele>542.4</ele>
        <time>2021-03-13T12:59:58Z</time>
      </trkpt>
      <trkpt lat="45.38162" lon="5.64342">
        <ele>542.8</ele>
        <time>2021-03-13T13:00:02Z</time>
      </trkpt>
      <trkpt lat="45.38151" lon="5.64325">
        <ele>543.4</ele>
        <time>2021-03-13T13:00:06Z</time>
      </trkpt>
      <trkpt lat="45.3814" lon="5.64307">
        <ele>542.4</ele>
        <time>2021-03-13T13:00:10Z</time>
      </trkpt>
      <trkpt lat="45.38129" lon="5.64289">
        <ele>542.8</ele>
        <time>2021-03-13T13:00:14Z</time>
      </trkpt>
      <trkpt lat="45.38117" lon="5.64271">
        <ele>542.4</ele>
        <time>2021-03-13T13:00:18Z</time>
      </trkpt>
      <trkpt lat="45.38105" lon="5.64255">
        <ele>543</ele>
        <time>2021-03-13T13:00:22Z</time>
      </trkpt>
      <trkpt lat="45.38092" lon="5.64242">
        <ele>543</ele>
        <time>2021-03-13T13:00:26Z</time>
      </trkpt>
      <trkpt lat="45.38077" lon="5.6423">
        <ele>542.8</ele>
        <time>2021-03-13T13:00:30Z</time>
      </trkpt>
      <trkpt lat="45.38064" lon="5.6422">
        <ele>543</ele>
        <time>2021-03-13T13:00:34Z</time>
      </trkpt>
      <trkpt lat="45.3805" lon="5.64211">
        <ele>543</ele>
        <time>2021-03-13T13:00:38Z</time>
      </trkpt>
      <trkpt lat="45.38037" lon="5.64202">
        <ele>543.8</ele>
        <time>2021-03-13T13:00:42Z</time>
      </trkpt>
      <trkpt lat="45.38025" lon="5.64191">
        <ele>543.4</ele>
        <time>2021-03-13T13:00:46Z</time>
      </trkpt>
      <trkpt lat="45.38014" lon="5.64174">
        <ele>543.6</ele>
        <time>2021-03-13T13:00:50Z</time>
      </trkpt>
      <trkpt lat="45.37998" lon="5.64167">
        <ele>544.8</ele>
        <time>2021-03-13T13:00:54Z</time>
      </trkpt>
      <trkpt lat="45.37983" lon="5.64161">
        <ele>544</ele>
        <time>2021-03-13T13:00:58Z</time>
      </trkpt>
      <trkpt lat="45.37968" lon="5.64153">
        <ele>543.6</ele>
        <time>2021-03-13T13:01:02Z</time>
      </trkpt>
      <trkpt lat="45.37954" lon="5.64143">
        <ele>543.6</ele>
        <time>2021-03-13T13:01:06Z</time>
      </trkpt>
      <trkpt lat="45.37939" lon="5.64132">
        <ele>543.6</ele>
        <time>2021-03-13T13:01:10Z</time>
      </trkpt>
      <trkpt lat="45.37925" lon="5.64122">
        <ele>543.6</ele>
        <time>2021-03-13T13:01:14Z</time>
      </trkpt>
      <trkpt lat="45.37911" lon="5.64109">
        <ele>544.8</ele>
        <time>2021-03-13T13:01:18Z</time>
      </trkpt>
      <trkpt lat="45.37906" lon="5.64086">
        <ele>543.8</ele>
        <time>2021-03-13T13:01:22Z</time>
      </trkpt>
      <trkpt lat="45.37908" lon="5.6406">
        <ele>543.4</ele>
        <time>2021-03-13T13:01:26Z</time>
      </trkpt>
      <trkpt lat="45.37911" lon="5.64035">
        <ele>543.2</ele>
        <time>2021-03-13T13:01:30Z</time>
      </trkpt>
      <trkpt lat="45.37915" lon="5.64009">
        <ele>544</ele>
        <time>2021-03-13T13:01:34Z</time>
      </trkpt>
      <trkpt lat="45.3792" lon="5.63981">
        <ele>543.2</ele>
        <time>2021-03-13T13:01:38Z</time>
      </trkpt>
      <trkpt lat="45.37925" lon="5.63954">
        <ele>543</ele>
        <time>2021-03-13T13:01:42Z</time>
      </trkpt>
      <trkpt lat="45.37929" lon="5.63926">
        <ele>542.6</ele>
        <time>2021-03-13T13:01:46Z</time>
      </trkpt>
      <trkpt lat="45.37935" lon="5.63899">
        <ele>541.8</ele>
        <time>2021-03-13T13:01:50Z</time>
      </trkpt>
      <trkpt lat="45.37941" lon="5.63873">
        <ele>541.4</ele>
        <time>2021-03-13T13:01:54Z</time>
      </trkpt>
      <trkpt lat="45.37947" lon="5.63845">
        <ele>541</ele>
        <time>2021-03-13T13:01:58Z</time>
      </trkpt>
      <trkpt lat="45.37953" lon="5.63818">
        <ele>539.8</ele>
        <time>2021-03-13T13:02:02Z</time>
      </trkpt>
      <trkpt lat="45.37959" lon="5.63789">
        <ele>539.8</ele>
        <time>2021-03-13T13:02:06Z</time>
      </trkpt>
      <trkpt lat="45.37965" lon="5.63761">
        <ele>541.2</ele>
        <time>2021-03-13T13:02:10Z</time>
      </trkpt>
      <trkpt lat="45.37971" lon="5.63734">
        <ele>539.8</ele>
        <time>2021-03-13T13:02:14Z</time>
      </trkpt>
      <trkpt lat="45.37977" lon="5.63708">
        <ele>540.4</ele>
        <time>2021-03-13T13:02:18Z</time>
      </trkpt>
      <trkpt lat="45.37985" lon="5.63681">
        <ele>539.6</ele>
        <time>2021-03-13T13:02:22Z</time>
      </trkpt>
      <trkpt lat="45.37994" lon="5.63653">
        <ele>539.4</ele>
        <time>2021-03-13T13:02:26Z</time>
      </trkpt>
      <trkpt lat="45.38003" lon="5.63626">
        <ele>539.8</ele>
        <time>2021-03-13T13:02:30Z</time>
      </trkpt>
      <trkpt lat="45.38013" lon="5.63598">
        <ele>538.6</ele>
        <time>2021-03-13T13:02:34Z</time>
      </trkpt>
      <trkpt lat="45.38024" lon="5.63571">
        <ele>539.2</ele>
        <time>2021-03-13T13:02:38Z</time>
      </trkpt>
      <trkpt lat="45.38035" lon="5.63543">
        <ele>538.4</ele>
        <time>2021-03-13T13:02:42Z</time>
      </trkpt>
      <trkpt lat="45.38045" lon="5.63516">
        <ele>538.4</ele>
        <time>2021-03-13T13:02:46Z</time>
      </trkpt>
      <trkpt lat="45.38054" lon="5.6349">
        <ele>538.8</ele>
        <time>2021-03-13T13:02:50Z</time>
      </trkpt>
      <trkpt lat="45.38062" lon="5.63464">
        <ele>538.6</ele>
        <time>2021-03-13T13:02:54Z</time>
      </trkpt>
      <trkpt lat="45.38067" lon="5.63436">
        <ele>537.6</ele>
        <time>2021-03-13T13:02:58Z</time>
      </trkpt>
      <trkpt lat="45.38068" lon="5.63403">
        <ele>536.2</ele>
        <time>2021-03-13T13:03:02Z</time>
      </trkpt>
      <trkpt lat="45.38064" lon="5.63369">
        <ele>533.8</ele>
        <time>2021-03-13T13:03:06Z</time>
      </trkpt>
      <trkpt lat="45.38064" lon="5.63369">
        <ele>532.4</ele>
        <time>2021-03-13T13:03:10Z</time>
      </trkpt>
      <trkpt lat="45.38061" lon="5.63371">
        <ele>531.8</ele>
        <time>2021-03-13T13:03:30Z</time>
      </trkpt>
      <trkpt lat="45.38063" lon="5.63381">
        <ele>533</ele>
        <time>2021-03-13T13:03:34Z</time>
      </trkpt>
      <trkpt lat="45.38064" lon="5.63391">
        <ele>533.6</ele>
        <time>2021-03-13T13:03:38Z</time>
      </trkpt>
      <trkpt lat="45.38065" lon="5.63406">
        <ele>534.8</ele>
        <time>2021-03-13T13:03:42Z</time>
      </trkpt>
      <trkpt lat="45.38065" lon="5.63424">
        <ele>535</ele>
        <time>2021-03-13T13:03:46Z</time>
      </trkpt>
      <trkpt lat="45.38062" lon="5.63441">
        <ele>536.6</ele>
        <time>2021-03-13T13:03:50Z</time>
      </trkpt>
      <trkpt lat="45.38059" lon="5.63458">
        <ele>536.8</ele>
        <time>2021-03-13T13:03:54Z</time>
      </trkpt>
      <trkpt lat="45.38055" lon="5.63474">
        <ele>537.8</ele>
        <time>2021-03-13T13:03:58Z</time>
      </trkpt>
      <trkpt lat="45.38051" lon="5.63488">
        <ele>537.8</ele>
        <time>2021-03-13T13:04:02Z</time>
      </trkpt>
      <trkpt lat="45.38047" lon="5.63499">
        <ele>538</ele>
        <time>2021-03-13T13:04:06Z</time>
      </trkpt>
      <trkpt lat="45.38047" lon="5.63499">
        <ele>538</ele>
        <time>2021-03-13T13:04:10Z</time>
      </trkpt>
      <trkpt lat="45.3804" lon="5.63521">
        <ele>538.2</ele>
        <time>2021-03-13T13:04:26Z</time>
      </trkpt>
      <trkpt lat="45.38033" lon="5.63539">
        <ele>538</ele>
        <time>2021-03-13T13:04:30Z</time>
      </trkpt>
      <trkpt lat="45.38026" lon="5.6356">
        <ele>538.8</ele>
        <time>2021-03-13T13:04:34Z</time>
      </trkpt>
      <trkpt lat="45.38018" lon="5.63579">
        <ele>539.8</ele>
        <time>2021-03-13T13:04:38Z</time>
      </trkpt>
      <trkpt lat="45.3801" lon="5.63598">
        <ele>539.4</ele>
        <time>2021-03-13T13:04:42Z</time>
      </trkpt>
      <trkpt lat="45.38002" lon="5.63618">
        <ele>538.8</ele>
        <time>2021-03-13T13:04:46Z</time>
      </trkpt>
      <trkpt lat="45.37995" lon="5.63639">
        <ele>539.6</ele>
        <time>2021-03-13T13:04:50Z</time>
      </trkpt>
      <trkpt lat="45.37988" lon="5.6366">
        <ele>540.8</ele>
        <time>2021-03-13T13:04:54Z</time>
      </trkpt>
      <trkpt lat="45.37981" lon="5.63682">
        <ele>540.4</ele>
        <time>2021-03-13T13:04:58Z</time>
      </trkpt>
      <trkpt lat="45.37975" lon="5.63704">
        <ele>541</ele>
        <time>2021-03-13T13:05:02Z</time>
      </trkpt>
      <trkpt lat="45.37969" lon="5.63728">
        <ele>541</ele>
        <time>2021-03-13T13:05:06Z</time>
      </trkpt>
      <trkpt lat="45.37964" lon="5.63752">
        <ele>541.2</ele>
        <time>2021-03-13T13:05:10Z</time>
      </trkpt>
      <trkpt lat="45.37958" lon="5.63777">
        <ele>541.8</ele>
        <time>2021-03-13T13:05:14Z</time>
      </trkpt>
      <trkpt lat="45.37953" lon="5.63801">
        <ele>542</ele>
        <time>2021-03-13T13:05:18Z</time>
      </trkpt>
      <trkpt lat="45.37948" lon="5.63827">
        <ele>542.2</ele>
        <time>2021-03-13T13:05:22Z</time>
      </trkpt>
      <trkpt lat="45.37942" lon="5.63851">
        <ele>542</ele>
        <time>2021-03-13T13:05:26Z</time>
      </trkpt>
      <trkpt lat="45.37936" lon="5.63876">
        <ele>542.4</ele>
        <time>2021-03-13T13:05:30Z</time>
      </trkpt>
      <trkpt lat="45.37931" lon="5.639">
        <ele>542.6</ele>
        <time>2021-03-13T13:05:34Z</time>
      </trkpt>
      <trkpt lat="45.37926" lon="5.63924">
        <ele>542.6</ele>
        <time>2021-03-13T13:05:38Z</time>
      </trkpt>
      <trkpt lat="45.37922" lon="5.63949">
        <ele>543.6</ele>
        <time>2021-03-13T13:05:42Z</time>
      </trkpt>
      <trkpt lat="45.37918" lon="5.63974">
        <ele>543</ele>
        <time>2021-03-13T13:05:46Z</time>
      </trkpt>
      <trkpt lat="45.37915" lon="5.63998">
        <ele>543.6</ele>
        <time>2021-03-13T13:05:50Z</time>
      </trkpt>
      <trkpt lat="45.37911" lon="5.6402">
        <ele>543.6</ele>
        <time>2021-03-13T13:05:54Z</time>
      </trkpt>
      <trkpt lat="45.37908" lon="5.64043">
        <ele>543.8</ele>
        <time>2021-03-13T13:05:58Z</time>
      </trkpt>
      <trkpt lat="45.37905" lon="5.64065">
        <ele>544.8</ele>
        <time>2021-03-13T13:06:02Z</time>
      </trkpt>
      <trkpt lat="45.37903" lon="5.64086">
        <ele>545.6</ele>
        <time>2021-03-13T13:06:06Z</time>
      </trkpt>
      <trkpt lat="45.37907" lon="5.64106">
        <ele>545.6</ele>
        <time>2021-03-13T13:06:10Z</time>
      </trkpt>
      <trkpt lat="45.37917" lon="5.6412">
        <ele>545.6</ele>
        <time>2021-03-13T13:06:14Z</time>
      </trkpt>
      <trkpt lat="45.37924" lon="5.64136">
        <ele>545.4</ele>
        <time>2021-03-13T13:06:18Z</time>
      </trkpt>
      <trkpt lat="45.37915" lon="5.64152">
        <ele>545.8</ele>
        <time>2021-03-13T13:06:22Z</time>
      </trkpt>
      <trkpt lat="45.37911" lon="5.64174">
        <ele>544.8</ele>
        <time>2021-03-13T13:06:26Z</time>
      </trkpt>
      <trkpt lat="45.37909" lon="5.64197">
        <ele>546.2</ele>
        <time>2021-03-13T13:06:30Z</time>
      </trkpt>
      <trkpt lat="45.37907" lon="5.6422">
        <ele>546.4</ele>
        <time>2021-03-13T13:06:34Z</time>
      </trkpt>
      <trkpt lat="45.37904" lon="5.64243">
        <ele>545.4</ele>
        <time>2021-03-13T13:06:38Z</time>
      </trkpt>
      <trkpt lat="45.379" lon="5.64267">
        <ele>546.8</ele>
        <time>2021-03-13T13:06:42Z</time>
      </trkpt>
      <trkpt lat="45.37899" lon="5.6429">
        <ele>546.6</ele>
        <time>2021-03-13T13:06:46Z</time>
      </trkpt>
      <trkpt lat="45.37899" lon="5.64313">
        <ele>547</ele>
        <time>2021-03-13T13:06:50Z</time>
      </trkpt>
      <trkpt lat="45.37896" lon="5.64336">
        <ele>547.4</ele>
        <time>2021-03-13T13:06:54Z</time>
      </trkpt>
      <trkpt lat="45.37891" lon="5.64359">
        <ele>547.8</ele>
        <time>2021-03-13T13:06:58Z</time>
      </trkpt>
      <trkpt lat="45.37887" lon="5.64383">
        <ele>547.6</ele>
        <time>2021-03-13T13:07:02Z</time>
      </trkpt>
      <trkpt lat="45.37883" lon="5.64406">
        <ele>548</ele>
        <time>2021-03-13T13:07:06Z</time>
      </trkpt>
      <trkpt lat="45.37878" lon="5.6443">
        <ele>548</ele>
        <time>2021-03-13T13:07:10Z</time>
      </trkpt>
      <trkpt lat="45.37873" lon="5.64454">
        <ele>547.8</ele>
        <time>2021-03-13T13:07:14Z</time>
      </trkpt>
      <trkpt lat="45.37872" lon="5.64479">
        <ele>547.4</ele>
        <time>2021-03-13T13:07:18Z</time>
      </trkpt>
      <trkpt lat="45.37874" lon="5.64504">
        <ele>547.6</ele>
        <time>2021-03-13T13:07:22Z</time>
      </trkpt>
      <trkpt lat="45.37875" lon="5.64531">
        <ele>548</ele>
        <time>2021-03-13T13:07:26Z</time>
      </trkpt>
      <trkpt lat="45.37871" lon="5.64556">
        <ele>549.6</ele>
        <time>2021-03-13T13:07:30Z</time>
      </trkpt>
      <trkpt lat="45.37865" lon="5.64577">
        <ele>548.2</ele>
        <time>2021-03-13T13:07:34Z</time>
      </trkpt>
      <trkpt lat="45.3786" lon="5.64589">
        <ele>548.6</ele>
        <time>2021-03-13T13:07:38Z</time>
      </trkpt>
      <trkpt lat="45.37852" lon="5.64602">
        <ele>549.2</ele>
        <time>2021-03-13T13:07:42Z</time>
      </trkpt>
      <trkpt lat="45.37843" lon="5.64622">
        <ele>549.4</ele>
        <time>2021-03-13T13:07:46Z</time>
      </trkpt>
      <trkpt lat="45.37832" lon="5.64641">
        <ele>549</ele>
        <time>2021-03-13T13:07:50Z</time>
      </trkpt>
      <trkpt lat="45.37819" lon="5.64658">
        <ele>549.6</ele>
        <time>2021-03-13T13:07:54Z</time>
      </trkpt>
      <trkpt lat="45.37806" lon="5.64654">
        <ele>549.6</ele>
        <time>2021-03-13T13:07:58Z</time>
      </trkpt>
      <trkpt lat="45.37793" lon="5.64639">
        <ele>549</ele>
        <time>2021-03-13T13:08:02Z</time>
      </trkpt>
      <trkpt lat="45.37779" lon="5.64625">
        <ele>549.2</ele>
        <time>2021-03-13T13:08:06Z</time>
      </trkpt>
      <trkpt lat="45.37765" lon="5.64607">
        <ele>547.8</ele>
        <time>2021-03-13T13:08:10Z</time>
      </trkpt>
      <trkpt lat="45.37762" lon="5.64584">
        <ele>548.4</ele>
        <time>2021-03-13T13:08:14Z</time>
      </trkpt>
      <trkpt lat="45.37754" lon="5.64571">
        <ele>548.8</ele>
        <time>2021-03-13T13:08:18Z</time>
      </trkpt>
      <trkpt lat="45.37746" lon="5.64564">
        <ele>548.6</ele>
        <time>2021-03-13T13:08:22Z</time>
      </trkpt>
      <trkpt lat="45.37746" lon="5.64564">
        <ele>548.4</ele>
        <time>2021-03-13T13:08:26Z</time>
      </trkpt>
      <trkpt lat="45.37746" lon="5.64564">
        <ele>548.6</ele>
        <time>2021-03-13T13:08:37Z</time>
      </trkpt>
      <trkpt lat="45.37746" lon="5.64564">
        <ele>548.4</ele>
        <time>2021-03-13T13:08:41Z</time>
      </trkpt>
      <trkpt lat="45.37746" lon="5.64564">
        <ele>548.2</ele>
        <time>2021-03-13T13:08:45Z</time>
      </trkpt>
      <trkpt lat="45.37746" lon="5.64564">
        <ele>550</ele>
        <time>2021-03-13T13:08:49Z</time>
      </trkpt>
      <trkpt lat="45.37746" lon="5.64564">
        <ele>548.2</ele>
        <time>2021-03-13T13:08:53Z</time>
      </trkpt>
      <trkpt lat="45.37746" lon="5.64564">
        <ele>548.4</ele>
        <time>2021-03-13T13:08:57Z</time>
      </trkpt>
    </trkseg>
  </trk>
</gpx>